<?xml version="1.0" encoding="UTF-8"?>
<gpx version="1.1" creator="https://www.youtrack.es" xsi:schemaLocation="http://www.topografix.com/GPX/1/1 http://www.topografix.com/GPX/1/1/gpx.xsd http://www.garmin.com/xmlschemas/GpxExtensions/v3 http://www.garmin.com/xmlschemas/GpxExtensionsv3.xsd http://www.garmin.com/xmlschemas/TrackPointExtension/v1 http://www.garmin.com/xmlschemas/TrackPointExtensionv1.xsd" xmlns:gpxtpx="http://www.garmin.com/xmlschemas/TrackPointExtension/v1" xmlns:gpxx="http://www.garmin.com/xmlschemas/GpxExtensions/v3" xmlns:xsi="http://www.w3.org/2001/XMLSchema-instance">
  <metadata>
    <link href="https://www.youtrack.es">
      <text>YouTrack.es</text>
    </link>
    <time>2026-05-07T18:24:36Z</time>
  </metadata>
  <trk>
    <src>https://www.youtrack.es</src>
    <link href="https://www.youtrack.es/ruta/39757-ruta-ibelitas">
      <text>YouTrack.es</text>
    </link>
    <trkseg>
      <trkpt lat="41.844787" lon="2.388418">
        <ele>786.199</ele>
        <time>2021-09-25T10:02:29Z</time>
      </trkpt>
      <trkpt lat="41.844723" lon="2.388428">
        <ele>786.107</ele>
        <time>2021-09-25T10:03:32Z</time>
      </trkpt>
      <trkpt lat="41.844678" lon="2.388418">
        <ele>786.127</ele>
        <time>2021-09-25T10:03:37Z</time>
      </trkpt>
      <trkpt lat="41.844627" lon="2.388411">
        <ele>786.008</ele>
        <time>2021-09-25T10:03:41Z</time>
      </trkpt>
      <trkpt lat="41.844578" lon="2.388383">
        <ele>786.027</ele>
        <time>2021-09-25T10:03:45Z</time>
      </trkpt>
      <trkpt lat="41.844517" lon="2.388312">
        <ele>786.443</ele>
        <time>2021-09-25T10:03:55Z</time>
      </trkpt>
      <trkpt lat="41.844481" lon="2.388260">
        <ele>786.686</ele>
        <time>2021-09-25T10:04:00Z</time>
      </trkpt>
      <trkpt lat="41.844461" lon="2.388193">
        <ele>787.054</ele>
        <time>2021-09-25T10:04:08Z</time>
      </trkpt>
      <trkpt lat="41.844454" lon="2.388133">
        <ele>788.227</ele>
        <time>2021-09-25T10:04:21Z</time>
      </trkpt>
      <trkpt lat="41.844429" lon="2.388070">
        <ele>788.821</ele>
        <time>2021-09-25T10:04:34Z</time>
      </trkpt>
      <trkpt lat="41.844403" lon="2.388012">
        <ele>789.086</ele>
        <time>2021-09-25T10:04:37Z</time>
      </trkpt>
      <trkpt lat="41.844375" lon="2.387955">
        <ele>789.236</ele>
        <time>2021-09-25T10:04:43Z</time>
      </trkpt>
      <trkpt lat="41.844420" lon="2.387907">
        <ele>789.477</ele>
        <time>2021-09-25T10:04:51Z</time>
      </trkpt>
      <trkpt lat="41.844471" lon="2.387895">
        <ele>789.661</ele>
        <time>2021-09-25T10:04:56Z</time>
      </trkpt>
      <trkpt lat="41.844521" lon="2.387865">
        <ele>789.627</ele>
        <time>2021-09-25T10:05:01Z</time>
      </trkpt>
      <trkpt lat="41.844570" lon="2.387807">
        <ele>789.608</ele>
        <time>2021-09-25T10:05:04Z</time>
      </trkpt>
      <trkpt lat="41.844564" lon="2.387741">
        <ele>789.475</ele>
        <time>2021-09-25T10:05:07Z</time>
      </trkpt>
      <trkpt lat="41.844559" lon="2.387677">
        <ele>789.431</ele>
        <time>2021-09-25T10:05:11Z</time>
      </trkpt>
      <trkpt lat="41.844555" lon="2.387599">
        <ele>789.424</ele>
        <time>2021-09-25T10:05:15Z</time>
      </trkpt>
      <trkpt lat="41.844538" lon="2.387538">
        <ele>789.722</ele>
        <time>2021-09-25T10:05:21Z</time>
      </trkpt>
      <trkpt lat="41.844520" lon="2.387472">
        <ele>790.225</ele>
        <time>2021-09-25T10:05:27Z</time>
      </trkpt>
      <trkpt lat="41.844529" lon="2.387384">
        <ele>790.319</ele>
        <time>2021-09-25T10:05:31Z</time>
      </trkpt>
      <trkpt lat="41.844540" lon="2.387315">
        <ele>790.514</ele>
        <time>2021-09-25T10:05:38Z</time>
      </trkpt>
      <trkpt lat="41.844559" lon="2.387256">
        <ele>790.444</ele>
        <time>2021-09-25T10:05:44Z</time>
      </trkpt>
      <trkpt lat="41.844587" lon="2.387186">
        <ele>790.425</ele>
        <time>2021-09-25T10:05:50Z</time>
      </trkpt>
      <trkpt lat="41.844599" lon="2.387127">
        <ele>790.426</ele>
        <time>2021-09-25T10:05:53Z</time>
      </trkpt>
      <trkpt lat="41.844601" lon="2.387058">
        <ele>790.308</ele>
        <time>2021-09-25T10:05:56Z</time>
      </trkpt>
      <trkpt lat="41.844599" lon="2.386992">
        <ele>790.308</ele>
        <time>2021-09-25T10:06:00Z</time>
      </trkpt>
      <trkpt lat="41.844556" lon="2.386943">
        <ele>790.370</ele>
        <time>2021-09-25T10:06:04Z</time>
      </trkpt>
      <trkpt lat="41.844517" lon="2.386905">
        <ele>790.466</ele>
        <time>2021-09-25T10:06:08Z</time>
      </trkpt>
      <trkpt lat="41.844480" lon="2.386863">
        <ele>791.149</ele>
        <time>2021-09-25T10:06:19Z</time>
      </trkpt>
      <trkpt lat="41.844436" lon="2.386828">
        <ele>791.637</ele>
        <time>2021-09-25T10:06:26Z</time>
      </trkpt>
      <trkpt lat="41.844398" lon="2.386778">
        <ele>792.790</ele>
        <time>2021-09-25T10:07:16Z</time>
      </trkpt>
      <trkpt lat="41.844385" lon="2.386709">
        <ele>792.664</ele>
        <time>2021-09-25T10:07:34Z</time>
      </trkpt>
      <trkpt lat="41.844384" lon="2.386640">
        <ele>792.689</ele>
        <time>2021-09-25T10:07:41Z</time>
      </trkpt>
      <trkpt lat="41.844418" lon="2.386586">
        <ele>792.699</ele>
        <time>2021-09-25T10:07:49Z</time>
      </trkpt>
      <trkpt lat="41.844455" lon="2.386531">
        <ele>792.648</ele>
        <time>2021-09-25T10:07:59Z</time>
      </trkpt>
      <trkpt lat="41.844475" lon="2.386462">
        <ele>792.761</ele>
        <time>2021-09-25T10:08:03Z</time>
      </trkpt>
      <trkpt lat="41.844487" lon="2.386394">
        <ele>794.717</ele>
        <time>2021-09-25T10:08:09Z</time>
      </trkpt>
      <trkpt lat="41.844517" lon="2.386331">
        <ele>795.408</ele>
        <time>2021-09-25T10:08:14Z</time>
      </trkpt>
      <trkpt lat="41.844469" lon="2.386304">
        <ele>796.632</ele>
        <time>2021-09-25T10:08:21Z</time>
      </trkpt>
      <trkpt lat="41.844461" lon="2.386242">
        <ele>800.018</ele>
        <time>2021-09-25T10:08:49Z</time>
      </trkpt>
      <trkpt lat="41.844477" lon="2.386177">
        <ele>801.181</ele>
        <time>2021-09-25T10:08:57Z</time>
      </trkpt>
      <trkpt lat="41.844478" lon="2.386108">
        <ele>802.599</ele>
        <time>2021-09-25T10:09:02Z</time>
      </trkpt>
      <trkpt lat="41.844484" lon="2.386047">
        <ele>803.272</ele>
        <time>2021-09-25T10:09:06Z</time>
      </trkpt>
      <trkpt lat="41.844460" lon="2.385986">
        <ele>803.746</ele>
        <time>2021-09-25T10:09:11Z</time>
      </trkpt>
      <trkpt lat="41.844443" lon="2.385910">
        <ele>803.941</ele>
        <time>2021-09-25T10:09:14Z</time>
      </trkpt>
      <trkpt lat="41.844424" lon="2.385849">
        <ele>804.061</ele>
        <time>2021-09-25T10:09:20Z</time>
      </trkpt>
      <trkpt lat="41.844423" lon="2.385782">
        <ele>804.193</ele>
        <time>2021-09-25T10:09:25Z</time>
      </trkpt>
      <trkpt lat="41.844395" lon="2.385718">
        <ele>804.265</ele>
        <time>2021-09-25T10:09:29Z</time>
      </trkpt>
      <trkpt lat="41.844356" lon="2.385666">
        <ele>804.321</ele>
        <time>2021-09-25T10:09:32Z</time>
      </trkpt>
      <trkpt lat="41.844315" lon="2.385635">
        <ele>804.408</ele>
        <time>2021-09-25T10:09:35Z</time>
      </trkpt>
      <trkpt lat="41.844283" lon="2.385583">
        <ele>804.597</ele>
        <time>2021-09-25T10:09:38Z</time>
      </trkpt>
      <trkpt lat="41.844274" lon="2.385518">
        <ele>804.613</ele>
        <time>2021-09-25T10:09:45Z</time>
      </trkpt>
      <trkpt lat="41.844247" lon="2.385453">
        <ele>804.776</ele>
        <time>2021-09-25T10:09:51Z</time>
      </trkpt>
      <trkpt lat="41.844227" lon="2.385381">
        <ele>804.914</ele>
        <time>2021-09-25T10:09:57Z</time>
      </trkpt>
      <trkpt lat="41.844199" lon="2.385319">
        <ele>805.077</ele>
        <time>2021-09-25T10:10:01Z</time>
      </trkpt>
      <trkpt lat="41.844173" lon="2.385262">
        <ele>805.181</ele>
        <time>2021-09-25T10:10:06Z</time>
      </trkpt>
      <trkpt lat="41.844153" lon="2.385191">
        <ele>805.786</ele>
        <time>2021-09-25T10:10:12Z</time>
      </trkpt>
      <trkpt lat="41.844135" lon="2.385133">
        <ele>806.276</ele>
        <time>2021-09-25T10:10:17Z</time>
      </trkpt>
      <trkpt lat="41.844121" lon="2.385070">
        <ele>806.958</ele>
        <time>2021-09-25T10:10:23Z</time>
      </trkpt>
      <trkpt lat="41.844102" lon="2.385014">
        <ele>807.252</ele>
        <time>2021-09-25T10:10:28Z</time>
      </trkpt>
      <trkpt lat="41.844077" lon="2.384961">
        <ele>807.817</ele>
        <time>2021-09-25T10:10:34Z</time>
      </trkpt>
      <trkpt lat="41.844060" lon="2.384897">
        <ele>807.908</ele>
        <time>2021-09-25T10:10:38Z</time>
      </trkpt>
      <trkpt lat="41.844055" lon="2.384828">
        <ele>807.953</ele>
        <time>2021-09-25T10:10:43Z</time>
      </trkpt>
      <trkpt lat="41.844046" lon="2.384768">
        <ele>807.829</ele>
        <time>2021-09-25T10:10:47Z</time>
      </trkpt>
      <trkpt lat="41.844027" lon="2.384692">
        <ele>807.732</ele>
        <time>2021-09-25T10:10:51Z</time>
      </trkpt>
      <trkpt lat="41.844049" lon="2.384630">
        <ele>807.620</ele>
        <time>2021-09-25T10:10:54Z</time>
      </trkpt>
      <trkpt lat="41.844053" lon="2.384565">
        <ele>807.353</ele>
        <time>2021-09-25T10:10:59Z</time>
      </trkpt>
      <trkpt lat="41.844041" lon="2.384501">
        <ele>807.157</ele>
        <time>2021-09-25T10:11:03Z</time>
      </trkpt>
      <trkpt lat="41.844024" lon="2.384437">
        <ele>806.932</ele>
        <time>2021-09-25T10:11:08Z</time>
      </trkpt>
      <trkpt lat="41.844012" lon="2.384374">
        <ele>806.872</ele>
        <time>2021-09-25T10:11:13Z</time>
      </trkpt>
      <trkpt lat="41.844002" lon="2.384304">
        <ele>806.551</ele>
        <time>2021-09-25T10:11:17Z</time>
      </trkpt>
      <trkpt lat="41.843985" lon="2.384247">
        <ele>806.301</ele>
        <time>2021-09-25T10:11:22Z</time>
      </trkpt>
      <trkpt lat="41.843968" lon="2.384189">
        <ele>806.011</ele>
        <time>2021-09-25T10:11:27Z</time>
      </trkpt>
      <trkpt lat="41.843939" lon="2.384133">
        <ele>805.708</ele>
        <time>2021-09-25T10:11:32Z</time>
      </trkpt>
      <trkpt lat="41.843924" lon="2.384068">
        <ele>805.563</ele>
        <time>2021-09-25T10:11:38Z</time>
      </trkpt>
      <trkpt lat="41.843905" lon="2.384013">
        <ele>805.299</ele>
        <time>2021-09-25T10:11:43Z</time>
      </trkpt>
      <trkpt lat="41.843884" lon="2.383950">
        <ele>805.192</ele>
        <time>2021-09-25T10:11:46Z</time>
      </trkpt>
      <trkpt lat="41.843878" lon="2.383884">
        <ele>804.690</ele>
        <time>2021-09-25T10:11:49Z</time>
      </trkpt>
      <trkpt lat="41.843899" lon="2.383816">
        <ele>804.353</ele>
        <time>2021-09-25T10:11:54Z</time>
      </trkpt>
      <trkpt lat="41.843941" lon="2.383769">
        <ele>804.057</ele>
        <time>2021-09-25T10:11:59Z</time>
      </trkpt>
      <trkpt lat="41.843985" lon="2.383748">
        <ele>803.872</ele>
        <time>2021-09-25T10:12:03Z</time>
      </trkpt>
      <trkpt lat="41.844035" lon="2.383762">
        <ele>803.442</ele>
        <time>2021-09-25T10:12:07Z</time>
      </trkpt>
      <trkpt lat="41.844091" lon="2.383805">
        <ele>803.042</ele>
        <time>2021-09-25T10:12:11Z</time>
      </trkpt>
      <trkpt lat="41.844138" lon="2.383830">
        <ele>802.522</ele>
        <time>2021-09-25T10:12:16Z</time>
      </trkpt>
      <trkpt lat="41.844181" lon="2.383889">
        <ele>801.714</ele>
        <time>2021-09-25T10:12:21Z</time>
      </trkpt>
      <trkpt lat="41.844213" lon="2.383936">
        <ele>801.408</ele>
        <time>2021-09-25T10:12:27Z</time>
      </trkpt>
      <trkpt lat="41.844242" lon="2.384002">
        <ele>800.612</ele>
        <time>2021-09-25T10:12:34Z</time>
      </trkpt>
      <trkpt lat="41.844284" lon="2.384037">
        <ele>800.018</ele>
        <time>2021-09-25T10:12:41Z</time>
      </trkpt>
      <trkpt lat="41.844324" lon="2.384002">
        <ele>799.591</ele>
        <time>2021-09-25T10:12:47Z</time>
      </trkpt>
      <trkpt lat="41.844320" lon="2.383938">
        <ele>798.549</ele>
        <time>2021-09-25T10:12:56Z</time>
      </trkpt>
      <trkpt lat="41.844309" lon="2.383859">
        <ele>798.112</ele>
        <time>2021-09-25T10:13:00Z</time>
      </trkpt>
      <trkpt lat="41.844305" lon="2.383789">
        <ele>797.246</ele>
        <time>2021-09-25T10:13:03Z</time>
      </trkpt>
      <trkpt lat="41.844298" lon="2.383729">
        <ele>796.591</ele>
        <time>2021-09-25T10:13:10Z</time>
      </trkpt>
      <trkpt lat="41.844261" lon="2.383684">
        <ele>796.091</ele>
        <time>2021-09-25T10:13:17Z</time>
      </trkpt>
      <trkpt lat="41.844241" lon="2.383626">
        <ele>795.715</ele>
        <time>2021-09-25T10:13:20Z</time>
      </trkpt>
      <trkpt lat="41.844232" lon="2.383566">
        <ele>795.265</ele>
        <time>2021-09-25T10:13:24Z</time>
      </trkpt>
      <trkpt lat="41.844218" lon="2.383500">
        <ele>794.411</ele>
        <time>2021-09-25T10:13:30Z</time>
      </trkpt>
      <trkpt lat="41.844249" lon="2.383444">
        <ele>794.008</ele>
        <time>2021-09-25T10:13:39Z</time>
      </trkpt>
      <trkpt lat="41.844298" lon="2.383396">
        <ele>793.229</ele>
        <time>2021-09-25T10:13:43Z</time>
      </trkpt>
      <trkpt lat="41.844340" lon="2.383362">
        <ele>792.575</ele>
        <time>2021-09-25T10:13:47Z</time>
      </trkpt>
      <trkpt lat="41.844389" lon="2.383325">
        <ele>792.078</ele>
        <time>2021-09-25T10:13:51Z</time>
      </trkpt>
      <trkpt lat="41.844433" lon="2.383305">
        <ele>791.626</ele>
        <time>2021-09-25T10:13:54Z</time>
      </trkpt>
      <trkpt lat="41.844469" lon="2.383244">
        <ele>791.269</ele>
        <time>2021-09-25T10:13:58Z</time>
      </trkpt>
      <trkpt lat="41.844487" lon="2.383182">
        <ele>791.083</ele>
        <time>2021-09-25T10:14:02Z</time>
      </trkpt>
      <trkpt lat="41.844506" lon="2.383117">
        <ele>790.878</ele>
        <time>2021-09-25T10:14:07Z</time>
      </trkpt>
      <trkpt lat="41.844523" lon="2.383052">
        <ele>790.648</ele>
        <time>2021-09-25T10:14:13Z</time>
      </trkpt>
      <trkpt lat="41.844520" lon="2.382979">
        <ele>790.266</ele>
        <time>2021-09-25T10:14:18Z</time>
      </trkpt>
      <trkpt lat="41.844517" lon="2.382914">
        <ele>789.729</ele>
        <time>2021-09-25T10:14:27Z</time>
      </trkpt>
      <trkpt lat="41.844526" lon="2.382851">
        <ele>789.521</ele>
        <time>2021-09-25T10:14:31Z</time>
      </trkpt>
      <trkpt lat="41.844566" lon="2.382811">
        <ele>789.308</ele>
        <time>2021-09-25T10:14:37Z</time>
      </trkpt>
      <trkpt lat="41.844613" lon="2.382778">
        <ele>788.964</ele>
        <time>2021-09-25T10:14:40Z</time>
      </trkpt>
      <trkpt lat="41.844657" lon="2.382752">
        <ele>788.990</ele>
        <time>2021-09-25T10:14:42Z</time>
      </trkpt>
      <trkpt lat="41.844713" lon="2.382755">
        <ele>788.633</ele>
        <time>2021-09-25T10:14:45Z</time>
      </trkpt>
      <trkpt lat="41.844768" lon="2.382743">
        <ele>788.591</ele>
        <time>2021-09-25T10:14:47Z</time>
      </trkpt>
      <trkpt lat="41.844817" lon="2.382756">
        <ele>788.044</ele>
        <time>2021-09-25T10:14:51Z</time>
      </trkpt>
      <trkpt lat="41.844860" lon="2.382804">
        <ele>787.888</ele>
        <time>2021-09-25T10:14:55Z</time>
      </trkpt>
      <trkpt lat="41.844898" lon="2.382836">
        <ele>787.493</ele>
        <time>2021-09-25T10:14:58Z</time>
      </trkpt>
      <trkpt lat="41.844940" lon="2.382876">
        <ele>786.993</ele>
        <time>2021-09-25T10:15:03Z</time>
      </trkpt>
      <trkpt lat="41.844956" lon="2.382940">
        <ele>786.679</ele>
        <time>2021-09-25T10:15:08Z</time>
      </trkpt>
      <trkpt lat="41.844950" lon="2.383007">
        <ele>786.005</ele>
        <time>2021-09-25T10:15:12Z</time>
      </trkpt>
      <trkpt lat="41.844938" lon="2.383086">
        <ele>785.625</ele>
        <time>2021-09-25T10:15:16Z</time>
      </trkpt>
      <trkpt lat="41.844921" lon="2.383158">
        <ele>785.308</ele>
        <time>2021-09-25T10:15:20Z</time>
      </trkpt>
      <trkpt lat="41.844909" lon="2.383228">
        <ele>785.095</ele>
        <time>2021-09-25T10:15:24Z</time>
      </trkpt>
      <trkpt lat="41.844890" lon="2.383288">
        <ele>784.311</ele>
        <time>2021-09-25T10:15:28Z</time>
      </trkpt>
      <trkpt lat="41.844851" lon="2.383330">
        <ele>784.114</ele>
        <time>2021-09-25T10:15:31Z</time>
      </trkpt>
      <trkpt lat="41.844811" lon="2.383385">
        <ele>783.692</ele>
        <time>2021-09-25T10:15:35Z</time>
      </trkpt>
      <trkpt lat="41.844783" lon="2.383432">
        <ele>783.215</ele>
        <time>2021-09-25T10:15:39Z</time>
      </trkpt>
      <trkpt lat="41.844779" lon="2.383493">
        <ele>782.969</ele>
        <time>2021-09-25T10:15:43Z</time>
      </trkpt>
      <trkpt lat="41.844824" lon="2.383509">
        <ele>782.114</ele>
        <time>2021-09-25T10:15:47Z</time>
      </trkpt>
      <trkpt lat="41.844875" lon="2.383488">
        <ele>781.734</ele>
        <time>2021-09-25T10:15:51Z</time>
      </trkpt>
      <trkpt lat="41.844931" lon="2.383459">
        <ele>781.427</ele>
        <time>2021-09-25T10:15:56Z</time>
      </trkpt>
      <trkpt lat="41.844970" lon="2.383424">
        <ele>781.268</ele>
        <time>2021-09-25T10:16:00Z</time>
      </trkpt>
      <trkpt lat="41.845012" lon="2.383385">
        <ele>780.914</ele>
        <time>2021-09-25T10:16:05Z</time>
      </trkpt>
      <trkpt lat="41.845027" lon="2.383320">
        <ele>780.408</ele>
        <time>2021-09-25T10:16:11Z</time>
      </trkpt>
      <trkpt lat="41.845024" lon="2.383247">
        <ele>779.820</ele>
        <time>2021-09-25T10:16:17Z</time>
      </trkpt>
      <trkpt lat="41.845038" lon="2.383186">
        <ele>779.756</ele>
        <time>2021-09-25T10:16:21Z</time>
      </trkpt>
      <trkpt lat="41.845067" lon="2.383118">
        <ele>779.139</ele>
        <time>2021-09-25T10:16:26Z</time>
      </trkpt>
      <trkpt lat="41.845102" lon="2.383072">
        <ele>778.637</ele>
        <time>2021-09-25T10:16:30Z</time>
      </trkpt>
      <trkpt lat="41.845126" lon="2.383018">
        <ele>778.540</ele>
        <time>2021-09-25T10:16:32Z</time>
      </trkpt>
      <trkpt lat="41.845155" lon="2.382959">
        <ele>778.084</ele>
        <time>2021-09-25T10:16:36Z</time>
      </trkpt>
      <trkpt lat="41.845156" lon="2.382875">
        <ele>777.659</ele>
        <time>2021-09-25T10:16:41Z</time>
      </trkpt>
      <trkpt lat="41.845136" lon="2.382805">
        <ele>777.119</ele>
        <time>2021-09-25T10:16:45Z</time>
      </trkpt>
      <trkpt lat="41.845096" lon="2.382749">
        <ele>776.719</ele>
        <time>2021-09-25T10:16:48Z</time>
      </trkpt>
      <trkpt lat="41.845044" lon="2.382721">
        <ele>776.309</ele>
        <time>2021-09-25T10:16:54Z</time>
      </trkpt>
      <trkpt lat="41.845008" lon="2.382674">
        <ele>775.719</ele>
        <time>2021-09-25T10:16:59Z</time>
      </trkpt>
      <trkpt lat="41.844966" lon="2.382637">
        <ele>775.408</ele>
        <time>2021-09-25T10:17:03Z</time>
      </trkpt>
      <trkpt lat="41.844936" lon="2.382573">
        <ele>774.889</ele>
        <time>2021-09-25T10:17:08Z</time>
      </trkpt>
      <trkpt lat="41.844916" lon="2.382508">
        <ele>774.655</ele>
        <time>2021-09-25T10:17:14Z</time>
      </trkpt>
      <trkpt lat="41.844891" lon="2.382451">
        <ele>774.188</ele>
        <time>2021-09-25T10:17:18Z</time>
      </trkpt>
      <trkpt lat="41.844858" lon="2.382396">
        <ele>773.356</ele>
        <time>2021-09-25T10:17:23Z</time>
      </trkpt>
      <trkpt lat="41.844810" lon="2.382345">
        <ele>773.069</ele>
        <time>2021-09-25T10:17:26Z</time>
      </trkpt>
      <trkpt lat="41.844767" lon="2.382305">
        <ele>772.563</ele>
        <time>2021-09-25T10:17:30Z</time>
      </trkpt>
      <trkpt lat="41.844732" lon="2.382266">
        <ele>772.338</ele>
        <time>2021-09-25T10:17:33Z</time>
      </trkpt>
      <trkpt lat="41.844703" lon="2.382210">
        <ele>771.758</ele>
        <time>2021-09-25T10:17:38Z</time>
      </trkpt>
      <trkpt lat="41.844671" lon="2.382164">
        <ele>771.266</ele>
        <time>2021-09-25T10:17:43Z</time>
      </trkpt>
      <trkpt lat="41.844614" lon="2.382157">
        <ele>770.829</ele>
        <time>2021-09-25T10:17:47Z</time>
      </trkpt>
      <trkpt lat="41.844575" lon="2.382090">
        <ele>770.621</ele>
        <time>2021-09-25T10:17:51Z</time>
      </trkpt>
      <trkpt lat="41.844533" lon="2.382040">
        <ele>770.408</ele>
        <time>2021-09-25T10:17:56Z</time>
      </trkpt>
      <trkpt lat="41.844488" lon="2.382005">
        <ele>770.384</ele>
        <time>2021-09-25T10:17:59Z</time>
      </trkpt>
      <trkpt lat="41.844455" lon="2.381959">
        <ele>769.950</ele>
        <time>2021-09-25T10:18:03Z</time>
      </trkpt>
      <trkpt lat="41.844428" lon="2.381907">
        <ele>769.743</ele>
        <time>2021-09-25T10:18:07Z</time>
      </trkpt>
      <trkpt lat="41.844404" lon="2.381835">
        <ele>769.451</ele>
        <time>2021-09-25T10:18:11Z</time>
      </trkpt>
      <trkpt lat="41.844401" lon="2.381757">
        <ele>769.164</ele>
        <time>2021-09-25T10:18:15Z</time>
      </trkpt>
      <trkpt lat="41.844404" lon="2.381694">
        <ele>769.068</ele>
        <time>2021-09-25T10:18:18Z</time>
      </trkpt>
      <trkpt lat="41.844420" lon="2.381621">
        <ele>768.063</ele>
        <time>2021-09-25T10:18:21Z</time>
      </trkpt>
      <trkpt lat="41.844433" lon="2.381555">
        <ele>767.683</ele>
        <time>2021-09-25T10:18:24Z</time>
      </trkpt>
      <trkpt lat="41.844464" lon="2.381493">
        <ele>767.383</ele>
        <time>2021-09-25T10:18:28Z</time>
      </trkpt>
      <trkpt lat="41.844492" lon="2.381433">
        <ele>767.125</ele>
        <time>2021-09-25T10:18:32Z</time>
      </trkpt>
      <trkpt lat="41.844533" lon="2.381397">
        <ele>766.717</ele>
        <time>2021-09-25T10:18:36Z</time>
      </trkpt>
      <trkpt lat="41.844599" lon="2.381403">
        <ele>766.508</ele>
        <time>2021-09-25T10:18:40Z</time>
      </trkpt>
      <trkpt lat="41.844640" lon="2.381370">
        <ele>766.256</ele>
        <time>2021-09-25T10:18:43Z</time>
      </trkpt>
      <trkpt lat="41.844658" lon="2.381309">
        <ele>765.962</ele>
        <time>2021-09-25T10:18:48Z</time>
      </trkpt>
      <trkpt lat="41.844640" lon="2.381250">
        <ele>765.195</ele>
        <time>2021-09-25T10:18:53Z</time>
      </trkpt>
      <trkpt lat="41.844591" lon="2.381244">
        <ele>763.883</ele>
        <time>2021-09-25T10:19:02Z</time>
      </trkpt>
      <trkpt lat="41.844545" lon="2.381248">
        <ele>763.476</ele>
        <time>2021-09-25T10:19:05Z</time>
      </trkpt>
      <trkpt lat="41.844493" lon="2.381267">
        <ele>762.830</ele>
        <time>2021-09-25T10:19:11Z</time>
      </trkpt>
      <trkpt lat="41.844443" lon="2.381297">
        <ele>762.325</ele>
        <time>2021-09-25T10:19:17Z</time>
      </trkpt>
      <trkpt lat="41.844401" lon="2.381334">
        <ele>762.175</ele>
        <time>2021-09-25T10:19:21Z</time>
      </trkpt>
      <trkpt lat="41.844355" lon="2.381353">
        <ele>761.773</ele>
        <time>2021-09-25T10:19:25Z</time>
      </trkpt>
      <trkpt lat="41.844314" lon="2.381407">
        <ele>761.385</ele>
        <time>2021-09-25T10:19:31Z</time>
      </trkpt>
      <trkpt lat="41.844272" lon="2.381457">
        <ele>761.113</ele>
        <time>2021-09-25T10:19:36Z</time>
      </trkpt>
      <trkpt lat="41.844234" lon="2.381496">
        <ele>760.908</ele>
        <time>2021-09-25T10:19:39Z</time>
      </trkpt>
      <trkpt lat="41.844192" lon="2.381521">
        <ele>760.875</ele>
        <time>2021-09-25T10:19:42Z</time>
      </trkpt>
      <trkpt lat="41.844142" lon="2.381537">
        <ele>760.791</ele>
        <time>2021-09-25T10:19:46Z</time>
      </trkpt>
      <trkpt lat="41.844095" lon="2.381564">
        <ele>760.564</ele>
        <time>2021-09-25T10:19:50Z</time>
      </trkpt>
      <trkpt lat="41.844049" lon="2.381596">
        <ele>760.272</ele>
        <time>2021-09-25T10:19:55Z</time>
      </trkpt>
      <trkpt lat="41.844001" lon="2.381609">
        <ele>760.125</ele>
        <time>2021-09-25T10:19:58Z</time>
      </trkpt>
      <trkpt lat="41.843966" lon="2.381650">
        <ele>760.049</ele>
        <time>2021-09-25T10:20:02Z</time>
      </trkpt>
      <trkpt lat="41.843929" lon="2.381715">
        <ele>759.924</ele>
        <time>2021-09-25T10:20:06Z</time>
      </trkpt>
      <trkpt lat="41.843911" lon="2.381778">
        <ele>759.824</ele>
        <time>2021-09-25T10:20:12Z</time>
      </trkpt>
      <trkpt lat="41.843883" lon="2.381832">
        <ele>759.828</ele>
        <time>2021-09-25T10:20:17Z</time>
      </trkpt>
      <trkpt lat="41.843853" lon="2.381884">
        <ele>760.189</ele>
        <time>2021-09-25T10:20:22Z</time>
      </trkpt>
      <trkpt lat="41.843821" lon="2.381929">
        <ele>760.417</ele>
        <time>2021-09-25T10:20:27Z</time>
      </trkpt>
      <trkpt lat="41.843777" lon="2.381965">
        <ele>760.508</ele>
        <time>2021-09-25T10:20:31Z</time>
      </trkpt>
      <trkpt lat="41.843734" lon="2.381999">
        <ele>760.660</ele>
        <time>2021-09-25T10:20:35Z</time>
      </trkpt>
      <trkpt lat="41.843675" lon="2.382021">
        <ele>760.616</ele>
        <time>2021-09-25T10:20:40Z</time>
      </trkpt>
      <trkpt lat="41.843638" lon="2.382058">
        <ele>760.649</ele>
        <time>2021-09-25T10:20:45Z</time>
      </trkpt>
      <trkpt lat="41.843584" lon="2.382078">
        <ele>760.577</ele>
        <time>2021-09-25T10:20:50Z</time>
      </trkpt>
      <trkpt lat="41.843547" lon="2.382125">
        <ele>760.530</ele>
        <time>2021-09-25T10:20:54Z</time>
      </trkpt>
      <trkpt lat="41.843511" lon="2.382181">
        <ele>760.474</ele>
        <time>2021-09-25T10:20:59Z</time>
      </trkpt>
      <trkpt lat="41.843469" lon="2.382225">
        <ele>760.489</ele>
        <time>2021-09-25T10:21:04Z</time>
      </trkpt>
      <trkpt lat="41.843425" lon="2.382256">
        <ele>760.429</ele>
        <time>2021-09-25T10:21:09Z</time>
      </trkpt>
      <trkpt lat="41.843385" lon="2.382309">
        <ele>760.694</ele>
        <time>2021-09-25T10:21:15Z</time>
      </trkpt>
      <trkpt lat="41.843343" lon="2.382337">
        <ele>760.657</ele>
        <time>2021-09-25T10:21:18Z</time>
      </trkpt>
      <trkpt lat="41.843295" lon="2.382380">
        <ele>760.622</ele>
        <time>2021-09-25T10:21:21Z</time>
      </trkpt>
      <trkpt lat="41.843314" lon="2.382316">
        <ele>760.508</ele>
        <time>2021-09-25T10:21:38Z</time>
      </trkpt>
      <trkpt lat="41.843348" lon="2.382248">
        <ele>760.577</ele>
        <time>2021-09-25T10:21:41Z</time>
      </trkpt>
      <trkpt lat="41.843375" lon="2.382168">
        <ele>760.533</ele>
        <time>2021-09-25T10:21:45Z</time>
      </trkpt>
      <trkpt lat="41.843404" lon="2.382109">
        <ele>760.726</ele>
        <time>2021-09-25T10:21:49Z</time>
      </trkpt>
      <trkpt lat="41.843450" lon="2.382061">
        <ele>760.884</ele>
        <time>2021-09-25T10:21:54Z</time>
      </trkpt>
      <trkpt lat="41.843495" lon="2.382035">
        <ele>760.617</ele>
        <time>2021-09-25T10:21:59Z</time>
      </trkpt>
      <trkpt lat="41.843547" lon="2.382002">
        <ele>760.331</ele>
        <time>2021-09-25T10:22:04Z</time>
      </trkpt>
      <trkpt lat="41.843591" lon="2.381980">
        <ele>760.356</ele>
        <time>2021-09-25T10:22:07Z</time>
      </trkpt>
      <trkpt lat="41.843638" lon="2.381956">
        <ele>760.386</ele>
        <time>2021-09-25T10:22:11Z</time>
      </trkpt>
      <trkpt lat="41.843690" lon="2.381941">
        <ele>760.615</ele>
        <time>2021-09-25T10:22:17Z</time>
      </trkpt>
      <trkpt lat="41.843735" lon="2.381915">
        <ele>760.865</ele>
        <time>2021-09-25T10:22:22Z</time>
      </trkpt>
      <trkpt lat="41.843780" lon="2.381894">
        <ele>760.811</ele>
        <time>2021-09-25T10:22:27Z</time>
      </trkpt>
      <trkpt lat="41.843827" lon="2.381862">
        <ele>760.808</ele>
        <time>2021-09-25T10:22:32Z</time>
      </trkpt>
      <trkpt lat="41.843861" lon="2.381812">
        <ele>760.739</ele>
        <time>2021-09-25T10:22:36Z</time>
      </trkpt>
      <trkpt lat="41.843900" lon="2.381775">
        <ele>760.445</ele>
        <time>2021-09-25T10:22:40Z</time>
      </trkpt>
      <trkpt lat="41.843929" lon="2.381726">
        <ele>760.278</ele>
        <time>2021-09-25T10:22:44Z</time>
      </trkpt>
      <trkpt lat="41.843953" lon="2.381672">
        <ele>760.196</ele>
        <time>2021-09-25T10:22:48Z</time>
      </trkpt>
      <trkpt lat="41.843998" lon="2.381628">
        <ele>759.859</ele>
        <time>2021-09-25T10:22:53Z</time>
      </trkpt>
      <trkpt lat="41.844045" lon="2.381597">
        <ele>759.763</ele>
        <time>2021-09-25T10:22:57Z</time>
      </trkpt>
      <trkpt lat="41.844098" lon="2.381580">
        <ele>759.748</ele>
        <time>2021-09-25T10:23:01Z</time>
      </trkpt>
      <trkpt lat="41.844144" lon="2.381577">
        <ele>759.748</ele>
        <time>2021-09-25T10:23:04Z</time>
      </trkpt>
      <trkpt lat="41.844191" lon="2.381544">
        <ele>759.818</ele>
        <time>2021-09-25T10:23:08Z</time>
      </trkpt>
      <trkpt lat="41.844235" lon="2.381503">
        <ele>760.198</ele>
        <time>2021-09-25T10:23:13Z</time>
      </trkpt>
      <trkpt lat="41.844287" lon="2.381477">
        <ele>760.217</ele>
        <time>2021-09-25T10:23:18Z</time>
      </trkpt>
      <trkpt lat="41.844328" lon="2.381440">
        <ele>760.508</ele>
        <time>2021-09-25T10:23:23Z</time>
      </trkpt>
      <trkpt lat="41.844374" lon="2.381411">
        <ele>760.729</ele>
        <time>2021-09-25T10:23:28Z</time>
      </trkpt>
      <trkpt lat="41.844414" lon="2.381374">
        <ele>760.835</ele>
        <time>2021-09-25T10:23:32Z</time>
      </trkpt>
      <trkpt lat="41.844450" lon="2.381331">
        <ele>760.998</ele>
        <time>2021-09-25T10:23:37Z</time>
      </trkpt>
      <trkpt lat="41.844485" lon="2.381286">
        <ele>761.216</ele>
        <time>2021-09-25T10:23:43Z</time>
      </trkpt>
      <trkpt lat="41.844538" lon="2.381277">
        <ele>761.339</ele>
        <time>2021-09-25T10:23:50Z</time>
      </trkpt>
      <trkpt lat="41.844589" lon="2.381288">
        <ele>761.473</ele>
        <time>2021-09-25T10:23:53Z</time>
      </trkpt>
      <trkpt lat="41.844637" lon="2.381310">
        <ele>761.778</ele>
        <time>2021-09-25T10:23:58Z</time>
      </trkpt>
      <trkpt lat="41.844700" lon="2.381328">
        <ele>762.018</ele>
        <time>2021-09-25T10:24:01Z</time>
      </trkpt>
      <trkpt lat="41.844749" lon="2.381356">
        <ele>762.255</ele>
        <time>2021-09-25T10:24:05Z</time>
      </trkpt>
      <trkpt lat="41.844783" lon="2.381411">
        <ele>763.007</ele>
        <time>2021-09-25T10:24:10Z</time>
      </trkpt>
      <trkpt lat="41.844802" lon="2.381466">
        <ele>763.417</ele>
        <time>2021-09-25T10:24:16Z</time>
      </trkpt>
      <trkpt lat="41.844840" lon="2.381504">
        <ele>763.608</ele>
        <time>2021-09-25T10:24:21Z</time>
      </trkpt>
      <trkpt lat="41.844871" lon="2.381551">
        <ele>763.953</ele>
        <time>2021-09-25T10:24:25Z</time>
      </trkpt>
      <trkpt lat="41.844910" lon="2.381589">
        <ele>763.999</ele>
        <time>2021-09-25T10:24:29Z</time>
      </trkpt>
      <trkpt lat="41.844939" lon="2.381641">
        <ele>763.962</ele>
        <time>2021-09-25T10:24:34Z</time>
      </trkpt>
      <trkpt lat="41.844967" lon="2.381690">
        <ele>763.920</ele>
        <time>2021-09-25T10:24:39Z</time>
      </trkpt>
      <trkpt lat="41.844993" lon="2.381743">
        <ele>763.493</ele>
        <time>2021-09-25T10:24:43Z</time>
      </trkpt>
      <trkpt lat="41.845029" lon="2.381801">
        <ele>763.017</ele>
        <time>2021-09-25T10:24:47Z</time>
      </trkpt>
      <trkpt lat="41.845061" lon="2.381851">
        <ele>762.952</ele>
        <time>2021-09-25T10:24:51Z</time>
      </trkpt>
      <trkpt lat="41.845098" lon="2.381904">
        <ele>762.742</ele>
        <time>2021-09-25T10:24:55Z</time>
      </trkpt>
      <trkpt lat="41.845126" lon="2.381977">
        <ele>762.369</ele>
        <time>2021-09-25T10:25:00Z</time>
      </trkpt>
      <trkpt lat="41.845130" lon="2.381916">
        <ele>761.204</ele>
        <time>2021-09-25T10:25:13Z</time>
      </trkpt>
      <trkpt lat="41.845131" lon="2.381844">
        <ele>761.124</ele>
        <time>2021-09-25T10:25:20Z</time>
      </trkpt>
      <trkpt lat="41.845132" lon="2.381771">
        <ele>760.808</ele>
        <time>2021-09-25T10:25:24Z</time>
      </trkpt>
      <trkpt lat="41.845144" lon="2.381704">
        <ele>760.564</ele>
        <time>2021-09-25T10:25:29Z</time>
      </trkpt>
      <trkpt lat="41.845146" lon="2.381626">
        <ele>759.790</ele>
        <time>2021-09-25T10:25:36Z</time>
      </trkpt>
      <trkpt lat="41.845139" lon="2.381548">
        <ele>759.513</ele>
        <time>2021-09-25T10:25:40Z</time>
      </trkpt>
      <trkpt lat="41.845128" lon="2.381487">
        <ele>758.981</ele>
        <time>2021-09-25T10:25:43Z</time>
      </trkpt>
      <trkpt lat="41.845124" lon="2.381426">
        <ele>758.614</ele>
        <time>2021-09-25T10:25:46Z</time>
      </trkpt>
      <trkpt lat="41.845133" lon="2.381365">
        <ele>758.458</ele>
        <time>2021-09-25T10:25:50Z</time>
      </trkpt>
      <trkpt lat="41.845104" lon="2.381299">
        <ele>757.743</ele>
        <time>2021-09-25T10:25:54Z</time>
      </trkpt>
      <trkpt lat="41.845074" lon="2.381246">
        <ele>757.363</ele>
        <time>2021-09-25T10:25:59Z</time>
      </trkpt>
      <trkpt lat="41.845066" lon="2.381177">
        <ele>757.068</ele>
        <time>2021-09-25T10:26:04Z</time>
      </trkpt>
      <trkpt lat="41.845057" lon="2.381099">
        <ele>756.942</ele>
        <time>2021-09-25T10:26:09Z</time>
      </trkpt>
      <trkpt lat="41.845055" lon="2.381025">
        <ele>756.326</ele>
        <time>2021-09-25T10:26:14Z</time>
      </trkpt>
      <trkpt lat="41.845032" lon="2.380962">
        <ele>755.908</ele>
        <time>2021-09-25T10:26:32Z</time>
      </trkpt>
      <trkpt lat="41.845027" lon="2.380884">
        <ele>755.764</ele>
        <time>2021-09-25T10:26:37Z</time>
      </trkpt>
      <trkpt lat="41.845010" lon="2.380809">
        <ele>755.530</ele>
        <time>2021-09-25T10:26:41Z</time>
      </trkpt>
      <trkpt lat="41.844989" lon="2.380732">
        <ele>755.323</ele>
        <time>2021-09-25T10:26:44Z</time>
      </trkpt>
      <trkpt lat="41.844969" lon="2.380677">
        <ele>755.071</ele>
        <time>2021-09-25T10:26:48Z</time>
      </trkpt>
      <trkpt lat="41.844933" lon="2.380630">
        <ele>753.544</ele>
        <time>2021-09-25T10:26:55Z</time>
      </trkpt>
      <trkpt lat="41.844920" lon="2.380563">
        <ele>752.768</ele>
        <time>2021-09-25T10:27:02Z</time>
      </trkpt>
      <trkpt lat="41.844908" lon="2.380504">
        <ele>752.083</ele>
        <time>2021-09-25T10:27:06Z</time>
      </trkpt>
      <trkpt lat="41.844884" lon="2.380445">
        <ele>751.283</ele>
        <time>2021-09-25T10:27:10Z</time>
      </trkpt>
      <trkpt lat="41.844867" lon="2.380388">
        <ele>750.523</ele>
        <time>2021-09-25T10:27:15Z</time>
      </trkpt>
      <trkpt lat="41.844846" lon="2.380325">
        <ele>750.083</ele>
        <time>2021-09-25T10:27:21Z</time>
      </trkpt>
      <trkpt lat="41.844830" lon="2.380262">
        <ele>749.911</ele>
        <time>2021-09-25T10:27:24Z</time>
      </trkpt>
      <trkpt lat="41.844817" lon="2.380203">
        <ele>749.308</ele>
        <time>2021-09-25T10:27:26Z</time>
      </trkpt>
      <trkpt lat="41.844838" lon="2.380138">
        <ele>748.790</ele>
        <time>2021-09-25T10:27:29Z</time>
      </trkpt>
      <trkpt lat="41.844865" lon="2.380073">
        <ele>747.776</ele>
        <time>2021-09-25T10:27:35Z</time>
      </trkpt>
      <trkpt lat="41.844906" lon="2.380020">
        <ele>747.679</ele>
        <time>2021-09-25T10:27:39Z</time>
      </trkpt>
      <trkpt lat="41.844953" lon="2.379964">
        <ele>747.657</ele>
        <time>2021-09-25T10:27:42Z</time>
      </trkpt>
      <trkpt lat="41.844961" lon="2.379901">
        <ele>747.630</ele>
        <time>2021-09-25T10:27:45Z</time>
      </trkpt>
      <trkpt lat="41.844970" lon="2.379833">
        <ele>747.784</ele>
        <time>2021-09-25T10:27:49Z</time>
      </trkpt>
      <trkpt lat="41.844991" lon="2.379772">
        <ele>747.729</ele>
        <time>2021-09-25T10:27:58Z</time>
      </trkpt>
      <trkpt lat="41.845009" lon="2.379710">
        <ele>747.719</ele>
        <time>2021-09-25T10:28:04Z</time>
      </trkpt>
      <trkpt lat="41.845031" lon="2.379639">
        <ele>747.717</ele>
        <time>2021-09-25T10:28:11Z</time>
      </trkpt>
      <trkpt lat="41.845049" lon="2.379579">
        <ele>747.687</ele>
        <time>2021-09-25T10:28:14Z</time>
      </trkpt>
      <trkpt lat="41.845064" lon="2.379507">
        <ele>747.615</ele>
        <time>2021-09-25T10:28:19Z</time>
      </trkpt>
      <trkpt lat="41.845094" lon="2.379452">
        <ele>747.508</ele>
        <time>2021-09-25T10:28:23Z</time>
      </trkpt>
      <trkpt lat="41.845125" lon="2.379403">
        <ele>747.579</ele>
        <time>2021-09-25T10:28:27Z</time>
      </trkpt>
      <trkpt lat="41.845138" lon="2.379332">
        <ele>746.865</ele>
        <time>2021-09-25T10:28:33Z</time>
      </trkpt>
      <trkpt lat="41.845142" lon="2.379266">
        <ele>746.638</ele>
        <time>2021-09-25T10:28:37Z</time>
      </trkpt>
      <trkpt lat="41.845144" lon="2.379205">
        <ele>746.276</ele>
        <time>2021-09-25T10:28:40Z</time>
      </trkpt>
      <trkpt lat="41.845149" lon="2.379144">
        <ele>746.079</ele>
        <time>2021-09-25T10:28:44Z</time>
      </trkpt>
      <trkpt lat="41.845170" lon="2.379089">
        <ele>745.393</ele>
        <time>2021-09-25T10:28:49Z</time>
      </trkpt>
      <trkpt lat="41.845165" lon="2.379026">
        <ele>744.868</ele>
        <time>2021-09-25T10:28:53Z</time>
      </trkpt>
      <trkpt lat="41.845124" lon="2.378993">
        <ele>743.778</ele>
        <time>2021-09-25T10:28:57Z</time>
      </trkpt>
      <trkpt lat="41.845074" lon="2.378995">
        <ele>742.463</ele>
        <time>2021-09-25T10:29:01Z</time>
      </trkpt>
      <trkpt lat="41.845024" lon="2.378992">
        <ele>741.944</ele>
        <time>2021-09-25T10:29:05Z</time>
      </trkpt>
      <trkpt lat="41.844983" lon="2.378952">
        <ele>740.518</ele>
        <time>2021-09-25T10:29:11Z</time>
      </trkpt>
      <trkpt lat="41.844943" lon="2.378924">
        <ele>738.508</ele>
        <time>2021-09-25T10:29:20Z</time>
      </trkpt>
      <trkpt lat="41.844911" lon="2.378969">
        <ele>737.814</ele>
        <time>2021-09-25T10:30:04Z</time>
      </trkpt>
      <trkpt lat="41.844911" lon="2.378899">
        <ele>737.850</ele>
        <time>2021-09-25T10:30:45Z</time>
      </trkpt>
      <trkpt lat="41.844926" lon="2.378823">
        <ele>737.813</ele>
        <time>2021-09-25T10:30:48Z</time>
      </trkpt>
      <trkpt lat="41.844952" lon="2.378772">
        <ele>737.791</ele>
        <time>2021-09-25T10:30:55Z</time>
      </trkpt>
      <trkpt lat="41.844944" lon="2.378712">
        <ele>737.534</ele>
        <time>2021-09-25T10:31:13Z</time>
      </trkpt>
      <trkpt lat="41.844905" lon="2.378661">
        <ele>737.058</ele>
        <time>2021-09-25T10:31:17Z</time>
      </trkpt>
      <trkpt lat="41.844847" lon="2.378645">
        <ele>737.163</ele>
        <time>2021-09-25T10:31:31Z</time>
      </trkpt>
      <trkpt lat="41.844825" lon="2.378578">
        <ele>737.273</ele>
        <time>2021-09-25T10:31:34Z</time>
      </trkpt>
      <trkpt lat="41.844801" lon="2.378515">
        <ele>737.348</ele>
        <time>2021-09-25T10:31:38Z</time>
      </trkpt>
      <trkpt lat="41.844785" lon="2.378453">
        <ele>737.461</ele>
        <time>2021-09-25T10:31:42Z</time>
      </trkpt>
      <trkpt lat="41.844805" lon="2.378399">
        <ele>737.517</ele>
        <time>2021-09-25T10:31:46Z</time>
      </trkpt>
      <trkpt lat="41.844825" lon="2.378332">
        <ele>737.808</ele>
        <time>2021-09-25T10:31:51Z</time>
      </trkpt>
      <trkpt lat="41.844867" lon="2.378287">
        <ele>738.142</ele>
        <time>2021-09-25T10:31:54Z</time>
      </trkpt>
      <trkpt lat="41.844914" lon="2.378250">
        <ele>738.888</ele>
        <time>2021-09-25T10:31:58Z</time>
      </trkpt>
      <trkpt lat="41.844961" lon="2.378221">
        <ele>739.891</ele>
        <time>2021-09-25T10:32:04Z</time>
      </trkpt>
      <trkpt lat="41.845007" lon="2.378197">
        <ele>740.499</ele>
        <time>2021-09-25T10:32:11Z</time>
      </trkpt>
      <trkpt lat="41.845032" lon="2.378146">
        <ele>741.192</ele>
        <time>2021-09-25T10:32:17Z</time>
      </trkpt>
      <trkpt lat="41.845080" lon="2.378113">
        <ele>741.566</ele>
        <time>2021-09-25T10:32:22Z</time>
      </trkpt>
      <trkpt lat="41.845132" lon="2.378080">
        <ele>742.631</ele>
        <time>2021-09-25T10:32:27Z</time>
      </trkpt>
      <trkpt lat="41.845171" lon="2.378034">
        <ele>743.411</ele>
        <time>2021-09-25T10:32:33Z</time>
      </trkpt>
      <trkpt lat="41.845208" lon="2.377991">
        <ele>744.694</ele>
        <time>2021-09-25T10:32:42Z</time>
      </trkpt>
      <trkpt lat="41.845225" lon="2.377935">
        <ele>745.557</ele>
        <time>2021-09-25T10:32:45Z</time>
      </trkpt>
      <trkpt lat="41.845252" lon="2.377872">
        <ele>746.022</ele>
        <time>2021-09-25T10:32:49Z</time>
      </trkpt>
      <trkpt lat="41.845269" lon="2.377812">
        <ele>746.708</ele>
        <time>2021-09-25T10:32:55Z</time>
      </trkpt>
      <trkpt lat="41.845264" lon="2.377738">
        <ele>747.097</ele>
        <time>2021-09-25T10:32:59Z</time>
      </trkpt>
      <trkpt lat="41.845259" lon="2.377676">
        <ele>747.333</ele>
        <time>2021-09-25T10:33:02Z</time>
      </trkpt>
      <trkpt lat="41.845257" lon="2.377610">
        <ele>747.946</ele>
        <time>2021-09-25T10:33:09Z</time>
      </trkpt>
      <trkpt lat="41.845249" lon="2.377542">
        <ele>748.114</ele>
        <time>2021-09-25T10:33:13Z</time>
      </trkpt>
      <trkpt lat="41.845238" lon="2.377481">
        <ele>748.277</ele>
        <time>2021-09-25T10:33:17Z</time>
      </trkpt>
      <trkpt lat="41.845210" lon="2.377422">
        <ele>748.271</ele>
        <time>2021-09-25T10:33:21Z</time>
      </trkpt>
      <trkpt lat="41.845172" lon="2.377349">
        <ele>748.346</ele>
        <time>2021-09-25T10:33:24Z</time>
      </trkpt>
      <trkpt lat="41.845136" lon="2.377297">
        <ele>748.466</ele>
        <time>2021-09-25T10:33:27Z</time>
      </trkpt>
      <trkpt lat="41.845089" lon="2.377260">
        <ele>748.526</ele>
        <time>2021-09-25T10:33:31Z</time>
      </trkpt>
      <trkpt lat="41.845037" lon="2.377244">
        <ele>748.647</ele>
        <time>2021-09-25T10:33:34Z</time>
      </trkpt>
      <trkpt lat="41.844987" lon="2.377233">
        <ele>748.711</ele>
        <time>2021-09-25T10:33:38Z</time>
      </trkpt>
      <trkpt lat="41.844939" lon="2.377225">
        <ele>749.008</ele>
        <time>2021-09-25T10:33:42Z</time>
      </trkpt>
      <trkpt lat="41.844893" lon="2.377217">
        <ele>749.110</ele>
        <time>2021-09-25T10:33:46Z</time>
      </trkpt>
      <trkpt lat="41.844850" lon="2.377192">
        <ele>749.486</ele>
        <time>2021-09-25T10:33:52Z</time>
      </trkpt>
      <trkpt lat="41.844826" lon="2.377123">
        <ele>749.519</ele>
        <time>2021-09-25T10:33:56Z</time>
      </trkpt>
      <trkpt lat="41.844824" lon="2.377051">
        <ele>749.697</ele>
        <time>2021-09-25T10:34:00Z</time>
      </trkpt>
      <trkpt lat="41.844825" lon="2.376985">
        <ele>749.740</ele>
        <time>2021-09-25T10:34:04Z</time>
      </trkpt>
      <trkpt lat="41.844824" lon="2.376908">
        <ele>749.964</ele>
        <time>2021-09-25T10:34:09Z</time>
      </trkpt>
      <trkpt lat="41.844810" lon="2.376831">
        <ele>750.299</ele>
        <time>2021-09-25T10:34:14Z</time>
      </trkpt>
      <trkpt lat="41.844781" lon="2.376774">
        <ele>750.519</ele>
        <time>2021-09-25T10:34:18Z</time>
      </trkpt>
      <trkpt lat="41.844752" lon="2.376726">
        <ele>750.975</ele>
        <time>2021-09-25T10:34:24Z</time>
      </trkpt>
      <trkpt lat="41.844725" lon="2.376673">
        <ele>751.128</ele>
        <time>2021-09-25T10:34:29Z</time>
      </trkpt>
      <trkpt lat="41.844712" lon="2.376613">
        <ele>751.220</ele>
        <time>2021-09-25T10:34:34Z</time>
      </trkpt>
      <trkpt lat="41.844683" lon="2.376544">
        <ele>751.308</ele>
        <time>2021-09-25T10:34:39Z</time>
      </trkpt>
      <trkpt lat="41.844663" lon="2.376489">
        <ele>751.545</ele>
        <time>2021-09-25T10:34:45Z</time>
      </trkpt>
      <trkpt lat="41.844652" lon="2.376427">
        <ele>751.771</ele>
        <time>2021-09-25T10:34:49Z</time>
      </trkpt>
      <trkpt lat="41.844649" lon="2.376361">
        <ele>751.824</ele>
        <time>2021-09-25T10:34:57Z</time>
      </trkpt>
      <trkpt lat="41.844642" lon="2.376296">
        <ele>751.922</ele>
        <time>2021-09-25T10:35:01Z</time>
      </trkpt>
      <trkpt lat="41.844615" lon="2.376237">
        <ele>752.065</ele>
        <time>2021-09-25T10:35:06Z</time>
      </trkpt>
      <trkpt lat="41.844593" lon="2.376177">
        <ele>752.039</ele>
        <time>2021-09-25T10:35:09Z</time>
      </trkpt>
      <trkpt lat="41.844564" lon="2.376112">
        <ele>752.064</ele>
        <time>2021-09-25T10:35:13Z</time>
      </trkpt>
      <trkpt lat="41.844565" lon="2.376037">
        <ele>751.854</ele>
        <time>2021-09-25T10:35:18Z</time>
      </trkpt>
      <trkpt lat="41.844557" lon="2.375965">
        <ele>751.618</ele>
        <time>2021-09-25T10:35:24Z</time>
      </trkpt>
      <trkpt lat="41.844563" lon="2.375901">
        <ele>751.698</ele>
        <time>2021-09-25T10:35:27Z</time>
      </trkpt>
      <trkpt lat="41.844593" lon="2.375841">
        <ele>751.617</ele>
        <time>2021-09-25T10:35:32Z</time>
      </trkpt>
      <trkpt lat="41.844634" lon="2.375797">
        <ele>751.708</ele>
        <time>2021-09-25T10:35:37Z</time>
      </trkpt>
      <trkpt lat="41.844656" lon="2.375743">
        <ele>751.889</ele>
        <time>2021-09-25T10:35:41Z</time>
      </trkpt>
      <trkpt lat="41.844688" lon="2.375700">
        <ele>751.855</ele>
        <time>2021-09-25T10:35:45Z</time>
      </trkpt>
      <trkpt lat="41.844705" lon="2.375632">
        <ele>752.168</ele>
        <time>2021-09-25T10:35:51Z</time>
      </trkpt>
      <trkpt lat="41.844732" lon="2.375578">
        <ele>752.356</ele>
        <time>2021-09-25T10:35:56Z</time>
      </trkpt>
      <trkpt lat="41.844754" lon="2.375513">
        <ele>752.599</ele>
        <time>2021-09-25T10:36:00Z</time>
      </trkpt>
      <trkpt lat="41.844763" lon="2.375440">
        <ele>752.713</ele>
        <time>2021-09-25T10:36:03Z</time>
      </trkpt>
      <trkpt lat="41.844778" lon="2.375370">
        <ele>753.238</ele>
        <time>2021-09-25T10:36:07Z</time>
      </trkpt>
      <trkpt lat="41.844796" lon="2.375315">
        <ele>753.428</ele>
        <time>2021-09-25T10:36:10Z</time>
      </trkpt>
      <trkpt lat="41.844803" lon="2.375248">
        <ele>753.558</ele>
        <time>2021-09-25T10:36:15Z</time>
      </trkpt>
      <trkpt lat="41.844788" lon="2.375189">
        <ele>753.852</ele>
        <time>2021-09-25T10:36:19Z</time>
      </trkpt>
      <trkpt lat="41.844786" lon="2.375122">
        <ele>754.317</ele>
        <time>2021-09-25T10:36:25Z</time>
      </trkpt>
      <trkpt lat="41.844773" lon="2.375064">
        <ele>754.408</ele>
        <time>2021-09-25T10:36:31Z</time>
      </trkpt>
      <trkpt lat="41.844751" lon="2.374994">
        <ele>754.933</ele>
        <time>2021-09-25T10:36:36Z</time>
      </trkpt>
      <trkpt lat="41.844706" lon="2.374968">
        <ele>755.119</ele>
        <time>2021-09-25T10:36:41Z</time>
      </trkpt>
      <trkpt lat="41.844685" lon="2.374910">
        <ele>755.852</ele>
        <time>2021-09-25T10:36:46Z</time>
      </trkpt>
      <trkpt lat="41.844672" lon="2.374846">
        <ele>756.320</ele>
        <time>2021-09-25T10:36:51Z</time>
      </trkpt>
      <trkpt lat="41.844671" lon="2.374783">
        <ele>757.033</ele>
        <time>2021-09-25T10:36:57Z</time>
      </trkpt>
      <trkpt lat="41.844659" lon="2.374712">
        <ele>757.857</ele>
        <time>2021-09-25T10:37:02Z</time>
      </trkpt>
      <trkpt lat="41.844652" lon="2.374646">
        <ele>758.432</ele>
        <time>2021-09-25T10:37:06Z</time>
      </trkpt>
      <trkpt lat="41.844641" lon="2.374579">
        <ele>759.542</ele>
        <time>2021-09-25T10:37:13Z</time>
      </trkpt>
      <trkpt lat="41.844620" lon="2.374520">
        <ele>759.854</ele>
        <time>2021-09-25T10:37:19Z</time>
      </trkpt>
      <trkpt lat="41.844632" lon="2.374452">
        <ele>760.456</ele>
        <time>2021-09-25T10:37:27Z</time>
      </trkpt>
      <trkpt lat="41.844640" lon="2.374388">
        <ele>761.011</ele>
        <time>2021-09-25T10:37:35Z</time>
      </trkpt>
      <trkpt lat="41.844634" lon="2.374315">
        <ele>761.308</ele>
        <time>2021-09-25T10:37:39Z</time>
      </trkpt>
      <trkpt lat="41.844614" lon="2.374250">
        <ele>762.073</ele>
        <time>2021-09-25T10:37:43Z</time>
      </trkpt>
      <trkpt lat="41.844576" lon="2.374194">
        <ele>762.979</ele>
        <time>2021-09-25T10:37:49Z</time>
      </trkpt>
      <trkpt lat="41.844533" lon="2.374141">
        <ele>763.992</ele>
        <time>2021-09-25T10:37:53Z</time>
      </trkpt>
      <trkpt lat="41.844503" lon="2.374086">
        <ele>765.410</ele>
        <time>2021-09-25T10:37:59Z</time>
      </trkpt>
      <trkpt lat="41.844466" lon="2.374040">
        <ele>766.143</ele>
        <time>2021-09-25T10:38:07Z</time>
      </trkpt>
      <trkpt lat="41.844414" lon="2.373993">
        <ele>766.917</ele>
        <time>2021-09-25T10:38:12Z</time>
      </trkpt>
      <trkpt lat="41.844365" lon="2.373954">
        <ele>767.232</ele>
        <time>2021-09-25T10:38:17Z</time>
      </trkpt>
      <trkpt lat="41.844328" lon="2.373919">
        <ele>767.432</ele>
        <time>2021-09-25T10:38:22Z</time>
      </trkpt>
      <trkpt lat="41.844287" lon="2.373889">
        <ele>767.662</ele>
        <time>2021-09-25T10:38:27Z</time>
      </trkpt>
      <trkpt lat="41.844258" lon="2.373834">
        <ele>767.883</ele>
        <time>2021-09-25T10:38:31Z</time>
      </trkpt>
      <trkpt lat="41.844232" lon="2.373767">
        <ele>768.111</ele>
        <time>2021-09-25T10:38:44Z</time>
      </trkpt>
      <trkpt lat="41.844230" lon="2.373705">
        <ele>768.408</ele>
        <time>2021-09-25T10:38:50Z</time>
      </trkpt>
      <trkpt lat="41.844238" lon="2.373636">
        <ele>768.574</ele>
        <time>2021-09-25T10:38:55Z</time>
      </trkpt>
      <trkpt lat="41.844264" lon="2.373582">
        <ele>768.610</ele>
        <time>2021-09-25T10:39:00Z</time>
      </trkpt>
      <trkpt lat="41.844301" lon="2.373540">
        <ele>768.773</ele>
        <time>2021-09-25T10:39:06Z</time>
      </trkpt>
      <trkpt lat="41.844347" lon="2.373512">
        <ele>769.341</ele>
        <time>2021-09-25T10:39:11Z</time>
      </trkpt>
      <trkpt lat="41.844371" lon="2.373445">
        <ele>769.594</ele>
        <time>2021-09-25T10:39:15Z</time>
      </trkpt>
      <trkpt lat="41.844328" lon="2.373425">
        <ele>769.938</ele>
        <time>2021-09-25T10:39:21Z</time>
      </trkpt>
      <trkpt lat="41.844282" lon="2.373437">
        <ele>770.143</ele>
        <time>2021-09-25T10:39:25Z</time>
      </trkpt>
      <trkpt lat="41.844230" lon="2.373429">
        <ele>770.513</ele>
        <time>2021-09-25T10:39:30Z</time>
      </trkpt>
      <trkpt lat="41.844179" lon="2.373419">
        <ele>771.639</ele>
        <time>2021-09-25T10:39:38Z</time>
      </trkpt>
      <trkpt lat="41.844132" lon="2.373427">
        <ele>772.301</ele>
        <time>2021-09-25T10:39:42Z</time>
      </trkpt>
      <trkpt lat="41.844082" lon="2.373414">
        <ele>773.321</ele>
        <time>2021-09-25T10:39:48Z</time>
      </trkpt>
      <trkpt lat="41.844038" lon="2.373391">
        <ele>773.708</ele>
        <time>2021-09-25T10:39:52Z</time>
      </trkpt>
      <trkpt lat="41.843992" lon="2.373377">
        <ele>774.091</ele>
        <time>2021-09-25T10:39:59Z</time>
      </trkpt>
      <trkpt lat="41.843943" lon="2.373356">
        <ele>774.347</ele>
        <time>2021-09-25T10:40:04Z</time>
      </trkpt>
      <trkpt lat="41.843894" lon="2.373358">
        <ele>774.760</ele>
        <time>2021-09-25T10:40:09Z</time>
      </trkpt>
      <trkpt lat="41.843841" lon="2.373357">
        <ele>775.778</ele>
        <time>2021-09-25T10:40:15Z</time>
      </trkpt>
      <trkpt lat="41.843792" lon="2.373353">
        <ele>776.061</ele>
        <time>2021-09-25T10:40:21Z</time>
      </trkpt>
      <trkpt lat="41.843743" lon="2.373331">
        <ele>776.875</ele>
        <time>2021-09-25T10:40:28Z</time>
      </trkpt>
      <trkpt lat="41.843701" lon="2.373294">
        <ele>777.240</ele>
        <time>2021-09-25T10:40:33Z</time>
      </trkpt>
      <trkpt lat="41.843671" lon="2.373230">
        <ele>778.140</ele>
        <time>2021-09-25T10:40:38Z</time>
      </trkpt>
      <trkpt lat="41.843633" lon="2.373196">
        <ele>778.987</ele>
        <time>2021-09-25T10:40:44Z</time>
      </trkpt>
      <trkpt lat="41.843584" lon="2.373155">
        <ele>779.942</ele>
        <time>2021-09-25T10:40:53Z</time>
      </trkpt>
      <trkpt lat="41.843533" lon="2.373124">
        <ele>781.226</ele>
        <time>2021-09-25T10:40:57Z</time>
      </trkpt>
      <trkpt lat="41.843482" lon="2.373102">
        <ele>782.808</ele>
        <time>2021-09-25T10:41:06Z</time>
      </trkpt>
      <trkpt lat="41.843447" lon="2.373060">
        <ele>783.156</ele>
        <time>2021-09-25T10:41:11Z</time>
      </trkpt>
      <trkpt lat="41.843414" lon="2.373010">
        <ele>783.872</ele>
        <time>2021-09-25T10:41:17Z</time>
      </trkpt>
      <trkpt lat="41.843384" lon="2.372958">
        <ele>785.085</ele>
        <time>2021-09-25T10:41:25Z</time>
      </trkpt>
      <trkpt lat="41.843352" lon="2.372909">
        <ele>785.573</ele>
        <time>2021-09-25T10:41:33Z</time>
      </trkpt>
      <trkpt lat="41.843309" lon="2.372889">
        <ele>786.076</ele>
        <time>2021-09-25T10:41:37Z</time>
      </trkpt>
      <trkpt lat="41.843253" lon="2.372859">
        <ele>786.860</ele>
        <time>2021-09-25T10:41:41Z</time>
      </trkpt>
      <trkpt lat="41.843205" lon="2.372842">
        <ele>787.875</ele>
        <time>2021-09-25T10:41:49Z</time>
      </trkpt>
      <trkpt lat="41.843157" lon="2.372842">
        <ele>788.475</ele>
        <time>2021-09-25T10:41:55Z</time>
      </trkpt>
      <trkpt lat="41.843095" lon="2.372831">
        <ele>789.298</ele>
        <time>2021-09-25T10:42:01Z</time>
      </trkpt>
      <trkpt lat="41.843052" lon="2.372809">
        <ele>789.615</ele>
        <time>2021-09-25T10:42:04Z</time>
      </trkpt>
      <trkpt lat="41.843003" lon="2.372788">
        <ele>790.326</ele>
        <time>2021-09-25T10:42:09Z</time>
      </trkpt>
      <trkpt lat="41.842953" lon="2.372790">
        <ele>791.408</ele>
        <time>2021-09-25T10:42:15Z</time>
      </trkpt>
      <trkpt lat="41.842907" lon="2.372810">
        <ele>791.967</ele>
        <time>2021-09-25T10:42:21Z</time>
      </trkpt>
      <trkpt lat="41.842868" lon="2.372852">
        <ele>792.243</ele>
        <time>2021-09-25T10:42:25Z</time>
      </trkpt>
      <trkpt lat="41.842822" lon="2.372874">
        <ele>793.196</ele>
        <time>2021-09-25T10:42:30Z</time>
      </trkpt>
      <trkpt lat="41.842773" lon="2.372867">
        <ele>793.624</ele>
        <time>2021-09-25T10:42:36Z</time>
      </trkpt>
      <trkpt lat="41.842720" lon="2.372855">
        <ele>793.957</ele>
        <time>2021-09-25T10:42:40Z</time>
      </trkpt>
      <trkpt lat="41.842674" lon="2.372843">
        <ele>794.511</ele>
        <time>2021-09-25T10:42:43Z</time>
      </trkpt>
      <trkpt lat="41.842611" lon="2.372832">
        <ele>795.266</ele>
        <time>2021-09-25T10:42:48Z</time>
      </trkpt>
      <trkpt lat="41.842558" lon="2.372825">
        <ele>795.776</ele>
        <time>2021-09-25T10:42:52Z</time>
      </trkpt>
      <trkpt lat="41.842511" lon="2.372823">
        <ele>796.545</ele>
        <time>2021-09-25T10:43:01Z</time>
      </trkpt>
      <trkpt lat="41.842465" lon="2.372822">
        <ele>797.147</ele>
        <time>2021-09-25T10:43:07Z</time>
      </trkpt>
      <trkpt lat="41.842419" lon="2.372800">
        <ele>797.911</ele>
        <time>2021-09-25T10:43:13Z</time>
      </trkpt>
      <trkpt lat="41.842372" lon="2.372781">
        <ele>798.208</ele>
        <time>2021-09-25T10:43:18Z</time>
      </trkpt>
      <trkpt lat="41.842330" lon="2.372755">
        <ele>799.272</ele>
        <time>2021-09-25T10:43:30Z</time>
      </trkpt>
      <trkpt lat="41.842284" lon="2.372720">
        <ele>799.748</ele>
        <time>2021-09-25T10:43:35Z</time>
      </trkpt>
      <trkpt lat="41.842241" lon="2.372679">
        <ele>800.621</ele>
        <time>2021-09-25T10:43:39Z</time>
      </trkpt>
      <trkpt lat="41.842204" lon="2.372607">
        <ele>801.479</ele>
        <time>2021-09-25T10:43:42Z</time>
      </trkpt>
      <trkpt lat="41.842179" lon="2.372551">
        <ele>802.372</ele>
        <time>2021-09-25T10:43:46Z</time>
      </trkpt>
      <trkpt lat="41.842157" lon="2.372488">
        <ele>804.046</ele>
        <time>2021-09-25T10:43:52Z</time>
      </trkpt>
      <trkpt lat="41.842157" lon="2.372426">
        <ele>804.581</ele>
        <time>2021-09-25T10:43:56Z</time>
      </trkpt>
      <trkpt lat="41.842167" lon="2.372351">
        <ele>805.611</ele>
        <time>2021-09-25T10:44:03Z</time>
      </trkpt>
      <trkpt lat="41.842171" lon="2.372284">
        <ele>806.283</ele>
        <time>2021-09-25T10:44:07Z</time>
      </trkpt>
      <trkpt lat="41.842180" lon="2.372224">
        <ele>806.525</ele>
        <time>2021-09-25T10:44:14Z</time>
      </trkpt>
      <trkpt lat="41.842182" lon="2.372155">
        <ele>807.017</ele>
        <time>2021-09-25T10:44:21Z</time>
      </trkpt>
      <trkpt lat="41.842163" lon="2.372089">
        <ele>807.408</ele>
        <time>2021-09-25T10:44:25Z</time>
      </trkpt>
      <trkpt lat="41.842163" lon="2.372027">
        <ele>808.296</ele>
        <time>2021-09-25T10:44:29Z</time>
      </trkpt>
      <trkpt lat="41.842152" lon="2.371968">
        <ele>808.692</ele>
        <time>2021-09-25T10:44:36Z</time>
      </trkpt>
      <trkpt lat="41.842136" lon="2.371911">
        <ele>809.375</ele>
        <time>2021-09-25T10:44:42Z</time>
      </trkpt>
      <trkpt lat="41.842122" lon="2.371838">
        <ele>809.643</ele>
        <time>2021-09-25T10:44:49Z</time>
      </trkpt>
      <trkpt lat="41.842094" lon="2.371784">
        <ele>810.016</ele>
        <time>2021-09-25T10:44:53Z</time>
      </trkpt>
      <trkpt lat="41.842047" lon="2.371751">
        <ele>810.220</ele>
        <time>2021-09-25T10:44:58Z</time>
      </trkpt>
      <trkpt lat="41.842005" lon="2.371694">
        <ele>810.855</ele>
        <time>2021-09-25T10:45:02Z</time>
      </trkpt>
      <trkpt lat="41.841959" lon="2.371691">
        <ele>811.465</ele>
        <time>2021-09-25T10:45:13Z</time>
      </trkpt>
      <trkpt lat="41.841897" lon="2.371698">
        <ele>812.391</ele>
        <time>2021-09-25T10:45:25Z</time>
      </trkpt>
      <trkpt lat="41.841843" lon="2.371698">
        <ele>812.581</ele>
        <time>2021-09-25T10:45:28Z</time>
      </trkpt>
      <trkpt lat="41.841794" lon="2.371704">
        <ele>812.819</ele>
        <time>2021-09-25T10:45:33Z</time>
      </trkpt>
      <trkpt lat="41.841749" lon="2.371665">
        <ele>813.008</ele>
        <time>2021-09-25T10:45:37Z</time>
      </trkpt>
      <trkpt lat="41.841724" lon="2.371598">
        <ele>813.547</ele>
        <time>2021-09-25T10:45:43Z</time>
      </trkpt>
      <trkpt lat="41.841699" lon="2.371541">
        <ele>813.733</ele>
        <time>2021-09-25T10:45:46Z</time>
      </trkpt>
      <trkpt lat="41.841678" lon="2.371477">
        <ele>814.056</ele>
        <time>2021-09-25T10:45:53Z</time>
      </trkpt>
      <trkpt lat="41.841634" lon="2.371436">
        <ele>814.474</ele>
        <time>2021-09-25T10:46:00Z</time>
      </trkpt>
      <trkpt lat="41.841586" lon="2.371418">
        <ele>814.637</ele>
        <time>2021-09-25T10:46:05Z</time>
      </trkpt>
      <trkpt lat="41.841537" lon="2.371410">
        <ele>815.061</ele>
        <time>2021-09-25T10:46:10Z</time>
      </trkpt>
      <trkpt lat="41.841498" lon="2.371373">
        <ele>815.956</ele>
        <time>2021-09-25T10:46:18Z</time>
      </trkpt>
      <trkpt lat="41.841446" lon="2.371345">
        <ele>816.056</ele>
        <time>2021-09-25T10:46:24Z</time>
      </trkpt>
      <trkpt lat="41.841405" lon="2.371311">
        <ele>816.062</ele>
        <time>2021-09-25T10:46:28Z</time>
      </trkpt>
      <trkpt lat="41.841362" lon="2.371281">
        <ele>816.083</ele>
        <time>2021-09-25T10:46:32Z</time>
      </trkpt>
      <trkpt lat="41.841317" lon="2.371244">
        <ele>815.711</ele>
        <time>2021-09-25T10:46:36Z</time>
      </trkpt>
      <trkpt lat="41.841270" lon="2.371210">
        <ele>815.008</ele>
        <time>2021-09-25T10:46:42Z</time>
      </trkpt>
      <trkpt lat="41.841224" lon="2.371189">
        <ele>814.774</ele>
        <time>2021-09-25T10:46:46Z</time>
      </trkpt>
      <trkpt lat="41.841193" lon="2.371144">
        <ele>814.640</ele>
        <time>2021-09-25T10:46:49Z</time>
      </trkpt>
      <trkpt lat="41.841154" lon="2.371105">
        <ele>814.593</ele>
        <time>2021-09-25T10:46:53Z</time>
      </trkpt>
      <trkpt lat="41.841109" lon="2.371067">
        <ele>814.291</ele>
        <time>2021-09-25T10:47:00Z</time>
      </trkpt>
      <trkpt lat="41.841064" lon="2.371032">
        <ele>813.484</ele>
        <time>2021-09-25T10:47:07Z</time>
      </trkpt>
      <trkpt lat="41.841019" lon="2.370989">
        <ele>813.278</ele>
        <time>2021-09-25T10:47:12Z</time>
      </trkpt>
      <trkpt lat="41.840975" lon="2.370953">
        <ele>813.153</ele>
        <time>2021-09-25T10:47:18Z</time>
      </trkpt>
      <trkpt lat="41.840955" lon="2.370899">
        <ele>813.143</ele>
        <time>2021-09-25T10:47:22Z</time>
      </trkpt>
      <trkpt lat="41.840935" lon="2.370842">
        <ele>813.179</ele>
        <time>2021-09-25T10:47:25Z</time>
      </trkpt>
      <trkpt lat="41.840919" lon="2.370780">
        <ele>813.105</ele>
        <time>2021-09-25T10:47:30Z</time>
      </trkpt>
      <trkpt lat="41.840881" lon="2.370734">
        <ele>813.525</ele>
        <time>2021-09-25T10:47:40Z</time>
      </trkpt>
      <trkpt lat="41.840877" lon="2.370667">
        <ele>814.108</ele>
        <time>2021-09-25T10:47:46Z</time>
      </trkpt>
      <trkpt lat="41.840887" lon="2.370589">
        <ele>814.365</ele>
        <time>2021-09-25T10:47:49Z</time>
      </trkpt>
      <trkpt lat="41.840905" lon="2.370515">
        <ele>814.941</ele>
        <time>2021-09-25T10:47:53Z</time>
      </trkpt>
      <trkpt lat="41.840906" lon="2.370447">
        <ele>815.494</ele>
        <time>2021-09-25T10:47:57Z</time>
      </trkpt>
      <trkpt lat="41.840924" lon="2.370385">
        <ele>815.812</ele>
        <time>2021-09-25T10:48:01Z</time>
      </trkpt>
      <trkpt lat="41.840941" lon="2.370328">
        <ele>815.985</ele>
        <time>2021-09-25T10:48:05Z</time>
      </trkpt>
      <trkpt lat="41.840954" lon="2.370270">
        <ele>816.229</ele>
        <time>2021-09-25T10:48:11Z</time>
      </trkpt>
      <trkpt lat="41.840960" lon="2.370208">
        <ele>816.784</ele>
        <time>2021-09-25T10:48:17Z</time>
      </trkpt>
      <trkpt lat="41.840955" lon="2.370141">
        <ele>817.074</ele>
        <time>2021-09-25T10:48:21Z</time>
      </trkpt>
      <trkpt lat="41.840942" lon="2.370070">
        <ele>817.294</ele>
        <time>2021-09-25T10:48:26Z</time>
      </trkpt>
      <trkpt lat="41.840936" lon="2.369998">
        <ele>817.857</ele>
        <time>2021-09-25T10:48:31Z</time>
      </trkpt>
      <trkpt lat="41.840925" lon="2.369929">
        <ele>818.022</ele>
        <time>2021-09-25T10:48:36Z</time>
      </trkpt>
      <trkpt lat="41.840912" lon="2.369871">
        <ele>818.108</ele>
        <time>2021-09-25T10:48:40Z</time>
      </trkpt>
      <trkpt lat="41.840900" lon="2.369798">
        <ele>818.717</ele>
        <time>2021-09-25T10:48:45Z</time>
      </trkpt>
      <trkpt lat="41.840890" lon="2.369734">
        <ele>819.463</ele>
        <time>2021-09-25T10:48:51Z</time>
      </trkpt>
      <trkpt lat="41.840895" lon="2.369668">
        <ele>820.046</ele>
        <time>2021-09-25T10:48:58Z</time>
      </trkpt>
      <trkpt lat="41.840910" lon="2.369596">
        <ele>820.534</ele>
        <time>2021-09-25T10:49:06Z</time>
      </trkpt>
      <trkpt lat="41.840929" lon="2.369538">
        <ele>820.747</ele>
        <time>2021-09-25T10:49:10Z</time>
      </trkpt>
      <trkpt lat="41.840940" lon="2.369476">
        <ele>820.941</ele>
        <time>2021-09-25T10:49:14Z</time>
      </trkpt>
      <trkpt lat="41.840950" lon="2.369404">
        <ele>821.536</ele>
        <time>2021-09-25T10:49:19Z</time>
      </trkpt>
      <trkpt lat="41.840943" lon="2.369340">
        <ele>822.446</ele>
        <time>2021-09-25T10:49:28Z</time>
      </trkpt>
      <trkpt lat="41.840945" lon="2.369278">
        <ele>823.287</ele>
        <time>2021-09-25T10:49:33Z</time>
      </trkpt>
      <trkpt lat="41.840954" lon="2.369214">
        <ele>823.842</ele>
        <time>2021-09-25T10:49:40Z</time>
      </trkpt>
      <trkpt lat="41.840961" lon="2.369148">
        <ele>824.226</ele>
        <time>2021-09-25T10:49:44Z</time>
      </trkpt>
      <trkpt lat="41.840932" lon="2.369085">
        <ele>825.108</ele>
        <time>2021-09-25T10:49:55Z</time>
      </trkpt>
      <trkpt lat="41.840900" lon="2.369035">
        <ele>825.796</ele>
        <time>2021-09-25T10:49:58Z</time>
      </trkpt>
      <trkpt lat="41.840867" lon="2.368977">
        <ele>826.052</ele>
        <time>2021-09-25T10:50:01Z</time>
      </trkpt>
      <trkpt lat="41.840845" lon="2.368922">
        <ele>826.685</ele>
        <time>2021-09-25T10:50:05Z</time>
      </trkpt>
      <trkpt lat="41.840822" lon="2.368863">
        <ele>827.123</ele>
        <time>2021-09-25T10:50:10Z</time>
      </trkpt>
      <trkpt lat="41.840782" lon="2.368818">
        <ele>827.966</ele>
        <time>2021-09-25T10:50:18Z</time>
      </trkpt>
      <trkpt lat="41.840740" lon="2.368792">
        <ele>828.220</ele>
        <time>2021-09-25T10:50:23Z</time>
      </trkpt>
      <trkpt lat="41.840682" lon="2.368791">
        <ele>828.665</ele>
        <time>2021-09-25T10:50:30Z</time>
      </trkpt>
      <trkpt lat="41.840634" lon="2.368788">
        <ele>829.275</ele>
        <time>2021-09-25T10:50:37Z</time>
      </trkpt>
      <trkpt lat="41.840576" lon="2.368800">
        <ele>830.077</ele>
        <time>2021-09-25T10:50:44Z</time>
      </trkpt>
      <trkpt lat="41.840532" lon="2.368816">
        <ele>830.561</ele>
        <time>2021-09-25T10:50:49Z</time>
      </trkpt>
      <trkpt lat="41.840483" lon="2.368791">
        <ele>831.027</ele>
        <time>2021-09-25T10:50:54Z</time>
      </trkpt>
      <trkpt lat="41.840446" lon="2.368745">
        <ele>831.508</ele>
        <time>2021-09-25T10:51:02Z</time>
      </trkpt>
      <trkpt lat="41.840419" lon="2.368695">
        <ele>831.735</ele>
        <time>2021-09-25T10:51:05Z</time>
      </trkpt>
      <trkpt lat="41.840369" lon="2.368658">
        <ele>832.031</ele>
        <time>2021-09-25T10:51:09Z</time>
      </trkpt>
      <trkpt lat="41.840330" lon="2.368626">
        <ele>832.164</ele>
        <time>2021-09-25T10:51:13Z</time>
      </trkpt>
      <trkpt lat="41.840297" lon="2.368577">
        <ele>832.132</ele>
        <time>2021-09-25T10:51:17Z</time>
      </trkpt>
      <trkpt lat="41.840262" lon="2.368517">
        <ele>832.025</ele>
        <time>2021-09-25T10:51:24Z</time>
      </trkpt>
      <trkpt lat="41.840222" lon="2.368487">
        <ele>831.889</ele>
        <time>2021-09-25T10:51:28Z</time>
      </trkpt>
      <trkpt lat="41.840173" lon="2.368460">
        <ele>831.644</ele>
        <time>2021-09-25T10:51:32Z</time>
      </trkpt>
      <trkpt lat="41.840121" lon="2.368459">
        <ele>831.384</ele>
        <time>2021-09-25T10:51:37Z</time>
      </trkpt>
      <trkpt lat="41.840071" lon="2.368452">
        <ele>831.035</ele>
        <time>2021-09-25T10:51:41Z</time>
      </trkpt>
      <trkpt lat="41.840038" lon="2.368401">
        <ele>830.686</ele>
        <time>2021-09-25T10:51:44Z</time>
      </trkpt>
      <trkpt lat="41.840022" lon="2.368336">
        <ele>830.414</ele>
        <time>2021-09-25T10:51:46Z</time>
      </trkpt>
      <trkpt lat="41.840002" lon="2.368279">
        <ele>829.808</ele>
        <time>2021-09-25T10:51:53Z</time>
      </trkpt>
      <trkpt lat="41.839978" lon="2.368215">
        <ele>829.461</ele>
        <time>2021-09-25T10:51:59Z</time>
      </trkpt>
      <trkpt lat="41.839954" lon="2.368154">
        <ele>829.247</ele>
        <time>2021-09-25T10:52:03Z</time>
      </trkpt>
      <trkpt lat="41.839925" lon="2.368098">
        <ele>828.970</ele>
        <time>2021-09-25T10:52:06Z</time>
      </trkpt>
      <trkpt lat="41.839888" lon="2.368036">
        <ele>828.678</ele>
        <time>2021-09-25T10:52:09Z</time>
      </trkpt>
      <trkpt lat="41.839868" lon="2.367977">
        <ele>828.561</ele>
        <time>2021-09-25T10:52:14Z</time>
      </trkpt>
      <trkpt lat="41.839832" lon="2.367932">
        <ele>828.185</ele>
        <time>2021-09-25T10:52:20Z</time>
      </trkpt>
      <trkpt lat="41.839843" lon="2.367873">
        <ele>828.280</ele>
        <time>2021-09-25T10:52:37Z</time>
      </trkpt>
      <trkpt lat="41.839825" lon="2.367803">
        <ele>828.410</ele>
        <time>2021-09-25T10:52:50Z</time>
      </trkpt>
      <trkpt lat="41.839811" lon="2.367704">
        <ele>828.572</ele>
        <time>2021-09-25T10:52:53Z</time>
      </trkpt>
      <trkpt lat="41.839809" lon="2.367629">
        <ele>828.613</ele>
        <time>2021-09-25T10:52:55Z</time>
      </trkpt>
      <trkpt lat="41.839814" lon="2.367560">
        <ele>828.614</ele>
        <time>2021-09-25T10:52:57Z</time>
      </trkpt>
      <trkpt lat="41.839808" lon="2.367488">
        <ele>828.508</ele>
        <time>2021-09-25T10:53:01Z</time>
      </trkpt>
      <trkpt lat="41.839799" lon="2.367427">
        <ele>828.765</ele>
        <time>2021-09-25T10:53:06Z</time>
      </trkpt>
      <trkpt lat="41.839784" lon="2.367369">
        <ele>828.761</ele>
        <time>2021-09-25T10:53:11Z</time>
      </trkpt>
      <trkpt lat="41.839757" lon="2.367318">
        <ele>828.854</ele>
        <time>2021-09-25T10:53:17Z</time>
      </trkpt>
      <trkpt lat="41.839732" lon="2.367256">
        <ele>828.962</ele>
        <time>2021-09-25T10:53:20Z</time>
      </trkpt>
      <trkpt lat="41.839717" lon="2.367183">
        <ele>829.155</ele>
        <time>2021-09-25T10:53:25Z</time>
      </trkpt>
      <trkpt lat="41.839699" lon="2.367114">
        <ele>829.629</ele>
        <time>2021-09-25T10:53:31Z</time>
      </trkpt>
      <trkpt lat="41.839680" lon="2.367047">
        <ele>829.764</ele>
        <time>2021-09-25T10:53:36Z</time>
      </trkpt>
      <trkpt lat="41.839633" lon="2.367012">
        <ele>829.884</ele>
        <time>2021-09-25T10:53:41Z</time>
      </trkpt>
      <trkpt lat="41.839588" lon="2.366981">
        <ele>829.749</ele>
        <time>2021-09-25T10:53:46Z</time>
      </trkpt>
      <trkpt lat="41.839542" lon="2.366952">
        <ele>829.102</ele>
        <time>2021-09-25T10:53:51Z</time>
      </trkpt>
      <trkpt lat="41.839493" lon="2.366919">
        <ele>828.522</ele>
        <time>2021-09-25T10:53:55Z</time>
      </trkpt>
      <trkpt lat="41.839442" lon="2.366923">
        <ele>828.008</ele>
        <time>2021-09-25T10:53:59Z</time>
      </trkpt>
      <trkpt lat="41.839389" lon="2.366922">
        <ele>828.062</ele>
        <time>2021-09-25T10:54:04Z</time>
      </trkpt>
      <trkpt lat="41.839345" lon="2.366941">
        <ele>828.078</ele>
        <time>2021-09-25T10:54:09Z</time>
      </trkpt>
      <trkpt lat="41.839292" lon="2.366952">
        <ele>828.131</ele>
        <time>2021-09-25T10:54:14Z</time>
      </trkpt>
      <trkpt lat="41.839245" lon="2.366944">
        <ele>828.399</ele>
        <time>2021-09-25T10:54:17Z</time>
      </trkpt>
      <trkpt lat="41.839194" lon="2.366963">
        <ele>828.972</ele>
        <time>2021-09-25T10:54:22Z</time>
      </trkpt>
      <trkpt lat="41.839137" lon="2.366942">
        <ele>829.656</ele>
        <time>2021-09-25T10:54:28Z</time>
      </trkpt>
      <trkpt lat="41.839087" lon="2.366931">
        <ele>830.171</ele>
        <time>2021-09-25T10:54:31Z</time>
      </trkpt>
      <trkpt lat="41.839036" lon="2.366907">
        <ele>830.311</ele>
        <time>2021-09-25T10:54:35Z</time>
      </trkpt>
      <trkpt lat="41.838994" lon="2.366880">
        <ele>831.166</ele>
        <time>2021-09-25T10:54:40Z</time>
      </trkpt>
      <trkpt lat="41.838954" lon="2.366907">
        <ele>831.429</ele>
        <time>2021-09-25T10:54:46Z</time>
      </trkpt>
      <trkpt lat="41.838902" lon="2.366894">
        <ele>832.221</ele>
        <time>2021-09-25T10:54:52Z</time>
      </trkpt>
      <trkpt lat="41.838853" lon="2.366894">
        <ele>832.708</ele>
        <time>2021-09-25T10:54:59Z</time>
      </trkpt>
      <trkpt lat="41.838802" lon="2.366910">
        <ele>832.964</ele>
        <time>2021-09-25T10:55:05Z</time>
      </trkpt>
      <trkpt lat="41.838752" lon="2.366893">
        <ele>833.460</ele>
        <time>2021-09-25T10:55:11Z</time>
      </trkpt>
      <trkpt lat="41.838697" lon="2.366867">
        <ele>833.923</ele>
        <time>2021-09-25T10:55:14Z</time>
      </trkpt>
      <trkpt lat="41.838644" lon="2.366878">
        <ele>834.681</ele>
        <time>2021-09-25T10:55:21Z</time>
      </trkpt>
      <trkpt lat="41.838597" lon="2.366862">
        <ele>834.754</ele>
        <time>2021-09-25T10:55:26Z</time>
      </trkpt>
      <trkpt lat="41.838552" lon="2.366842">
        <ele>835.088</ele>
        <time>2021-09-25T10:55:30Z</time>
      </trkpt>
      <trkpt lat="41.838508" lon="2.366822">
        <ele>835.333</ele>
        <time>2021-09-25T10:55:35Z</time>
      </trkpt>
      <trkpt lat="41.838466" lon="2.366788">
        <ele>835.863</ele>
        <time>2021-09-25T10:55:40Z</time>
      </trkpt>
      <trkpt lat="41.838426" lon="2.366758">
        <ele>836.374</ele>
        <time>2021-09-25T10:55:45Z</time>
      </trkpt>
      <trkpt lat="41.838381" lon="2.366744">
        <ele>837.556</ele>
        <time>2021-09-25T10:55:52Z</time>
      </trkpt>
      <trkpt lat="41.838341" lon="2.366707">
        <ele>837.721</ele>
        <time>2021-09-25T10:55:58Z</time>
      </trkpt>
      <trkpt lat="41.838289" lon="2.366685">
        <ele>837.808</ele>
        <time>2021-09-25T10:56:04Z</time>
      </trkpt>
      <trkpt lat="41.838235" lon="2.366676">
        <ele>838.655</ele>
        <time>2021-09-25T10:56:11Z</time>
      </trkpt>
      <trkpt lat="41.838188" lon="2.366674">
        <ele>839.161</ele>
        <time>2021-09-25T10:56:16Z</time>
      </trkpt>
      <trkpt lat="41.838136" lon="2.366683">
        <ele>839.754</ele>
        <time>2021-09-25T10:56:20Z</time>
      </trkpt>
      <trkpt lat="41.838086" lon="2.366657">
        <ele>840.522</ele>
        <time>2021-09-25T10:56:26Z</time>
      </trkpt>
      <trkpt lat="41.838039" lon="2.366647">
        <ele>841.345</ele>
        <time>2021-09-25T10:56:30Z</time>
      </trkpt>
      <trkpt lat="41.837988" lon="2.366636">
        <ele>842.019</ele>
        <time>2021-09-25T10:56:36Z</time>
      </trkpt>
      <trkpt lat="41.837943" lon="2.366647">
        <ele>842.274</ele>
        <time>2021-09-25T10:56:43Z</time>
      </trkpt>
      <trkpt lat="41.837891" lon="2.366621">
        <ele>842.614</ele>
        <time>2021-09-25T10:56:53Z</time>
      </trkpt>
      <trkpt lat="41.837847" lon="2.366572">
        <ele>843.025</ele>
        <time>2021-09-25T10:56:57Z</time>
      </trkpt>
      <trkpt lat="41.837801" lon="2.366548">
        <ele>843.526</ele>
        <time>2021-09-25T10:57:00Z</time>
      </trkpt>
      <trkpt lat="41.837743" lon="2.366536">
        <ele>843.608</ele>
        <time>2021-09-25T10:57:04Z</time>
      </trkpt>
      <trkpt lat="41.837683" lon="2.366544">
        <ele>843.808</ele>
        <time>2021-09-25T10:57:08Z</time>
      </trkpt>
      <trkpt lat="41.837635" lon="2.366534">
        <ele>843.960</ele>
        <time>2021-09-25T10:57:12Z</time>
      </trkpt>
      <trkpt lat="41.837588" lon="2.366535">
        <ele>844.276</ele>
        <time>2021-09-25T10:57:18Z</time>
      </trkpt>
      <trkpt lat="41.837535" lon="2.366522">
        <ele>844.489</ele>
        <time>2021-09-25T10:57:22Z</time>
      </trkpt>
      <trkpt lat="41.837487" lon="2.366513">
        <ele>845.037</ele>
        <time>2021-09-25T10:57:27Z</time>
      </trkpt>
      <trkpt lat="41.837438" lon="2.366512">
        <ele>845.250</ele>
        <time>2021-09-25T10:57:32Z</time>
      </trkpt>
      <trkpt lat="41.837417" lon="2.366453">
        <ele>845.714</ele>
        <time>2021-09-25T10:57:40Z</time>
      </trkpt>
      <trkpt lat="41.837392" lon="2.366397">
        <ele>846.029</ele>
        <time>2021-09-25T10:57:50Z</time>
      </trkpt>
      <trkpt lat="41.837344" lon="2.366356">
        <ele>846.779</ele>
        <time>2021-09-25T10:57:54Z</time>
      </trkpt>
      <trkpt lat="41.837301" lon="2.366327">
        <ele>847.199</ele>
        <time>2021-09-25T10:57:59Z</time>
      </trkpt>
      <trkpt lat="41.837252" lon="2.366301">
        <ele>847.507</ele>
        <time>2021-09-25T10:58:05Z</time>
      </trkpt>
      <trkpt lat="41.837205" lon="2.366277">
        <ele>847.827</ele>
        <time>2021-09-25T10:58:10Z</time>
      </trkpt>
      <trkpt lat="41.837153" lon="2.366249">
        <ele>848.108</ele>
        <time>2021-09-25T10:58:18Z</time>
      </trkpt>
      <trkpt lat="41.837111" lon="2.366225">
        <ele>848.157</ele>
        <time>2021-09-25T10:58:22Z</time>
      </trkpt>
      <trkpt lat="41.837055" lon="2.366213">
        <ele>848.193</ele>
        <time>2021-09-25T10:58:26Z</time>
      </trkpt>
      <trkpt lat="41.837007" lon="2.366215">
        <ele>847.876</ele>
        <time>2021-09-25T10:58:36Z</time>
      </trkpt>
      <trkpt lat="41.836954" lon="2.366189">
        <ele>847.814</ele>
        <time>2021-09-25T10:58:43Z</time>
      </trkpt>
      <trkpt lat="41.836895" lon="2.366180">
        <ele>847.567</ele>
        <time>2021-09-25T10:58:47Z</time>
      </trkpt>
      <trkpt lat="41.836854" lon="2.366148">
        <ele>847.481</ele>
        <time>2021-09-25T10:58:51Z</time>
      </trkpt>
      <trkpt lat="41.836816" lon="2.366109">
        <ele>847.456</ele>
        <time>2021-09-25T10:58:54Z</time>
      </trkpt>
      <trkpt lat="41.836764" lon="2.366106">
        <ele>847.036</ele>
        <time>2021-09-25T10:59:06Z</time>
      </trkpt>
      <trkpt lat="41.836705" lon="2.366095">
        <ele>846.945</ele>
        <time>2021-09-25T10:59:10Z</time>
      </trkpt>
      <trkpt lat="41.836654" lon="2.366084">
        <ele>846.847</ele>
        <time>2021-09-25T10:59:14Z</time>
      </trkpt>
      <trkpt lat="41.836592" lon="2.366105">
        <ele>845.711</ele>
        <time>2021-09-25T10:59:28Z</time>
      </trkpt>
      <trkpt lat="41.836541" lon="2.366100">
        <ele>845.408</ele>
        <time>2021-09-25T10:59:33Z</time>
      </trkpt>
      <trkpt lat="41.836493" lon="2.366103">
        <ele>845.412</ele>
        <time>2021-09-25T10:59:37Z</time>
      </trkpt>
      <trkpt lat="41.836445" lon="2.366129">
        <ele>845.498</ele>
        <time>2021-09-25T10:59:42Z</time>
      </trkpt>
      <trkpt lat="41.836402" lon="2.366109">
        <ele>845.461</ele>
        <time>2021-09-25T10:59:45Z</time>
      </trkpt>
      <trkpt lat="41.836355" lon="2.366123">
        <ele>845.319</ele>
        <time>2021-09-25T10:59:51Z</time>
      </trkpt>
      <trkpt lat="41.836311" lon="2.366139">
        <ele>845.232</ele>
        <time>2021-09-25T10:59:54Z</time>
      </trkpt>
      <trkpt lat="41.836261" lon="2.366136">
        <ele>844.466</ele>
        <time>2021-09-25T11:00:00Z</time>
      </trkpt>
      <trkpt lat="41.836228" lon="2.366078">
        <ele>844.141</ele>
        <time>2021-09-25T11:00:04Z</time>
      </trkpt>
      <trkpt lat="41.836184" lon="2.366053">
        <ele>843.951</ele>
        <time>2021-09-25T11:00:09Z</time>
      </trkpt>
      <trkpt lat="41.836140" lon="2.366010">
        <ele>843.539</ele>
        <time>2021-09-25T11:00:13Z</time>
      </trkpt>
      <trkpt lat="41.836111" lon="2.365961">
        <ele>842.901</ele>
        <time>2021-09-25T11:00:19Z</time>
      </trkpt>
      <trkpt lat="41.836072" lon="2.365917">
        <ele>842.721</ele>
        <time>2021-09-25T11:00:25Z</time>
      </trkpt>
      <trkpt lat="41.836029" lon="2.365894">
        <ele>842.508</ele>
        <time>2021-09-25T11:00:28Z</time>
      </trkpt>
      <trkpt lat="41.836006" lon="2.365822">
        <ele>842.591</ele>
        <time>2021-09-25T11:00:32Z</time>
      </trkpt>
      <trkpt lat="41.835981" lon="2.365768">
        <ele>842.517</ele>
        <time>2021-09-25T11:00:38Z</time>
      </trkpt>
      <trkpt lat="41.835938" lon="2.365736">
        <ele>842.740</ele>
        <time>2021-09-25T11:00:42Z</time>
      </trkpt>
      <trkpt lat="41.835893" lon="2.365717">
        <ele>843.278</ele>
        <time>2021-09-25T11:00:48Z</time>
      </trkpt>
      <trkpt lat="41.835843" lon="2.365699">
        <ele>843.451</ele>
        <time>2021-09-25T11:00:52Z</time>
      </trkpt>
      <trkpt lat="41.835800" lon="2.365673">
        <ele>843.615</ele>
        <time>2021-09-25T11:00:57Z</time>
      </trkpt>
      <trkpt lat="41.835757" lon="2.365647">
        <ele>844.560</ele>
        <time>2021-09-25T11:01:04Z</time>
      </trkpt>
      <trkpt lat="41.835706" lon="2.365629">
        <ele>845.170</ele>
        <time>2021-09-25T11:01:12Z</time>
      </trkpt>
      <trkpt lat="41.835660" lon="2.365601">
        <ele>845.448</ele>
        <time>2021-09-25T11:01:16Z</time>
      </trkpt>
      <trkpt lat="41.835619" lon="2.365549">
        <ele>845.661</ele>
        <time>2021-09-25T11:01:23Z</time>
      </trkpt>
      <trkpt lat="41.835589" lon="2.365504">
        <ele>845.817</ele>
        <time>2021-09-25T11:01:28Z</time>
      </trkpt>
      <trkpt lat="41.835544" lon="2.365484">
        <ele>846.108</ele>
        <time>2021-09-25T11:01:31Z</time>
      </trkpt>
      <trkpt lat="41.835487" lon="2.365465">
        <ele>846.662</ele>
        <time>2021-09-25T11:01:36Z</time>
      </trkpt>
      <trkpt lat="41.835438" lon="2.365459">
        <ele>846.668</ele>
        <time>2021-09-25T11:01:40Z</time>
      </trkpt>
      <trkpt lat="41.835392" lon="2.365451">
        <ele>846.741</ele>
        <time>2021-09-25T11:01:43Z</time>
      </trkpt>
      <trkpt lat="41.835352" lon="2.365424">
        <ele>846.799</ele>
        <time>2021-09-25T11:01:47Z</time>
      </trkpt>
      <trkpt lat="41.835311" lon="2.365394">
        <ele>846.842</ele>
        <time>2021-09-25T11:01:51Z</time>
      </trkpt>
      <trkpt lat="41.835264" lon="2.365374">
        <ele>846.946</ele>
        <time>2021-09-25T11:01:56Z</time>
      </trkpt>
      <trkpt lat="41.835214" lon="2.365375">
        <ele>847.121</ele>
        <time>2021-09-25T11:02:01Z</time>
      </trkpt>
      <trkpt lat="41.835166" lon="2.365341">
        <ele>847.351</ele>
        <time>2021-09-25T11:02:07Z</time>
      </trkpt>
      <trkpt lat="41.835123" lon="2.365320">
        <ele>847.961</ele>
        <time>2021-09-25T11:02:14Z</time>
      </trkpt>
      <trkpt lat="41.835068" lon="2.365304">
        <ele>848.121</ele>
        <time>2021-09-25T11:02:19Z</time>
      </trkpt>
      <trkpt lat="41.835014" lon="2.365301">
        <ele>848.113</ele>
        <time>2021-09-25T11:02:25Z</time>
      </trkpt>
      <trkpt lat="41.834966" lon="2.365335">
        <ele>848.108</ele>
        <time>2021-09-25T11:02:29Z</time>
      </trkpt>
      <trkpt lat="41.834918" lon="2.365343">
        <ele>847.864</ele>
        <time>2021-09-25T11:02:33Z</time>
      </trkpt>
      <trkpt lat="41.834871" lon="2.365364">
        <ele>847.590</ele>
        <time>2021-09-25T11:02:37Z</time>
      </trkpt>
      <trkpt lat="41.834820" lon="2.365354">
        <ele>847.193</ele>
        <time>2021-09-25T11:02:41Z</time>
      </trkpt>
      <trkpt lat="41.834769" lon="2.365348">
        <ele>846.971</ele>
        <time>2021-09-25T11:02:46Z</time>
      </trkpt>
      <trkpt lat="41.834722" lon="2.365332">
        <ele>846.474</ele>
        <time>2021-09-25T11:02:50Z</time>
      </trkpt>
      <trkpt lat="41.834675" lon="2.365339">
        <ele>846.118</ele>
        <time>2021-09-25T11:02:54Z</time>
      </trkpt>
      <trkpt lat="41.834628" lon="2.365351">
        <ele>845.613</ele>
        <time>2021-09-25T11:02:57Z</time>
      </trkpt>
      <trkpt lat="41.834581" lon="2.365355">
        <ele>845.443</ele>
        <time>2021-09-25T11:03:01Z</time>
      </trkpt>
      <trkpt lat="41.834526" lon="2.365366">
        <ele>845.324</ele>
        <time>2021-09-25T11:03:07Z</time>
      </trkpt>
      <trkpt lat="41.834478" lon="2.365366">
        <ele>845.204</ele>
        <time>2021-09-25T11:03:10Z</time>
      </trkpt>
      <trkpt lat="41.834423" lon="2.365350">
        <ele>845.114</ele>
        <time>2021-09-25T11:03:14Z</time>
      </trkpt>
      <trkpt lat="41.834378" lon="2.365348">
        <ele>845.108</ele>
        <time>2021-09-25T11:03:18Z</time>
      </trkpt>
      <trkpt lat="41.834325" lon="2.365355">
        <ele>845.130</ele>
        <time>2021-09-25T11:03:23Z</time>
      </trkpt>
      <trkpt lat="41.834276" lon="2.365372">
        <ele>845.246</ele>
        <time>2021-09-25T11:03:30Z</time>
      </trkpt>
      <trkpt lat="41.834230" lon="2.365380">
        <ele>845.359</ele>
        <time>2021-09-25T11:03:34Z</time>
      </trkpt>
      <trkpt lat="41.834179" lon="2.365383">
        <ele>845.457</ele>
        <time>2021-09-25T11:03:38Z</time>
      </trkpt>
      <trkpt lat="41.834123" lon="2.365406">
        <ele>845.570</ele>
        <time>2021-09-25T11:03:43Z</time>
      </trkpt>
      <trkpt lat="41.834076" lon="2.365416">
        <ele>845.714</ele>
        <time>2021-09-25T11:03:46Z</time>
      </trkpt>
      <trkpt lat="41.834033" lon="2.365439">
        <ele>846.159</ele>
        <time>2021-09-25T11:03:52Z</time>
      </trkpt>
      <trkpt lat="41.833987" lon="2.365477">
        <ele>846.439</ele>
        <time>2021-09-25T11:03:57Z</time>
      </trkpt>
      <trkpt lat="41.833937" lon="2.365493">
        <ele>846.534</ele>
        <time>2021-09-25T11:04:03Z</time>
      </trkpt>
      <trkpt lat="41.833894" lon="2.365523">
        <ele>846.855</ele>
        <time>2021-09-25T11:04:07Z</time>
      </trkpt>
      <trkpt lat="41.833847" lon="2.365533">
        <ele>847.210</ele>
        <time>2021-09-25T11:04:12Z</time>
      </trkpt>
      <trkpt lat="41.833801" lon="2.365513">
        <ele>847.708</ele>
        <time>2021-09-25T11:04:17Z</time>
      </trkpt>
      <trkpt lat="41.833758" lon="2.365548">
        <ele>848.221</ele>
        <time>2021-09-25T11:04:21Z</time>
      </trkpt>
      <trkpt lat="41.833708" lon="2.365560">
        <ele>848.887</ele>
        <time>2021-09-25T11:04:26Z</time>
      </trkpt>
      <trkpt lat="41.833653" lon="2.365548">
        <ele>849.990</ele>
        <time>2021-09-25T11:04:37Z</time>
      </trkpt>
      <trkpt lat="41.833597" lon="2.365568">
        <ele>850.338</ele>
        <time>2021-09-25T11:04:41Z</time>
      </trkpt>
      <trkpt lat="41.833549" lon="2.365571">
        <ele>850.721</ele>
        <time>2021-09-25T11:04:45Z</time>
      </trkpt>
      <trkpt lat="41.833504" lon="2.365556">
        <ele>850.975</ele>
        <time>2021-09-25T11:04:51Z</time>
      </trkpt>
      <trkpt lat="41.833463" lon="2.365523">
        <ele>851.080</ele>
        <time>2021-09-25T11:04:56Z</time>
      </trkpt>
      <trkpt lat="41.833416" lon="2.365496">
        <ele>851.440</ele>
        <time>2021-09-25T11:05:02Z</time>
      </trkpt>
      <trkpt lat="41.833359" lon="2.365484">
        <ele>851.591</ele>
        <time>2021-09-25T11:05:09Z</time>
      </trkpt>
      <trkpt lat="41.833317" lon="2.365507">
        <ele>851.681</ele>
        <time>2021-09-25T11:05:12Z</time>
      </trkpt>
      <trkpt lat="41.833276" lon="2.365532">
        <ele>852.119</ele>
        <time>2021-09-25T11:05:19Z</time>
      </trkpt>
      <trkpt lat="41.833239" lon="2.365566">
        <ele>852.308</ele>
        <time>2021-09-25T11:05:23Z</time>
      </trkpt>
      <trkpt lat="41.833213" lon="2.365635">
        <ele>852.587</ele>
        <time>2021-09-25T11:05:28Z</time>
      </trkpt>
      <trkpt lat="41.833174" lon="2.365671">
        <ele>852.923</ele>
        <time>2021-09-25T11:05:33Z</time>
      </trkpt>
      <trkpt lat="41.833131" lon="2.365694">
        <ele>853.816</ele>
        <time>2021-09-25T11:05:43Z</time>
      </trkpt>
      <trkpt lat="41.833107" lon="2.365748">
        <ele>854.774</ele>
        <time>2021-09-25T11:05:49Z</time>
      </trkpt>
      <trkpt lat="41.833094" lon="2.365808">
        <ele>855.227</ele>
        <time>2021-09-25T11:05:55Z</time>
      </trkpt>
      <trkpt lat="41.833078" lon="2.365885">
        <ele>855.971</ele>
        <time>2021-09-25T11:06:00Z</time>
      </trkpt>
      <trkpt lat="41.833049" lon="2.365947">
        <ele>856.316</ele>
        <time>2021-09-25T11:06:03Z</time>
      </trkpt>
      <trkpt lat="41.833026" lon="2.366008">
        <ele>857.586</ele>
        <time>2021-09-25T11:06:09Z</time>
      </trkpt>
      <trkpt lat="41.833024" lon="2.366069">
        <ele>857.997</ele>
        <time>2021-09-25T11:06:14Z</time>
      </trkpt>
      <trkpt lat="41.832987" lon="2.366106">
        <ele>857.823</ele>
        <time>2021-09-25T11:06:27Z</time>
      </trkpt>
      <trkpt lat="41.832956" lon="2.366155">
        <ele>857.825</ele>
        <time>2021-09-25T11:06:31Z</time>
      </trkpt>
      <trkpt lat="41.832906" lon="2.366177">
        <ele>857.508</ele>
        <time>2021-09-25T11:06:36Z</time>
      </trkpt>
      <trkpt lat="41.832854" lon="2.366172">
        <ele>856.697</ele>
        <time>2021-09-25T11:06:42Z</time>
      </trkpt>
      <trkpt lat="41.832806" lon="2.366197">
        <ele>856.773</ele>
        <time>2021-09-25T11:07:16Z</time>
      </trkpt>
      <trkpt lat="41.832769" lon="2.366234">
        <ele>856.886</ele>
        <time>2021-09-25T11:07:20Z</time>
      </trkpt>
      <trkpt lat="41.832722" lon="2.366219">
        <ele>857.344</ele>
        <time>2021-09-25T11:07:51Z</time>
      </trkpt>
      <trkpt lat="41.832693" lon="2.366168">
        <ele>857.517</ele>
        <time>2021-09-25T11:08:00Z</time>
      </trkpt>
      <trkpt lat="41.832657" lon="2.366115">
        <ele>857.751</ele>
        <time>2021-09-25T11:08:07Z</time>
      </trkpt>
      <trkpt lat="41.832629" lon="2.366050">
        <ele>857.716</ele>
        <time>2021-09-25T11:08:13Z</time>
      </trkpt>
      <trkpt lat="41.832618" lon="2.365990">
        <ele>858.766</ele>
        <time>2021-09-25T11:08:23Z</time>
      </trkpt>
      <trkpt lat="41.832604" lon="2.365931">
        <ele>859.842</ele>
        <time>2021-09-25T11:08:30Z</time>
      </trkpt>
      <trkpt lat="41.832570" lon="2.365883">
        <ele>861.422</ele>
        <time>2021-09-25T11:08:38Z</time>
      </trkpt>
      <trkpt lat="41.832537" lon="2.365835">
        <ele>862.214</ele>
        <time>2021-09-25T11:08:43Z</time>
      </trkpt>
      <trkpt lat="41.832489" lon="2.365806">
        <ele>862.908</ele>
        <time>2021-09-25T11:08:46Z</time>
      </trkpt>
      <trkpt lat="41.832437" lon="2.365796">
        <ele>863.722</ele>
        <time>2021-09-25T11:08:50Z</time>
      </trkpt>
      <trkpt lat="41.832396" lon="2.365751">
        <ele>864.328</ele>
        <time>2021-09-25T11:08:57Z</time>
      </trkpt>
      <trkpt lat="41.832358" lon="2.365715">
        <ele>864.861</ele>
        <time>2021-09-25T11:09:03Z</time>
      </trkpt>
      <trkpt lat="41.832311" lon="2.365704">
        <ele>865.349</ele>
        <time>2021-09-25T11:09:09Z</time>
      </trkpt>
      <trkpt lat="41.832264" lon="2.365676">
        <ele>865.932</ele>
        <time>2021-09-25T11:09:16Z</time>
      </trkpt>
      <trkpt lat="41.832210" lon="2.365676">
        <ele>866.226</ele>
        <time>2021-09-25T11:09:21Z</time>
      </trkpt>
      <trkpt lat="41.832155" lon="2.365657">
        <ele>867.041</ele>
        <time>2021-09-25T11:09:30Z</time>
      </trkpt>
      <trkpt lat="41.832108" lon="2.365673">
        <ele>867.961</ele>
        <time>2021-09-25T11:09:36Z</time>
      </trkpt>
      <trkpt lat="41.832063" lon="2.365627">
        <ele>869.064</ele>
        <time>2021-09-25T11:09:42Z</time>
      </trkpt>
      <trkpt lat="41.832027" lon="2.365584">
        <ele>869.906</ele>
        <time>2021-09-25T11:09:46Z</time>
      </trkpt>
      <trkpt lat="41.832007" lon="2.365508">
        <ele>870.716</ele>
        <time>2021-09-25T11:09:50Z</time>
      </trkpt>
      <trkpt lat="41.831988" lon="2.365444">
        <ele>871.808</ele>
        <time>2021-09-25T11:09:56Z</time>
      </trkpt>
      <trkpt lat="41.832021" lon="2.365374">
        <ele>872.974</ele>
        <time>2021-09-25T11:10:08Z</time>
      </trkpt>
      <trkpt lat="41.832060" lon="2.365319">
        <ele>873.650</ele>
        <time>2021-09-25T11:10:22Z</time>
      </trkpt>
      <trkpt lat="41.832101" lon="2.365279">
        <ele>874.053</ele>
        <time>2021-09-25T11:10:26Z</time>
      </trkpt>
      <trkpt lat="41.832110" lon="2.365219">
        <ele>874.021</ele>
        <time>2021-09-25T11:10:32Z</time>
      </trkpt>
      <trkpt lat="41.832122" lon="2.365280">
        <ele>874.094</ele>
        <time>2021-09-25T11:10:43Z</time>
      </trkpt>
      <trkpt lat="41.832153" lon="2.365324">
        <ele>872.168</ele>
        <time>2021-09-25T11:11:05Z</time>
      </trkpt>
      <trkpt lat="41.832189" lon="2.365367">
        <ele>871.843</ele>
        <time>2021-09-25T11:11:08Z</time>
      </trkpt>
      <trkpt lat="41.832236" lon="2.365398">
        <ele>871.243</ele>
        <time>2021-09-25T11:11:13Z</time>
      </trkpt>
      <trkpt lat="41.832286" lon="2.365421">
        <ele>870.979</ele>
        <time>2021-09-25T11:11:18Z</time>
      </trkpt>
      <trkpt lat="41.832317" lon="2.365478">
        <ele>869.605</ele>
        <time>2021-09-25T11:11:22Z</time>
      </trkpt>
      <trkpt lat="41.832347" lon="2.365524">
        <ele>868.125</ele>
        <time>2021-09-25T11:11:25Z</time>
      </trkpt>
      <trkpt lat="41.832395" lon="2.365551">
        <ele>867.208</ele>
        <time>2021-09-25T11:11:32Z</time>
      </trkpt>
      <trkpt lat="41.832451" lon="2.365578">
        <ele>866.575</ele>
        <time>2021-09-25T11:11:37Z</time>
      </trkpt>
      <trkpt lat="41.832500" lon="2.365599">
        <ele>865.841</ele>
        <time>2021-09-25T11:11:41Z</time>
      </trkpt>
      <trkpt lat="41.832544" lon="2.365621">
        <ele>865.394</ele>
        <time>2021-09-25T11:11:46Z</time>
      </trkpt>
      <trkpt lat="41.832524" lon="2.365675">
        <ele>864.972</ele>
        <time>2021-09-25T11:12:03Z</time>
      </trkpt>
      <trkpt lat="41.832503" lon="2.365733">
        <ele>864.935</ele>
        <time>2021-09-25T11:12:08Z</time>
      </trkpt>
      <trkpt lat="41.832502" lon="2.365800">
        <ele>864.969</ele>
        <time>2021-09-25T11:12:12Z</time>
      </trkpt>
      <trkpt lat="41.832490" lon="2.365867">
        <ele>865.254</ele>
        <time>2021-09-25T11:12:21Z</time>
      </trkpt>
      <trkpt lat="41.832457" lon="2.365910">
        <ele>865.684</ele>
        <time>2021-09-25T11:12:29Z</time>
      </trkpt>
      <trkpt lat="41.832429" lon="2.365974">
        <ele>866.942</ele>
        <time>2021-09-25T11:12:37Z</time>
      </trkpt>
      <trkpt lat="41.832375" lon="2.365997">
        <ele>867.522</ele>
        <time>2021-09-25T11:12:41Z</time>
      </trkpt>
      <trkpt lat="41.832330" lon="2.366065">
        <ele>868.214</ele>
        <time>2021-09-25T11:12:43Z</time>
      </trkpt>
      <trkpt lat="41.832309" lon="2.366120">
        <ele>868.408</ele>
        <time>2021-09-25T11:12:45Z</time>
      </trkpt>
      <trkpt lat="41.832270" lon="2.366171">
        <ele>868.962</ele>
        <time>2021-09-25T11:12:48Z</time>
      </trkpt>
      <trkpt lat="41.832264" lon="2.366234">
        <ele>869.228</ele>
        <time>2021-09-25T11:12:51Z</time>
      </trkpt>
      <trkpt lat="41.832251" lon="2.366299">
        <ele>870.671</ele>
        <time>2021-09-25T11:13:07Z</time>
      </trkpt>
      <trkpt lat="41.832248" lon="2.366368">
        <ele>872.229</ele>
        <time>2021-09-25T11:13:26Z</time>
      </trkpt>
      <trkpt lat="41.832223" lon="2.366439">
        <ele>872.492</ele>
        <time>2021-09-25T11:13:29Z</time>
      </trkpt>
      <trkpt lat="41.832189" lon="2.366482">
        <ele>873.086</ele>
        <time>2021-09-25T11:13:35Z</time>
      </trkpt>
      <trkpt lat="41.832163" lon="2.366544">
        <ele>873.811</ele>
        <time>2021-09-25T11:13:41Z</time>
      </trkpt>
      <trkpt lat="41.832123" lon="2.366599">
        <ele>874.471</ele>
        <time>2021-09-25T11:13:44Z</time>
      </trkpt>
      <trkpt lat="41.832095" lon="2.366669">
        <ele>875.271</ele>
        <time>2021-09-25T11:13:47Z</time>
      </trkpt>
      <trkpt lat="41.832069" lon="2.366728">
        <ele>875.841</ele>
        <time>2021-09-25T11:13:51Z</time>
      </trkpt>
      <trkpt lat="41.832046" lon="2.366784">
        <ele>876.015</ele>
        <time>2021-09-25T11:13:54Z</time>
      </trkpt>
      <trkpt lat="41.832001" lon="2.366821">
        <ele>878.408</ele>
        <time>2021-09-25T11:14:23Z</time>
      </trkpt>
      <trkpt lat="41.831969" lon="2.366866">
        <ele>878.895</ele>
        <time>2021-09-25T11:14:29Z</time>
      </trkpt>
      <trkpt lat="41.831933" lon="2.366925">
        <ele>879.081</ele>
        <time>2021-09-25T11:14:35Z</time>
      </trkpt>
      <trkpt lat="41.831880" lon="2.366957">
        <ele>879.894</ele>
        <time>2021-09-25T11:14:38Z</time>
      </trkpt>
      <trkpt lat="41.831865" lon="2.367014">
        <ele>881.472</ele>
        <time>2021-09-25T11:14:53Z</time>
      </trkpt>
      <trkpt lat="41.831863" lon="2.367085">
        <ele>882.365</ele>
        <time>2021-09-25T11:14:58Z</time>
      </trkpt>
      <trkpt lat="41.831858" lon="2.367147">
        <ele>882.489</ele>
        <time>2021-09-25T11:15:02Z</time>
      </trkpt>
      <trkpt lat="41.831868" lon="2.367215">
        <ele>882.774</ele>
        <time>2021-09-25T11:15:07Z</time>
      </trkpt>
      <trkpt lat="41.831852" lon="2.367272">
        <ele>882.974</ele>
        <time>2021-09-25T11:15:12Z</time>
      </trkpt>
      <trkpt lat="41.831834" lon="2.367329">
        <ele>883.414</ele>
        <time>2021-09-25T11:15:16Z</time>
      </trkpt>
      <trkpt lat="41.831800" lon="2.367386">
        <ele>883.454</ele>
        <time>2021-09-25T11:15:21Z</time>
      </trkpt>
      <trkpt lat="41.831767" lon="2.367459">
        <ele>883.409</ele>
        <time>2021-09-25T11:15:32Z</time>
      </trkpt>
      <trkpt lat="41.831741" lon="2.367511">
        <ele>882.908</ele>
        <time>2021-09-25T11:15:38Z</time>
      </trkpt>
      <trkpt lat="41.831705" lon="2.367560">
        <ele>882.739</ele>
        <time>2021-09-25T11:15:42Z</time>
      </trkpt>
      <trkpt lat="41.831690" lon="2.367619">
        <ele>882.295</ele>
        <time>2021-09-25T11:15:47Z</time>
      </trkpt>
      <trkpt lat="41.831647" lon="2.367638">
        <ele>881.868</ele>
        <time>2021-09-25T11:16:09Z</time>
      </trkpt>
      <trkpt lat="41.831620" lon="2.367687">
        <ele>882.046</ele>
        <time>2021-09-25T11:16:23Z</time>
      </trkpt>
      <trkpt lat="41.831589" lon="2.367741">
        <ele>882.029</ele>
        <time>2021-09-25T11:16:32Z</time>
      </trkpt>
      <trkpt lat="41.831573" lon="2.367799">
        <ele>882.263</ele>
        <time>2021-09-25T11:16:46Z</time>
      </trkpt>
      <trkpt lat="41.831571" lon="2.367869">
        <ele>882.598</ele>
        <time>2021-09-25T11:16:55Z</time>
      </trkpt>
      <trkpt lat="41.831526" lon="2.367901">
        <ele>884.978</ele>
        <time>2021-09-25T11:17:04Z</time>
      </trkpt>
      <trkpt lat="41.831559" lon="2.367984">
        <ele>886.578</ele>
        <time>2021-09-25T11:17:13Z</time>
      </trkpt>
      <trkpt lat="41.831565" lon="2.368049">
        <ele>888.633</ele>
        <time>2021-09-25T11:17:26Z</time>
      </trkpt>
      <trkpt lat="41.831537" lon="2.368104">
        <ele>888.826</ele>
        <time>2021-09-25T11:17:31Z</time>
      </trkpt>
      <trkpt lat="41.831527" lon="2.368173">
        <ele>890.008</ele>
        <time>2021-09-25T11:17:48Z</time>
      </trkpt>
      <trkpt lat="41.831508" lon="2.368233">
        <ele>891.295</ele>
        <time>2021-09-25T11:17:56Z</time>
      </trkpt>
      <trkpt lat="41.831497" lon="2.368292">
        <ele>892.751</ele>
        <time>2021-09-25T11:18:12Z</time>
      </trkpt>
      <trkpt lat="41.831472" lon="2.368353">
        <ele>894.334</ele>
        <time>2021-09-25T11:18:24Z</time>
      </trkpt>
      <trkpt lat="41.831441" lon="2.368413">
        <ele>897.662</ele>
        <time>2021-09-25T11:18:38Z</time>
      </trkpt>
      <trkpt lat="41.831416" lon="2.368476">
        <ele>898.795</ele>
        <time>2021-09-25T11:18:41Z</time>
      </trkpt>
      <trkpt lat="41.831380" lon="2.368516">
        <ele>899.439</ele>
        <time>2021-09-25T11:18:43Z</time>
      </trkpt>
      <trkpt lat="41.831346" lon="2.368556">
        <ele>900.644</ele>
        <time>2021-09-25T11:18:47Z</time>
      </trkpt>
      <trkpt lat="41.831303" lon="2.368607">
        <ele>901.614</ele>
        <time>2021-09-25T11:18:52Z</time>
      </trkpt>
      <trkpt lat="41.831279" lon="2.368660">
        <ele>902.799</ele>
        <time>2021-09-25T11:18:58Z</time>
      </trkpt>
      <trkpt lat="41.831239" lon="2.368691">
        <ele>903.807</ele>
        <time>2021-09-25T11:19:03Z</time>
      </trkpt>
      <trkpt lat="41.831206" lon="2.368738">
        <ele>904.327</ele>
        <time>2021-09-25T11:19:08Z</time>
      </trkpt>
      <trkpt lat="41.831170" lon="2.368813">
        <ele>904.608</ele>
        <time>2021-09-25T11:19:11Z</time>
      </trkpt>
      <trkpt lat="41.831136" lon="2.368886">
        <ele>905.567</ele>
        <time>2021-09-25T11:19:16Z</time>
      </trkpt>
      <trkpt lat="41.831107" lon="2.368932">
        <ele>906.173</ele>
        <time>2021-09-25T11:19:20Z</time>
      </trkpt>
      <trkpt lat="41.831064" lon="2.368964">
        <ele>906.526</ele>
        <time>2021-09-25T11:19:24Z</time>
      </trkpt>
      <trkpt lat="41.831013" lon="2.368990">
        <ele>907.324</ele>
        <time>2021-09-25T11:19:28Z</time>
      </trkpt>
      <trkpt lat="41.830964" lon="2.369020">
        <ele>907.757</ele>
        <time>2021-09-25T11:19:33Z</time>
      </trkpt>
      <trkpt lat="41.830908" lon="2.369020">
        <ele>908.051</ele>
        <time>2021-09-25T11:19:39Z</time>
      </trkpt>
      <trkpt lat="41.830860" lon="2.369036">
        <ele>908.536</ele>
        <time>2021-09-25T11:19:44Z</time>
      </trkpt>
      <trkpt lat="41.830815" lon="2.369070">
        <ele>909.296</ele>
        <time>2021-09-25T11:19:49Z</time>
      </trkpt>
      <trkpt lat="41.830782" lon="2.369016">
        <ele>910.077</ele>
        <time>2021-09-25T11:19:56Z</time>
      </trkpt>
      <trkpt lat="41.830737" lon="2.369028">
        <ele>912.761</ele>
        <time>2021-09-25T11:20:20Z</time>
      </trkpt>
      <trkpt lat="41.830689" lon="2.369020">
        <ele>912.927</ele>
        <time>2021-09-25T11:20:24Z</time>
      </trkpt>
      <trkpt lat="41.830646" lon="2.369040">
        <ele>913.408</ele>
        <time>2021-09-25T11:20:28Z</time>
      </trkpt>
      <trkpt lat="41.830602" lon="2.369065">
        <ele>913.675</ele>
        <time>2021-09-25T11:20:34Z</time>
      </trkpt>
      <trkpt lat="41.830552" lon="2.369033">
        <ele>914.641</ele>
        <time>2021-09-25T11:20:40Z</time>
      </trkpt>
      <trkpt lat="41.830504" lon="2.369024">
        <ele>915.524</ele>
        <time>2021-09-25T11:20:45Z</time>
      </trkpt>
      <trkpt lat="41.830457" lon="2.369026">
        <ele>916.992</ele>
        <time>2021-09-25T11:20:51Z</time>
      </trkpt>
      <trkpt lat="41.830410" lon="2.369009">
        <ele>917.685</ele>
        <time>2021-09-25T11:20:57Z</time>
      </trkpt>
      <trkpt lat="41.830363" lon="2.368997">
        <ele>920.739</ele>
        <time>2021-09-25T11:21:40Z</time>
      </trkpt>
      <trkpt lat="41.830311" lon="2.368995">
        <ele>920.784</ele>
        <time>2021-09-25T11:21:49Z</time>
      </trkpt>
      <trkpt lat="41.830266" lon="2.369019">
        <ele>920.934</ele>
        <time>2021-09-25T11:21:54Z</time>
      </trkpt>
      <trkpt lat="41.830222" lon="2.369058">
        <ele>921.088</ele>
        <time>2021-09-25T11:22:02Z</time>
      </trkpt>
      <trkpt lat="41.830177" lon="2.369087">
        <ele>921.124</ele>
        <time>2021-09-25T11:22:11Z</time>
      </trkpt>
      <trkpt lat="41.830133" lon="2.369107">
        <ele>922.726</ele>
        <time>2021-09-25T11:22:19Z</time>
      </trkpt>
      <trkpt lat="41.830082" lon="2.369085">
        <ele>924.108</ele>
        <time>2021-09-25T11:22:29Z</time>
      </trkpt>
      <trkpt lat="41.830035" lon="2.369079">
        <ele>925.056</ele>
        <time>2021-09-25T11:22:33Z</time>
      </trkpt>
      <trkpt lat="41.829992" lon="2.369100">
        <ele>926.742</ele>
        <time>2021-09-25T11:22:42Z</time>
      </trkpt>
      <trkpt lat="41.829943" lon="2.369115">
        <ele>927.335</ele>
        <time>2021-09-25T11:22:51Z</time>
      </trkpt>
      <trkpt lat="41.829901" lon="2.369138">
        <ele>928.433</ele>
        <time>2021-09-25T11:22:59Z</time>
      </trkpt>
      <trkpt lat="41.829857" lon="2.369172">
        <ele>928.986</ele>
        <time>2021-09-25T11:23:05Z</time>
      </trkpt>
      <trkpt lat="41.829820" lon="2.369212">
        <ele>930.290</ele>
        <time>2021-09-25T11:23:15Z</time>
      </trkpt>
      <trkpt lat="41.829788" lon="2.369254">
        <ele>931.345</ele>
        <time>2021-09-25T11:23:21Z</time>
      </trkpt>
      <trkpt lat="41.829744" lon="2.369287">
        <ele>932.315</ele>
        <time>2021-09-25T11:23:27Z</time>
      </trkpt>
      <trkpt lat="41.829710" lon="2.369331">
        <ele>933.942</ele>
        <time>2021-09-25T11:23:38Z</time>
      </trkpt>
      <trkpt lat="41.829690" lon="2.369386">
        <ele>934.922</ele>
        <time>2021-09-25T11:23:48Z</time>
      </trkpt>
      <trkpt lat="41.829653" lon="2.369420">
        <ele>937.414</ele>
        <time>2021-09-25T11:24:05Z</time>
      </trkpt>
      <trkpt lat="41.829645" lon="2.369487">
        <ele>937.808</ele>
        <time>2021-09-25T11:24:14Z</time>
      </trkpt>
      <trkpt lat="41.829603" lon="2.369521">
        <ele>938.672</ele>
        <time>2021-09-25T11:24:23Z</time>
      </trkpt>
      <trkpt lat="41.829556" lon="2.369529">
        <ele>939.988</ele>
        <time>2021-09-25T11:24:39Z</time>
      </trkpt>
      <trkpt lat="41.829512" lon="2.369576">
        <ele>942.131</ele>
        <time>2021-09-25T11:24:46Z</time>
      </trkpt>
      <trkpt lat="41.829508" lon="2.369642">
        <ele>943.229</ele>
        <time>2021-09-25T11:24:50Z</time>
      </trkpt>
      <trkpt lat="41.829461" lon="2.369662">
        <ele>945.012</ele>
        <time>2021-09-25T11:24:59Z</time>
      </trkpt>
      <trkpt lat="41.829413" lon="2.369645">
        <ele>945.956</ele>
        <time>2021-09-25T11:25:02Z</time>
      </trkpt>
      <trkpt lat="41.829365" lon="2.369658">
        <ele>946.781</ele>
        <time>2021-09-25T11:25:07Z</time>
      </trkpt>
      <trkpt lat="41.829326" lon="2.369689">
        <ele>947.851</ele>
        <time>2021-09-25T11:25:13Z</time>
      </trkpt>
      <trkpt lat="41.829316" lon="2.369750">
        <ele>949.265</ele>
        <time>2021-09-25T11:25:25Z</time>
      </trkpt>
      <trkpt lat="41.829292" lon="2.369802">
        <ele>952.068</ele>
        <time>2021-09-25T11:25:50Z</time>
      </trkpt>
      <trkpt lat="41.829336" lon="2.369784">
        <ele>953.614</ele>
        <time>2021-09-25T11:25:59Z</time>
      </trkpt>
      <trkpt lat="41.829305" lon="2.369828">
        <ele>956.708</ele>
        <time>2021-09-25T11:26:18Z</time>
      </trkpt>
      <trkpt lat="41.829256" lon="2.369818">
        <ele>957.944</ele>
        <time>2021-09-25T11:26:25Z</time>
      </trkpt>
      <trkpt lat="41.829209" lon="2.369839">
        <ele>959.270</ele>
        <time>2021-09-25T11:26:30Z</time>
      </trkpt>
      <trkpt lat="41.829158" lon="2.369870">
        <ele>959.723</ele>
        <time>2021-09-25T11:26:35Z</time>
      </trkpt>
      <trkpt lat="41.829117" lon="2.369903">
        <ele>960.041</ele>
        <time>2021-09-25T11:26:40Z</time>
      </trkpt>
      <trkpt lat="41.829082" lon="2.369952">
        <ele>960.714</ele>
        <time>2021-09-25T11:26:45Z</time>
      </trkpt>
      <trkpt lat="41.829049" lon="2.369999">
        <ele>961.598</ele>
        <time>2021-09-25T11:26:50Z</time>
      </trkpt>
      <trkpt lat="41.829013" lon="2.370052">
        <ele>962.523</ele>
        <time>2021-09-25T11:26:58Z</time>
      </trkpt>
      <trkpt lat="41.828961" lon="2.370070">
        <ele>962.913</ele>
        <time>2021-09-25T11:27:06Z</time>
      </trkpt>
      <trkpt lat="41.828922" lon="2.370112">
        <ele>963.584</ele>
        <time>2021-09-25T11:27:11Z</time>
      </trkpt>
      <trkpt lat="41.828871" lon="2.370105">
        <ele>963.707</ele>
        <time>2021-09-25T11:27:15Z</time>
      </trkpt>
      <trkpt lat="41.828828" lon="2.370087">
        <ele>963.817</ele>
        <time>2021-09-25T11:27:20Z</time>
      </trkpt>
      <trkpt lat="41.828788" lon="2.370133">
        <ele>964.308</ele>
        <time>2021-09-25T11:27:31Z</time>
      </trkpt>
      <trkpt lat="41.828756" lon="2.370177">
        <ele>965.466</ele>
        <time>2021-09-25T11:27:43Z</time>
      </trkpt>
      <trkpt lat="41.828739" lon="2.370246">
        <ele>966.072</ele>
        <time>2021-09-25T11:27:51Z</time>
      </trkpt>
      <trkpt lat="41.828723" lon="2.370305">
        <ele>967.065</ele>
        <time>2021-09-25T11:27:56Z</time>
      </trkpt>
      <trkpt lat="41.828696" lon="2.370359">
        <ele>968.023</ele>
        <time>2021-09-25T11:28:01Z</time>
      </trkpt>
      <trkpt lat="41.828655" lon="2.370410">
        <ele>968.666</ele>
        <time>2021-09-25T11:28:06Z</time>
      </trkpt>
      <trkpt lat="41.828644" lon="2.370477">
        <ele>969.630</ele>
        <time>2021-09-25T11:28:11Z</time>
      </trkpt>
      <trkpt lat="41.828621" lon="2.370540">
        <ele>970.945</ele>
        <time>2021-09-25T11:28:18Z</time>
      </trkpt>
      <trkpt lat="41.828585" lon="2.370598">
        <ele>972.235</ele>
        <time>2021-09-25T11:28:29Z</time>
      </trkpt>
      <trkpt lat="41.828553" lon="2.370659">
        <ele>973.376</ele>
        <time>2021-09-25T11:28:37Z</time>
      </trkpt>
      <trkpt lat="41.828517" lon="2.370711">
        <ele>974.390</ele>
        <time>2021-09-25T11:28:47Z</time>
      </trkpt>
      <trkpt lat="41.828511" lon="2.370775">
        <ele>975.319</ele>
        <time>2021-09-25T11:28:54Z</time>
      </trkpt>
      <trkpt lat="41.828493" lon="2.370833">
        <ele>976.108</ele>
        <time>2021-09-25T11:29:03Z</time>
      </trkpt>
      <trkpt lat="41.828465" lon="2.370896">
        <ele>977.175</ele>
        <time>2021-09-25T11:29:11Z</time>
      </trkpt>
      <trkpt lat="41.828454" lon="2.370962">
        <ele>978.451</ele>
        <time>2021-09-25T11:29:20Z</time>
      </trkpt>
      <trkpt lat="41.828437" lon="2.371019">
        <ele>979.634</ele>
        <time>2021-09-25T11:29:29Z</time>
      </trkpt>
      <trkpt lat="41.828401" lon="2.371065">
        <ele>980.362</ele>
        <time>2021-09-25T11:29:37Z</time>
      </trkpt>
      <trkpt lat="41.828357" lon="2.371105">
        <ele>981.535</ele>
        <time>2021-09-25T11:29:47Z</time>
      </trkpt>
      <trkpt lat="41.828307" lon="2.371118">
        <ele>983.169</ele>
        <time>2021-09-25T11:29:58Z</time>
      </trkpt>
      <trkpt lat="41.828257" lon="2.371129">
        <ele>983.474</ele>
        <time>2021-09-25T11:30:05Z</time>
      </trkpt>
      <trkpt lat="41.828207" lon="2.371151">
        <ele>984.634</ele>
        <time>2021-09-25T11:30:14Z</time>
      </trkpt>
      <trkpt lat="41.828175" lon="2.371206">
        <ele>985.787</ele>
        <time>2021-09-25T11:30:21Z</time>
      </trkpt>
      <trkpt lat="41.828153" lon="2.371271">
        <ele>986.642</ele>
        <time>2021-09-25T11:30:27Z</time>
      </trkpt>
      <trkpt lat="41.828125" lon="2.371329">
        <ele>987.726</ele>
        <time>2021-09-25T11:30:31Z</time>
      </trkpt>
      <trkpt lat="41.828095" lon="2.371381">
        <ele>988.508</ele>
        <time>2021-09-25T11:30:37Z</time>
      </trkpt>
      <trkpt lat="41.828060" lon="2.371431">
        <ele>989.376</ele>
        <time>2021-09-25T11:30:43Z</time>
      </trkpt>
      <trkpt lat="41.828024" lon="2.371483">
        <ele>990.712</ele>
        <time>2021-09-25T11:30:55Z</time>
      </trkpt>
      <trkpt lat="41.828000" lon="2.371538">
        <ele>991.095</ele>
        <time>2021-09-25T11:31:01Z</time>
      </trkpt>
      <trkpt lat="41.827954" lon="2.371543">
        <ele>991.883</ele>
        <time>2021-09-25T11:31:08Z</time>
      </trkpt>
      <trkpt lat="41.827901" lon="2.371583">
        <ele>992.846</ele>
        <time>2021-09-25T11:31:14Z</time>
      </trkpt>
      <trkpt lat="41.827886" lon="2.371643">
        <ele>993.340</ele>
        <time>2021-09-25T11:31:25Z</time>
      </trkpt>
      <trkpt lat="41.827921" lon="2.371594">
        <ele>994.055</ele>
        <time>2021-09-25T11:31:35Z</time>
      </trkpt>
      <trkpt lat="41.827946" lon="2.371528">
        <ele>994.345</ele>
        <time>2021-09-25T11:31:48Z</time>
      </trkpt>
      <trkpt lat="41.827946" lon="2.371589">
        <ele>994.379</ele>
        <time>2021-09-25T11:32:05Z</time>
      </trkpt>
      <trkpt lat="41.827914" lon="2.371643">
        <ele>994.405</ele>
        <time>2021-09-25T11:32:18Z</time>
      </trkpt>
      <trkpt lat="41.827885" lon="2.371702">
        <ele>994.725</ele>
        <time>2021-09-25T11:32:25Z</time>
      </trkpt>
      <trkpt lat="41.827844" lon="2.371742">
        <ele>995.308</ele>
        <time>2021-09-25T11:32:32Z</time>
      </trkpt>
      <trkpt lat="41.827825" lon="2.371800">
        <ele>997.355</ele>
        <time>2021-09-25T11:32:44Z</time>
      </trkpt>
      <trkpt lat="41.827856" lon="2.371852">
        <ele>998.231</ele>
        <time>2021-09-25T11:32:48Z</time>
      </trkpt>
      <trkpt lat="41.827875" lon="2.371919">
        <ele>1000.434</ele>
        <time>2021-09-25T11:33:08Z</time>
      </trkpt>
      <trkpt lat="41.827866" lon="2.371980">
        <ele>1003.912</ele>
        <time>2021-09-25T11:33:28Z</time>
      </trkpt>
      <trkpt lat="41.827830" lon="2.372027">
        <ele>1006.765</ele>
        <time>2021-09-25T11:33:51Z</time>
      </trkpt>
      <trkpt lat="41.827787" lon="2.372054">
        <ele>1008.699</ele>
        <time>2021-09-25T11:34:02Z</time>
      </trkpt>
      <trkpt lat="41.827764" lon="2.372121">
        <ele>1009.654</ele>
        <time>2021-09-25T11:34:12Z</time>
      </trkpt>
      <trkpt lat="41.827721" lon="2.372146">
        <ele>1011.644</ele>
        <time>2021-09-25T11:34:19Z</time>
      </trkpt>
      <trkpt lat="41.827678" lon="2.372182">
        <ele>1013.269</ele>
        <time>2021-09-25T11:34:34Z</time>
      </trkpt>
      <trkpt lat="41.827630" lon="2.372202">
        <ele>1014.104</ele>
        <time>2021-09-25T11:34:38Z</time>
      </trkpt>
      <trkpt lat="41.827593" lon="2.372253">
        <ele>1014.924</ele>
        <time>2021-09-25T11:34:43Z</time>
      </trkpt>
      <trkpt lat="41.827612" lon="2.372309">
        <ele>1015.508</ele>
        <time>2021-09-25T11:34:47Z</time>
      </trkpt>
      <trkpt lat="41.827629" lon="2.372372">
        <ele>1016.554</ele>
        <time>2021-09-25T11:34:51Z</time>
      </trkpt>
      <trkpt lat="41.827622" lon="2.372434">
        <ele>1017.990</ele>
        <time>2021-09-25T11:34:57Z</time>
      </trkpt>
      <trkpt lat="41.827600" lon="2.372506">
        <ele>1019.053</ele>
        <time>2021-09-25T11:35:05Z</time>
      </trkpt>
      <trkpt lat="41.827576" lon="2.372559">
        <ele>1020.981</ele>
        <time>2021-09-25T11:35:18Z</time>
      </trkpt>
      <trkpt lat="41.827570" lon="2.372638">
        <ele>1021.124</ele>
        <time>2021-09-25T11:35:26Z</time>
      </trkpt>
      <trkpt lat="41.827534" lon="2.372690">
        <ele>1022.328</ele>
        <time>2021-09-25T11:35:43Z</time>
      </trkpt>
      <trkpt lat="41.827550" lon="2.372757">
        <ele>1024.333</ele>
        <time>2021-09-25T11:35:55Z</time>
      </trkpt>
      <trkpt lat="41.827593" lon="2.372782">
        <ele>1025.743</ele>
        <time>2021-09-25T11:36:25Z</time>
      </trkpt>
      <trkpt lat="41.827601" lon="2.372854">
        <ele>1025.876</ele>
        <time>2021-09-25T11:36:32Z</time>
      </trkpt>
      <trkpt lat="41.827564" lon="2.372819">
        <ele>1029.090</ele>
        <time>2021-09-25T11:37:30Z</time>
      </trkpt>
      <trkpt lat="41.827591" lon="2.372876">
        <ele>1029.119</ele>
        <time>2021-09-25T11:38:21Z</time>
      </trkpt>
      <trkpt lat="41.827592" lon="2.372941">
        <ele>1029.208</ele>
        <time>2021-09-25T11:38:46Z</time>
      </trkpt>
      <trkpt lat="41.827570" lon="2.372887">
        <ele>1031.085</ele>
        <time>2021-09-25T11:38:59Z</time>
      </trkpt>
      <trkpt lat="41.827565" lon="2.372951">
        <ele>1031.181</ele>
        <time>2021-09-25T11:39:17Z</time>
      </trkpt>
      <trkpt lat="41.827526" lon="2.373001">
        <ele>1031.744</ele>
        <time>2021-09-25T11:39:39Z</time>
      </trkpt>
      <trkpt lat="41.827525" lon="2.373069">
        <ele>1032.982</ele>
        <time>2021-09-25T11:40:01Z</time>
      </trkpt>
      <trkpt lat="41.827512" lon="2.373138">
        <ele>1032.925</ele>
        <time>2021-09-25T11:40:04Z</time>
      </trkpt>
      <trkpt lat="41.827490" lon="2.373193">
        <ele>1034.079</ele>
        <time>2021-09-25T11:40:08Z</time>
      </trkpt>
      <trkpt lat="41.827455" lon="2.373239">
        <ele>1034.414</ele>
        <time>2021-09-25T11:40:13Z</time>
      </trkpt>
      <trkpt lat="41.827401" lon="2.373259">
        <ele>1035.934</ele>
        <time>2021-09-25T11:40:20Z</time>
      </trkpt>
      <trkpt lat="41.827354" lon="2.373252">
        <ele>1036.522</ele>
        <time>2021-09-25T11:40:29Z</time>
      </trkpt>
      <trkpt lat="41.827308" lon="2.373257">
        <ele>1036.762</ele>
        <time>2021-09-25T11:40:36Z</time>
      </trkpt>
      <trkpt lat="41.827262" lon="2.373230">
        <ele>1037.208</ele>
        <time>2021-09-25T11:40:46Z</time>
      </trkpt>
      <trkpt lat="41.827210" lon="2.373217">
        <ele>1038.108</ele>
        <time>2021-09-25T11:40:53Z</time>
      </trkpt>
      <trkpt lat="41.827169" lon="2.373244">
        <ele>1039.050</ele>
        <time>2021-09-25T11:41:03Z</time>
      </trkpt>
      <trkpt lat="41.827185" lon="2.373301">
        <ele>1040.316</ele>
        <time>2021-09-25T11:41:23Z</time>
      </trkpt>
      <trkpt lat="41.827198" lon="2.373362">
        <ele>1040.379</ele>
        <time>2021-09-25T11:41:27Z</time>
      </trkpt>
      <trkpt lat="41.827193" lon="2.373430">
        <ele>1040.027</ele>
        <time>2021-09-25T11:41:35Z</time>
      </trkpt>
      <trkpt lat="41.827172" lon="2.373498">
        <ele>1039.910</ele>
        <time>2021-09-25T11:41:38Z</time>
      </trkpt>
      <trkpt lat="41.827267" lon="2.373521">
        <ele>1040.054</ele>
        <time>2021-09-25T11:41:43Z</time>
      </trkpt>
      <trkpt lat="41.827225" lon="2.373601">
        <ele>1039.949</ele>
        <time>2021-09-25T11:41:45Z</time>
      </trkpt>
      <trkpt lat="41.827198" lon="2.373658">
        <ele>1040.069</ele>
        <time>2021-09-25T11:41:47Z</time>
      </trkpt>
      <trkpt lat="41.827277" lon="2.373609">
        <ele>1040.092</ele>
        <time>2021-09-25T11:41:50Z</time>
      </trkpt>
      <trkpt lat="41.827257" lon="2.373553">
        <ele>1040.073</ele>
        <time>2021-09-25T11:41:52Z</time>
      </trkpt>
      <trkpt lat="41.827252" lon="2.373614">
        <ele>1039.920</ele>
        <time>2021-09-25T11:41:54Z</time>
      </trkpt>
      <trkpt lat="41.827206" lon="2.373057">
        <ele>1040.008</ele>
        <time>2021-09-25T11:42:24Z</time>
      </trkpt>
      <trkpt lat="41.827178" lon="2.373265">
        <ele>1040.687</ele>
        <time>2021-09-25T11:42:29Z</time>
      </trkpt>
      <trkpt lat="41.827117" lon="2.373312">
        <ele>1040.773</ele>
        <time>2021-09-25T11:42:32Z</time>
      </trkpt>
      <trkpt lat="41.827162" lon="2.373368">
        <ele>1041.466</ele>
        <time>2021-09-25T11:42:36Z</time>
      </trkpt>
      <trkpt lat="41.827190" lon="2.373439">
        <ele>1041.684</ele>
        <time>2021-09-25T11:42:40Z</time>
      </trkpt>
      <trkpt lat="41.827153" lon="2.373483">
        <ele>1042.867</ele>
        <time>2021-09-25T11:43:47Z</time>
      </trkpt>
      <trkpt lat="41.827148" lon="2.373546">
        <ele>1042.881</ele>
        <time>2021-09-25T11:43:52Z</time>
      </trkpt>
      <trkpt lat="41.827130" lon="2.373605">
        <ele>1043.066</ele>
        <time>2021-09-25T11:43:57Z</time>
      </trkpt>
      <trkpt lat="41.827105" lon="2.373657">
        <ele>1043.436</ele>
        <time>2021-09-25T11:44:05Z</time>
      </trkpt>
      <trkpt lat="41.827059" lon="2.373678">
        <ele>1046.416</ele>
        <time>2021-09-25T11:44:21Z</time>
      </trkpt>
      <trkpt lat="41.827018" lon="2.373725">
        <ele>1047.376</ele>
        <time>2021-09-25T11:44:28Z</time>
      </trkpt>
      <trkpt lat="41.826972" lon="2.373763">
        <ele>1047.613</ele>
        <time>2021-09-25T11:44:33Z</time>
      </trkpt>
      <trkpt lat="41.826947" lon="2.373825">
        <ele>1049.008</ele>
        <time>2021-09-25T11:44:43Z</time>
      </trkpt>
      <trkpt lat="41.826908" lon="2.373861">
        <ele>1049.999</ele>
        <time>2021-09-25T11:44:51Z</time>
      </trkpt>
      <trkpt lat="41.826873" lon="2.373822">
        <ele>1051.925</ele>
        <time>2021-09-25T11:44:59Z</time>
      </trkpt>
      <trkpt lat="41.826834" lon="2.373877">
        <ele>1053.598</ele>
        <time>2021-09-25T11:45:11Z</time>
      </trkpt>
      <trkpt lat="41.826811" lon="2.373930">
        <ele>1054.586</ele>
        <time>2021-09-25T11:45:19Z</time>
      </trkpt>
      <trkpt lat="41.826764" lon="2.373916">
        <ele>1055.719</ele>
        <time>2021-09-25T11:45:26Z</time>
      </trkpt>
      <trkpt lat="41.826724" lon="2.373948">
        <ele>1056.393</ele>
        <time>2021-09-25T11:45:30Z</time>
      </trkpt>
      <trkpt lat="41.826683" lon="2.373973">
        <ele>1058.368</ele>
        <time>2021-09-25T11:45:42Z</time>
      </trkpt>
      <trkpt lat="41.826632" lon="2.373983">
        <ele>1059.318</ele>
        <time>2021-09-25T11:45:48Z</time>
      </trkpt>
      <trkpt lat="41.826586" lon="2.373990">
        <ele>1059.921</ele>
        <time>2021-09-25T11:45:57Z</time>
      </trkpt>
      <trkpt lat="41.826578" lon="2.374052">
        <ele>1061.941</ele>
        <time>2021-09-25T11:46:14Z</time>
      </trkpt>
      <trkpt lat="41.826551" lon="2.374106">
        <ele>1062.405</ele>
        <time>2021-09-25T11:46:27Z</time>
      </trkpt>
      <trkpt lat="41.826578" lon="2.374160">
        <ele>1062.608</ele>
        <time>2021-09-25T11:46:36Z</time>
      </trkpt>
      <trkpt lat="41.826606" lon="2.374212">
        <ele>1062.780</ele>
        <time>2021-09-25T11:46:39Z</time>
      </trkpt>
      <trkpt lat="41.826641" lon="2.374269">
        <ele>1062.866</ele>
        <time>2021-09-25T11:46:41Z</time>
      </trkpt>
      <trkpt lat="41.826659" lon="2.374325">
        <ele>1064.129</ele>
        <time>2021-09-25T11:46:49Z</time>
      </trkpt>
      <trkpt lat="41.826701" lon="2.374368">
        <ele>1065.287</ele>
        <time>2021-09-25T11:46:56Z</time>
      </trkpt>
      <trkpt lat="41.826735" lon="2.374408">
        <ele>1066.140</ele>
        <time>2021-09-25T11:47:02Z</time>
      </trkpt>
      <trkpt lat="41.826758" lon="2.374460">
        <ele>1066.674</ele>
        <time>2021-09-25T11:47:07Z</time>
      </trkpt>
      <trkpt lat="41.826762" lon="2.374526">
        <ele>1067.789</ele>
        <time>2021-09-25T11:47:12Z</time>
      </trkpt>
      <trkpt lat="41.826783" lon="2.374584">
        <ele>1069.649</ele>
        <time>2021-09-25T11:47:21Z</time>
      </trkpt>
      <trkpt lat="41.826803" lon="2.374644">
        <ele>1070.234</ele>
        <time>2021-09-25T11:47:26Z</time>
      </trkpt>
      <trkpt lat="41.826827" lon="2.374701">
        <ele>1071.455</ele>
        <time>2021-09-25T11:47:36Z</time>
      </trkpt>
      <trkpt lat="41.826879" lon="2.374734">
        <ele>1072.810</ele>
        <time>2021-09-25T11:47:44Z</time>
      </trkpt>
      <trkpt lat="41.826913" lon="2.374777">
        <ele>1073.408</ele>
        <time>2021-09-25T11:47:50Z</time>
      </trkpt>
      <trkpt lat="41.826929" lon="2.374839">
        <ele>1074.781</ele>
        <time>2021-09-25T11:47:57Z</time>
      </trkpt>
      <trkpt lat="41.826966" lon="2.374880">
        <ele>1077.617</ele>
        <time>2021-09-25T11:48:18Z</time>
      </trkpt>
      <trkpt lat="41.826966" lon="2.374940">
        <ele>1077.960</ele>
        <time>2021-09-25T11:48:34Z</time>
      </trkpt>
      <trkpt lat="41.826923" lon="2.374968">
        <ele>1079.138</ele>
        <time>2021-09-25T11:48:44Z</time>
      </trkpt>
      <trkpt lat="41.826948" lon="2.375036">
        <ele>1080.331</ele>
        <time>2021-09-25T11:48:54Z</time>
      </trkpt>
      <trkpt lat="41.826951" lon="2.375108">
        <ele>1082.145</ele>
        <time>2021-09-25T11:48:59Z</time>
      </trkpt>
      <trkpt lat="41.826911" lon="2.375152">
        <ele>1083.620</ele>
        <time>2021-09-25T11:49:05Z</time>
      </trkpt>
      <trkpt lat="41.826853" lon="2.375169">
        <ele>1084.910</ele>
        <time>2021-09-25T11:49:09Z</time>
      </trkpt>
      <trkpt lat="41.826803" lon="2.375159">
        <ele>1086.165</ele>
        <time>2021-09-25T11:49:13Z</time>
      </trkpt>
      <trkpt lat="41.826750" lon="2.375162">
        <ele>1087.068</ele>
        <time>2021-09-25T11:49:17Z</time>
      </trkpt>
      <trkpt lat="41.826702" lon="2.375165">
        <ele>1087.014</ele>
        <time>2021-09-25T11:49:27Z</time>
      </trkpt>
      <trkpt lat="41.826658" lon="2.375150">
        <ele>1087.008</ele>
        <time>2021-09-25T11:49:31Z</time>
      </trkpt>
      <trkpt lat="41.826617" lon="2.375113">
        <ele>1086.764</ele>
        <time>2021-09-25T11:49:36Z</time>
      </trkpt>
      <trkpt lat="41.826571" lon="2.375091">
        <ele>1086.750</ele>
        <time>2021-09-25T11:49:41Z</time>
      </trkpt>
      <trkpt lat="41.826550" lon="2.375037">
        <ele>1086.773</ele>
        <time>2021-09-25T11:49:47Z</time>
      </trkpt>
      <trkpt lat="41.826533" lon="2.374977">
        <ele>1086.741</ele>
        <time>2021-09-25T11:49:51Z</time>
      </trkpt>
      <trkpt lat="41.826506" lon="2.374926">
        <ele>1087.294</ele>
        <time>2021-09-25T11:49:57Z</time>
      </trkpt>
      <trkpt lat="41.826461" lon="2.374916">
        <ele>1087.358</ele>
        <time>2021-09-25T11:50:05Z</time>
      </trkpt>
      <trkpt lat="41.826410" lon="2.374882">
        <ele>1087.633</ele>
        <time>2021-09-25T11:50:14Z</time>
      </trkpt>
      <trkpt lat="41.826368" lon="2.374861">
        <ele>1087.793</ele>
        <time>2021-09-25T11:50:20Z</time>
      </trkpt>
      <trkpt lat="41.826303" lon="2.374844">
        <ele>1088.155</ele>
        <time>2021-09-25T11:50:24Z</time>
      </trkpt>
      <trkpt lat="41.826295" lon="2.374781">
        <ele>1089.607</ele>
        <time>2021-09-25T11:51:06Z</time>
      </trkpt>
      <trkpt lat="41.826273" lon="2.374835">
        <ele>1089.817</ele>
        <time>2021-09-25T11:52:04Z</time>
      </trkpt>
      <trkpt lat="41.826230" lon="2.374897">
        <ele>1089.808</ele>
        <time>2021-09-25T11:52:09Z</time>
      </trkpt>
      <trkpt lat="41.826181" lon="2.374912">
        <ele>1089.953</ele>
        <time>2021-09-25T11:52:13Z</time>
      </trkpt>
      <trkpt lat="41.826135" lon="2.374927">
        <ele>1090.119</ele>
        <time>2021-09-25T11:52:19Z</time>
      </trkpt>
      <trkpt lat="41.826082" lon="2.374922">
        <ele>1090.312</ele>
        <time>2021-09-25T11:52:24Z</time>
      </trkpt>
      <trkpt lat="41.826038" lon="2.374874">
        <ele>1090.830</ele>
        <time>2021-09-25T11:52:30Z</time>
      </trkpt>
      <trkpt lat="41.825978" lon="2.374882">
        <ele>1091.313</ele>
        <time>2021-09-25T11:52:34Z</time>
      </trkpt>
      <trkpt lat="41.825918" lon="2.374897">
        <ele>1091.687</ele>
        <time>2021-09-25T11:52:38Z</time>
      </trkpt>
      <trkpt lat="41.825860" lon="2.374911">
        <ele>1092.232</ele>
        <time>2021-09-25T11:52:42Z</time>
      </trkpt>
      <trkpt lat="41.825814" lon="2.374923">
        <ele>1092.652</ele>
        <time>2021-09-25T11:52:47Z</time>
      </trkpt>
      <trkpt lat="41.825771" lon="2.374885">
        <ele>1093.319</ele>
        <time>2021-09-25T11:52:59Z</time>
      </trkpt>
      <trkpt lat="41.825719" lon="2.374878">
        <ele>1094.109</ele>
        <time>2021-09-25T11:53:10Z</time>
      </trkpt>
      <trkpt lat="41.825675" lon="2.374864">
        <ele>1095.019</ele>
        <time>2021-09-25T11:53:17Z</time>
      </trkpt>
      <trkpt lat="41.825632" lon="2.374842">
        <ele>1095.508</ele>
        <time>2021-09-25T11:53:20Z</time>
      </trkpt>
      <trkpt lat="41.825587" lon="2.374862">
        <ele>1096.619</ele>
        <time>2021-09-25T11:53:30Z</time>
      </trkpt>
      <trkpt lat="41.825542" lon="2.374862">
        <ele>1098.445</ele>
        <time>2021-09-25T11:53:38Z</time>
      </trkpt>
      <trkpt lat="41.825496" lon="2.374865">
        <ele>1099.338</ele>
        <time>2021-09-25T11:53:42Z</time>
      </trkpt>
      <trkpt lat="41.825448" lon="2.374874">
        <ele>1100.176</ele>
        <time>2021-09-25T11:53:48Z</time>
      </trkpt>
      <trkpt lat="41.825399" lon="2.374860">
        <ele>1100.799</ele>
        <time>2021-09-25T11:53:55Z</time>
      </trkpt>
      <trkpt lat="41.825354" lon="2.374854">
        <ele>1101.413</ele>
        <time>2021-09-25T11:54:02Z</time>
      </trkpt>
      <trkpt lat="41.825306" lon="2.374841">
        <ele>1102.788</ele>
        <time>2021-09-25T11:54:15Z</time>
      </trkpt>
      <trkpt lat="41.825255" lon="2.374827">
        <ele>1103.878</ele>
        <time>2021-09-25T11:54:21Z</time>
      </trkpt>
      <trkpt lat="41.825223" lon="2.374782">
        <ele>1104.836</ele>
        <time>2021-09-25T11:54:31Z</time>
      </trkpt>
      <trkpt lat="41.825183" lon="2.374829">
        <ele>1106.017</ele>
        <time>2021-09-25T11:54:39Z</time>
      </trkpt>
      <trkpt lat="41.825135" lon="2.374856">
        <ele>1107.518</ele>
        <time>2021-09-25T11:54:49Z</time>
      </trkpt>
      <trkpt lat="41.825086" lon="2.374851">
        <ele>1108.508</ele>
        <time>2021-09-25T11:54:55Z</time>
      </trkpt>
      <trkpt lat="41.825043" lon="2.374830">
        <ele>1109.691</ele>
        <time>2021-09-25T11:55:02Z</time>
      </trkpt>
      <trkpt lat="41.825010" lon="2.374874">
        <ele>1110.457</ele>
        <time>2021-09-25T11:55:09Z</time>
      </trkpt>
      <trkpt lat="41.824961" lon="2.374904">
        <ele>1111.610</ele>
        <time>2021-09-25T11:55:16Z</time>
      </trkpt>
      <trkpt lat="41.824928" lon="2.374947">
        <ele>1112.918</ele>
        <time>2021-09-25T11:55:23Z</time>
      </trkpt>
      <trkpt lat="41.824880" lon="2.374956">
        <ele>1115.281</ele>
        <time>2021-09-25T11:55:43Z</time>
      </trkpt>
      <trkpt lat="41.824842" lon="2.374988">
        <ele>1116.385</ele>
        <time>2021-09-25T11:55:49Z</time>
      </trkpt>
      <trkpt lat="41.824827" lon="2.375050">
        <ele>1117.520</ele>
        <time>2021-09-25T11:55:58Z</time>
      </trkpt>
      <trkpt lat="41.824825" lon="2.375111">
        <ele>1118.070</ele>
        <time>2021-09-25T11:56:04Z</time>
      </trkpt>
      <trkpt lat="41.824858" lon="2.375158">
        <ele>1118.751</ele>
        <time>2021-09-25T11:56:10Z</time>
      </trkpt>
      <trkpt lat="41.824867" lon="2.375220">
        <ele>1120.801</ele>
        <time>2021-09-25T11:56:22Z</time>
      </trkpt>
      <trkpt lat="41.824869" lon="2.375290">
        <ele>1122.211</ele>
        <time>2021-09-25T11:56:28Z</time>
      </trkpt>
      <trkpt lat="41.824877" lon="2.375364">
        <ele>1123.108</ele>
        <time>2021-09-25T11:56:38Z</time>
      </trkpt>
      <trkpt lat="41.824914" lon="2.375399">
        <ele>1123.923</ele>
        <time>2021-09-25T11:56:43Z</time>
      </trkpt>
      <trkpt lat="41.824957" lon="2.375441">
        <ele>1125.429</ele>
        <time>2021-09-25T11:56:50Z</time>
      </trkpt>
      <trkpt lat="41.824985" lon="2.375488">
        <ele>1126.492</ele>
        <time>2021-09-25T11:56:59Z</time>
      </trkpt>
      <trkpt lat="41.825019" lon="2.375540">
        <ele>1127.530</ele>
        <time>2021-09-25T11:57:08Z</time>
      </trkpt>
      <trkpt lat="41.825054" lon="2.375598">
        <ele>1127.863</ele>
        <time>2021-09-25T11:57:14Z</time>
      </trkpt>
      <trkpt lat="41.825062" lon="2.375658">
        <ele>1128.397</ele>
        <time>2021-09-25T11:57:22Z</time>
      </trkpt>
      <trkpt lat="41.825097" lon="2.375699">
        <ele>1128.712</ele>
        <time>2021-09-25T11:57:27Z</time>
      </trkpt>
      <trkpt lat="41.825142" lon="2.375735">
        <ele>1129.562</ele>
        <time>2021-09-25T11:57:34Z</time>
      </trkpt>
      <trkpt lat="41.825166" lon="2.375796">
        <ele>1130.369</ele>
        <time>2021-09-25T11:57:38Z</time>
      </trkpt>
      <trkpt lat="41.825199" lon="2.375848">
        <ele>1130.804</ele>
        <time>2021-09-25T11:57:46Z</time>
      </trkpt>
      <trkpt lat="41.825240" lon="2.375885">
        <ele>1131.324</ele>
        <time>2021-09-25T11:57:50Z</time>
      </trkpt>
      <trkpt lat="41.825285" lon="2.375899">
        <ele>1131.708</ele>
        <time>2021-09-25T11:57:54Z</time>
      </trkpt>
      <trkpt lat="41.825323" lon="2.375934">
        <ele>1132.824</ele>
        <time>2021-09-25T11:58:00Z</time>
      </trkpt>
      <trkpt lat="41.825334" lon="2.375994">
        <ele>1133.710</ele>
        <time>2021-09-25T11:58:13Z</time>
      </trkpt>
      <trkpt lat="41.825345" lon="2.376064">
        <ele>1134.723</ele>
        <time>2021-09-25T11:58:17Z</time>
      </trkpt>
      <trkpt lat="41.825355" lon="2.376123">
        <ele>1136.041</ele>
        <time>2021-09-25T11:58:28Z</time>
      </trkpt>
      <trkpt lat="41.825363" lon="2.376184">
        <ele>1137.374</ele>
        <time>2021-09-25T11:58:37Z</time>
      </trkpt>
      <trkpt lat="41.825375" lon="2.376249">
        <ele>1138.558</ele>
        <time>2021-09-25T11:58:45Z</time>
      </trkpt>
      <trkpt lat="41.825385" lon="2.376310">
        <ele>1139.713</ele>
        <time>2021-09-25T11:58:52Z</time>
      </trkpt>
      <trkpt lat="41.825369" lon="2.376373">
        <ele>1140.993</ele>
        <time>2021-09-25T11:59:08Z</time>
      </trkpt>
      <trkpt lat="41.825362" lon="2.376448">
        <ele>1142.732</ele>
        <time>2021-09-25T11:59:25Z</time>
      </trkpt>
      <trkpt lat="41.825321" lon="2.376496">
        <ele>1143.392</ele>
        <time>2021-09-25T11:59:34Z</time>
      </trkpt>
      <trkpt lat="41.825280" lon="2.376530">
        <ele>1144.711</ele>
        <time>2021-09-25T11:59:48Z</time>
      </trkpt>
      <trkpt lat="41.825263" lon="2.376591">
        <ele>1146.408</ele>
        <time>2021-09-25T12:00:01Z</time>
      </trkpt>
      <trkpt lat="41.825247" lon="2.376653">
        <ele>1147.581</ele>
        <time>2021-09-25T12:00:05Z</time>
      </trkpt>
      <trkpt lat="41.825218" lon="2.376701">
        <ele>1148.697</ele>
        <time>2021-09-25T12:00:12Z</time>
      </trkpt>
      <trkpt lat="41.825188" lon="2.376757">
        <ele>1149.420</ele>
        <time>2021-09-25T12:00:19Z</time>
      </trkpt>
      <trkpt lat="41.825152" lon="2.376794">
        <ele>1151.928</ele>
        <time>2021-09-25T12:00:32Z</time>
      </trkpt>
      <trkpt lat="41.825105" lon="2.376800">
        <ele>1153.451</ele>
        <time>2021-09-25T12:00:44Z</time>
      </trkpt>
      <trkpt lat="41.825085" lon="2.376871">
        <ele>1154.975</ele>
        <time>2021-09-25T12:00:54Z</time>
      </trkpt>
      <trkpt lat="41.825054" lon="2.376916">
        <ele>1155.360</ele>
        <time>2021-09-25T12:01:00Z</time>
      </trkpt>
      <trkpt lat="41.825032" lon="2.376973">
        <ele>1156.230</ele>
        <time>2021-09-25T12:01:08Z</time>
      </trkpt>
      <trkpt lat="41.825005" lon="2.377027">
        <ele>1157.429</ele>
        <time>2021-09-25T12:01:14Z</time>
      </trkpt>
      <trkpt lat="41.824969" lon="2.377088">
        <ele>1158.500</ele>
        <time>2021-09-25T12:01:22Z</time>
      </trkpt>
      <trkpt lat="41.824921" lon="2.377123">
        <ele>1159.820</ele>
        <time>2021-09-25T12:01:30Z</time>
      </trkpt>
      <trkpt lat="41.824902" lon="2.377189">
        <ele>1161.008</ele>
        <time>2021-09-25T12:01:38Z</time>
      </trkpt>
      <trkpt lat="41.824949" lon="2.377191">
        <ele>1164.490</ele>
        <time>2021-09-25T12:02:18Z</time>
      </trkpt>
      <trkpt lat="41.824988" lon="2.377161">
        <ele>1164.326</ele>
        <time>2021-09-25T12:02:29Z</time>
      </trkpt>
      <trkpt lat="41.825004" lon="2.377102">
        <ele>1164.299</ele>
        <time>2021-09-25T12:02:38Z</time>
      </trkpt>
      <trkpt lat="41.825030" lon="2.377047">
        <ele>1163.197</ele>
        <time>2021-09-25T12:02:45Z</time>
      </trkpt>
      <trkpt lat="41.825049" lon="2.376991">
        <ele>1160.980</ele>
        <time>2021-09-25T12:02:52Z</time>
      </trkpt>
      <trkpt lat="41.825095" lon="2.376954">
        <ele>1159.144</ele>
        <time>2021-09-25T12:03:03Z</time>
      </trkpt>
      <trkpt lat="41.825148" lon="2.376926">
        <ele>1157.889</ele>
        <time>2021-09-25T12:03:08Z</time>
      </trkpt>
      <trkpt lat="41.825188" lon="2.376878">
        <ele>1156.589</ele>
        <time>2021-09-25T12:03:16Z</time>
      </trkpt>
      <trkpt lat="41.825224" lon="2.376810">
        <ele>1154.792</ele>
        <time>2021-09-25T12:03:43Z</time>
      </trkpt>
      <trkpt lat="41.825267" lon="2.376779">
        <ele>1154.573</ele>
        <time>2021-09-25T12:03:48Z</time>
      </trkpt>
      <trkpt lat="41.825293" lon="2.376727">
        <ele>1154.020</ele>
        <time>2021-09-25T12:04:04Z</time>
      </trkpt>
      <trkpt lat="41.825320" lon="2.376671">
        <ele>1152.508</ele>
        <time>2021-09-25T12:04:09Z</time>
      </trkpt>
      <trkpt lat="41.825340" lon="2.376605">
        <ele>1150.437</ele>
        <time>2021-09-25T12:04:12Z</time>
      </trkpt>
      <trkpt lat="41.825346" lon="2.376537">
        <ele>1149.033</ele>
        <time>2021-09-25T12:04:23Z</time>
      </trkpt>
      <trkpt lat="41.825338" lon="2.376473">
        <ele>1148.416</ele>
        <time>2021-09-25T12:04:31Z</time>
      </trkpt>
      <trkpt lat="41.825291" lon="2.376442">
        <ele>1148.364</ele>
        <time>2021-09-25T12:04:42Z</time>
      </trkpt>
      <trkpt lat="41.825243" lon="2.376448">
        <ele>1148.427</ele>
        <time>2021-09-25T12:04:48Z</time>
      </trkpt>
      <trkpt lat="41.825196" lon="2.376465">
        <ele>1149.021</ele>
        <time>2021-09-25T12:05:08Z</time>
      </trkpt>
      <trkpt lat="41.825150" lon="2.376482">
        <ele>1150.786</ele>
        <time>2021-09-25T12:05:18Z</time>
      </trkpt>
      <trkpt lat="41.825095" lon="2.376482">
        <ele>1151.626</ele>
        <time>2021-09-25T12:05:25Z</time>
      </trkpt>
      <trkpt lat="41.825050" lon="2.376463">
        <ele>1152.143</ele>
        <time>2021-09-25T12:05:34Z</time>
      </trkpt>
      <trkpt lat="41.824991" lon="2.376493">
        <ele>1153.964</ele>
        <time>2021-09-25T12:05:49Z</time>
      </trkpt>
      <trkpt lat="41.824943" lon="2.376506">
        <ele>1156.810</ele>
        <time>2021-09-25T12:06:03Z</time>
      </trkpt>
      <trkpt lat="41.824899" lon="2.376474">
        <ele>1158.508</ele>
        <time>2021-09-25T12:06:15Z</time>
      </trkpt>
      <trkpt lat="41.824861" lon="2.376442">
        <ele>1159.582</ele>
        <time>2021-09-25T12:06:22Z</time>
      </trkpt>
      <trkpt lat="41.824827" lon="2.376482">
        <ele>1161.048</ele>
        <time>2021-09-25T12:06:29Z</time>
      </trkpt>
      <trkpt lat="41.824807" lon="2.376537">
        <ele>1162.181</ele>
        <time>2021-09-25T12:06:37Z</time>
      </trkpt>
      <trkpt lat="41.824757" lon="2.376547">
        <ele>1163.519</ele>
        <time>2021-09-25T12:06:49Z</time>
      </trkpt>
      <trkpt lat="41.824709" lon="2.376567">
        <ele>1165.942</ele>
        <time>2021-09-25T12:07:11Z</time>
      </trkpt>
      <trkpt lat="41.824660" lon="2.376561">
        <ele>1167.576</ele>
        <time>2021-09-25T12:07:22Z</time>
      </trkpt>
      <trkpt lat="41.824614" lon="2.376542">
        <ele>1168.471</ele>
        <time>2021-09-25T12:07:28Z</time>
      </trkpt>
      <trkpt lat="41.824568" lon="2.376539">
        <ele>1169.911</ele>
        <time>2021-09-25T12:07:37Z</time>
      </trkpt>
      <trkpt lat="41.824539" lon="2.376595">
        <ele>1174.547</ele>
        <time>2021-09-25T12:08:35Z</time>
      </trkpt>
      <trkpt lat="41.824495" lon="2.376622">
        <ele>1174.729</ele>
        <time>2021-09-25T12:08:55Z</time>
      </trkpt>
      <trkpt lat="41.824511" lon="2.376680">
        <ele>1175.821</ele>
        <time>2021-09-25T12:09:33Z</time>
      </trkpt>
      <trkpt lat="41.824552" lon="2.376711">
        <ele>1178.708</ele>
        <time>2021-09-25T12:12:00Z</time>
      </trkpt>
      <trkpt lat="41.824522" lon="2.376658">
        <ele>1178.742</ele>
        <time>2021-09-25T12:13:52Z</time>
      </trkpt>
      <trkpt lat="41.824477" lon="2.376641">
        <ele>1178.778</ele>
        <time>2021-09-25T12:14:09Z</time>
      </trkpt>
      <trkpt lat="41.824436" lon="2.376672">
        <ele>1178.471</ele>
        <time>2021-09-25T12:14:19Z</time>
      </trkpt>
      <trkpt lat="41.824402" lon="2.376713">
        <ele>1178.459</ele>
        <time>2021-09-25T12:14:35Z</time>
      </trkpt>
      <trkpt lat="41.824385" lon="2.376777">
        <ele>1184.562</ele>
        <time>2021-09-25T12:14:53Z</time>
      </trkpt>
      <trkpt lat="41.824357" lon="2.376828">
        <ele>1187.046</ele>
        <time>2021-09-25T12:15:09Z</time>
      </trkpt>
      <trkpt lat="41.824345" lon="2.376888">
        <ele>1188.421</ele>
        <time>2021-09-25T12:15:18Z</time>
      </trkpt>
      <trkpt lat="41.824333" lon="2.376946">
        <ele>1190.631</ele>
        <time>2021-09-25T12:15:31Z</time>
      </trkpt>
      <trkpt lat="41.824295" lon="2.376984">
        <ele>1191.482</ele>
        <time>2021-09-25T12:15:37Z</time>
      </trkpt>
      <trkpt lat="41.824249" lon="2.376993">
        <ele>1193.143</ele>
        <time>2021-09-25T12:15:45Z</time>
      </trkpt>
      <trkpt lat="41.824208" lon="2.377017">
        <ele>1196.017</ele>
        <time>2021-09-25T12:16:07Z</time>
      </trkpt>
      <trkpt lat="41.824180" lon="2.377070">
        <ele>1197.608</ele>
        <time>2021-09-25T12:16:20Z</time>
      </trkpt>
      <trkpt lat="41.824131" lon="2.377056">
        <ele>1199.786</ele>
        <time>2021-09-25T12:16:32Z</time>
      </trkpt>
      <trkpt lat="41.824082" lon="2.377047">
        <ele>1200.532</ele>
        <time>2021-09-25T12:16:37Z</time>
      </trkpt>
      <trkpt lat="41.824040" lon="2.377018">
        <ele>1201.985</ele>
        <time>2021-09-25T12:16:44Z</time>
      </trkpt>
      <trkpt lat="41.823990" lon="2.376995">
        <ele>1204.293</ele>
        <time>2021-09-25T12:17:00Z</time>
      </trkpt>
      <trkpt lat="41.823942" lon="2.377012">
        <ele>1206.426</ele>
        <time>2021-09-25T12:17:27Z</time>
      </trkpt>
      <trkpt lat="41.823923" lon="2.377074">
        <ele>1208.590</ele>
        <time>2021-09-25T12:17:50Z</time>
      </trkpt>
      <trkpt lat="41.823891" lon="2.377130">
        <ele>1211.685</ele>
        <time>2021-09-25T12:18:10Z</time>
      </trkpt>
      <trkpt lat="41.823845" lon="2.377112">
        <ele>1214.315</ele>
        <time>2021-09-25T12:18:22Z</time>
      </trkpt>
      <trkpt lat="41.823803" lon="2.377089">
        <ele>1215.153</ele>
        <time>2021-09-25T12:18:29Z</time>
      </trkpt>
      <trkpt lat="41.823744" lon="2.377097">
        <ele>1217.504</ele>
        <time>2021-09-25T12:18:41Z</time>
      </trkpt>
      <trkpt lat="41.823718" lon="2.377148">
        <ele>1219.814</ele>
        <time>2021-09-25T12:18:54Z</time>
      </trkpt>
      <trkpt lat="41.823744" lon="2.377197">
        <ele>1222.008</ele>
        <time>2021-09-25T12:19:14Z</time>
      </trkpt>
      <trkpt lat="41.823709" lon="2.377248">
        <ele>1224.763</ele>
        <time>2021-09-25T12:19:38Z</time>
      </trkpt>
      <trkpt lat="41.823666" lon="2.377210">
        <ele>1228.659</ele>
        <time>2021-09-25T12:20:07Z</time>
      </trkpt>
      <trkpt lat="41.823617" lon="2.377205">
        <ele>1232.792</ele>
        <time>2021-09-25T12:20:33Z</time>
      </trkpt>
      <trkpt lat="41.823571" lon="2.377205">
        <ele>1234.840</ele>
        <time>2021-09-25T12:20:39Z</time>
      </trkpt>
      <trkpt lat="41.823535" lon="2.377244">
        <ele>1237.193</ele>
        <time>2021-09-25T12:20:56Z</time>
      </trkpt>
      <trkpt lat="41.823490" lon="2.377239">
        <ele>1238.977</ele>
        <time>2021-09-25T12:21:11Z</time>
      </trkpt>
      <trkpt lat="41.823461" lon="2.377191">
        <ele>1239.792</ele>
        <time>2021-09-25T12:21:21Z</time>
      </trkpt>
      <trkpt lat="41.823416" lon="2.377167">
        <ele>1241.282</ele>
        <time>2021-09-25T12:21:30Z</time>
      </trkpt>
      <trkpt lat="41.823373" lon="2.377146">
        <ele>1242.038</ele>
        <time>2021-09-25T12:21:36Z</time>
      </trkpt>
      <trkpt lat="41.823328" lon="2.377129">
        <ele>1243.670</ele>
        <time>2021-09-25T12:21:43Z</time>
      </trkpt>
      <trkpt lat="41.823316" lon="2.377066">
        <ele>1247.817</ele>
        <time>2021-09-25T12:22:25Z</time>
      </trkpt>
      <trkpt lat="41.823281" lon="2.377021">
        <ele>1247.908</ele>
        <time>2021-09-25T12:22:31Z</time>
      </trkpt>
      <trkpt lat="41.823243" lon="2.376964">
        <ele>1248.021</ele>
        <time>2021-09-25T12:22:39Z</time>
      </trkpt>
      <trkpt lat="41.823206" lon="2.376924">
        <ele>1248.177</ele>
        <time>2021-09-25T12:22:47Z</time>
      </trkpt>
      <trkpt lat="41.823170" lon="2.376884">
        <ele>1249.240</ele>
        <time>2021-09-25T12:22:54Z</time>
      </trkpt>
      <trkpt lat="41.823153" lon="2.376822">
        <ele>1254.618</ele>
        <time>2021-09-25T12:23:26Z</time>
      </trkpt>
      <trkpt lat="41.823117" lon="2.376774">
        <ele>1255.491</ele>
        <time>2021-09-25T12:23:35Z</time>
      </trkpt>
      <trkpt lat="41.823072" lon="2.376753">
        <ele>1256.385</ele>
        <time>2021-09-25T12:23:45Z</time>
      </trkpt>
      <trkpt lat="41.823115" lon="2.376736">
        <ele>1261.450</ele>
        <time>2021-09-25T12:24:34Z</time>
      </trkpt>
      <trkpt lat="41.823084" lon="2.376787">
        <ele>1261.690</ele>
        <time>2021-09-25T12:25:00Z</time>
      </trkpt>
      <trkpt lat="41.823040" lon="2.376802">
        <ele>1261.982</ele>
        <time>2021-09-25T12:25:07Z</time>
      </trkpt>
      <trkpt lat="41.822992" lon="2.376798">
        <ele>1262.143</ele>
        <time>2021-09-25T12:25:17Z</time>
      </trkpt>
      <trkpt lat="41.822960" lon="2.376752">
        <ele>1263.017</ele>
        <time>2021-09-25T12:25:26Z</time>
      </trkpt>
      <trkpt lat="41.822930" lon="2.376704">
        <ele>1266.308</ele>
        <time>2021-09-25T12:25:36Z</time>
      </trkpt>
      <trkpt lat="41.822885" lon="2.376696">
        <ele>1269.656</ele>
        <time>2021-09-25T12:25:52Z</time>
      </trkpt>
      <trkpt lat="41.822838" lon="2.376696">
        <ele>1271.352</ele>
        <time>2021-09-25T12:26:03Z</time>
      </trkpt>
      <trkpt lat="41.822799" lon="2.376656">
        <ele>1273.245</ele>
        <time>2021-09-25T12:26:15Z</time>
      </trkpt>
      <trkpt lat="41.822762" lon="2.376622">
        <ele>1274.413</ele>
        <time>2021-09-25T12:26:23Z</time>
      </trkpt>
      <trkpt lat="41.822709" lon="2.376627">
        <ele>1276.226</ele>
        <time>2021-09-25T12:26:30Z</time>
      </trkpt>
      <trkpt lat="41.822669" lon="2.376588">
        <ele>1278.070</ele>
        <time>2021-09-25T12:26:39Z</time>
      </trkpt>
      <trkpt lat="41.822621" lon="2.376610">
        <ele>1280.645</ele>
        <time>2021-09-25T12:28:43Z</time>
      </trkpt>
      <trkpt lat="41.822675" lon="2.376589">
        <ele>1280.825</ele>
        <time>2021-09-25T12:28:51Z</time>
      </trkpt>
      <trkpt lat="41.822715" lon="2.376619">
        <ele>1280.625</ele>
        <time>2021-09-25T12:29:23Z</time>
      </trkpt>
      <trkpt lat="41.822671" lon="2.376606">
        <ele>1280.726</ele>
        <time>2021-09-25T12:30:16Z</time>
      </trkpt>
      <trkpt lat="41.822611" lon="2.376646">
        <ele>1280.708</ele>
        <time>2021-09-25T12:30:29Z</time>
      </trkpt>
      <trkpt lat="41.822611" lon="2.376578">
        <ele>1281.008</ele>
        <time>2021-09-25T12:30:35Z</time>
      </trkpt>
      <trkpt lat="41.822627" lon="2.376506">
        <ele>1283.880</ele>
        <time>2021-09-25T12:30:58Z</time>
      </trkpt>
      <trkpt lat="41.822610" lon="2.376448">
        <ele>1285.446</ele>
        <time>2021-09-25T12:31:18Z</time>
      </trkpt>
      <trkpt lat="41.822593" lon="2.376386">
        <ele>1288.269</ele>
        <time>2021-09-25T12:31:46Z</time>
      </trkpt>
      <trkpt lat="41.822548" lon="2.376353">
        <ele>1289.317</ele>
        <time>2021-09-25T12:31:54Z</time>
      </trkpt>
      <trkpt lat="41.822504" lon="2.376334">
        <ele>1290.830</ele>
        <time>2021-09-25T12:32:02Z</time>
      </trkpt>
      <trkpt lat="41.822459" lon="2.376303">
        <ele>1293.014</ele>
        <time>2021-09-25T12:32:19Z</time>
      </trkpt>
      <trkpt lat="41.822448" lon="2.376241">
        <ele>1297.379</ele>
        <time>2021-09-25T12:32:48Z</time>
      </trkpt>
      <trkpt lat="41.822409" lon="2.376210">
        <ele>1299.169</ele>
        <time>2021-09-25T12:33:05Z</time>
      </trkpt>
      <trkpt lat="41.822437" lon="2.376161">
        <ele>1300.966</ele>
        <time>2021-09-25T12:33:15Z</time>
      </trkpt>
      <trkpt lat="41.822458" lon="2.376219">
        <ele>1304.829</ele>
        <time>2021-09-25T12:34:20Z</time>
      </trkpt>
      <trkpt lat="41.822504" lon="2.376187">
        <ele>1304.921</ele>
        <time>2021-09-25T12:34:42Z</time>
      </trkpt>
      <trkpt lat="41.822455" lon="2.376198">
        <ele>1304.908</ele>
        <time>2021-09-25T12:35:03Z</time>
      </trkpt>
      <trkpt lat="41.822409" lon="2.376171">
        <ele>1304.944</ele>
        <time>2021-09-25T12:35:08Z</time>
      </trkpt>
      <trkpt lat="41.822370" lon="2.376136">
        <ele>1304.920</ele>
        <time>2021-09-25T12:35:14Z</time>
      </trkpt>
      <trkpt lat="41.822334" lon="2.376084">
        <ele>1304.973</ele>
        <time>2021-09-25T12:35:21Z</time>
      </trkpt>
      <trkpt lat="41.822290" lon="2.376023">
        <ele>1304.931</ele>
        <time>2021-09-25T12:35:26Z</time>
      </trkpt>
      <trkpt lat="41.822267" lon="2.375967">
        <ele>1305.134</ele>
        <time>2021-09-25T12:35:29Z</time>
      </trkpt>
      <trkpt lat="41.822249" lon="2.375907">
        <ele>1306.778</ele>
        <time>2021-09-25T12:35:39Z</time>
      </trkpt>
      <trkpt lat="41.822216" lon="2.375864">
        <ele>1309.173</ele>
        <time>2021-09-25T12:35:56Z</time>
      </trkpt>
      <trkpt lat="41.822182" lon="2.375824">
        <ele>1310.913</ele>
        <time>2021-09-25T12:36:09Z</time>
      </trkpt>
      <trkpt lat="41.822140" lon="2.375789">
        <ele>1313.981</ele>
        <time>2021-09-25T12:37:00Z</time>
      </trkpt>
      <trkpt lat="41.822241" lon="2.375710">
        <ele>1314.061</ele>
        <time>2021-09-25T12:37:03Z</time>
      </trkpt>
      <trkpt lat="41.822290" lon="2.375705">
        <ele>1317.317</ele>
        <time>2021-09-25T12:37:39Z</time>
      </trkpt>
      <trkpt lat="41.822238" lon="2.375711">
        <ele>1317.408</ele>
        <time>2021-09-25T12:37:50Z</time>
      </trkpt>
      <trkpt lat="41.822194" lon="2.375725">
        <ele>1317.436</ele>
        <time>2021-09-25T12:37:56Z</time>
      </trkpt>
      <trkpt lat="41.822154" lon="2.375760">
        <ele>1317.532</ele>
        <time>2021-09-25T12:38:06Z</time>
      </trkpt>
      <trkpt lat="41.822108" lon="2.375798">
        <ele>1317.645</ele>
        <time>2021-09-25T12:38:13Z</time>
      </trkpt>
      <trkpt lat="41.822062" lon="2.375808">
        <ele>1318.873</ele>
        <time>2021-09-25T12:38:23Z</time>
      </trkpt>
      <trkpt lat="41.822004" lon="2.375818">
        <ele>1319.076</ele>
        <time>2021-09-25T12:38:28Z</time>
      </trkpt>
      <trkpt lat="41.821960" lon="2.375792">
        <ele>1319.340</ele>
        <time>2021-09-25T12:38:36Z</time>
      </trkpt>
      <trkpt lat="41.821911" lon="2.375806">
        <ele>1318.945</ele>
        <time>2021-09-25T12:38:39Z</time>
      </trkpt>
      <trkpt lat="41.821860" lon="2.375828">
        <ele>1318.595</ele>
        <time>2021-09-25T12:38:43Z</time>
      </trkpt>
      <trkpt lat="41.821816" lon="2.375800">
        <ele>1317.995</ele>
        <time>2021-09-25T12:38:47Z</time>
      </trkpt>
      <trkpt lat="41.821752" lon="2.375768">
        <ele>1317.649</ele>
        <time>2021-09-25T12:38:54Z</time>
      </trkpt>
      <trkpt lat="41.821711" lon="2.375819">
        <ele>1317.023</ele>
        <time>2021-09-25T12:38:57Z</time>
      </trkpt>
      <trkpt lat="41.821674" lon="2.375856">
        <ele>1316.808</ele>
        <time>2021-09-25T12:39:18Z</time>
      </trkpt>
      <trkpt lat="41.821626" lon="2.375862">
        <ele>1316.857</ele>
        <time>2021-09-25T12:39:23Z</time>
      </trkpt>
      <trkpt lat="41.821580" lon="2.375863">
        <ele>1317.273</ele>
        <time>2021-09-25T12:39:35Z</time>
      </trkpt>
      <trkpt lat="41.821531" lon="2.375871">
        <ele>1317.836</ele>
        <time>2021-09-25T12:39:49Z</time>
      </trkpt>
      <trkpt lat="41.821480" lon="2.375900">
        <ele>1318.524</ele>
        <time>2021-09-25T12:40:02Z</time>
      </trkpt>
      <trkpt lat="41.821435" lon="2.375908">
        <ele>1319.237</ele>
        <time>2021-09-25T12:40:10Z</time>
      </trkpt>
      <trkpt lat="41.821384" lon="2.375876">
        <ele>1319.891</ele>
        <time>2021-09-25T12:40:16Z</time>
      </trkpt>
      <trkpt lat="41.821334" lon="2.375885">
        <ele>1320.416</ele>
        <time>2021-09-25T12:40:29Z</time>
      </trkpt>
      <trkpt lat="41.821284" lon="2.375880">
        <ele>1320.626</ele>
        <time>2021-09-25T12:40:36Z</time>
      </trkpt>
      <trkpt lat="41.821243" lon="2.375855">
        <ele>1320.383</ele>
        <time>2021-09-25T12:40:42Z</time>
      </trkpt>
      <trkpt lat="41.821208" lon="2.375812">
        <ele>1320.225</ele>
        <time>2021-09-25T12:40:47Z</time>
      </trkpt>
      <trkpt lat="41.821164" lon="2.375794">
        <ele>1320.417</ele>
        <time>2021-09-25T12:40:53Z</time>
      </trkpt>
      <trkpt lat="41.821122" lon="2.375761">
        <ele>1320.408</ele>
        <time>2021-09-25T12:41:01Z</time>
      </trkpt>
      <trkpt lat="41.821087" lon="2.375808">
        <ele>1320.636</ele>
        <time>2021-09-25T12:41:34Z</time>
      </trkpt>
      <trkpt lat="41.821036" lon="2.375786">
        <ele>1320.612</ele>
        <time>2021-09-25T12:41:41Z</time>
      </trkpt>
      <trkpt lat="41.820984" lon="2.375787">
        <ele>1321.495</ele>
        <time>2021-09-25T12:41:54Z</time>
      </trkpt>
      <trkpt lat="41.820939" lon="2.375804">
        <ele>1323.143</ele>
        <time>2021-09-25T12:41:59Z</time>
      </trkpt>
      <trkpt lat="41.820894" lon="2.375803">
        <ele>1325.666</ele>
        <time>2021-09-25T12:42:20Z</time>
      </trkpt>
      <trkpt lat="41.820856" lon="2.375770">
        <ele>1329.070</ele>
        <time>2021-09-25T12:42:40Z</time>
      </trkpt>
      <trkpt lat="41.820814" lon="2.375745">
        <ele>1334.465</ele>
        <time>2021-09-25T12:43:17Z</time>
      </trkpt>
      <trkpt lat="41.820812" lon="2.375807">
        <ele>1339.765</ele>
        <time>2021-09-25T12:43:56Z</time>
      </trkpt>
      <trkpt lat="41.820782" lon="2.375872">
        <ele>1341.133</ele>
        <time>2021-09-25T12:44:06Z</time>
      </trkpt>
      <trkpt lat="41.820795" lon="2.375939">
        <ele>1343.123</ele>
        <time>2021-09-25T12:44:17Z</time>
      </trkpt>
      <trkpt lat="41.820757" lon="2.375900">
        <ele>1346.315</ele>
        <time>2021-09-25T12:45:09Z</time>
      </trkpt>
      <trkpt lat="41.820737" lon="2.375846">
        <ele>1346.508</ele>
        <time>2021-09-25T12:45:18Z</time>
      </trkpt>
      <trkpt lat="41.820738" lon="2.375783">
        <ele>1348.261</ele>
        <time>2021-09-25T12:45:41Z</time>
      </trkpt>
      <trkpt lat="41.820694" lon="2.375760">
        <ele>1350.987</ele>
        <time>2021-09-25T12:45:56Z</time>
      </trkpt>
      <trkpt lat="41.820647" lon="2.375761">
        <ele>1353.910</ele>
        <time>2021-09-25T12:46:54Z</time>
      </trkpt>
      <trkpt lat="41.820688" lon="2.375791">
        <ele>1357.038</ele>
        <time>2021-09-25T12:49:04Z</time>
      </trkpt>
      <trkpt lat="41.820670" lon="2.375734">
        <ele>1357.221</ele>
        <time>2021-09-25T12:49:28Z</time>
      </trkpt>
      <trkpt lat="41.820621" lon="2.375721">
        <ele>1357.255</ele>
        <time>2021-09-25T12:49:47Z</time>
      </trkpt>
      <trkpt lat="41.820577" lon="2.375744">
        <ele>1355.550</ele>
        <time>2021-09-25T12:50:09Z</time>
      </trkpt>
      <trkpt lat="41.820532" lon="2.375746">
        <ele>1355.570</ele>
        <time>2021-09-25T12:50:31Z</time>
      </trkpt>
      <trkpt lat="41.820582" lon="2.375737">
        <ele>1354.858</ele>
        <time>2021-09-25T12:51:15Z</time>
      </trkpt>
      <trkpt lat="41.820537" lon="2.375726">
        <ele>1354.552</ele>
        <time>2021-09-25T12:51:43Z</time>
      </trkpt>
      <trkpt lat="41.820492" lon="2.375710">
        <ele>1354.717</ele>
        <time>2021-09-25T12:51:55Z</time>
      </trkpt>
      <trkpt lat="41.820445" lon="2.375713">
        <ele>1354.908</ele>
        <time>2021-09-25T12:52:02Z</time>
      </trkpt>
      <trkpt lat="41.820422" lon="2.375661">
        <ele>1356.463</ele>
        <time>2021-09-25T12:52:28Z</time>
      </trkpt>
      <trkpt lat="41.820386" lon="2.375618">
        <ele>1357.489</ele>
        <time>2021-09-25T12:52:44Z</time>
      </trkpt>
      <trkpt lat="41.820363" lon="2.375540">
        <ele>1358.082</ele>
        <time>2021-09-25T12:53:48Z</time>
      </trkpt>
      <trkpt lat="41.820361" lon="2.375476">
        <ele>1355.360</ele>
        <time>2021-09-25T12:54:55Z</time>
      </trkpt>
      <trkpt lat="41.820355" lon="2.375416">
        <ele>1355.783</ele>
        <time>2021-09-25T12:55:14Z</time>
      </trkpt>
      <trkpt lat="41.820362" lon="2.375352">
        <ele>1357.267</ele>
        <time>2021-09-25T12:55:29Z</time>
      </trkpt>
      <trkpt lat="41.820348" lon="2.375291">
        <ele>1360.732</ele>
        <time>2021-09-25T12:55:45Z</time>
      </trkpt>
      <trkpt lat="41.820370" lon="2.375235">
        <ele>1362.012</ele>
        <time>2021-09-25T12:55:57Z</time>
      </trkpt>
      <trkpt lat="41.820324" lon="2.375231">
        <ele>1365.253</ele>
        <time>2021-09-25T12:56:35Z</time>
      </trkpt>
      <trkpt lat="41.820324" lon="2.375161">
        <ele>1365.304</ele>
        <time>2021-09-25T12:56:44Z</time>
      </trkpt>
      <trkpt lat="41.820369" lon="2.375111">
        <ele>1365.514</ele>
        <time>2021-09-25T12:56:53Z</time>
      </trkpt>
      <trkpt lat="41.820374" lon="2.375043">
        <ele>1369.208</ele>
        <time>2021-09-25T12:57:04Z</time>
      </trkpt>
      <trkpt lat="41.820393" lon="2.374985">
        <ele>1370.723</ele>
        <time>2021-09-25T12:57:17Z</time>
      </trkpt>
      <trkpt lat="41.820441" lon="2.374943">
        <ele>1373.929</ele>
        <time>2021-09-25T12:57:34Z</time>
      </trkpt>
      <trkpt lat="41.820497" lon="2.374929">
        <ele>1375.432</ele>
        <time>2021-09-25T12:57:43Z</time>
      </trkpt>
      <trkpt lat="41.820521" lon="2.374827">
        <ele>1380.340</ele>
        <time>2021-09-25T12:58:08Z</time>
      </trkpt>
      <trkpt lat="41.820568" lon="2.374799">
        <ele>1380.793</ele>
        <time>2021-09-25T12:58:22Z</time>
      </trkpt>
      <trkpt lat="41.820571" lon="2.374728">
        <ele>1381.257</ele>
        <time>2021-09-25T12:58:37Z</time>
      </trkpt>
      <trkpt lat="41.820592" lon="2.374673">
        <ele>1382.312</ele>
        <time>2021-09-25T12:58:44Z</time>
      </trkpt>
      <trkpt lat="41.820561" lon="2.374622">
        <ele>1383.712</ele>
        <time>2021-09-25T12:58:55Z</time>
      </trkpt>
      <trkpt lat="41.820516" lon="2.374603">
        <ele>1385.621</ele>
        <time>2021-09-25T12:59:02Z</time>
      </trkpt>
      <trkpt lat="41.820479" lon="2.374559">
        <ele>1386.741</ele>
        <time>2021-09-25T12:59:11Z</time>
      </trkpt>
      <trkpt lat="41.820549" lon="2.374453">
        <ele>1387.905</ele>
        <time>2021-09-25T12:59:18Z</time>
      </trkpt>
      <trkpt lat="41.820497" lon="2.374472">
        <ele>1390.008</ele>
        <time>2021-09-25T12:59:24Z</time>
      </trkpt>
      <trkpt lat="41.820512" lon="2.374396">
        <ele>1390.370</ele>
        <time>2021-09-25T12:59:27Z</time>
      </trkpt>
      <trkpt lat="41.820561" lon="2.374308">
        <ele>1390.586</ele>
        <time>2021-09-25T12:59:29Z</time>
      </trkpt>
      <trkpt lat="41.820612" lon="2.374273">
        <ele>1390.989</ele>
        <time>2021-09-25T12:59:33Z</time>
      </trkpt>
      <trkpt lat="41.820563" lon="2.374255">
        <ele>1392.617</ele>
        <time>2021-09-25T12:59:52Z</time>
      </trkpt>
      <trkpt lat="41.820539" lon="2.374200">
        <ele>1392.790</ele>
        <time>2021-09-25T13:00:03Z</time>
      </trkpt>
      <trkpt lat="41.820525" lon="2.374136">
        <ele>1393.184</ele>
        <time>2021-09-25T13:00:19Z</time>
      </trkpt>
      <trkpt lat="41.820511" lon="2.374077">
        <ele>1393.319</ele>
        <time>2021-09-25T13:00:25Z</time>
      </trkpt>
      <trkpt lat="41.820478" lon="2.374021">
        <ele>1394.089</ele>
        <time>2021-09-25T13:00:32Z</time>
      </trkpt>
      <trkpt lat="41.820464" lon="2.373948">
        <ele>1395.465</ele>
        <time>2021-09-25T13:00:39Z</time>
      </trkpt>
      <trkpt lat="41.820445" lon="2.373870">
        <ele>1396.368</ele>
        <time>2021-09-25T13:00:42Z</time>
      </trkpt>
      <trkpt lat="41.820436" lon="2.373803">
        <ele>1398.414</ele>
        <time>2021-09-25T13:00:49Z</time>
      </trkpt>
      <trkpt lat="41.820380" lon="2.373863">
        <ele>1399.108</ele>
        <time>2021-09-25T13:00:51Z</time>
      </trkpt>
      <trkpt lat="41.820313" lon="2.373922">
        <ele>1399.994</ele>
        <time>2021-09-25T13:00:53Z</time>
      </trkpt>
      <trkpt lat="41.820322" lon="2.373842">
        <ele>1401.840</ele>
        <time>2021-09-25T13:02:15Z</time>
      </trkpt>
      <trkpt lat="41.820361" lon="2.373802">
        <ele>1401.883</ele>
        <time>2021-09-25T13:02:21Z</time>
      </trkpt>
      <trkpt lat="41.820399" lon="2.373764">
        <ele>1401.921</ele>
        <time>2021-09-25T13:02:33Z</time>
      </trkpt>
      <trkpt lat="41.820422" lon="2.373708">
        <ele>1402.254</ele>
        <time>2021-09-25T13:03:08Z</time>
      </trkpt>
      <trkpt lat="41.820447" lon="2.373645">
        <ele>1405.678</ele>
        <time>2021-09-25T13:03:12Z</time>
      </trkpt>
      <trkpt lat="41.820493" lon="2.373615">
        <ele>1406.353</ele>
        <time>2021-09-25T13:03:23Z</time>
      </trkpt>
      <trkpt lat="41.820545" lon="2.373602">
        <ele>1406.463</ele>
        <time>2021-09-25T13:03:29Z</time>
      </trkpt>
      <trkpt lat="41.820549" lon="2.373539">
        <ele>1409.447</ele>
        <time>2021-09-25T13:03:56Z</time>
      </trkpt>
      <trkpt lat="41.820577" lon="2.373491">
        <ele>1410.529</ele>
        <time>2021-09-25T13:04:07Z</time>
      </trkpt>
      <trkpt lat="41.820528" lon="2.373494">
        <ele>1412.821</ele>
        <time>2021-09-25T13:04:32Z</time>
      </trkpt>
      <trkpt lat="41.820560" lon="2.373404">
        <ele>1414.308</ele>
        <time>2021-09-25T13:04:47Z</time>
      </trkpt>
      <trkpt lat="41.820534" lon="2.373352">
        <ele>1420.232</ele>
        <time>2021-09-25T13:05:17Z</time>
      </trkpt>
      <trkpt lat="41.820514" lon="2.373296">
        <ele>1421.618</ele>
        <time>2021-09-25T13:05:23Z</time>
      </trkpt>
      <trkpt lat="41.820464" lon="2.373287">
        <ele>1424.151</ele>
        <time>2021-09-25T13:05:53Z</time>
      </trkpt>
      <trkpt lat="41.820411" lon="2.373248">
        <ele>1424.169</ele>
        <time>2021-09-25T13:06:00Z</time>
      </trkpt>
      <trkpt lat="41.820371" lon="2.373210">
        <ele>1424.222</ele>
        <time>2021-09-25T13:06:04Z</time>
      </trkpt>
      <trkpt lat="41.820362" lon="2.373150">
        <ele>1424.146</ele>
        <time>2021-09-25T13:06:12Z</time>
      </trkpt>
      <trkpt lat="41.820338" lon="2.373097">
        <ele>1424.211</ele>
        <time>2021-09-25T13:06:18Z</time>
      </trkpt>
      <trkpt lat="41.820309" lon="2.373041">
        <ele>1424.391</ele>
        <time>2021-09-25T13:06:22Z</time>
      </trkpt>
      <trkpt lat="41.820274" lon="2.372980">
        <ele>1424.732</ele>
        <time>2021-09-25T13:06:31Z</time>
      </trkpt>
      <trkpt lat="41.820271" lon="2.372911">
        <ele>1424.792</ele>
        <time>2021-09-25T13:06:34Z</time>
      </trkpt>
      <trkpt lat="41.820289" lon="2.372835">
        <ele>1425.211</ele>
        <time>2021-09-25T13:06:39Z</time>
      </trkpt>
      <trkpt lat="41.820298" lon="2.372775">
        <ele>1425.508</ele>
        <time>2021-09-25T13:06:48Z</time>
      </trkpt>
      <trkpt lat="41.820319" lon="2.372709">
        <ele>1425.611</ele>
        <time>2021-09-25T13:06:56Z</time>
      </trkpt>
      <trkpt lat="41.820340" lon="2.372655">
        <ele>1425.877</ele>
        <time>2021-09-25T13:07:05Z</time>
      </trkpt>
      <trkpt lat="41.820342" lon="2.372594">
        <ele>1425.930</ele>
        <time>2021-09-25T13:07:17Z</time>
      </trkpt>
      <trkpt lat="41.820331" lon="2.372528">
        <ele>1426.058</ele>
        <time>2021-09-25T13:07:22Z</time>
      </trkpt>
      <trkpt lat="41.820309" lon="2.372472">
        <ele>1428.371</ele>
        <time>2021-09-25T13:08:12Z</time>
      </trkpt>
      <trkpt lat="41.820316" lon="2.372411">
        <ele>1428.435</ele>
        <time>2021-09-25T13:08:28Z</time>
      </trkpt>
      <trkpt lat="41.820285" lon="2.372357">
        <ele>1428.570</ele>
        <time>2021-09-25T13:08:40Z</time>
      </trkpt>
      <trkpt lat="41.820280" lon="2.372287">
        <ele>1428.630</ele>
        <time>2021-09-25T13:08:50Z</time>
      </trkpt>
      <trkpt lat="41.820297" lon="2.372230">
        <ele>1429.327</ele>
        <time>2021-09-25T13:08:56Z</time>
      </trkpt>
      <trkpt lat="41.820315" lon="2.372167">
        <ele>1433.168</ele>
        <time>2021-09-25T13:09:05Z</time>
      </trkpt>
      <trkpt lat="41.820335" lon="2.372102">
        <ele>1433.914</ele>
        <time>2021-09-25T13:09:09Z</time>
      </trkpt>
      <trkpt lat="41.820346" lon="2.372038">
        <ele>1435.108</ele>
        <time>2021-09-25T13:09:14Z</time>
      </trkpt>
      <trkpt lat="41.820315" lon="2.371988">
        <ele>1436.070</ele>
        <time>2021-09-25T13:09:23Z</time>
      </trkpt>
      <trkpt lat="41.820287" lon="2.371932">
        <ele>1436.666</ele>
        <time>2021-09-25T13:09:30Z</time>
      </trkpt>
      <trkpt lat="41.820277" lon="2.371863">
        <ele>1437.729</ele>
        <time>2021-09-25T13:09:38Z</time>
      </trkpt>
      <trkpt lat="41.820269" lon="2.371800">
        <ele>1438.857</ele>
        <time>2021-09-25T13:09:44Z</time>
      </trkpt>
      <trkpt lat="41.820249" lon="2.371744">
        <ele>1441.620</ele>
        <time>2021-09-25T13:10:18Z</time>
      </trkpt>
      <trkpt lat="41.820241" lon="2.371664">
        <ele>1442.814</ele>
        <time>2021-09-25T13:10:22Z</time>
      </trkpt>
      <trkpt lat="41.820219" lon="2.371603">
        <ele>1444.039</ele>
        <time>2021-09-25T13:10:25Z</time>
      </trkpt>
      <trkpt lat="41.820200" lon="2.371541">
        <ele>1444.639</ele>
        <time>2021-09-25T13:10:28Z</time>
      </trkpt>
      <trkpt lat="41.820199" lon="2.371476">
        <ele>1445.364</ele>
        <time>2021-09-25T13:10:36Z</time>
      </trkpt>
      <trkpt lat="41.820193" lon="2.371412">
        <ele>1446.206</ele>
        <time>2021-09-25T13:10:42Z</time>
      </trkpt>
      <trkpt lat="41.820182" lon="2.371346">
        <ele>1446.616</ele>
        <time>2021-09-25T13:10:46Z</time>
      </trkpt>
      <trkpt lat="41.820195" lon="2.371288">
        <ele>1446.808</ele>
        <time>2021-09-25T13:10:50Z</time>
      </trkpt>
      <trkpt lat="41.820204" lon="2.371226">
        <ele>1448.114</ele>
        <time>2021-09-25T13:10:58Z</time>
      </trkpt>
      <trkpt lat="41.820216" lon="2.371167">
        <ele>1448.670</ele>
        <time>2021-09-25T13:11:04Z</time>
      </trkpt>
      <trkpt lat="41.820177" lon="2.371197">
        <ele>1451.643</ele>
        <time>2021-09-25T13:12:31Z</time>
      </trkpt>
      <trkpt lat="41.820144" lon="2.371143">
        <ele>1451.551</ele>
        <time>2021-09-25T13:13:38Z</time>
      </trkpt>
      <trkpt lat="41.820105" lon="2.371180">
        <ele>1451.334</ele>
        <time>2021-09-25T13:14:20Z</time>
      </trkpt>
      <trkpt lat="41.820114" lon="2.371247">
        <ele>1451.098</ele>
        <time>2021-09-25T13:15:04Z</time>
      </trkpt>
      <trkpt lat="41.820143" lon="2.371195">
        <ele>1451.033</ele>
        <time>2021-09-25T13:15:15Z</time>
      </trkpt>
      <trkpt lat="41.820184" lon="2.371169">
        <ele>1451.163</ele>
        <time>2021-09-25T13:16:02Z</time>
      </trkpt>
      <trkpt lat="41.820231" lon="2.371152">
        <ele>1451.234</ele>
        <time>2021-09-25T13:16:12Z</time>
      </trkpt>
      <trkpt lat="41.820209" lon="2.371211">
        <ele>1451.655</ele>
        <time>2021-09-25T13:17:20Z</time>
      </trkpt>
      <trkpt lat="41.820165" lon="2.371228">
        <ele>1451.710</ele>
        <time>2021-09-25T13:17:26Z</time>
      </trkpt>
      <trkpt lat="41.820127" lon="2.371264">
        <ele>1451.808</ele>
        <time>2021-09-25T13:17:30Z</time>
      </trkpt>
      <trkpt lat="41.820081" lon="2.371287">
        <ele>1451.961</ele>
        <time>2021-09-25T13:17:37Z</time>
      </trkpt>
      <trkpt lat="41.820025" lon="2.371301">
        <ele>1453.677</ele>
        <time>2021-09-25T13:17:50Z</time>
      </trkpt>
      <trkpt lat="41.819975" lon="2.371328">
        <ele>1455.380</ele>
        <time>2021-09-25T13:17:55Z</time>
      </trkpt>
      <trkpt lat="41.819951" lon="2.371384">
        <ele>1456.448</ele>
        <time>2021-09-25T13:18:03Z</time>
      </trkpt>
      <trkpt lat="41.819923" lon="2.371439">
        <ele>1457.521</ele>
        <time>2021-09-25T13:18:12Z</time>
      </trkpt>
      <trkpt lat="41.819874" lon="2.371440">
        <ele>1460.015</ele>
        <time>2021-09-25T13:18:29Z</time>
      </trkpt>
      <trkpt lat="41.819833" lon="2.371473">
        <ele>1461.170</ele>
        <time>2021-09-25T13:18:39Z</time>
      </trkpt>
      <trkpt lat="41.819786" lon="2.371501">
        <ele>1462.310</ele>
        <time>2021-09-25T13:18:49Z</time>
      </trkpt>
      <trkpt lat="41.819756" lon="2.371554">
        <ele>1463.442</ele>
        <time>2021-09-25T13:19:00Z</time>
      </trkpt>
      <trkpt lat="41.819712" lon="2.371595">
        <ele>1464.922</ele>
        <time>2021-09-25T13:19:18Z</time>
      </trkpt>
      <trkpt lat="41.819680" lon="2.371637">
        <ele>1465.814</ele>
        <time>2021-09-25T13:19:24Z</time>
      </trkpt>
      <trkpt lat="41.819635" lon="2.371647">
        <ele>1466.808</ele>
        <time>2021-09-25T13:19:28Z</time>
      </trkpt>
      <trkpt lat="41.819593" lon="2.371672">
        <ele>1468.112</ele>
        <time>2021-09-25T13:19:35Z</time>
      </trkpt>
      <trkpt lat="41.819548" lon="2.371687">
        <ele>1470.048</ele>
        <time>2021-09-25T13:19:48Z</time>
      </trkpt>
      <trkpt lat="41.819499" lon="2.371684">
        <ele>1471.691</ele>
        <time>2021-09-25T13:19:58Z</time>
      </trkpt>
      <trkpt lat="41.819452" lon="2.371706">
        <ele>1472.569</ele>
        <time>2021-09-25T13:20:05Z</time>
      </trkpt>
      <trkpt lat="41.819407" lon="2.371726">
        <ele>1473.212</ele>
        <time>2021-09-25T13:20:13Z</time>
      </trkpt>
      <trkpt lat="41.819360" lon="2.371757">
        <ele>1474.726</ele>
        <time>2021-09-25T13:20:23Z</time>
      </trkpt>
      <trkpt lat="41.819321" lon="2.371798">
        <ele>1475.351</ele>
        <time>2021-09-25T13:20:30Z</time>
      </trkpt>
      <trkpt lat="41.819275" lon="2.371822">
        <ele>1476.641</ele>
        <time>2021-09-25T13:20:41Z</time>
      </trkpt>
      <trkpt lat="41.819229" lon="2.371836">
        <ele>1477.546</ele>
        <time>2021-09-25T13:20:49Z</time>
      </trkpt>
      <trkpt lat="41.819196" lon="2.371881">
        <ele>1478.388</ele>
        <time>2021-09-25T13:20:56Z</time>
      </trkpt>
      <trkpt lat="41.819155" lon="2.371918">
        <ele>1479.716</ele>
        <time>2021-09-25T13:21:05Z</time>
      </trkpt>
      <trkpt lat="41.819115" lon="2.371954">
        <ele>1481.008</ele>
        <time>2021-09-25T13:21:14Z</time>
      </trkpt>
      <trkpt lat="41.819084" lon="2.371999">
        <ele>1482.642</ele>
        <time>2021-09-25T13:21:27Z</time>
      </trkpt>
      <trkpt lat="41.819039" lon="2.372025">
        <ele>1483.968</ele>
        <time>2021-09-25T13:21:35Z</time>
      </trkpt>
      <trkpt lat="41.818998" lon="2.372063">
        <ele>1486.131</ele>
        <time>2021-09-25T13:21:51Z</time>
      </trkpt>
      <trkpt lat="41.818952" lon="2.372062">
        <ele>1487.669</ele>
        <time>2021-09-25T13:22:02Z</time>
      </trkpt>
      <trkpt lat="41.818913" lon="2.372097">
        <ele>1488.352</ele>
        <time>2021-09-25T13:22:14Z</time>
      </trkpt>
      <trkpt lat="41.818867" lon="2.372098">
        <ele>1489.176</ele>
        <time>2021-09-25T13:22:19Z</time>
      </trkpt>
      <trkpt lat="41.818822" lon="2.372121">
        <ele>1490.871</ele>
        <time>2021-09-25T13:22:30Z</time>
      </trkpt>
      <trkpt lat="41.818778" lon="2.372105">
        <ele>1492.591</ele>
        <time>2021-09-25T13:22:44Z</time>
      </trkpt>
      <trkpt lat="41.818731" lon="2.372132">
        <ele>1498.347</ele>
        <time>2021-09-25T13:23:41Z</time>
      </trkpt>
      <trkpt lat="41.818696" lon="2.372171">
        <ele>1498.829</ele>
        <time>2021-09-25T13:23:53Z</time>
      </trkpt>
      <trkpt lat="41.818648" lon="2.372197">
        <ele>1499.021</ele>
        <time>2021-09-25T13:24:00Z</time>
      </trkpt>
      <trkpt lat="41.818596" lon="2.372199">
        <ele>1499.408</ele>
        <time>2021-09-25T13:24:17Z</time>
      </trkpt>
      <trkpt lat="41.818553" lon="2.372183">
        <ele>1500.782</ele>
        <time>2021-09-25T13:24:25Z</time>
      </trkpt>
      <trkpt lat="41.818500" lon="2.372173">
        <ele>1504.148</ele>
        <time>2021-09-25T13:24:35Z</time>
      </trkpt>
      <trkpt lat="41.818446" lon="2.372175">
        <ele>1506.251</ele>
        <time>2021-09-25T13:24:50Z</time>
      </trkpt>
      <trkpt lat="41.818391" lon="2.372181">
        <ele>1507.049</ele>
        <time>2021-09-25T13:25:00Z</time>
      </trkpt>
      <trkpt lat="41.818355" lon="2.372231">
        <ele>1509.282</ele>
        <time>2021-09-25T13:25:18Z</time>
      </trkpt>
      <trkpt lat="41.818315" lon="2.372263">
        <ele>1509.896</ele>
        <time>2021-09-25T13:25:27Z</time>
      </trkpt>
      <trkpt lat="41.818270" lon="2.372286">
        <ele>1510.311</ele>
        <time>2021-09-25T13:25:37Z</time>
      </trkpt>
      <trkpt lat="41.818225" lon="2.372307">
        <ele>1510.951</ele>
        <time>2021-09-25T13:25:44Z</time>
      </trkpt>
      <trkpt lat="41.818206" lon="2.372373">
        <ele>1512.523</ele>
        <time>2021-09-25T13:26:02Z</time>
      </trkpt>
      <trkpt lat="41.818149" lon="2.372403">
        <ele>1513.283</ele>
        <time>2021-09-25T13:26:09Z</time>
      </trkpt>
      <trkpt lat="41.818140" lon="2.372468">
        <ele>1515.111</ele>
        <time>2021-09-25T13:26:18Z</time>
      </trkpt>
      <trkpt lat="41.818091" lon="2.372515">
        <ele>1515.808</ele>
        <time>2021-09-25T13:26:21Z</time>
      </trkpt>
      <trkpt lat="41.818075" lon="2.372579">
        <ele>1517.890</ele>
        <time>2021-09-25T13:26:28Z</time>
      </trkpt>
      <trkpt lat="41.818057" lon="2.372636">
        <ele>1519.326</ele>
        <time>2021-09-25T13:26:43Z</time>
      </trkpt>
      <trkpt lat="41.818033" lon="2.372691">
        <ele>1521.859</ele>
        <time>2021-09-25T13:26:59Z</time>
      </trkpt>
      <trkpt lat="41.818018" lon="2.372752">
        <ele>1522.287</ele>
        <time>2021-09-25T13:27:05Z</time>
      </trkpt>
      <trkpt lat="41.817965" lon="2.372761">
        <ele>1523.660</ele>
        <time>2021-09-25T13:27:28Z</time>
      </trkpt>
      <trkpt lat="41.817920" lon="2.372757">
        <ele>1524.214</ele>
        <time>2021-09-25T13:27:34Z</time>
      </trkpt>
      <trkpt lat="41.817873" lon="2.372755">
        <ele>1525.519</ele>
        <time>2021-09-25T13:27:39Z</time>
      </trkpt>
      <trkpt lat="41.817824" lon="2.372766">
        <ele>1525.889</ele>
        <time>2021-09-25T13:27:47Z</time>
      </trkpt>
      <trkpt lat="41.817770" lon="2.372760">
        <ele>1526.047</ele>
        <time>2021-09-25T13:27:52Z</time>
      </trkpt>
      <trkpt lat="41.817737" lon="2.372813">
        <ele>1527.029</ele>
        <time>2021-09-25T13:28:00Z</time>
      </trkpt>
      <trkpt lat="41.817695" lon="2.372838">
        <ele>1528.321</ele>
        <time>2021-09-25T13:28:14Z</time>
      </trkpt>
      <trkpt lat="41.817658" lon="2.372875">
        <ele>1528.608</ele>
        <time>2021-09-25T13:28:23Z</time>
      </trkpt>
      <trkpt lat="41.817601" lon="2.372897">
        <ele>1528.822</ele>
        <time>2021-09-25T13:28:26Z</time>
      </trkpt>
      <trkpt lat="41.817547" lon="2.372890">
        <ele>1529.218</ele>
        <time>2021-09-25T13:28:31Z</time>
      </trkpt>
      <trkpt lat="41.817489" lon="2.372893">
        <ele>1529.811</ele>
        <time>2021-09-25T13:28:37Z</time>
      </trkpt>
      <trkpt lat="41.817437" lon="2.372877">
        <ele>1530.389</ele>
        <time>2021-09-25T13:28:41Z</time>
      </trkpt>
      <trkpt lat="41.817384" lon="2.372875">
        <ele>1531.232</ele>
        <time>2021-09-25T13:28:45Z</time>
      </trkpt>
      <trkpt lat="41.817339" lon="2.372862">
        <ele>1532.236</ele>
        <time>2021-09-25T13:28:51Z</time>
      </trkpt>
      <trkpt lat="41.817289" lon="2.372871">
        <ele>1532.991</ele>
        <time>2021-09-25T13:28:59Z</time>
      </trkpt>
      <trkpt lat="41.817240" lon="2.372901">
        <ele>1533.691</ele>
        <time>2021-09-25T13:29:04Z</time>
      </trkpt>
      <trkpt lat="41.817202" lon="2.372951">
        <ele>1533.622</ele>
        <time>2021-09-25T13:29:10Z</time>
      </trkpt>
      <trkpt lat="41.817153" lon="2.372960">
        <ele>1533.662</ele>
        <time>2021-09-25T13:29:18Z</time>
      </trkpt>
      <trkpt lat="41.817101" lon="2.372965">
        <ele>1533.408</ele>
        <time>2021-09-25T13:29:29Z</time>
      </trkpt>
      <trkpt lat="41.817048" lon="2.372958">
        <ele>1533.308</ele>
        <time>2021-09-25T13:29:34Z</time>
      </trkpt>
      <trkpt lat="41.817004" lon="2.372970">
        <ele>1533.380</ele>
        <time>2021-09-25T13:29:39Z</time>
      </trkpt>
      <trkpt lat="41.816966" lon="2.373010">
        <ele>1533.376</ele>
        <time>2021-09-25T13:29:48Z</time>
      </trkpt>
      <trkpt lat="41.816922" lon="2.373053">
        <ele>1533.219</ele>
        <time>2021-09-25T13:29:52Z</time>
      </trkpt>
      <trkpt lat="41.816876" lon="2.373049">
        <ele>1533.267</ele>
        <time>2021-09-25T13:29:55Z</time>
      </trkpt>
      <trkpt lat="41.816831" lon="2.373061">
        <ele>1533.270</ele>
        <time>2021-09-25T13:30:00Z</time>
      </trkpt>
      <trkpt lat="41.816778" lon="2.373070">
        <ele>1533.274</ele>
        <time>2021-09-25T13:30:04Z</time>
      </trkpt>
      <trkpt lat="41.816724" lon="2.373074">
        <ele>1533.239</ele>
        <time>2021-09-25T13:30:10Z</time>
      </trkpt>
      <trkpt lat="41.816678" lon="2.373091">
        <ele>1533.369</ele>
        <time>2021-09-25T13:30:15Z</time>
      </trkpt>
      <trkpt lat="41.816625" lon="2.373095">
        <ele>1533.417</ele>
        <time>2021-09-25T13:30:21Z</time>
      </trkpt>
      <trkpt lat="41.816579" lon="2.373088">
        <ele>1533.787</ele>
        <time>2021-09-25T13:30:27Z</time>
      </trkpt>
      <trkpt lat="41.816536" lon="2.373068">
        <ele>1533.815</ele>
        <time>2021-09-25T13:30:32Z</time>
      </trkpt>
      <trkpt lat="41.816491" lon="2.373067">
        <ele>1534.608</ele>
        <time>2021-09-25T13:30:39Z</time>
      </trkpt>
      <trkpt lat="41.816437" lon="2.373055">
        <ele>1535.299</ele>
        <time>2021-09-25T13:30:45Z</time>
      </trkpt>
      <trkpt lat="41.816390" lon="2.373075">
        <ele>1535.385</ele>
        <time>2021-09-25T13:30:50Z</time>
      </trkpt>
      <trkpt lat="41.816344" lon="2.373106">
        <ele>1535.328</ele>
        <time>2021-09-25T13:30:55Z</time>
      </trkpt>
      <trkpt lat="41.816292" lon="2.373129">
        <ele>1535.266</ele>
        <time>2021-09-25T13:31:01Z</time>
      </trkpt>
      <trkpt lat="41.816241" lon="2.373125">
        <ele>1535.099</ele>
        <time>2021-09-25T13:31:06Z</time>
      </trkpt>
      <trkpt lat="41.816189" lon="2.373106">
        <ele>1534.783</ele>
        <time>2021-09-25T13:31:12Z</time>
      </trkpt>
      <trkpt lat="41.816140" lon="2.373096">
        <ele>1534.698</ele>
        <time>2021-09-25T13:31:17Z</time>
      </trkpt>
      <trkpt lat="41.816084" lon="2.373071">
        <ele>1534.628</ele>
        <time>2021-09-25T13:31:24Z</time>
      </trkpt>
      <trkpt lat="41.816038" lon="2.373056">
        <ele>1534.836</ele>
        <time>2021-09-25T13:31:30Z</time>
      </trkpt>
      <trkpt lat="41.815990" lon="2.373084">
        <ele>1535.317</ele>
        <time>2021-09-25T13:31:37Z</time>
      </trkpt>
      <trkpt lat="41.815947" lon="2.373110">
        <ele>1536.318</ele>
        <time>2021-09-25T13:31:43Z</time>
      </trkpt>
      <trkpt lat="41.815906" lon="2.373141">
        <ele>1536.908</ele>
        <time>2021-09-25T13:31:50Z</time>
      </trkpt>
      <trkpt lat="41.815858" lon="2.373144">
        <ele>1537.311</ele>
        <time>2021-09-25T13:31:55Z</time>
      </trkpt>
      <trkpt lat="41.815808" lon="2.373138">
        <ele>1537.587</ele>
        <time>2021-09-25T13:32:00Z</time>
      </trkpt>
      <trkpt lat="41.815759" lon="2.373138">
        <ele>1538.310</ele>
        <time>2021-09-25T13:32:06Z</time>
      </trkpt>
      <trkpt lat="41.815709" lon="2.373158">
        <ele>1538.738</ele>
        <time>2021-09-25T13:32:12Z</time>
      </trkpt>
      <trkpt lat="41.815661" lon="2.373187">
        <ele>1539.391</ele>
        <time>2021-09-25T13:32:17Z</time>
      </trkpt>
      <trkpt lat="41.815617" lon="2.373201">
        <ele>1539.445</ele>
        <time>2021-09-25T13:32:21Z</time>
      </trkpt>
      <trkpt lat="41.815570" lon="2.373218">
        <ele>1539.480</ele>
        <time>2021-09-25T13:32:25Z</time>
      </trkpt>
      <trkpt lat="41.815518" lon="2.373220">
        <ele>1539.310</ele>
        <time>2021-09-25T13:32:30Z</time>
      </trkpt>
      <trkpt lat="41.815472" lon="2.373207">
        <ele>1539.143</ele>
        <time>2021-09-25T13:32:36Z</time>
      </trkpt>
      <trkpt lat="41.815417" lon="2.373206">
        <ele>1539.164</ele>
        <time>2021-09-25T13:32:42Z</time>
      </trkpt>
      <trkpt lat="41.815359" lon="2.373206">
        <ele>1539.110</ele>
        <time>2021-09-25T13:32:47Z</time>
      </trkpt>
      <trkpt lat="41.815307" lon="2.373181">
        <ele>1539.208</ele>
        <time>2021-09-25T13:32:53Z</time>
      </trkpt>
      <trkpt lat="41.815256" lon="2.373187">
        <ele>1539.242</ele>
        <time>2021-09-25T13:33:00Z</time>
      </trkpt>
      <trkpt lat="41.815211" lon="2.373175">
        <ele>1539.398</ele>
        <time>2021-09-25T13:33:06Z</time>
      </trkpt>
      <trkpt lat="41.815162" lon="2.373171">
        <ele>1539.321</ele>
        <time>2021-09-25T13:33:11Z</time>
      </trkpt>
      <trkpt lat="41.815111" lon="2.373171">
        <ele>1539.589</ele>
        <time>2021-09-25T13:33:16Z</time>
      </trkpt>
      <trkpt lat="41.815065" lon="2.373193">
        <ele>1540.162</ele>
        <time>2021-09-25T13:33:21Z</time>
      </trkpt>
      <trkpt lat="41.815021" lon="2.373220">
        <ele>1540.876</ele>
        <time>2021-09-25T13:33:31Z</time>
      </trkpt>
      <trkpt lat="41.814977" lon="2.373263">
        <ele>1541.071</ele>
        <time>2021-09-25T13:33:37Z</time>
      </trkpt>
      <trkpt lat="41.814939" lon="2.373296">
        <ele>1541.091</ele>
        <time>2021-09-25T13:33:41Z</time>
      </trkpt>
      <trkpt lat="41.814898" lon="2.373335">
        <ele>1541.093</ele>
        <time>2021-09-25T13:33:45Z</time>
      </trkpt>
      <trkpt lat="41.814867" lon="2.373394">
        <ele>1540.965</ele>
        <time>2021-09-25T13:33:51Z</time>
      </trkpt>
      <trkpt lat="41.814845" lon="2.373449">
        <ele>1540.321</ele>
        <time>2021-09-25T13:33:56Z</time>
      </trkpt>
      <trkpt lat="41.814816" lon="2.373516">
        <ele>1539.108</ele>
        <time>2021-09-25T13:34:02Z</time>
      </trkpt>
      <trkpt lat="41.814789" lon="2.373569">
        <ele>1538.897</ele>
        <time>2021-09-25T13:34:10Z</time>
      </trkpt>
      <trkpt lat="41.814771" lon="2.373629">
        <ele>1538.653</ele>
        <time>2021-09-25T13:34:16Z</time>
      </trkpt>
      <trkpt lat="41.814740" lon="2.373680">
        <ele>1538.226</ele>
        <time>2021-09-25T13:34:21Z</time>
      </trkpt>
      <trkpt lat="41.814703" lon="2.373730">
        <ele>1538.074</ele>
        <time>2021-09-25T13:34:25Z</time>
      </trkpt>
      <trkpt lat="41.814673" lon="2.373780">
        <ele>1537.647</ele>
        <time>2021-09-25T13:34:29Z</time>
      </trkpt>
      <trkpt lat="41.814641" lon="2.373832">
        <ele>1537.421</ele>
        <time>2021-09-25T13:34:35Z</time>
      </trkpt>
      <trkpt lat="41.814606" lon="2.373872">
        <ele>1536.916</ele>
        <time>2021-09-25T13:34:39Z</time>
      </trkpt>
      <trkpt lat="41.814576" lon="2.373926">
        <ele>1536.596</ele>
        <time>2021-09-25T13:34:46Z</time>
      </trkpt>
      <trkpt lat="41.814566" lon="2.373986">
        <ele>1536.279</ele>
        <time>2021-09-25T13:34:54Z</time>
      </trkpt>
      <trkpt lat="41.814544" lon="2.374051">
        <ele>1535.905</ele>
        <time>2021-09-25T13:34:58Z</time>
      </trkpt>
      <trkpt lat="41.814522" lon="2.374111">
        <ele>1535.625</ele>
        <time>2021-09-25T13:35:03Z</time>
      </trkpt>
      <trkpt lat="41.814481" lon="2.374147">
        <ele>1535.108</ele>
        <time>2021-09-25T13:35:07Z</time>
      </trkpt>
      <trkpt lat="41.814442" lon="2.374189">
        <ele>1534.865</ele>
        <time>2021-09-25T13:35:11Z</time>
      </trkpt>
      <trkpt lat="41.814400" lon="2.374219">
        <ele>1534.751</ele>
        <time>2021-09-25T13:35:14Z</time>
      </trkpt>
      <trkpt lat="41.814367" lon="2.374264">
        <ele>1534.134</ele>
        <time>2021-09-25T13:35:18Z</time>
      </trkpt>
      <trkpt lat="41.814316" lon="2.374294">
        <ele>1534.092</ele>
        <time>2021-09-25T13:35:22Z</time>
      </trkpt>
      <trkpt lat="41.814258" lon="2.374319">
        <ele>1534.085</ele>
        <time>2021-09-25T13:35:26Z</time>
      </trkpt>
      <trkpt lat="41.814211" lon="2.374345">
        <ele>1534.239</ele>
        <time>2021-09-25T13:35:30Z</time>
      </trkpt>
      <trkpt lat="41.814168" lon="2.374372">
        <ele>1534.344</ele>
        <time>2021-09-25T13:35:35Z</time>
      </trkpt>
      <trkpt lat="41.814118" lon="2.374401">
        <ele>1534.314</ele>
        <time>2021-09-25T13:35:40Z</time>
      </trkpt>
      <trkpt lat="41.814073" lon="2.374432">
        <ele>1534.384</ele>
        <time>2021-09-25T13:35:45Z</time>
      </trkpt>
      <trkpt lat="41.814035" lon="2.374482">
        <ele>1534.207</ele>
        <time>2021-09-25T13:35:50Z</time>
      </trkpt>
      <trkpt lat="41.813992" lon="2.374518">
        <ele>1534.117</ele>
        <time>2021-09-25T13:35:57Z</time>
      </trkpt>
      <trkpt lat="41.813943" lon="2.374553">
        <ele>1534.108</ele>
        <time>2021-09-25T13:36:04Z</time>
      </trkpt>
      <trkpt lat="41.813899" lon="2.374581">
        <ele>1534.146</ele>
        <time>2021-09-25T13:36:08Z</time>
      </trkpt>
      <trkpt lat="41.813847" lon="2.374611">
        <ele>1534.212</ele>
        <time>2021-09-25T13:36:14Z</time>
      </trkpt>
      <trkpt lat="41.813803" lon="2.374630">
        <ele>1534.935</ele>
        <time>2021-09-25T13:36:20Z</time>
      </trkpt>
      <trkpt lat="41.813753" lon="2.374658">
        <ele>1535.593</ele>
        <time>2021-09-25T13:36:34Z</time>
      </trkpt>
      <trkpt lat="41.813704" lon="2.374648">
        <ele>1536.066</ele>
        <time>2021-09-25T13:36:44Z</time>
      </trkpt>
      <trkpt lat="41.813654" lon="2.374644">
        <ele>1536.350</ele>
        <time>2021-09-25T13:36:49Z</time>
      </trkpt>
      <trkpt lat="41.813606" lon="2.374646">
        <ele>1536.665</ele>
        <time>2021-09-25T13:36:54Z</time>
      </trkpt>
      <trkpt lat="41.813561" lon="2.374632">
        <ele>1536.725</ele>
        <time>2021-09-25T13:36:57Z</time>
      </trkpt>
      <trkpt lat="41.813514" lon="2.374620">
        <ele>1537.144</ele>
        <time>2021-09-25T13:37:04Z</time>
      </trkpt>
      <trkpt lat="41.813464" lon="2.374612">
        <ele>1537.905</ele>
        <time>2021-09-25T13:37:11Z</time>
      </trkpt>
      <trkpt lat="41.813417" lon="2.374615">
        <ele>1538.815</ele>
        <time>2021-09-25T13:37:16Z</time>
      </trkpt>
      <trkpt lat="41.813368" lon="2.374608">
        <ele>1539.408</ele>
        <time>2021-09-25T13:37:22Z</time>
      </trkpt>
      <trkpt lat="41.813321" lon="2.374639">
        <ele>1540.262</ele>
        <time>2021-09-25T13:37:30Z</time>
      </trkpt>
      <trkpt lat="41.813288" lon="2.374691">
        <ele>1540.548</ele>
        <time>2021-09-25T13:37:36Z</time>
      </trkpt>
      <trkpt lat="41.813251" lon="2.374735">
        <ele>1540.761</ele>
        <time>2021-09-25T13:37:41Z</time>
      </trkpt>
      <trkpt lat="41.813215" lon="2.374786">
        <ele>1540.959</ele>
        <time>2021-09-25T13:37:47Z</time>
      </trkpt>
      <trkpt lat="41.813169" lon="2.374807">
        <ele>1541.082</ele>
        <time>2021-09-25T13:37:53Z</time>
      </trkpt>
      <trkpt lat="41.813127" lon="2.374853">
        <ele>1541.086</ele>
        <time>2021-09-25T13:37:58Z</time>
      </trkpt>
      <trkpt lat="41.813104" lon="2.374906">
        <ele>1541.261</ele>
        <time>2021-09-25T13:38:03Z</time>
      </trkpt>
      <trkpt lat="41.813054" lon="2.374932">
        <ele>1541.841</ele>
        <time>2021-09-25T13:38:09Z</time>
      </trkpt>
      <trkpt lat="41.813011" lon="2.374962">
        <ele>1542.371</ele>
        <time>2021-09-25T13:38:16Z</time>
      </trkpt>
      <trkpt lat="41.812968" lon="2.374996">
        <ele>1542.941</ele>
        <time>2021-09-25T13:38:22Z</time>
      </trkpt>
      <trkpt lat="41.812925" lon="2.375041">
        <ele>1544.415</ele>
        <time>2021-09-25T13:38:30Z</time>
      </trkpt>
      <trkpt lat="41.812884" lon="2.375083">
        <ele>1545.308</ele>
        <time>2021-09-25T13:38:36Z</time>
      </trkpt>
      <trkpt lat="41.812848" lon="2.375129">
        <ele>1545.475</ele>
        <time>2021-09-25T13:38:41Z</time>
      </trkpt>
      <trkpt lat="41.812802" lon="2.375153">
        <ele>1545.631</ele>
        <time>2021-09-25T13:38:46Z</time>
      </trkpt>
      <trkpt lat="41.812760" lon="2.375178">
        <ele>1545.984</ele>
        <time>2021-09-25T13:38:53Z</time>
      </trkpt>
      <trkpt lat="41.812709" lon="2.375207">
        <ele>1546.172</ele>
        <time>2021-09-25T13:38:59Z</time>
      </trkpt>
      <trkpt lat="41.812667" lon="2.375229">
        <ele>1546.285</ele>
        <time>2021-09-25T13:39:03Z</time>
      </trkpt>
      <trkpt lat="41.812617" lon="2.375260">
        <ele>1546.249</ele>
        <time>2021-09-25T13:39:08Z</time>
      </trkpt>
      <trkpt lat="41.812583" lon="2.375301">
        <ele>1546.334</ele>
        <time>2021-09-25T13:39:14Z</time>
      </trkpt>
      <trkpt lat="41.812547" lon="2.375341">
        <ele>1546.844</ele>
        <time>2021-09-25T13:39:22Z</time>
      </trkpt>
      <trkpt lat="41.812552" lon="2.375406">
        <ele>1547.885</ele>
        <time>2021-09-25T13:39:31Z</time>
      </trkpt>
      <trkpt lat="41.812536" lon="2.375472">
        <ele>1548.589</ele>
        <time>2021-09-25T13:39:36Z</time>
      </trkpt>
      <trkpt lat="41.812510" lon="2.375526">
        <ele>1548.717</ele>
        <time>2021-09-25T13:39:40Z</time>
      </trkpt>
      <trkpt lat="41.812472" lon="2.375578">
        <ele>1549.108</ele>
        <time>2021-09-25T13:39:48Z</time>
      </trkpt>
      <trkpt lat="41.812434" lon="2.375635">
        <ele>1550.126</ele>
        <time>2021-09-25T13:39:59Z</time>
      </trkpt>
      <trkpt lat="41.812405" lon="2.375687">
        <ele>1550.862</ele>
        <time>2021-09-25T13:40:04Z</time>
      </trkpt>
      <trkpt lat="41.812368" lon="2.375738">
        <ele>1551.525</ele>
        <time>2021-09-25T13:40:12Z</time>
      </trkpt>
      <trkpt lat="41.812358" lon="2.375797">
        <ele>1551.743</ele>
        <time>2021-09-25T13:40:20Z</time>
      </trkpt>
      <trkpt lat="41.812336" lon="2.375851">
        <ele>1552.176</ele>
        <time>2021-09-25T13:40:26Z</time>
      </trkpt>
      <trkpt lat="41.812312" lon="2.375921">
        <ele>1552.580</ele>
        <time>2021-09-25T13:40:32Z</time>
      </trkpt>
      <trkpt lat="41.812286" lon="2.375978">
        <ele>1554.625</ele>
        <time>2021-09-25T13:41:05Z</time>
      </trkpt>
      <trkpt lat="41.812263" lon="2.376034">
        <ele>1554.815</ele>
        <time>2021-09-25T13:41:10Z</time>
      </trkpt>
      <trkpt lat="41.812233" lon="2.376085">
        <ele>1555.088</ele>
        <time>2021-09-25T13:41:14Z</time>
      </trkpt>
      <trkpt lat="41.812194" lon="2.376140">
        <ele>1555.224</ele>
        <time>2021-09-25T13:41:21Z</time>
      </trkpt>
      <trkpt lat="41.812155" lon="2.376174">
        <ele>1555.326</ele>
        <time>2021-09-25T13:41:25Z</time>
      </trkpt>
      <trkpt lat="41.812124" lon="2.376219">
        <ele>1556.008</ele>
        <time>2021-09-25T13:41:30Z</time>
      </trkpt>
      <trkpt lat="41.812081" lon="2.376241">
        <ele>1557.046</ele>
        <time>2021-09-25T13:41:37Z</time>
      </trkpt>
      <trkpt lat="41.812039" lon="2.376277">
        <ele>1557.542</ele>
        <time>2021-09-25T13:41:44Z</time>
      </trkpt>
      <trkpt lat="41.812038" lon="2.376341">
        <ele>1560.555</ele>
        <time>2021-09-25T13:42:49Z</time>
      </trkpt>
      <trkpt lat="41.812080" lon="2.376375">
        <ele>1560.613</ele>
        <time>2021-09-25T13:42:53Z</time>
      </trkpt>
      <trkpt lat="41.812112" lon="2.376425">
        <ele>1560.716</ele>
        <time>2021-09-25T13:42:58Z</time>
      </trkpt>
      <trkpt lat="41.812146" lon="2.376469">
        <ele>1560.860</ele>
        <time>2021-09-25T13:43:03Z</time>
      </trkpt>
      <trkpt lat="41.812192" lon="2.376502">
        <ele>1561.065</ele>
        <time>2021-09-25T13:43:09Z</time>
      </trkpt>
      <trkpt lat="41.812217" lon="2.376559">
        <ele>1561.255</ele>
        <time>2021-09-25T13:43:17Z</time>
      </trkpt>
      <trkpt lat="41.812232" lon="2.376628">
        <ele>1561.488</ele>
        <time>2021-09-25T13:43:21Z</time>
      </trkpt>
      <trkpt lat="41.812247" lon="2.376700">
        <ele>1562.724</ele>
        <time>2021-09-25T13:43:25Z</time>
      </trkpt>
      <trkpt lat="41.812257" lon="2.376765">
        <ele>1563.426</ele>
        <time>2021-09-25T13:43:30Z</time>
      </trkpt>
      <trkpt lat="41.812264" lon="2.376826">
        <ele>1564.308</ele>
        <time>2021-09-25T13:43:36Z</time>
      </trkpt>
      <trkpt lat="41.812273" lon="2.376895">
        <ele>1564.846</ele>
        <time>2021-09-25T13:43:43Z</time>
      </trkpt>
      <trkpt lat="41.812311" lon="2.376940">
        <ele>1565.072</ele>
        <time>2021-09-25T13:43:49Z</time>
      </trkpt>
      <trkpt lat="41.812326" lon="2.377002">
        <ele>1565.115</ele>
        <time>2021-09-25T13:43:53Z</time>
      </trkpt>
      <trkpt lat="41.812358" lon="2.377055">
        <ele>1565.523</ele>
        <time>2021-09-25T13:44:01Z</time>
      </trkpt>
      <trkpt lat="41.812404" lon="2.377086">
        <ele>1566.216</ele>
        <time>2021-09-25T13:44:06Z</time>
      </trkpt>
      <trkpt lat="41.812434" lon="2.377149">
        <ele>1567.190</ele>
        <time>2021-09-25T13:44:17Z</time>
      </trkpt>
      <trkpt lat="41.812449" lon="2.377216">
        <ele>1567.935</ele>
        <time>2021-09-25T13:44:21Z</time>
      </trkpt>
      <trkpt lat="41.812472" lon="2.377280">
        <ele>1569.195</ele>
        <time>2021-09-25T13:44:27Z</time>
      </trkpt>
      <trkpt lat="41.812508" lon="2.377322">
        <ele>1570.539</ele>
        <time>2021-09-25T13:44:36Z</time>
      </trkpt>
      <trkpt lat="41.812561" lon="2.377323">
        <ele>1571.601</ele>
        <time>2021-09-25T13:44:45Z</time>
      </trkpt>
      <trkpt lat="41.812611" lon="2.377342">
        <ele>1573.421</ele>
        <time>2021-09-25T13:44:52Z</time>
      </trkpt>
      <trkpt lat="41.812646" lon="2.377390">
        <ele>1573.908</ele>
        <time>2021-09-25T13:44:58Z</time>
      </trkpt>
      <trkpt lat="41.812662" lon="2.377448">
        <ele>1574.611</ele>
        <time>2021-09-25T13:45:03Z</time>
      </trkpt>
      <trkpt lat="41.812660" lon="2.377512">
        <ele>1576.217</ele>
        <time>2021-09-25T13:45:15Z</time>
      </trkpt>
      <trkpt lat="41.812692" lon="2.377563">
        <ele>1576.990</ele>
        <time>2021-09-25T13:45:23Z</time>
      </trkpt>
      <trkpt lat="41.812734" lon="2.377588">
        <ele>1577.728</ele>
        <time>2021-09-25T13:45:28Z</time>
      </trkpt>
      <trkpt lat="41.812778" lon="2.377608">
        <ele>1578.231</ele>
        <time>2021-09-25T13:45:34Z</time>
      </trkpt>
      <trkpt lat="41.812823" lon="2.377631">
        <ele>1578.885</ele>
        <time>2021-09-25T13:45:43Z</time>
      </trkpt>
      <trkpt lat="41.812870" lon="2.377644">
        <ele>1579.850</ele>
        <time>2021-09-25T13:45:49Z</time>
      </trkpt>
      <trkpt lat="41.812908" lon="2.377676">
        <ele>1580.750</ele>
        <time>2021-09-25T13:45:53Z</time>
      </trkpt>
      <trkpt lat="41.812933" lon="2.377734">
        <ele>1582.255</ele>
        <time>2021-09-25T13:46:02Z</time>
      </trkpt>
      <trkpt lat="41.812933" lon="2.377796">
        <ele>1583.107</ele>
        <time>2021-09-25T13:46:07Z</time>
      </trkpt>
      <trkpt lat="41.812948" lon="2.377857">
        <ele>1584.417</ele>
        <time>2021-09-25T13:46:12Z</time>
      </trkpt>
      <trkpt lat="41.812968" lon="2.377924">
        <ele>1585.508</ele>
        <time>2021-09-25T13:46:17Z</time>
      </trkpt>
      <trkpt lat="41.812974" lon="2.377984">
        <ele>1586.133</ele>
        <time>2021-09-25T13:46:25Z</time>
      </trkpt>
      <trkpt lat="41.812948" lon="2.378060">
        <ele>1586.949</ele>
        <time>2021-09-25T13:46:33Z</time>
      </trkpt>
      <trkpt lat="41.812918" lon="2.378108">
        <ele>1587.192</ele>
        <time>2021-09-25T13:46:36Z</time>
      </trkpt>
      <trkpt lat="41.812884" lon="2.378166">
        <ele>1587.470</ele>
        <time>2021-09-25T13:46:50Z</time>
      </trkpt>
      <trkpt lat="41.812862" lon="2.378220">
        <ele>1588.133</ele>
        <time>2021-09-25T13:46:54Z</time>
      </trkpt>
      <trkpt lat="41.812838" lon="2.378283">
        <ele>1589.197</ele>
        <time>2021-09-25T13:46:58Z</time>
      </trkpt>
      <trkpt lat="41.812873" lon="2.378326">
        <ele>1590.152</ele>
        <time>2021-09-25T13:47:10Z</time>
      </trkpt>
      <trkpt lat="41.812889" lon="2.378405">
        <ele>1591.312</ele>
        <time>2021-09-25T13:47:17Z</time>
      </trkpt>
      <trkpt lat="41.812888" lon="2.378469">
        <ele>1591.761</ele>
        <time>2021-09-25T13:47:22Z</time>
      </trkpt>
      <trkpt lat="41.812880" lon="2.378535">
        <ele>1592.421</ele>
        <time>2021-09-25T13:47:30Z</time>
      </trkpt>
      <trkpt lat="41.812868" lon="2.378603">
        <ele>1593.013</ele>
        <time>2021-09-25T13:47:36Z</time>
      </trkpt>
      <trkpt lat="41.812833" lon="2.378651">
        <ele>1593.908</ele>
        <time>2021-09-25T13:47:39Z</time>
      </trkpt>
      <trkpt lat="41.812798" lon="2.378699">
        <ele>1594.424</ele>
        <time>2021-09-25T13:47:43Z</time>
      </trkpt>
      <trkpt lat="41.812764" lon="2.378756">
        <ele>1594.910</ele>
        <time>2021-09-25T13:47:48Z</time>
      </trkpt>
      <trkpt lat="41.812723" lon="2.378796">
        <ele>1595.673</ele>
        <time>2021-09-25T13:47:54Z</time>
      </trkpt>
      <trkpt lat="41.812693" lon="2.378847">
        <ele>1599.071</ele>
        <time>2021-09-25T13:48:49Z</time>
      </trkpt>
      <trkpt lat="41.812652" lon="2.378881">
        <ele>1599.134</ele>
        <time>2021-09-25T13:48:56Z</time>
      </trkpt>
      <trkpt lat="41.812610" lon="2.378913">
        <ele>1599.288</ele>
        <time>2021-09-25T13:49:02Z</time>
      </trkpt>
      <trkpt lat="41.812571" lon="2.378946">
        <ele>1601.223</ele>
        <time>2021-09-25T13:49:09Z</time>
      </trkpt>
      <trkpt lat="41.812553" lon="2.379008">
        <ele>1602.243</ele>
        <time>2021-09-25T13:49:17Z</time>
      </trkpt>
      <trkpt lat="41.812521" lon="2.379056">
        <ele>1603.139</ele>
        <time>2021-09-25T13:49:23Z</time>
      </trkpt>
      <trkpt lat="41.812481" lon="2.379086">
        <ele>1604.201</ele>
        <time>2021-09-25T13:49:31Z</time>
      </trkpt>
      <trkpt lat="41.812456" lon="2.379137">
        <ele>1607.121</ele>
        <time>2021-09-25T13:49:51Z</time>
      </trkpt>
      <trkpt lat="41.812409" lon="2.379157">
        <ele>1608.108</ele>
        <time>2021-09-25T13:49:59Z</time>
      </trkpt>
      <trkpt lat="41.812373" lon="2.379197">
        <ele>1609.171</ele>
        <time>2021-09-25T13:50:08Z</time>
      </trkpt>
      <trkpt lat="41.812335" lon="2.379234">
        <ele>1609.637</ele>
        <time>2021-09-25T13:50:11Z</time>
      </trkpt>
      <trkpt lat="41.812299" lon="2.379283">
        <ele>1614.370</ele>
        <time>2021-09-25T13:50:43Z</time>
      </trkpt>
      <trkpt lat="41.812254" lon="2.379289">
        <ele>1615.488</ele>
        <time>2021-09-25T13:50:49Z</time>
      </trkpt>
      <trkpt lat="41.812225" lon="2.379344">
        <ele>1615.711</ele>
        <time>2021-09-25T13:51:01Z</time>
      </trkpt>
      <trkpt lat="41.812188" lon="2.379388">
        <ele>1616.155</ele>
        <time>2021-09-25T13:51:11Z</time>
      </trkpt>
      <trkpt lat="41.812141" lon="2.379399">
        <ele>1616.650</ele>
        <time>2021-09-25T13:51:16Z</time>
      </trkpt>
      <trkpt lat="41.812098" lon="2.379416">
        <ele>1618.220</ele>
        <time>2021-09-25T13:51:21Z</time>
      </trkpt>
      <trkpt lat="41.812049" lon="2.379444">
        <ele>1619.362</ele>
        <time>2021-09-25T13:51:31Z</time>
      </trkpt>
      <trkpt lat="41.812006" lon="2.379470">
        <ele>1621.283</ele>
        <time>2021-09-25T13:51:40Z</time>
      </trkpt>
      <trkpt lat="41.811968" lon="2.379509">
        <ele>1622.311</ele>
        <time>2021-09-25T13:51:46Z</time>
      </trkpt>
      <trkpt lat="41.811943" lon="2.379562">
        <ele>1623.508</ele>
        <time>2021-09-25T13:51:54Z</time>
      </trkpt>
      <trkpt lat="41.811896" lon="2.379580">
        <ele>1624.264</ele>
        <time>2021-09-25T13:52:00Z</time>
      </trkpt>
      <trkpt lat="41.811844" lon="2.379573">
        <ele>1625.710</ele>
        <time>2021-09-25T13:52:06Z</time>
      </trkpt>
      <trkpt lat="41.811794" lon="2.379599">
        <ele>1626.813</ele>
        <time>2021-09-25T13:52:14Z</time>
      </trkpt>
      <trkpt lat="41.811739" lon="2.379610">
        <ele>1627.331</ele>
        <time>2021-09-25T13:52:25Z</time>
      </trkpt>
      <trkpt lat="41.811704" lon="2.379650">
        <ele>1627.834</ele>
        <time>2021-09-25T13:52:37Z</time>
      </trkpt>
      <trkpt lat="41.811654" lon="2.379697">
        <ele>1628.498</ele>
        <time>2021-09-25T13:52:40Z</time>
      </trkpt>
      <trkpt lat="41.811607" lon="2.379745">
        <ele>1628.573</ele>
        <time>2021-09-25T13:52:43Z</time>
      </trkpt>
      <trkpt lat="41.811560" lon="2.379776">
        <ele>1628.773</ele>
        <time>2021-09-25T13:52:47Z</time>
      </trkpt>
      <trkpt lat="41.811513" lon="2.379809">
        <ele>1628.923</ele>
        <time>2021-09-25T13:52:53Z</time>
      </trkpt>
      <trkpt lat="41.811466" lon="2.379829">
        <ele>1629.083</ele>
        <time>2021-09-25T13:52:58Z</time>
      </trkpt>
      <trkpt lat="41.811418" lon="2.379831">
        <ele>1629.111</ele>
        <time>2021-09-25T13:53:02Z</time>
      </trkpt>
      <trkpt lat="41.811372" lon="2.379843">
        <ele>1629.408</ele>
        <time>2021-09-25T13:53:09Z</time>
      </trkpt>
      <trkpt lat="41.811345" lon="2.379895">
        <ele>1629.790</ele>
        <time>2021-09-25T13:53:15Z</time>
      </trkpt>
      <trkpt lat="41.811299" lon="2.379910">
        <ele>1630.096</ele>
        <time>2021-09-25T13:53:22Z</time>
      </trkpt>
      <trkpt lat="41.811255" lon="2.379927">
        <ele>1630.379</ele>
        <time>2021-09-25T13:53:26Z</time>
      </trkpt>
      <trkpt lat="41.811204" lon="2.379952">
        <ele>1631.627</ele>
        <time>2021-09-25T13:53:33Z</time>
      </trkpt>
      <trkpt lat="41.811162" lon="2.379975">
        <ele>1632.440</ele>
        <time>2021-09-25T13:53:39Z</time>
      </trkpt>
      <trkpt lat="41.811126" lon="2.380016">
        <ele>1633.564</ele>
        <time>2021-09-25T13:53:46Z</time>
      </trkpt>
      <trkpt lat="41.811090" lon="2.380070">
        <ele>1633.849</ele>
        <time>2021-09-25T13:53:52Z</time>
      </trkpt>
      <trkpt lat="41.811043" lon="2.380095">
        <ele>1634.179</ele>
        <time>2021-09-25T13:53:58Z</time>
      </trkpt>
      <trkpt lat="41.810994" lon="2.380128">
        <ele>1634.488</ele>
        <time>2021-09-25T13:54:03Z</time>
      </trkpt>
      <trkpt lat="41.810949" lon="2.380156">
        <ele>1634.624</ele>
        <time>2021-09-25T13:54:07Z</time>
      </trkpt>
      <trkpt lat="41.810908" lon="2.380196">
        <ele>1634.926</ele>
        <time>2021-09-25T13:54:13Z</time>
      </trkpt>
      <trkpt lat="41.810868" lon="2.380232">
        <ele>1635.408</ele>
        <time>2021-09-25T13:54:19Z</time>
      </trkpt>
      <trkpt lat="41.810830" lon="2.380276">
        <ele>1635.556</ele>
        <time>2021-09-25T13:54:24Z</time>
      </trkpt>
      <trkpt lat="41.810791" lon="2.380325">
        <ele>1635.522</ele>
        <time>2021-09-25T13:54:28Z</time>
      </trkpt>
      <trkpt lat="41.810743" lon="2.380346">
        <ele>1635.875</ele>
        <time>2021-09-25T13:54:33Z</time>
      </trkpt>
      <trkpt lat="41.810694" lon="2.380344">
        <ele>1635.943</ele>
        <time>2021-09-25T13:54:38Z</time>
      </trkpt>
      <trkpt lat="41.810648" lon="2.380370">
        <ele>1636.386</ele>
        <time>2021-09-25T13:54:44Z</time>
      </trkpt>
      <trkpt lat="41.810606" lon="2.380407">
        <ele>1637.110</ele>
        <time>2021-09-25T13:54:51Z</time>
      </trkpt>
      <trkpt lat="41.810561" lon="2.380421">
        <ele>1637.665</ele>
        <time>2021-09-25T13:54:55Z</time>
      </trkpt>
      <trkpt lat="41.810515" lon="2.380458">
        <ele>1637.735</ele>
        <time>2021-09-25T13:54:59Z</time>
      </trkpt>
      <trkpt lat="41.810478" lon="2.380496">
        <ele>1638.185</ele>
        <time>2021-09-25T13:55:03Z</time>
      </trkpt>
      <trkpt lat="41.810445" lon="2.380539">
        <ele>1638.589</ele>
        <time>2021-09-25T13:55:07Z</time>
      </trkpt>
      <trkpt lat="41.810418" lon="2.380589">
        <ele>1639.617</ele>
        <time>2021-09-25T13:55:13Z</time>
      </trkpt>
      <trkpt lat="41.810382" lon="2.380632">
        <ele>1639.708</ele>
        <time>2021-09-25T13:55:17Z</time>
      </trkpt>
      <trkpt lat="41.810332" lon="2.380657">
        <ele>1639.916</ele>
        <time>2021-09-25T13:55:21Z</time>
      </trkpt>
      <trkpt lat="41.810282" lon="2.380657">
        <ele>1640.622</ele>
        <time>2021-09-25T13:55:25Z</time>
      </trkpt>
      <trkpt lat="41.810260" lon="2.380602">
        <ele>1640.745</ele>
        <time>2021-09-25T13:55:33Z</time>
      </trkpt>
      <trkpt lat="41.810210" lon="2.380628">
        <ele>1640.723</ele>
        <time>2021-09-25T13:55:38Z</time>
      </trkpt>
      <trkpt lat="41.810170" lon="2.380657">
        <ele>1640.636</ele>
        <time>2021-09-25T13:55:42Z</time>
      </trkpt>
      <trkpt lat="41.810124" lon="2.380682">
        <ele>1640.690</ele>
        <time>2021-09-25T13:55:47Z</time>
      </trkpt>
      <trkpt lat="41.810087" lon="2.380724">
        <ele>1640.535</ele>
        <time>2021-09-25T13:55:54Z</time>
      </trkpt>
      <trkpt lat="41.810044" lon="2.380760">
        <ele>1640.495</ele>
        <time>2021-09-25T13:55:59Z</time>
      </trkpt>
      <trkpt lat="41.810001" lon="2.380813">
        <ele>1640.246</ele>
        <time>2021-09-25T13:56:02Z</time>
      </trkpt>
      <trkpt lat="41.809961" lon="2.380851">
        <ele>1640.288</ele>
        <time>2021-09-25T13:56:07Z</time>
      </trkpt>
      <trkpt lat="41.809926" lon="2.380908">
        <ele>1640.216</ele>
        <time>2021-09-25T13:56:11Z</time>
      </trkpt>
      <trkpt lat="41.809879" lon="2.380936">
        <ele>1640.208</ele>
        <time>2021-09-25T13:56:16Z</time>
      </trkpt>
      <trkpt lat="41.809839" lon="2.380971">
        <ele>1639.912</ele>
        <time>2021-09-25T13:56:21Z</time>
      </trkpt>
      <trkpt lat="41.809793" lon="2.381011">
        <ele>1639.798</ele>
        <time>2021-09-25T13:56:25Z</time>
      </trkpt>
      <trkpt lat="41.809759" lon="2.381052">
        <ele>1639.531</ele>
        <time>2021-09-25T13:56:28Z</time>
      </trkpt>
      <trkpt lat="41.809719" lon="2.381102">
        <ele>1639.519</ele>
        <time>2021-09-25T13:56:33Z</time>
      </trkpt>
      <trkpt lat="41.809676" lon="2.381135">
        <ele>1639.582</ele>
        <time>2021-09-25T13:56:37Z</time>
      </trkpt>
      <trkpt lat="41.809631" lon="2.381159">
        <ele>1640.276</ele>
        <time>2021-09-25T13:56:42Z</time>
      </trkpt>
      <trkpt lat="41.809587" lon="2.381195">
        <ele>1641.041</ele>
        <time>2021-09-25T13:56:47Z</time>
      </trkpt>
      <trkpt lat="41.809531" lon="2.381216">
        <ele>1641.951</ele>
        <time>2021-09-25T13:56:53Z</time>
      </trkpt>
      <trkpt lat="41.809485" lon="2.381230">
        <ele>1642.528</ele>
        <time>2021-09-25T13:56:58Z</time>
      </trkpt>
      <trkpt lat="41.809461" lon="2.381283">
        <ele>1643.889</ele>
        <time>2021-09-25T13:57:06Z</time>
      </trkpt>
      <trkpt lat="41.809442" lon="2.381350">
        <ele>1644.317</ele>
        <time>2021-09-25T13:57:13Z</time>
      </trkpt>
      <trkpt lat="41.809387" lon="2.381361">
        <ele>1645.008</ele>
        <time>2021-09-25T13:57:18Z</time>
      </trkpt>
      <trkpt lat="41.809346" lon="2.381387">
        <ele>1645.420</ele>
        <time>2021-09-25T13:57:22Z</time>
      </trkpt>
      <trkpt lat="41.809309" lon="2.381431">
        <ele>1646.476</ele>
        <time>2021-09-25T13:57:29Z</time>
      </trkpt>
      <trkpt lat="41.809267" lon="2.381461">
        <ele>1647.089</ele>
        <time>2021-09-25T13:57:34Z</time>
      </trkpt>
      <trkpt lat="41.809236" lon="2.381516">
        <ele>1648.577</ele>
        <time>2021-09-25T13:57:44Z</time>
      </trkpt>
      <trkpt lat="41.809197" lon="2.381564">
        <ele>1649.090</ele>
        <time>2021-09-25T13:57:51Z</time>
      </trkpt>
      <trkpt lat="41.809163" lon="2.381614">
        <ele>1649.554</ele>
        <time>2021-09-25T13:57:58Z</time>
      </trkpt>
      <trkpt lat="41.809128" lon="2.381670">
        <ele>1650.249</ele>
        <time>2021-09-25T13:58:03Z</time>
      </trkpt>
      <trkpt lat="41.809103" lon="2.381729">
        <ele>1651.439</ele>
        <time>2021-09-25T13:58:07Z</time>
      </trkpt>
      <trkpt lat="41.809080" lon="2.381789">
        <ele>1652.028</ele>
        <time>2021-09-25T13:58:14Z</time>
      </trkpt>
      <trkpt lat="41.809046" lon="2.381836">
        <ele>1652.989</ele>
        <time>2021-09-25T13:58:20Z</time>
      </trkpt>
      <trkpt lat="41.809008" lon="2.381894">
        <ele>1654.317</ele>
        <time>2021-09-25T13:58:27Z</time>
      </trkpt>
      <trkpt lat="41.808986" lon="2.381949">
        <ele>1655.608</ele>
        <time>2021-09-25T13:58:36Z</time>
      </trkpt>
      <trkpt lat="41.808969" lon="2.382010">
        <ele>1656.270</ele>
        <time>2021-09-25T13:58:45Z</time>
      </trkpt>
      <trkpt lat="41.808942" lon="2.382068">
        <ele>1657.036</ele>
        <time>2021-09-25T13:58:54Z</time>
      </trkpt>
      <trkpt lat="41.808914" lon="2.382124">
        <ele>1658.459</ele>
        <time>2021-09-25T13:59:05Z</time>
      </trkpt>
      <trkpt lat="41.808881" lon="2.382184">
        <ele>1659.027</ele>
        <time>2021-09-25T13:59:11Z</time>
      </trkpt>
      <trkpt lat="41.808860" lon="2.382240">
        <ele>1659.880</ele>
        <time>2021-09-25T13:59:16Z</time>
      </trkpt>
      <trkpt lat="41.808840" lon="2.382304">
        <ele>1660.594</ele>
        <time>2021-09-25T13:59:21Z</time>
      </trkpt>
      <trkpt lat="41.808819" lon="2.382368">
        <ele>1661.229</ele>
        <time>2021-09-25T13:59:27Z</time>
      </trkpt>
      <trkpt lat="41.808811" lon="2.382429">
        <ele>1663.189</ele>
        <time>2021-09-25T13:59:44Z</time>
      </trkpt>
      <trkpt lat="41.808813" lon="2.382490">
        <ele>1663.877</ele>
        <time>2021-09-25T13:59:50Z</time>
      </trkpt>
      <trkpt lat="41.808787" lon="2.382548">
        <ele>1664.361</ele>
        <time>2021-09-25T13:59:57Z</time>
      </trkpt>
      <trkpt lat="41.808749" lon="2.382587">
        <ele>1667.427</ele>
        <time>2021-09-25T14:00:24Z</time>
      </trkpt>
      <trkpt lat="41.808713" lon="2.382635">
        <ele>1667.108</ele>
        <time>2021-09-25T14:01:25Z</time>
      </trkpt>
      <trkpt lat="41.808690" lon="2.382690">
        <ele>1667.175</ele>
        <time>2021-09-25T14:01:31Z</time>
      </trkpt>
      <trkpt lat="41.808661" lon="2.382752">
        <ele>1667.161</ele>
        <time>2021-09-25T14:01:37Z</time>
      </trkpt>
      <trkpt lat="41.808626" lon="2.382810">
        <ele>1666.914</ele>
        <time>2021-09-25T14:01:41Z</time>
      </trkpt>
      <trkpt lat="41.808600" lon="2.382861">
        <ele>1666.892</ele>
        <time>2021-09-25T14:01:44Z</time>
      </trkpt>
      <trkpt lat="41.808568" lon="2.382922">
        <ele>1666.445</ele>
        <time>2021-09-25T14:01:48Z</time>
      </trkpt>
      <trkpt lat="41.808531" lon="2.382966">
        <ele>1665.889</ele>
        <time>2021-09-25T14:01:52Z</time>
      </trkpt>
      <trkpt lat="41.808506" lon="2.383027">
        <ele>1665.574</ele>
        <time>2021-09-25T14:01:56Z</time>
      </trkpt>
      <trkpt lat="41.808471" lon="2.383075">
        <ele>1665.264</ele>
        <time>2021-09-25T14:02:00Z</time>
      </trkpt>
      <trkpt lat="41.808432" lon="2.383121">
        <ele>1665.052</ele>
        <time>2021-09-25T14:02:06Z</time>
      </trkpt>
      <trkpt lat="41.808425" lon="2.383184">
        <ele>1664.853</ele>
        <time>2021-09-25T14:02:12Z</time>
      </trkpt>
      <trkpt lat="41.808424" lon="2.383252">
        <ele>1664.708</ele>
        <time>2021-09-25T14:02:20Z</time>
      </trkpt>
      <trkpt lat="41.808414" lon="2.383312">
        <ele>1664.708</ele>
        <time>2021-09-25T14:02:24Z</time>
      </trkpt>
      <trkpt lat="41.808392" lon="2.383371">
        <ele>1664.693</ele>
        <time>2021-09-25T14:02:29Z</time>
      </trkpt>
      <trkpt lat="41.808361" lon="2.383425">
        <ele>1664.469</ele>
        <time>2021-09-25T14:02:33Z</time>
      </trkpt>
      <trkpt lat="41.808363" lon="2.383485">
        <ele>1663.682</ele>
        <time>2021-09-25T14:02:53Z</time>
      </trkpt>
      <trkpt lat="41.808414" lon="2.383496">
        <ele>1663.190</ele>
        <time>2021-09-25T14:03:12Z</time>
      </trkpt>
      <trkpt lat="41.808461" lon="2.383478">
        <ele>1662.743</ele>
        <time>2021-09-25T14:03:27Z</time>
      </trkpt>
      <trkpt lat="41.808485" lon="2.383427">
        <ele>1660.777</ele>
        <time>2021-09-25T14:23:19Z</time>
      </trkpt>
      <trkpt lat="41.808379" lon="2.383406">
        <ele>1663.362</ele>
        <time>2021-09-25T14:48:39Z</time>
      </trkpt>
      <trkpt lat="41.808386" lon="2.383346">
        <ele>1665.012</ele>
        <time>2021-09-25T14:48:43Z</time>
      </trkpt>
      <trkpt lat="41.808370" lon="2.383286">
        <ele>1665.562</ele>
        <time>2021-09-25T14:48:49Z</time>
      </trkpt>
      <trkpt lat="41.808348" lon="2.383230">
        <ele>1665.583</ele>
        <time>2021-09-25T14:48:54Z</time>
      </trkpt>
      <trkpt lat="41.808317" lon="2.383158">
        <ele>1665.611</ele>
        <time>2021-09-25T14:49:00Z</time>
      </trkpt>
      <trkpt lat="41.808307" lon="2.383086">
        <ele>1665.608</ele>
        <time>2021-09-25T14:49:06Z</time>
      </trkpt>
      <trkpt lat="41.808281" lon="2.383026">
        <ele>1665.814</ele>
        <time>2021-09-25T14:49:11Z</time>
      </trkpt>
      <trkpt lat="41.808248" lon="2.382976">
        <ele>1666.160</ele>
        <time>2021-09-25T14:49:18Z</time>
      </trkpt>
      <trkpt lat="41.808228" lon="2.382922">
        <ele>1666.763</ele>
        <time>2021-09-25T14:49:23Z</time>
      </trkpt>
      <trkpt lat="41.808226" lon="2.382851">
        <ele>1666.991</ele>
        <time>2021-09-25T14:49:31Z</time>
      </trkpt>
      <trkpt lat="41.808239" lon="2.382774">
        <ele>1667.094</ele>
        <time>2021-09-25T14:49:36Z</time>
      </trkpt>
      <trkpt lat="41.808242" lon="2.382705">
        <ele>1667.418</ele>
        <time>2021-09-25T14:49:39Z</time>
      </trkpt>
      <trkpt lat="41.808259" lon="2.382646">
        <ele>1668.043</ele>
        <time>2021-09-25T14:49:45Z</time>
      </trkpt>
      <trkpt lat="41.808292" lon="2.382601">
        <ele>1668.363</ele>
        <time>2021-09-25T14:49:52Z</time>
      </trkpt>
      <trkpt lat="41.808317" lon="2.382538">
        <ele>1668.623</ele>
        <time>2021-09-25T14:49:58Z</time>
      </trkpt>
      <trkpt lat="41.808364" lon="2.382548">
        <ele>1669.383</ele>
        <time>2021-09-25T14:50:12Z</time>
      </trkpt>
      <trkpt lat="41.808395" lon="2.382593">
        <ele>1669.911</ele>
        <time>2021-09-25T14:50:19Z</time>
      </trkpt>
      <trkpt lat="41.808421" lon="2.382650">
        <ele>1669.908</ele>
        <time>2021-09-25T14:50:34Z</time>
      </trkpt>
      <trkpt lat="41.808464" lon="2.382616">
        <ele>1670.150</ele>
        <time>2021-09-25T14:50:45Z</time>
      </trkpt>
      <trkpt lat="41.808509" lon="2.382596">
        <ele>1670.286</ele>
        <time>2021-09-25T14:50:49Z</time>
      </trkpt>
      <trkpt lat="41.808557" lon="2.382591">
        <ele>1670.369</ele>
        <time>2021-09-25T14:50:58Z</time>
      </trkpt>
      <trkpt lat="41.808619" lon="2.382613">
        <ele>1670.377</ele>
        <time>2021-09-25T14:51:17Z</time>
      </trkpt>
      <trkpt lat="41.808667" lon="2.382621">
        <ele>1670.530</ele>
        <time>2021-09-25T14:51:19Z</time>
      </trkpt>
      <trkpt lat="41.808695" lon="2.382571">
        <ele>1670.584</ele>
        <time>2021-09-25T14:51:23Z</time>
      </trkpt>
      <trkpt lat="41.808714" lon="2.382511">
        <ele>1670.359</ele>
        <time>2021-09-25T14:51:27Z</time>
      </trkpt>
      <trkpt lat="41.808724" lon="2.382435">
        <ele>1670.069</ele>
        <time>2021-09-25T14:51:31Z</time>
      </trkpt>
      <trkpt lat="41.808729" lon="2.382368">
        <ele>1670.116</ele>
        <time>2021-09-25T14:51:34Z</time>
      </trkpt>
      <trkpt lat="41.808740" lon="2.382309">
        <ele>1669.976</ele>
        <time>2021-09-25T14:51:37Z</time>
      </trkpt>
      <trkpt lat="41.808758" lon="2.382243">
        <ele>1668.513</ele>
        <time>2021-09-25T14:51:42Z</time>
      </trkpt>
      <trkpt lat="41.808776" lon="2.382182">
        <ele>1667.408</ele>
        <time>2021-09-25T14:51:47Z</time>
      </trkpt>
      <trkpt lat="41.808803" lon="2.382133">
        <ele>1666.199</ele>
        <time>2021-09-25T14:51:53Z</time>
      </trkpt>
      <trkpt lat="41.808811" lon="2.382067">
        <ele>1665.545</ele>
        <time>2021-09-25T14:51:57Z</time>
      </trkpt>
      <trkpt lat="41.808792" lon="2.382000">
        <ele>1664.788</ele>
        <time>2021-09-25T14:52:04Z</time>
      </trkpt>
      <trkpt lat="41.808764" lon="2.381943">
        <ele>1663.956</ele>
        <time>2021-09-25T14:52:09Z</time>
      </trkpt>
      <trkpt lat="41.808734" lon="2.381895">
        <ele>1663.659</ele>
        <time>2021-09-25T14:52:14Z</time>
      </trkpt>
      <trkpt lat="41.808710" lon="2.381837">
        <ele>1662.453</ele>
        <time>2021-09-25T14:52:19Z</time>
      </trkpt>
      <trkpt lat="41.808694" lon="2.381778">
        <ele>1661.768</ele>
        <time>2021-09-25T14:52:24Z</time>
      </trkpt>
      <trkpt lat="41.808681" lon="2.381714">
        <ele>1660.588</ele>
        <time>2021-09-25T14:52:30Z</time>
      </trkpt>
      <trkpt lat="41.808666" lon="2.381651">
        <ele>1658.799</ele>
        <time>2021-09-25T14:52:36Z</time>
      </trkpt>
      <trkpt lat="41.808659" lon="2.381579">
        <ele>1657.007</ele>
        <time>2021-09-25T14:52:44Z</time>
      </trkpt>
      <trkpt lat="41.808668" lon="2.381509">
        <ele>1655.927</ele>
        <time>2021-09-25T14:52:49Z</time>
      </trkpt>
      <trkpt lat="41.808655" lon="2.381439">
        <ele>1654.908</ele>
        <time>2021-09-25T14:52:54Z</time>
      </trkpt>
      <trkpt lat="41.808642" lon="2.381379">
        <ele>1653.487</ele>
        <time>2021-09-25T14:53:02Z</time>
      </trkpt>
      <trkpt lat="41.808614" lon="2.381330">
        <ele>1650.633</ele>
        <time>2021-09-25T14:53:10Z</time>
      </trkpt>
      <trkpt lat="41.808580" lon="2.381279">
        <ele>1649.096</ele>
        <time>2021-09-25T14:53:17Z</time>
      </trkpt>
      <trkpt lat="41.808579" lon="2.381214">
        <ele>1648.554</ele>
        <time>2021-09-25T14:53:22Z</time>
      </trkpt>
      <trkpt lat="41.808574" lon="2.381153">
        <ele>1648.427</ele>
        <time>2021-09-25T14:53:26Z</time>
      </trkpt>
      <trkpt lat="41.808564" lon="2.381093">
        <ele>1646.931</ele>
        <time>2021-09-25T14:53:30Z</time>
      </trkpt>
      <trkpt lat="41.808582" lon="2.381023">
        <ele>1645.796</ele>
        <time>2021-09-25T14:53:35Z</time>
      </trkpt>
      <trkpt lat="41.808587" lon="2.380955">
        <ele>1644.636</ele>
        <time>2021-09-25T14:53:40Z</time>
      </trkpt>
      <trkpt lat="41.808595" lon="2.380891">
        <ele>1643.752</ele>
        <time>2021-09-25T14:53:44Z</time>
      </trkpt>
      <trkpt lat="41.808592" lon="2.380825">
        <ele>1643.253</ele>
        <time>2021-09-25T14:53:50Z</time>
      </trkpt>
      <trkpt lat="41.808575" lon="2.380763">
        <ele>1641.408</ele>
        <time>2021-09-25T14:54:01Z</time>
      </trkpt>
      <trkpt lat="41.808542" lon="2.380715">
        <ele>1640.308</ele>
        <time>2021-09-25T14:54:09Z</time>
      </trkpt>
      <trkpt lat="41.808522" lon="2.380654">
        <ele>1639.153</ele>
        <time>2021-09-25T14:54:16Z</time>
      </trkpt>
      <trkpt lat="41.808515" lon="2.380587">
        <ele>1638.619</ele>
        <time>2021-09-25T14:54:22Z</time>
      </trkpt>
      <trkpt lat="41.808523" lon="2.380513">
        <ele>1638.172</ele>
        <time>2021-09-25T14:54:27Z</time>
      </trkpt>
      <trkpt lat="41.808545" lon="2.380454">
        <ele>1637.030</ele>
        <time>2021-09-25T14:54:32Z</time>
      </trkpt>
      <trkpt lat="41.808557" lon="2.380391">
        <ele>1635.553</ele>
        <time>2021-09-25T14:54:36Z</time>
      </trkpt>
      <trkpt lat="41.808549" lon="2.380329">
        <ele>1634.937</ele>
        <time>2021-09-25T14:54:42Z</time>
      </trkpt>
      <trkpt lat="41.808531" lon="2.380272">
        <ele>1633.822</ele>
        <time>2021-09-25T14:54:48Z</time>
      </trkpt>
      <trkpt lat="41.808491" lon="2.380241">
        <ele>1632.812</ele>
        <time>2021-09-25T14:54:56Z</time>
      </trkpt>
      <trkpt lat="41.808477" lon="2.380172">
        <ele>1631.833</ele>
        <time>2021-09-25T14:55:05Z</time>
      </trkpt>
      <trkpt lat="41.808447" lon="2.380117">
        <ele>1629.623</ele>
        <time>2021-09-25T14:55:11Z</time>
      </trkpt>
      <trkpt lat="41.808460" lon="2.380048">
        <ele>1628.415</ele>
        <time>2021-09-25T14:55:17Z</time>
      </trkpt>
      <trkpt lat="41.808467" lon="2.379982">
        <ele>1627.408</ele>
        <time>2021-09-25T14:55:23Z</time>
      </trkpt>
      <trkpt lat="41.808474" lon="2.379914">
        <ele>1626.371</ele>
        <time>2021-09-25T14:55:28Z</time>
      </trkpt>
      <trkpt lat="41.808459" lon="2.379852">
        <ele>1625.677</ele>
        <time>2021-09-25T14:55:32Z</time>
      </trkpt>
      <trkpt lat="41.808435" lon="2.379799">
        <ele>1625.070</ele>
        <time>2021-09-25T14:55:38Z</time>
      </trkpt>
      <trkpt lat="41.808450" lon="2.379730">
        <ele>1624.348</ele>
        <time>2021-09-25T14:55:45Z</time>
      </trkpt>
      <trkpt lat="41.808476" lon="2.379663">
        <ele>1622.991</ele>
        <time>2021-09-25T14:55:50Z</time>
      </trkpt>
      <trkpt lat="41.808506" lon="2.379599">
        <ele>1622.325</ele>
        <time>2021-09-25T14:55:54Z</time>
      </trkpt>
      <trkpt lat="41.808537" lon="2.379538">
        <ele>1622.110</ele>
        <time>2021-09-25T14:55:59Z</time>
      </trkpt>
      <trkpt lat="41.808577" lon="2.379479">
        <ele>1621.730</ele>
        <time>2021-09-25T14:56:03Z</time>
      </trkpt>
      <trkpt lat="41.808615" lon="2.379426">
        <ele>1620.996</ele>
        <time>2021-09-25T14:56:07Z</time>
      </trkpt>
      <trkpt lat="41.808651" lon="2.379379">
        <ele>1620.531</ele>
        <time>2021-09-25T14:56:10Z</time>
      </trkpt>
      <trkpt lat="41.808681" lon="2.379324">
        <ele>1620.024</ele>
        <time>2021-09-25T14:56:14Z</time>
      </trkpt>
      <trkpt lat="41.808705" lon="2.379262">
        <ele>1619.308</ele>
        <time>2021-09-25T14:56:19Z</time>
      </trkpt>
      <trkpt lat="41.808729" lon="2.379204">
        <ele>1618.847</ele>
        <time>2021-09-25T14:56:25Z</time>
      </trkpt>
      <trkpt lat="41.808761" lon="2.379146">
        <ele>1618.253</ele>
        <time>2021-09-25T14:56:30Z</time>
      </trkpt>
      <trkpt lat="41.808792" lon="2.379090">
        <ele>1617.486</ele>
        <time>2021-09-25T14:56:36Z</time>
      </trkpt>
      <trkpt lat="41.808815" lon="2.379024">
        <ele>1616.634</ele>
        <time>2021-09-25T14:56:41Z</time>
      </trkpt>
      <trkpt lat="41.808837" lon="2.378960">
        <ele>1616.277</ele>
        <time>2021-09-25T14:56:45Z</time>
      </trkpt>
      <trkpt lat="41.808854" lon="2.378901">
        <ele>1615.911</ele>
        <time>2021-09-25T14:56:49Z</time>
      </trkpt>
      <trkpt lat="41.808872" lon="2.378833">
        <ele>1615.316</ele>
        <time>2021-09-25T14:56:54Z</time>
      </trkpt>
      <trkpt lat="41.808891" lon="2.378771">
        <ele>1614.826</ele>
        <time>2021-09-25T14:56:59Z</time>
      </trkpt>
      <trkpt lat="41.808912" lon="2.378709">
        <ele>1614.254</ele>
        <time>2021-09-25T14:57:04Z</time>
      </trkpt>
      <trkpt lat="41.808920" lon="2.378648">
        <ele>1613.756</ele>
        <time>2021-09-25T14:57:10Z</time>
      </trkpt>
      <trkpt lat="41.808934" lon="2.378589">
        <ele>1613.611</ele>
        <time>2021-09-25T14:57:15Z</time>
      </trkpt>
      <trkpt lat="41.808952" lon="2.378530">
        <ele>1613.408</ele>
        <time>2021-09-25T14:57:19Z</time>
      </trkpt>
      <trkpt lat="41.808964" lon="2.378468">
        <ele>1613.293</ele>
        <time>2021-09-25T14:57:22Z</time>
      </trkpt>
      <trkpt lat="41.808980" lon="2.378395">
        <ele>1613.179</ele>
        <time>2021-09-25T14:57:26Z</time>
      </trkpt>
      <trkpt lat="41.808973" lon="2.378329">
        <ele>1612.732</ele>
        <time>2021-09-25T14:57:30Z</time>
      </trkpt>
      <trkpt lat="41.808965" lon="2.378266">
        <ele>1612.510</ele>
        <time>2021-09-25T14:57:35Z</time>
      </trkpt>
      <trkpt lat="41.808946" lon="2.378205">
        <ele>1612.573</ele>
        <time>2021-09-25T14:57:41Z</time>
      </trkpt>
      <trkpt lat="41.808923" lon="2.378147">
        <ele>1612.387</ele>
        <time>2021-09-25T14:57:46Z</time>
      </trkpt>
      <trkpt lat="41.808914" lon="2.378086">
        <ele>1612.292</ele>
        <time>2021-09-25T14:57:50Z</time>
      </trkpt>
      <trkpt lat="41.808909" lon="2.378020">
        <ele>1611.942</ele>
        <time>2021-09-25T14:57:55Z</time>
      </trkpt>
      <trkpt lat="41.808897" lon="2.377960">
        <ele>1611.158</ele>
        <time>2021-09-25T14:58:00Z</time>
      </trkpt>
      <trkpt lat="41.808889" lon="2.377886">
        <ele>1610.452</ele>
        <time>2021-09-25T14:58:04Z</time>
      </trkpt>
      <trkpt lat="41.808886" lon="2.377821">
        <ele>1609.417</ele>
        <time>2021-09-25T14:58:10Z</time>
      </trkpt>
      <trkpt lat="41.808895" lon="2.377758">
        <ele>1609.008</ele>
        <time>2021-09-25T14:58:14Z</time>
      </trkpt>
      <trkpt lat="41.808898" lon="2.377694">
        <ele>1608.453</ele>
        <time>2021-09-25T14:58:17Z</time>
      </trkpt>
      <trkpt lat="41.808909" lon="2.377631">
        <ele>1608.179</ele>
        <time>2021-09-25T14:58:21Z</time>
      </trkpt>
      <trkpt lat="41.808912" lon="2.377557">
        <ele>1607.992</ele>
        <time>2021-09-25T14:58:26Z</time>
      </trkpt>
      <trkpt lat="41.808909" lon="2.377489">
        <ele>1607.670</ele>
        <time>2021-09-25T14:58:31Z</time>
      </trkpt>
      <trkpt lat="41.808906" lon="2.377420">
        <ele>1607.163</ele>
        <time>2021-09-25T14:58:35Z</time>
      </trkpt>
      <trkpt lat="41.808902" lon="2.377347">
        <ele>1607.057</ele>
        <time>2021-09-25T14:58:39Z</time>
      </trkpt>
      <trkpt lat="41.808896" lon="2.377274">
        <ele>1606.952</ele>
        <time>2021-09-25T14:58:44Z</time>
      </trkpt>
      <trkpt lat="41.808875" lon="2.377218">
        <ele>1606.722</ele>
        <time>2021-09-25T14:58:49Z</time>
      </trkpt>
      <trkpt lat="41.808854" lon="2.377163">
        <ele>1606.697</ele>
        <time>2021-09-25T14:58:53Z</time>
      </trkpt>
      <trkpt lat="41.808835" lon="2.377106">
        <ele>1606.223</ele>
        <time>2021-09-25T14:58:58Z</time>
      </trkpt>
      <trkpt lat="41.808812" lon="2.377041">
        <ele>1605.625</ele>
        <time>2021-09-25T14:59:04Z</time>
      </trkpt>
      <trkpt lat="41.808798" lon="2.376982">
        <ele>1605.308</ele>
        <time>2021-09-25T14:59:09Z</time>
      </trkpt>
      <trkpt lat="41.808775" lon="2.376928">
        <ele>1605.217</ele>
        <time>2021-09-25T14:59:13Z</time>
      </trkpt>
      <trkpt lat="41.808729" lon="2.376860">
        <ele>1604.953</ele>
        <time>2021-09-25T14:59:20Z</time>
      </trkpt>
      <trkpt lat="41.808707" lon="2.376790">
        <ele>1603.746</ele>
        <time>2021-09-25T14:59:24Z</time>
      </trkpt>
      <trkpt lat="41.808691" lon="2.376733">
        <ele>1603.054</ele>
        <time>2021-09-25T14:59:27Z</time>
      </trkpt>
      <trkpt lat="41.808685" lon="2.376658">
        <ele>1602.537</ele>
        <time>2021-09-25T14:59:31Z</time>
      </trkpt>
      <trkpt lat="41.808682" lon="2.376580">
        <ele>1601.831</ele>
        <time>2021-09-25T14:59:36Z</time>
      </trkpt>
      <trkpt lat="41.808693" lon="2.376506">
        <ele>1601.256</ele>
        <time>2021-09-25T14:59:40Z</time>
      </trkpt>
      <trkpt lat="41.808697" lon="2.376431">
        <ele>1600.746</ele>
        <time>2021-09-25T14:59:45Z</time>
      </trkpt>
      <trkpt lat="41.808707" lon="2.376355">
        <ele>1600.329</ele>
        <time>2021-09-25T14:59:49Z</time>
      </trkpt>
      <trkpt lat="41.808712" lon="2.376287">
        <ele>1599.600</ele>
        <time>2021-09-25T14:59:53Z</time>
      </trkpt>
      <trkpt lat="41.808713" lon="2.376227">
        <ele>1598.820</ele>
        <time>2021-09-25T14:59:57Z</time>
      </trkpt>
      <trkpt lat="41.808717" lon="2.376154">
        <ele>1598.008</ele>
        <time>2021-09-25T15:00:01Z</time>
      </trkpt>
      <trkpt lat="41.808707" lon="2.376089">
        <ele>1597.630</ele>
        <time>2021-09-25T15:00:04Z</time>
      </trkpt>
      <trkpt lat="41.808695" lon="2.376023">
        <ele>1596.936</ele>
        <time>2021-09-25T15:00:08Z</time>
      </trkpt>
      <trkpt lat="41.808682" lon="2.375959">
        <ele>1596.539</ele>
        <time>2021-09-25T15:00:13Z</time>
      </trkpt>
      <trkpt lat="41.808672" lon="2.375899">
        <ele>1595.447</ele>
        <time>2021-09-25T15:00:18Z</time>
      </trkpt>
      <trkpt lat="41.808661" lon="2.375830">
        <ele>1594.960</ele>
        <time>2021-09-25T15:00:23Z</time>
      </trkpt>
      <trkpt lat="41.808646" lon="2.375771">
        <ele>1594.134</ele>
        <time>2021-09-25T15:00:28Z</time>
      </trkpt>
      <trkpt lat="41.808648" lon="2.375708">
        <ele>1594.069</ele>
        <time>2021-09-25T15:00:32Z</time>
      </trkpt>
      <trkpt lat="41.808675" lon="2.375645">
        <ele>1593.529</ele>
        <time>2021-09-25T15:00:37Z</time>
      </trkpt>
      <trkpt lat="41.808704" lon="2.375580">
        <ele>1592.988</ele>
        <time>2021-09-25T15:00:41Z</time>
      </trkpt>
      <trkpt lat="41.808733" lon="2.375523">
        <ele>1592.624</ele>
        <time>2021-09-25T15:00:45Z</time>
      </trkpt>
      <trkpt lat="41.808763" lon="2.375477">
        <ele>1592.026</ele>
        <time>2021-09-25T15:00:50Z</time>
      </trkpt>
      <trkpt lat="41.808800" lon="2.375441">
        <ele>1590.408</ele>
        <time>2021-09-25T15:01:03Z</time>
      </trkpt>
      <trkpt lat="41.808831" lon="2.375393">
        <ele>1590.046</ele>
        <time>2021-09-25T15:01:09Z</time>
      </trkpt>
      <trkpt lat="41.808860" lon="2.375340">
        <ele>1588.772</ele>
        <time>2021-09-25T15:01:15Z</time>
      </trkpt>
      <trkpt lat="41.808890" lon="2.375276">
        <ele>1588.445</ele>
        <time>2021-09-25T15:01:22Z</time>
      </trkpt>
      <trkpt lat="41.808922" lon="2.375217">
        <ele>1587.633</ele>
        <time>2021-09-25T15:01:26Z</time>
      </trkpt>
      <trkpt lat="41.808938" lon="2.375152">
        <ele>1586.086</ele>
        <time>2021-09-25T15:01:31Z</time>
      </trkpt>
      <trkpt lat="41.808971" lon="2.375093">
        <ele>1585.150</ele>
        <time>2021-09-25T15:01:37Z</time>
      </trkpt>
      <trkpt lat="41.808996" lon="2.375031">
        <ele>1584.135</ele>
        <time>2021-09-25T15:01:43Z</time>
      </trkpt>
      <trkpt lat="41.809002" lon="2.374965">
        <ele>1582.335</ele>
        <time>2021-09-25T15:01:54Z</time>
      </trkpt>
      <trkpt lat="41.808997" lon="2.374900">
        <ele>1581.168</ele>
        <time>2021-09-25T15:02:00Z</time>
      </trkpt>
      <trkpt lat="41.808978" lon="2.374842">
        <ele>1580.242</ele>
        <time>2021-09-25T15:02:07Z</time>
      </trkpt>
      <trkpt lat="41.808968" lon="2.374773">
        <ele>1579.526</ele>
        <time>2021-09-25T15:02:13Z</time>
      </trkpt>
      <trkpt lat="41.808994" lon="2.374722">
        <ele>1578.708</ele>
        <time>2021-09-25T15:02:18Z</time>
      </trkpt>
      <trkpt lat="41.809021" lon="2.374672">
        <ele>1577.464</ele>
        <time>2021-09-25T15:02:24Z</time>
      </trkpt>
      <trkpt lat="41.809018" lon="2.374606">
        <ele>1576.320</ele>
        <time>2021-09-25T15:02:33Z</time>
      </trkpt>
      <trkpt lat="41.809038" lon="2.374543">
        <ele>1575.233</ele>
        <time>2021-09-25T15:02:39Z</time>
      </trkpt>
      <trkpt lat="41.809042" lon="2.374480">
        <ele>1574.191</ele>
        <time>2021-09-25T15:02:45Z</time>
      </trkpt>
      <trkpt lat="41.809041" lon="2.374410">
        <ele>1572.714</ele>
        <time>2021-09-25T15:02:55Z</time>
      </trkpt>
      <trkpt lat="41.809042" lon="2.374347">
        <ele>1571.978</ele>
        <time>2021-09-25T15:03:01Z</time>
      </trkpt>
      <trkpt lat="41.809017" lon="2.374291">
        <ele>1570.823</ele>
        <time>2021-09-25T15:03:09Z</time>
      </trkpt>
      <trkpt lat="41.809037" lon="2.374232">
        <ele>1569.133</ele>
        <time>2021-09-25T15:03:18Z</time>
      </trkpt>
      <trkpt lat="41.809055" lon="2.374171">
        <ele>1567.236</ele>
        <time>2021-09-25T15:03:29Z</time>
      </trkpt>
      <trkpt lat="41.809066" lon="2.374110">
        <ele>1566.517</ele>
        <time>2021-09-25T15:03:33Z</time>
      </trkpt>
      <trkpt lat="41.809069" lon="2.374048">
        <ele>1565.518</ele>
        <time>2021-09-25T15:03:38Z</time>
      </trkpt>
      <trkpt lat="41.809091" lon="2.373986">
        <ele>1564.008</ele>
        <time>2021-09-25T15:03:45Z</time>
      </trkpt>
      <trkpt lat="41.809116" lon="2.373926">
        <ele>1562.231</ele>
        <time>2021-09-25T15:03:56Z</time>
      </trkpt>
      <trkpt lat="41.809157" lon="2.373874">
        <ele>1561.257</ele>
        <time>2021-09-25T15:04:03Z</time>
      </trkpt>
      <trkpt lat="41.809190" lon="2.373828">
        <ele>1560.180</ele>
        <time>2021-09-25T15:04:09Z</time>
      </trkpt>
      <trkpt lat="41.809228" lon="2.373776">
        <ele>1559.538</ele>
        <time>2021-09-25T15:04:15Z</time>
      </trkpt>
      <trkpt lat="41.809246" lon="2.373714">
        <ele>1558.131</ele>
        <time>2021-09-25T15:04:20Z</time>
      </trkpt>
      <trkpt lat="41.809258" lon="2.373652">
        <ele>1556.315</ele>
        <time>2021-09-25T15:04:28Z</time>
      </trkpt>
      <trkpt lat="41.809275" lon="2.373590">
        <ele>1555.430</ele>
        <time>2021-09-25T15:04:33Z</time>
      </trkpt>
      <trkpt lat="41.809304" lon="2.373536">
        <ele>1554.460</ele>
        <time>2021-09-25T15:04:39Z</time>
      </trkpt>
      <trkpt lat="41.809321" lon="2.373470">
        <ele>1553.467</ele>
        <time>2021-09-25T15:04:45Z</time>
      </trkpt>
      <trkpt lat="41.809345" lon="2.373408">
        <ele>1551.481</ele>
        <time>2021-09-25T15:04:57Z</time>
      </trkpt>
      <trkpt lat="41.809378" lon="2.373358">
        <ele>1550.019</ele>
        <time>2021-09-25T15:05:05Z</time>
      </trkpt>
      <trkpt lat="41.809415" lon="2.373308">
        <ele>1548.608</ele>
        <time>2021-09-25T15:05:11Z</time>
      </trkpt>
      <trkpt lat="41.809443" lon="2.373256">
        <ele>1547.854</ele>
        <time>2021-09-25T15:05:15Z</time>
      </trkpt>
      <trkpt lat="41.809469" lon="2.373202">
        <ele>1547.070</ele>
        <time>2021-09-25T15:05:21Z</time>
      </trkpt>
      <trkpt lat="41.809495" lon="2.373150">
        <ele>1545.913</ele>
        <time>2021-09-25T15:05:28Z</time>
      </trkpt>
      <trkpt lat="41.809527" lon="2.373107">
        <ele>1544.311</ele>
        <time>2021-09-25T15:05:33Z</time>
      </trkpt>
      <trkpt lat="41.809560" lon="2.373061">
        <ele>1542.894</ele>
        <time>2021-09-25T15:05:38Z</time>
      </trkpt>
      <trkpt lat="41.809592" lon="2.372999">
        <ele>1541.388</ele>
        <time>2021-09-25T15:05:44Z</time>
      </trkpt>
      <trkpt lat="41.809616" lon="2.372936">
        <ele>1540.583</ele>
        <time>2021-09-25T15:05:48Z</time>
      </trkpt>
      <trkpt lat="41.809625" lon="2.372867">
        <ele>1539.723</ele>
        <time>2021-09-25T15:05:52Z</time>
      </trkpt>
      <trkpt lat="41.809636" lon="2.372806">
        <ele>1539.224</ele>
        <time>2021-09-25T15:05:56Z</time>
      </trkpt>
      <trkpt lat="41.809658" lon="2.372747">
        <ele>1538.904</ele>
        <time>2021-09-25T15:06:00Z</time>
      </trkpt>
      <trkpt lat="41.809679" lon="2.372693">
        <ele>1538.514</ele>
        <time>2021-09-25T15:06:04Z</time>
      </trkpt>
      <trkpt lat="41.809709" lon="2.372636">
        <ele>1538.108</ele>
        <time>2021-09-25T15:06:08Z</time>
      </trkpt>
      <trkpt lat="41.809736" lon="2.372580">
        <ele>1537.740</ele>
        <time>2021-09-25T15:06:12Z</time>
      </trkpt>
      <trkpt lat="41.809751" lon="2.372522">
        <ele>1537.456</ele>
        <time>2021-09-25T15:06:16Z</time>
      </trkpt>
      <trkpt lat="41.809763" lon="2.372460">
        <ele>1535.849</ele>
        <time>2021-09-25T15:06:21Z</time>
      </trkpt>
      <trkpt lat="41.809783" lon="2.372395">
        <ele>1535.337</ele>
        <time>2021-09-25T15:06:27Z</time>
      </trkpt>
      <trkpt lat="41.809809" lon="2.372343">
        <ele>1535.110</ele>
        <time>2021-09-25T15:06:32Z</time>
      </trkpt>
      <trkpt lat="41.809843" lon="2.372283">
        <ele>1535.054</ele>
        <time>2021-09-25T15:06:37Z</time>
      </trkpt>
      <trkpt lat="41.809865" lon="2.372217">
        <ele>1534.819</ele>
        <time>2021-09-25T15:06:42Z</time>
      </trkpt>
      <trkpt lat="41.809888" lon="2.372163">
        <ele>1534.839</ele>
        <time>2021-09-25T15:06:47Z</time>
      </trkpt>
      <trkpt lat="41.809913" lon="2.372098">
        <ele>1534.717</ele>
        <time>2021-09-25T15:06:53Z</time>
      </trkpt>
      <trkpt lat="41.809937" lon="2.372043">
        <ele>1534.787</ele>
        <time>2021-09-25T15:06:57Z</time>
      </trkpt>
      <trkpt lat="41.809963" lon="2.371978">
        <ele>1534.715</ele>
        <time>2021-09-25T15:07:03Z</time>
      </trkpt>
      <trkpt lat="41.809991" lon="2.371911">
        <ele>1534.808</ele>
        <time>2021-09-25T15:07:08Z</time>
      </trkpt>
      <trkpt lat="41.810017" lon="2.371861">
        <ele>1534.929</ele>
        <time>2021-09-25T15:07:12Z</time>
      </trkpt>
      <trkpt lat="41.810053" lon="2.371817">
        <ele>1535.465</ele>
        <time>2021-09-25T15:07:18Z</time>
      </trkpt>
      <trkpt lat="41.810072" lon="2.371757">
        <ele>1535.718</ele>
        <time>2021-09-25T15:07:22Z</time>
      </trkpt>
      <trkpt lat="41.810095" lon="2.371704">
        <ele>1535.916</ele>
        <time>2021-09-25T15:07:29Z</time>
      </trkpt>
      <trkpt lat="41.810122" lon="2.371645">
        <ele>1536.269</ele>
        <time>2021-09-25T15:07:34Z</time>
      </trkpt>
      <trkpt lat="41.810147" lon="2.371581">
        <ele>1536.593</ele>
        <time>2021-09-25T15:07:40Z</time>
      </trkpt>
      <trkpt lat="41.810166" lon="2.371523">
        <ele>1537.048</ele>
        <time>2021-09-25T15:07:45Z</time>
      </trkpt>
      <trkpt lat="41.810200" lon="2.371470">
        <ele>1537.348</ele>
        <time>2021-09-25T15:07:51Z</time>
      </trkpt>
      <trkpt lat="41.810230" lon="2.371407">
        <ele>1537.662</ele>
        <time>2021-09-25T15:07:57Z</time>
      </trkpt>
      <trkpt lat="41.810261" lon="2.371361">
        <ele>1537.783</ele>
        <time>2021-09-25T15:08:02Z</time>
      </trkpt>
      <trkpt lat="41.810293" lon="2.371314">
        <ele>1538.011</ele>
        <time>2021-09-25T15:08:08Z</time>
      </trkpt>
      <trkpt lat="41.810318" lon="2.371261">
        <ele>1538.508</ele>
        <time>2021-09-25T15:08:17Z</time>
      </trkpt>
      <trkpt lat="41.810335" lon="2.371204">
        <ele>1539.124</ele>
        <time>2021-09-25T15:08:22Z</time>
      </trkpt>
      <trkpt lat="41.810367" lon="2.371160">
        <ele>1539.520</ele>
        <time>2021-09-25T15:08:27Z</time>
      </trkpt>
      <trkpt lat="41.810409" lon="2.371123">
        <ele>1539.993</ele>
        <time>2021-09-25T15:08:32Z</time>
      </trkpt>
      <trkpt lat="41.810449" lon="2.371090">
        <ele>1540.311</ele>
        <time>2021-09-25T15:08:36Z</time>
      </trkpt>
      <trkpt lat="41.810490" lon="2.371046">
        <ele>1540.554</ele>
        <time>2021-09-25T15:08:40Z</time>
      </trkpt>
      <trkpt lat="41.810518" lon="2.370997">
        <ele>1540.768</ele>
        <time>2021-09-25T15:08:44Z</time>
      </trkpt>
      <trkpt lat="41.810542" lon="2.370937">
        <ele>1541.123</ele>
        <time>2021-09-25T15:08:48Z</time>
      </trkpt>
      <trkpt lat="41.810554" lon="2.370876">
        <ele>1541.833</ele>
        <time>2021-09-25T15:08:52Z</time>
      </trkpt>
      <trkpt lat="41.810585" lon="2.370828">
        <ele>1541.939</ele>
        <time>2021-09-25T15:08:58Z</time>
      </trkpt>
      <trkpt lat="41.810621" lon="2.370779">
        <ele>1542.001</ele>
        <time>2021-09-25T15:09:02Z</time>
      </trkpt>
      <trkpt lat="41.810650" lon="2.370725">
        <ele>1542.121</ele>
        <time>2021-09-25T15:09:06Z</time>
      </trkpt>
      <trkpt lat="41.810670" lon="2.370656">
        <ele>1542.208</ele>
        <time>2021-09-25T15:09:11Z</time>
      </trkpt>
      <trkpt lat="41.810687" lon="2.370582">
        <ele>1542.271</ele>
        <time>2021-09-25T15:09:15Z</time>
      </trkpt>
      <trkpt lat="41.810710" lon="2.370529">
        <ele>1542.057</ele>
        <time>2021-09-25T15:09:20Z</time>
      </trkpt>
      <trkpt lat="41.810731" lon="2.370469">
        <ele>1541.960</ele>
        <time>2021-09-25T15:09:26Z</time>
      </trkpt>
      <trkpt lat="41.810748" lon="2.370412">
        <ele>1541.388</ele>
        <time>2021-09-25T15:09:31Z</time>
      </trkpt>
      <trkpt lat="41.810789" lon="2.370382">
        <ele>1540.751</ele>
        <time>2021-09-25T15:09:37Z</time>
      </trkpt>
      <trkpt lat="41.810838" lon="2.370346">
        <ele>1540.545</ele>
        <time>2021-09-25T15:09:42Z</time>
      </trkpt>
      <trkpt lat="41.810873" lon="2.370301">
        <ele>1540.410</ele>
        <time>2021-09-25T15:09:47Z</time>
      </trkpt>
      <trkpt lat="41.810904" lon="2.370248">
        <ele>1540.440</ele>
        <time>2021-09-25T15:09:52Z</time>
      </trkpt>
      <trkpt lat="41.810935" lon="2.370189">
        <ele>1540.572</ele>
        <time>2021-09-25T15:09:57Z</time>
      </trkpt>
      <trkpt lat="41.810964" lon="2.370138">
        <ele>1540.713</ele>
        <time>2021-09-25T15:10:02Z</time>
      </trkpt>
      <trkpt lat="41.810995" lon="2.370087">
        <ele>1540.914</ele>
        <time>2021-09-25T15:10:10Z</time>
      </trkpt>
      <trkpt lat="41.811031" lon="2.370048">
        <ele>1540.908</ele>
        <time>2021-09-25T15:10:14Z</time>
      </trkpt>
      <trkpt lat="41.811067" lon="2.369998">
        <ele>1541.035</ele>
        <time>2021-09-25T15:10:20Z</time>
      </trkpt>
      <trkpt lat="41.811091" lon="2.369936">
        <ele>1541.051</ele>
        <time>2021-09-25T15:10:25Z</time>
      </trkpt>
      <trkpt lat="41.811109" lon="2.369869">
        <ele>1540.984</ele>
        <time>2021-09-25T15:10:31Z</time>
      </trkpt>
      <trkpt lat="41.811127" lon="2.369811">
        <ele>1540.822</ele>
        <time>2021-09-25T15:10:36Z</time>
      </trkpt>
      <trkpt lat="41.811150" lon="2.369755">
        <ele>1540.235</ele>
        <time>2021-09-25T15:10:40Z</time>
      </trkpt>
      <trkpt lat="41.811168" lon="2.369694">
        <ele>1539.579</ele>
        <time>2021-09-25T15:10:46Z</time>
      </trkpt>
      <trkpt lat="41.811163" lon="2.369623">
        <ele>1538.974</ele>
        <time>2021-09-25T15:10:52Z</time>
      </trkpt>
      <trkpt lat="41.811157" lon="2.369551">
        <ele>1538.274</ele>
        <time>2021-09-25T15:10:57Z</time>
      </trkpt>
      <trkpt lat="41.811159" lon="2.369476">
        <ele>1537.134</ele>
        <time>2021-09-25T15:11:02Z</time>
      </trkpt>
      <trkpt lat="41.811150" lon="2.369414">
        <ele>1536.455</ele>
        <time>2021-09-25T15:11:06Z</time>
      </trkpt>
      <trkpt lat="41.811148" lon="2.369351">
        <ele>1535.610</ele>
        <time>2021-09-25T15:11:11Z</time>
      </trkpt>
      <trkpt lat="41.811152" lon="2.369288">
        <ele>1534.408</ele>
        <time>2021-09-25T15:11:17Z</time>
      </trkpt>
      <trkpt lat="41.811162" lon="2.369226">
        <ele>1533.671</ele>
        <time>2021-09-25T15:11:22Z</time>
      </trkpt>
      <trkpt lat="41.811184" lon="2.369158">
        <ele>1533.017</ele>
        <time>2021-09-25T15:11:27Z</time>
      </trkpt>
      <trkpt lat="41.811196" lon="2.369096">
        <ele>1531.940</ele>
        <time>2021-09-25T15:11:32Z</time>
      </trkpt>
      <trkpt lat="41.811203" lon="2.369025">
        <ele>1530.648</ele>
        <time>2021-09-25T15:11:42Z</time>
      </trkpt>
      <trkpt lat="41.811195" lon="2.368965">
        <ele>1529.171</ele>
        <time>2021-09-25T15:11:49Z</time>
      </trkpt>
      <trkpt lat="41.811196" lon="2.368887">
        <ele>1528.375</ele>
        <time>2021-09-25T15:11:56Z</time>
      </trkpt>
      <trkpt lat="41.811208" lon="2.368820">
        <ele>1527.030</ele>
        <time>2021-09-25T15:12:02Z</time>
      </trkpt>
      <trkpt lat="41.811201" lon="2.368752">
        <ele>1526.060</ele>
        <time>2021-09-25T15:12:08Z</time>
      </trkpt>
      <trkpt lat="41.811211" lon="2.368690">
        <ele>1523.434</ele>
        <time>2021-09-25T15:12:18Z</time>
      </trkpt>
      <trkpt lat="41.811199" lon="2.368628">
        <ele>1522.555</ele>
        <time>2021-09-25T15:12:23Z</time>
      </trkpt>
      <trkpt lat="41.811178" lon="2.368567">
        <ele>1521.610</ele>
        <time>2021-09-25T15:12:27Z</time>
      </trkpt>
      <trkpt lat="41.811166" lon="2.368505">
        <ele>1520.908</ele>
        <time>2021-09-25T15:12:31Z</time>
      </trkpt>
      <trkpt lat="41.811171" lon="2.368436">
        <ele>1519.621</ele>
        <time>2021-09-25T15:12:36Z</time>
      </trkpt>
      <trkpt lat="41.811183" lon="2.368378">
        <ele>1518.487</ele>
        <time>2021-09-25T15:12:41Z</time>
      </trkpt>
      <trkpt lat="41.811194" lon="2.368314">
        <ele>1517.360</ele>
        <time>2021-09-25T15:12:47Z</time>
      </trkpt>
      <trkpt lat="41.811204" lon="2.368246">
        <ele>1516.718</ele>
        <time>2021-09-25T15:12:53Z</time>
      </trkpt>
      <trkpt lat="41.811223" lon="2.368187">
        <ele>1516.631</ele>
        <time>2021-09-25T15:12:59Z</time>
      </trkpt>
      <trkpt lat="41.811242" lon="2.368131">
        <ele>1515.755</ele>
        <time>2021-09-25T15:13:05Z</time>
      </trkpt>
      <trkpt lat="41.811286" lon="2.368090">
        <ele>1515.020</ele>
        <time>2021-09-25T15:13:10Z</time>
      </trkpt>
      <trkpt lat="41.811317" lon="2.368036">
        <ele>1514.140</ele>
        <time>2021-09-25T15:13:14Z</time>
      </trkpt>
      <trkpt lat="41.811347" lon="2.367972">
        <ele>1513.292</ele>
        <time>2021-09-25T15:13:18Z</time>
      </trkpt>
      <trkpt lat="41.811376" lon="2.367912">
        <ele>1512.773</ele>
        <time>2021-09-25T15:13:23Z</time>
      </trkpt>
      <trkpt lat="41.811396" lon="2.367845">
        <ele>1511.820</ele>
        <time>2021-09-25T15:13:27Z</time>
      </trkpt>
      <trkpt lat="41.811406" lon="2.367784">
        <ele>1511.408</ele>
        <time>2021-09-25T15:13:31Z</time>
      </trkpt>
      <trkpt lat="41.811406" lon="2.367723">
        <ele>1511.167</ele>
        <time>2021-09-25T15:13:35Z</time>
      </trkpt>
      <trkpt lat="41.811402" lon="2.367657">
        <ele>1510.943</ele>
        <time>2021-09-25T15:13:40Z</time>
      </trkpt>
      <trkpt lat="41.811396" lon="2.367593">
        <ele>1510.246</ele>
        <time>2021-09-25T15:13:46Z</time>
      </trkpt>
      <trkpt lat="41.811391" lon="2.367532">
        <ele>1509.534</ele>
        <time>2021-09-25T15:13:50Z</time>
      </trkpt>
      <trkpt lat="41.811390" lon="2.367463">
        <ele>1509.397</ele>
        <time>2021-09-25T15:13:54Z</time>
      </trkpt>
      <trkpt lat="41.811391" lon="2.367390">
        <ele>1509.171</ele>
        <time>2021-09-25T15:13:59Z</time>
      </trkpt>
      <trkpt lat="41.811395" lon="2.367329">
        <ele>1508.776</ele>
        <time>2021-09-25T15:14:04Z</time>
      </trkpt>
      <trkpt lat="41.811395" lon="2.367260">
        <ele>1508.236</ele>
        <time>2021-09-25T15:14:10Z</time>
      </trkpt>
      <trkpt lat="41.811401" lon="2.367196">
        <ele>1508.095</ele>
        <time>2021-09-25T15:14:15Z</time>
      </trkpt>
      <trkpt lat="41.811394" lon="2.367127">
        <ele>1507.249</ele>
        <time>2021-09-25T15:14:21Z</time>
      </trkpt>
      <trkpt lat="41.811384" lon="2.367062">
        <ele>1506.823</ele>
        <time>2021-09-25T15:14:26Z</time>
      </trkpt>
      <trkpt lat="41.811373" lon="2.366989">
        <ele>1506.008</ele>
        <time>2021-09-25T15:14:34Z</time>
      </trkpt>
      <trkpt lat="41.811379" lon="2.366919">
        <ele>1505.227</ele>
        <time>2021-09-25T15:15:16Z</time>
      </trkpt>
      <trkpt lat="41.811372" lon="2.366840">
        <ele>1505.133</ele>
        <time>2021-09-25T15:15:21Z</time>
      </trkpt>
      <trkpt lat="41.811371" lon="2.366777">
        <ele>1505.086</ele>
        <time>2021-09-25T15:15:25Z</time>
      </trkpt>
      <trkpt lat="41.811366" lon="2.366711">
        <ele>1505.084</ele>
        <time>2021-09-25T15:15:31Z</time>
      </trkpt>
      <trkpt lat="41.811373" lon="2.366649">
        <ele>1505.037</ele>
        <time>2021-09-25T15:15:37Z</time>
      </trkpt>
      <trkpt lat="41.811382" lon="2.366589">
        <ele>1504.591</ele>
        <time>2021-09-25T15:15:40Z</time>
      </trkpt>
      <trkpt lat="41.811385" lon="2.366528">
        <ele>1503.466</ele>
        <time>2021-09-25T15:15:44Z</time>
      </trkpt>
      <trkpt lat="41.811383" lon="2.366461">
        <ele>1502.916</ele>
        <time>2021-09-25T15:15:48Z</time>
      </trkpt>
      <trkpt lat="41.811380" lon="2.366390">
        <ele>1502.488</ele>
        <time>2021-09-25T15:15:52Z</time>
      </trkpt>
      <trkpt lat="41.811378" lon="2.366326">
        <ele>1502.124</ele>
        <time>2021-09-25T15:15:56Z</time>
      </trkpt>
      <trkpt lat="41.811373" lon="2.366264">
        <ele>1501.426</ele>
        <time>2021-09-25T15:16:00Z</time>
      </trkpt>
      <trkpt lat="41.811363" lon="2.366191">
        <ele>1500.308</ele>
        <time>2021-09-25T15:16:05Z</time>
      </trkpt>
      <trkpt lat="41.811372" lon="2.366131">
        <ele>1499.456</ele>
        <time>2021-09-25T15:16:10Z</time>
      </trkpt>
      <trkpt lat="41.811398" lon="2.366073">
        <ele>1498.612</ele>
        <time>2021-09-25T15:16:14Z</time>
      </trkpt>
      <trkpt lat="41.811424" lon="2.366015">
        <ele>1498.145</ele>
        <time>2021-09-25T15:16:18Z</time>
      </trkpt>
      <trkpt lat="41.811438" lon="2.365957">
        <ele>1497.343</ele>
        <time>2021-09-25T15:16:23Z</time>
      </trkpt>
      <trkpt lat="41.811444" lon="2.365885">
        <ele>1496.366</ele>
        <time>2021-09-25T15:16:28Z</time>
      </trkpt>
      <trkpt lat="41.811468" lon="2.365826">
        <ele>1495.370</ele>
        <time>2021-09-25T15:16:33Z</time>
      </trkpt>
      <trkpt lat="41.811499" lon="2.365778">
        <ele>1494.575</ele>
        <time>2021-09-25T15:16:37Z</time>
      </trkpt>
      <trkpt lat="41.811514" lon="2.365713">
        <ele>1494.035</ele>
        <time>2021-09-25T15:16:42Z</time>
      </trkpt>
      <trkpt lat="41.811522" lon="2.365651">
        <ele>1493.156</ele>
        <time>2021-09-25T15:16:48Z</time>
      </trkpt>
      <trkpt lat="41.811532" lon="2.365592">
        <ele>1492.159</ele>
        <time>2021-09-25T15:16:53Z</time>
      </trkpt>
      <trkpt lat="41.811542" lon="2.365523">
        <ele>1491.514</ele>
        <time>2021-09-25T15:16:58Z</time>
      </trkpt>
      <trkpt lat="41.811551" lon="2.365455">
        <ele>1490.708</ele>
        <time>2021-09-25T15:17:03Z</time>
      </trkpt>
      <trkpt lat="41.811552" lon="2.365391">
        <ele>1489.143</ele>
        <time>2021-09-25T15:17:09Z</time>
      </trkpt>
      <trkpt lat="41.811560" lon="2.365331">
        <ele>1488.769</ele>
        <time>2021-09-25T15:17:14Z</time>
      </trkpt>
      <trkpt lat="41.811585" lon="2.365270">
        <ele>1486.852</ele>
        <time>2021-09-25T15:17:31Z</time>
      </trkpt>
      <trkpt lat="41.811584" lon="2.365206">
        <ele>1486.520</ele>
        <time>2021-09-25T15:17:36Z</time>
      </trkpt>
      <trkpt lat="41.811563" lon="2.365145">
        <ele>1486.423</ele>
        <time>2021-09-25T15:17:43Z</time>
      </trkpt>
      <trkpt lat="41.811561" lon="2.365072">
        <ele>1486.187</ele>
        <time>2021-09-25T15:17:51Z</time>
      </trkpt>
      <trkpt lat="41.811558" lon="2.365000">
        <ele>1484.872</ele>
        <time>2021-09-25T15:17:56Z</time>
      </trkpt>
      <trkpt lat="41.811563" lon="2.364933">
        <ele>1483.152</ele>
        <time>2021-09-25T15:18:01Z</time>
      </trkpt>
      <trkpt lat="41.811580" lon="2.364872">
        <ele>1482.468</ele>
        <time>2021-09-25T15:18:06Z</time>
      </trkpt>
      <trkpt lat="41.811580" lon="2.364797">
        <ele>1481.042</ele>
        <time>2021-09-25T15:18:12Z</time>
      </trkpt>
      <trkpt lat="41.811587" lon="2.364735">
        <ele>1479.926</ele>
        <time>2021-09-25T15:18:16Z</time>
      </trkpt>
      <trkpt lat="41.811575" lon="2.364664">
        <ele>1479.108</ele>
        <time>2021-09-25T15:18:21Z</time>
      </trkpt>
      <trkpt lat="41.811559" lon="2.364602">
        <ele>1478.334</ele>
        <time>2021-09-25T15:18:26Z</time>
      </trkpt>
      <trkpt lat="41.811551" lon="2.364528">
        <ele>1478.270</ele>
        <time>2021-09-25T15:18:30Z</time>
      </trkpt>
      <trkpt lat="41.811545" lon="2.364459">
        <ele>1477.023</ele>
        <time>2021-09-25T15:18:34Z</time>
      </trkpt>
      <trkpt lat="41.811532" lon="2.364401">
        <ele>1476.561</ele>
        <time>2021-09-25T15:18:38Z</time>
      </trkpt>
      <trkpt lat="41.811524" lon="2.364334">
        <ele>1475.324</ele>
        <time>2021-09-25T15:18:44Z</time>
      </trkpt>
      <trkpt lat="41.811531" lon="2.364266">
        <ele>1474.568</ele>
        <time>2021-09-25T15:18:49Z</time>
      </trkpt>
      <trkpt lat="41.811537" lon="2.364193">
        <ele>1474.023</ele>
        <time>2021-09-25T15:18:54Z</time>
      </trkpt>
      <trkpt lat="41.811541" lon="2.364128">
        <ele>1473.743</ele>
        <time>2021-09-25T15:18:59Z</time>
      </trkpt>
      <trkpt lat="41.811552" lon="2.364063">
        <ele>1473.159</ele>
        <time>2021-09-25T15:19:05Z</time>
      </trkpt>
      <trkpt lat="41.811572" lon="2.363996">
        <ele>1472.903</ele>
        <time>2021-09-25T15:19:11Z</time>
      </trkpt>
      <trkpt lat="41.811596" lon="2.363936">
        <ele>1472.323</ele>
        <time>2021-09-25T15:19:16Z</time>
      </trkpt>
      <trkpt lat="41.811632" lon="2.363896">
        <ele>1471.408</ele>
        <time>2021-09-25T15:19:22Z</time>
      </trkpt>
      <trkpt lat="41.811670" lon="2.363843">
        <ele>1471.073</ele>
        <time>2021-09-25T15:19:28Z</time>
      </trkpt>
      <trkpt lat="41.811701" lon="2.363798">
        <ele>1470.579</ele>
        <time>2021-09-25T15:19:32Z</time>
      </trkpt>
      <trkpt lat="41.811732" lon="2.363747">
        <ele>1469.682</ele>
        <time>2021-09-25T15:19:37Z</time>
      </trkpt>
      <trkpt lat="41.811759" lon="2.363691">
        <ele>1468.920</ele>
        <time>2021-09-25T15:19:43Z</time>
      </trkpt>
      <trkpt lat="41.811784" lon="2.363634">
        <ele>1468.193</ele>
        <time>2021-09-25T15:19:48Z</time>
      </trkpt>
      <trkpt lat="41.811800" lon="2.363574">
        <ele>1467.797</ele>
        <time>2021-09-25T15:19:53Z</time>
      </trkpt>
      <trkpt lat="41.811807" lon="2.363513">
        <ele>1467.392</ele>
        <time>2021-09-25T15:19:58Z</time>
      </trkpt>
      <trkpt lat="41.811840" lon="2.363466">
        <ele>1466.642</ele>
        <time>2021-09-25T15:20:03Z</time>
      </trkpt>
      <trkpt lat="41.811863" lon="2.363542">
        <ele>1465.868</ele>
        <time>2021-09-25T15:20:13Z</time>
      </trkpt>
      <trkpt lat="41.811907" lon="2.363489">
        <ele>1465.042</ele>
        <time>2021-09-25T15:20:41Z</time>
      </trkpt>
      <trkpt lat="41.811927" lon="2.363431">
        <ele>1465.026</ele>
        <time>2021-09-25T15:20:44Z</time>
      </trkpt>
      <trkpt lat="41.811938" lon="2.363363">
        <ele>1465.008</ele>
        <time>2021-09-25T15:20:49Z</time>
      </trkpt>
      <trkpt lat="41.811951" lon="2.363292">
        <ele>1464.824</ele>
        <time>2021-09-25T15:20:53Z</time>
      </trkpt>
      <trkpt lat="41.811973" lon="2.363226">
        <ele>1465.230</ele>
        <time>2021-09-25T15:20:57Z</time>
      </trkpt>
      <trkpt lat="41.811997" lon="2.363166">
        <ele>1464.613</ele>
        <time>2021-09-25T15:21:02Z</time>
      </trkpt>
      <trkpt lat="41.812026" lon="2.363097">
        <ele>1464.321</ele>
        <time>2021-09-25T15:21:06Z</time>
      </trkpt>
      <trkpt lat="41.812051" lon="2.363038">
        <ele>1463.914</ele>
        <time>2021-09-25T15:21:10Z</time>
      </trkpt>
      <trkpt lat="41.812074" lon="2.362981">
        <ele>1463.688</ele>
        <time>2021-09-25T15:21:15Z</time>
      </trkpt>
      <trkpt lat="41.812087" lon="2.362923">
        <ele>1462.923</ele>
        <time>2021-09-25T15:21:20Z</time>
      </trkpt>
      <trkpt lat="41.812113" lon="2.362861">
        <ele>1462.263</ele>
        <time>2021-09-25T15:21:25Z</time>
      </trkpt>
      <trkpt lat="41.812135" lon="2.362799">
        <ele>1461.562</ele>
        <time>2021-09-25T15:21:31Z</time>
      </trkpt>
      <trkpt lat="41.812141" lon="2.362738">
        <ele>1461.183</ele>
        <time>2021-09-25T15:21:36Z</time>
      </trkpt>
      <trkpt lat="41.812165" lon="2.362679">
        <ele>1460.211</ele>
        <time>2021-09-25T15:21:43Z</time>
      </trkpt>
      <trkpt lat="41.812202" lon="2.362637">
        <ele>1459.508</ele>
        <time>2021-09-25T15:21:48Z</time>
      </trkpt>
      <trkpt lat="41.812250" lon="2.362588">
        <ele>1458.194</ele>
        <time>2021-09-25T15:21:53Z</time>
      </trkpt>
      <trkpt lat="41.812280" lon="2.362542">
        <ele>1457.820</ele>
        <time>2021-09-25T15:21:57Z</time>
      </trkpt>
      <trkpt lat="41.812319" lon="2.362491">
        <ele>1456.963</ele>
        <time>2021-09-25T15:22:02Z</time>
      </trkpt>
      <trkpt lat="41.812356" lon="2.362455">
        <ele>1456.251</ele>
        <time>2021-09-25T15:22:08Z</time>
      </trkpt>
      <trkpt lat="41.812399" lon="2.362423">
        <ele>1455.994</ele>
        <time>2021-09-25T15:22:13Z</time>
      </trkpt>
      <trkpt lat="41.812445" lon="2.362404">
        <ele>1455.768</ele>
        <time>2021-09-25T15:22:18Z</time>
      </trkpt>
      <trkpt lat="41.812489" lon="2.362391">
        <ele>1455.593</ele>
        <time>2021-09-25T15:22:22Z</time>
      </trkpt>
      <trkpt lat="41.812533" lon="2.362376">
        <ele>1455.293</ele>
        <time>2021-09-25T15:22:26Z</time>
      </trkpt>
      <trkpt lat="41.812578" lon="2.362354">
        <ele>1454.954</ele>
        <time>2021-09-25T15:22:31Z</time>
      </trkpt>
      <trkpt lat="41.812630" lon="2.362326">
        <ele>1454.256</ele>
        <time>2021-09-25T15:22:36Z</time>
      </trkpt>
      <trkpt lat="41.812673" lon="2.362290">
        <ele>1453.911</ele>
        <time>2021-09-25T15:22:44Z</time>
      </trkpt>
      <trkpt lat="41.812703" lon="2.362230">
        <ele>1453.308</ele>
        <time>2021-09-25T15:22:54Z</time>
      </trkpt>
      <trkpt lat="41.812736" lon="2.362170">
        <ele>1452.773</ele>
        <time>2021-09-25T15:22:58Z</time>
      </trkpt>
      <trkpt lat="41.812767" lon="2.362115">
        <ele>1451.539</ele>
        <time>2021-09-25T15:23:03Z</time>
      </trkpt>
      <trkpt lat="41.812804" lon="2.362060">
        <ele>1450.372</ele>
        <time>2021-09-25T15:23:09Z</time>
      </trkpt>
      <trkpt lat="41.812842" lon="2.362022">
        <ele>1449.620</ele>
        <time>2021-09-25T15:23:17Z</time>
      </trkpt>
      <trkpt lat="41.812882" lon="2.361990">
        <ele>1447.423</ele>
        <time>2021-09-25T15:23:24Z</time>
      </trkpt>
      <trkpt lat="41.812927" lon="2.361970">
        <ele>1446.837</ele>
        <time>2021-09-25T15:23:29Z</time>
      </trkpt>
      <trkpt lat="41.812970" lon="2.361926">
        <ele>1446.212</ele>
        <time>2021-09-25T15:23:35Z</time>
      </trkpt>
      <trkpt lat="41.813018" lon="2.361888">
        <ele>1444.862</ele>
        <time>2021-09-25T15:23:43Z</time>
      </trkpt>
      <trkpt lat="41.813061" lon="2.361859">
        <ele>1444.017</ele>
        <time>2021-09-25T15:23:48Z</time>
      </trkpt>
      <trkpt lat="41.813110" lon="2.361853">
        <ele>1443.487</ele>
        <time>2021-09-25T15:23:52Z</time>
      </trkpt>
      <trkpt lat="41.813159" lon="2.361836">
        <ele>1442.515</ele>
        <time>2021-09-25T15:23:57Z</time>
      </trkpt>
      <trkpt lat="41.813202" lon="2.361818">
        <ele>1441.808</ele>
        <time>2021-09-25T15:24:03Z</time>
      </trkpt>
      <trkpt lat="41.813248" lon="2.361837">
        <ele>1440.649</ele>
        <time>2021-09-25T15:24:11Z</time>
      </trkpt>
      <trkpt lat="41.813295" lon="2.361855">
        <ele>1438.755</ele>
        <time>2021-09-25T15:24:24Z</time>
      </trkpt>
      <trkpt lat="41.813338" lon="2.361832">
        <ele>1438.368</ele>
        <time>2021-09-25T15:24:27Z</time>
      </trkpt>
      <trkpt lat="41.813381" lon="2.361810">
        <ele>1437.276</ele>
        <time>2021-09-25T15:24:31Z</time>
      </trkpt>
      <trkpt lat="41.813428" lon="2.361816">
        <ele>1436.749</ele>
        <time>2021-09-25T15:24:37Z</time>
      </trkpt>
      <trkpt lat="41.813478" lon="2.361814">
        <ele>1435.153</ele>
        <time>2021-09-25T15:24:42Z</time>
      </trkpt>
      <trkpt lat="41.813528" lon="2.361796">
        <ele>1433.528</ele>
        <time>2021-09-25T15:24:47Z</time>
      </trkpt>
      <trkpt lat="41.813578" lon="2.361767">
        <ele>1432.138</ele>
        <time>2021-09-25T15:24:53Z</time>
      </trkpt>
      <trkpt lat="41.813615" lon="2.361726">
        <ele>1431.444</ele>
        <time>2021-09-25T15:24:58Z</time>
      </trkpt>
      <trkpt lat="41.813660" lon="2.361724">
        <ele>1429.805</ele>
        <time>2021-09-25T15:25:05Z</time>
      </trkpt>
      <trkpt lat="41.813711" lon="2.361723">
        <ele>1428.915</ele>
        <time>2021-09-25T15:25:10Z</time>
      </trkpt>
      <trkpt lat="41.813757" lon="2.361711">
        <ele>1428.408</ele>
        <time>2021-09-25T15:25:15Z</time>
      </trkpt>
      <trkpt lat="41.813812" lon="2.361692">
        <ele>1428.142</ele>
        <time>2021-09-25T15:25:19Z</time>
      </trkpt>
      <trkpt lat="41.813861" lon="2.361665">
        <ele>1427.878</ele>
        <time>2021-09-25T15:25:23Z</time>
      </trkpt>
      <trkpt lat="41.813905" lon="2.361625">
        <ele>1427.271</ele>
        <time>2021-09-25T15:25:29Z</time>
      </trkpt>
      <trkpt lat="41.813940" lon="2.361579">
        <ele>1427.079</ele>
        <time>2021-09-25T15:25:33Z</time>
      </trkpt>
      <trkpt lat="41.813969" lon="2.361532">
        <ele>1426.742</ele>
        <time>2021-09-25T15:25:38Z</time>
      </trkpt>
      <trkpt lat="41.814007" lon="2.361497">
        <ele>1425.926</ele>
        <time>2021-09-25T15:25:44Z</time>
      </trkpt>
      <trkpt lat="41.814040" lon="2.361452">
        <ele>1425.121</ele>
        <time>2021-09-25T15:25:48Z</time>
      </trkpt>
      <trkpt lat="41.814085" lon="2.361416">
        <ele>1424.881</ele>
        <time>2021-09-25T15:25:53Z</time>
      </trkpt>
      <trkpt lat="41.814128" lon="2.361377">
        <ele>1424.027</ele>
        <time>2021-09-25T15:25:58Z</time>
      </trkpt>
      <trkpt lat="41.814177" lon="2.361353">
        <ele>1423.468</ele>
        <time>2021-09-25T15:26:03Z</time>
      </trkpt>
      <trkpt lat="41.814227" lon="2.361326">
        <ele>1422.614</ele>
        <time>2021-09-25T15:26:07Z</time>
      </trkpt>
      <trkpt lat="41.814264" lon="2.361290">
        <ele>1422.108</ele>
        <time>2021-09-25T15:26:11Z</time>
      </trkpt>
      <trkpt lat="41.814303" lon="2.361255">
        <ele>1420.870</ele>
        <time>2021-09-25T15:26:20Z</time>
      </trkpt>
      <trkpt lat="41.814328" lon="2.361201">
        <ele>1420.246</ele>
        <time>2021-09-25T15:26:25Z</time>
      </trkpt>
      <trkpt lat="41.814357" lon="2.361154">
        <ele>1419.789</ele>
        <time>2021-09-25T15:26:30Z</time>
      </trkpt>
      <trkpt lat="41.814412" lon="2.361116">
        <ele>1419.167</ele>
        <time>2021-09-25T15:26:38Z</time>
      </trkpt>
      <trkpt lat="41.814454" lon="2.361092">
        <ele>1418.940</ele>
        <time>2021-09-25T15:26:41Z</time>
      </trkpt>
      <trkpt lat="41.814492" lon="2.361060">
        <ele>1418.314</ele>
        <time>2021-09-25T15:26:48Z</time>
      </trkpt>
      <trkpt lat="41.814532" lon="2.361031">
        <ele>1417.859</ele>
        <time>2021-09-25T15:26:53Z</time>
      </trkpt>
      <trkpt lat="41.814576" lon="2.360999">
        <ele>1417.269</ele>
        <time>2021-09-25T15:26:57Z</time>
      </trkpt>
      <trkpt lat="41.814621" lon="2.360968">
        <ele>1416.456</ele>
        <time>2021-09-25T15:27:09Z</time>
      </trkpt>
      <trkpt lat="41.814663" lon="2.360943">
        <ele>1416.059</ele>
        <time>2021-09-25T15:27:13Z</time>
      </trkpt>
      <trkpt lat="41.814709" lon="2.360907">
        <ele>1415.814</ele>
        <time>2021-09-25T15:27:16Z</time>
      </trkpt>
      <trkpt lat="41.814756" lon="2.360879">
        <ele>1415.508</ele>
        <time>2021-09-25T15:27:21Z</time>
      </trkpt>
      <trkpt lat="41.814801" lon="2.360860">
        <ele>1415.183</ele>
        <time>2021-09-25T15:27:25Z</time>
      </trkpt>
      <trkpt lat="41.814841" lon="2.360827">
        <ele>1414.699</ele>
        <time>2021-09-25T15:27:30Z</time>
      </trkpt>
      <trkpt lat="41.814885" lon="2.360807">
        <ele>1413.762</ele>
        <time>2021-09-25T15:27:40Z</time>
      </trkpt>
      <trkpt lat="41.814936" lon="2.360786">
        <ele>1413.360</ele>
        <time>2021-09-25T15:27:44Z</time>
      </trkpt>
      <trkpt lat="41.814987" lon="2.360775">
        <ele>1411.753</ele>
        <time>2021-09-25T15:27:53Z</time>
      </trkpt>
      <trkpt lat="41.815030" lon="2.360746">
        <ele>1411.147</ele>
        <time>2021-09-25T15:27:58Z</time>
      </trkpt>
      <trkpt lat="41.815086" lon="2.360722">
        <ele>1410.512</ele>
        <time>2021-09-25T15:28:02Z</time>
      </trkpt>
      <trkpt lat="41.815135" lon="2.360695">
        <ele>1409.342</ele>
        <time>2021-09-25T15:28:07Z</time>
      </trkpt>
      <trkpt lat="41.815183" lon="2.360681">
        <ele>1409.099</ele>
        <time>2021-09-25T15:28:13Z</time>
      </trkpt>
      <trkpt lat="41.815217" lon="2.360638">
        <ele>1407.307</ele>
        <time>2021-09-25T15:29:16Z</time>
      </trkpt>
      <trkpt lat="41.815233" lon="2.360566">
        <ele>1407.227</ele>
        <time>2021-09-25T15:29:22Z</time>
      </trkpt>
      <trkpt lat="41.815273" lon="2.360525">
        <ele>1407.108</ele>
        <time>2021-09-25T15:29:28Z</time>
      </trkpt>
      <trkpt lat="41.815310" lon="2.360482">
        <ele>1407.057</ele>
        <time>2021-09-25T15:29:33Z</time>
      </trkpt>
      <trkpt lat="41.815352" lon="2.360449">
        <ele>1406.923</ele>
        <time>2021-09-25T15:29:40Z</time>
      </trkpt>
      <trkpt lat="41.815393" lon="2.360411">
        <ele>1404.426</ele>
        <time>2021-09-25T15:29:46Z</time>
      </trkpt>
      <trkpt lat="41.815421" lon="2.360359">
        <ele>1403.574</ele>
        <time>2021-09-25T15:29:51Z</time>
      </trkpt>
      <trkpt lat="41.815443" lon="2.360303">
        <ele>1403.227</ele>
        <time>2021-09-25T15:29:57Z</time>
      </trkpt>
      <trkpt lat="41.815473" lon="2.360253">
        <ele>1402.871</ele>
        <time>2021-09-25T15:30:04Z</time>
      </trkpt>
      <trkpt lat="41.815509" lon="2.360216">
        <ele>1402.416</ele>
        <time>2021-09-25T15:30:10Z</time>
      </trkpt>
      <trkpt lat="41.815541" lon="2.360170">
        <ele>1401.446</ele>
        <time>2021-09-25T15:30:14Z</time>
      </trkpt>
      <trkpt lat="41.815573" lon="2.360125">
        <ele>1400.254</ele>
        <time>2021-09-25T15:30:20Z</time>
      </trkpt>
      <trkpt lat="41.815603" lon="2.360070">
        <ele>1399.556</ele>
        <time>2021-09-25T15:30:25Z</time>
      </trkpt>
      <trkpt lat="41.815636" lon="2.360023">
        <ele>1398.411</ele>
        <time>2021-09-25T15:30:31Z</time>
      </trkpt>
      <trkpt lat="41.815689" lon="2.360013">
        <ele>1397.208</ele>
        <time>2021-09-25T15:30:38Z</time>
      </trkpt>
      <trkpt lat="41.815733" lon="2.360001">
        <ele>1395.743</ele>
        <time>2021-09-25T15:30:44Z</time>
      </trkpt>
      <trkpt lat="41.815783" lon="2.359994">
        <ele>1394.779</ele>
        <time>2021-09-25T15:30:49Z</time>
      </trkpt>
      <trkpt lat="41.815826" lon="2.359973">
        <ele>1394.172</ele>
        <time>2021-09-25T15:30:55Z</time>
      </trkpt>
      <trkpt lat="41.815872" lon="2.359953">
        <ele>1393.490</ele>
        <time>2021-09-25T15:31:01Z</time>
      </trkpt>
      <trkpt lat="41.815919" lon="2.359937">
        <ele>1391.963</ele>
        <time>2021-09-25T15:31:08Z</time>
      </trkpt>
      <trkpt lat="41.815971" lon="2.359926">
        <ele>1390.987</ele>
        <time>2021-09-25T15:31:17Z</time>
      </trkpt>
      <trkpt lat="41.816013" lon="2.359901">
        <ele>1390.392</ele>
        <time>2021-09-25T15:31:21Z</time>
      </trkpt>
      <trkpt lat="41.816063" lon="2.359877">
        <ele>1389.492</ele>
        <time>2021-09-25T15:31:31Z</time>
      </trkpt>
      <trkpt lat="41.816116" lon="2.359860">
        <ele>1388.892</ele>
        <time>2021-09-25T15:31:36Z</time>
      </trkpt>
      <trkpt lat="41.816152" lon="2.359907">
        <ele>1387.373</ele>
        <time>2021-09-25T15:31:44Z</time>
      </trkpt>
      <trkpt lat="41.816192" lon="2.359870">
        <ele>1386.520</ele>
        <time>2021-09-25T15:31:52Z</time>
      </trkpt>
      <trkpt lat="41.816244" lon="2.359832">
        <ele>1385.508</ele>
        <time>2021-09-25T15:31:59Z</time>
      </trkpt>
      <trkpt lat="41.816292" lon="2.359806">
        <ele>1384.927</ele>
        <time>2021-09-25T15:32:03Z</time>
      </trkpt>
      <trkpt lat="41.816344" lon="2.359796">
        <ele>1383.943</ele>
        <time>2021-09-25T15:32:10Z</time>
      </trkpt>
      <trkpt lat="41.816392" lon="2.359811">
        <ele>1383.476</ele>
        <time>2021-09-25T15:32:15Z</time>
      </trkpt>
      <trkpt lat="41.816437" lon="2.359795">
        <ele>1382.194</ele>
        <time>2021-09-25T15:32:23Z</time>
      </trkpt>
      <trkpt lat="41.816484" lon="2.359796">
        <ele>1380.997</ele>
        <time>2021-09-25T15:32:30Z</time>
      </trkpt>
      <trkpt lat="41.816535" lon="2.359764">
        <ele>1380.621</ele>
        <time>2021-09-25T15:32:34Z</time>
      </trkpt>
      <trkpt lat="41.816590" lon="2.359747">
        <ele>1380.236</ele>
        <time>2021-09-25T15:32:38Z</time>
      </trkpt>
      <trkpt lat="41.816638" lon="2.359714">
        <ele>1379.996</ele>
        <time>2021-09-25T15:32:41Z</time>
      </trkpt>
      <trkpt lat="41.816696" lon="2.359679">
        <ele>1379.374</ele>
        <time>2021-09-25T15:32:44Z</time>
      </trkpt>
      <trkpt lat="41.816750" lon="2.359655">
        <ele>1378.256</ele>
        <time>2021-09-25T15:32:49Z</time>
      </trkpt>
      <trkpt lat="41.816796" lon="2.359641">
        <ele>1378.121</ele>
        <time>2021-09-25T15:32:53Z</time>
      </trkpt>
      <trkpt lat="41.816851" lon="2.359626">
        <ele>1377.608</ele>
        <time>2021-09-25T15:32:57Z</time>
      </trkpt>
      <trkpt lat="41.816896" lon="2.359610">
        <ele>1377.565</ele>
        <time>2021-09-25T15:33:00Z</time>
      </trkpt>
      <trkpt lat="41.816938" lon="2.359584">
        <ele>1377.411</ele>
        <time>2021-09-25T15:33:04Z</time>
      </trkpt>
      <trkpt lat="41.816967" lon="2.359533">
        <ele>1377.094</ele>
        <time>2021-09-25T15:33:10Z</time>
      </trkpt>
      <trkpt lat="41.816993" lon="2.359466">
        <ele>1376.992</ele>
        <time>2021-09-25T15:33:15Z</time>
      </trkpt>
      <trkpt lat="41.817018" lon="2.359409">
        <ele>1376.745</ele>
        <time>2021-09-25T15:33:20Z</time>
      </trkpt>
      <trkpt lat="41.817051" lon="2.359351">
        <ele>1376.649</ele>
        <time>2021-09-25T15:33:24Z</time>
      </trkpt>
      <trkpt lat="41.817064" lon="2.359278">
        <ele>1376.674</ele>
        <time>2021-09-25T15:33:29Z</time>
      </trkpt>
      <trkpt lat="41.817071" lon="2.359212">
        <ele>1376.664</ele>
        <time>2021-09-25T15:33:34Z</time>
      </trkpt>
      <trkpt lat="41.817061" lon="2.359149">
        <ele>1376.694</ele>
        <time>2021-09-25T15:33:42Z</time>
      </trkpt>
      <trkpt lat="41.817068" lon="2.359086">
        <ele>1376.357</ele>
        <time>2021-09-25T15:33:46Z</time>
      </trkpt>
      <trkpt lat="41.817063" lon="2.359018">
        <ele>1376.322</ele>
        <time>2021-09-25T15:33:52Z</time>
      </trkpt>
      <trkpt lat="41.817084" lon="2.358956">
        <ele>1376.108</ele>
        <time>2021-09-25T15:34:00Z</time>
      </trkpt>
      <trkpt lat="41.817112" lon="2.358889">
        <ele>1376.177</ele>
        <time>2021-09-25T15:34:04Z</time>
      </trkpt>
      <trkpt lat="41.817134" lon="2.358830">
        <ele>1376.033</ele>
        <time>2021-09-25T15:34:09Z</time>
      </trkpt>
      <trkpt lat="41.817151" lon="2.358765">
        <ele>1376.066</ele>
        <time>2021-09-25T15:34:13Z</time>
      </trkpt>
      <trkpt lat="41.817177" lon="2.358702">
        <ele>1376.114</ele>
        <time>2021-09-25T15:34:17Z</time>
      </trkpt>
      <trkpt lat="41.817198" lon="2.358647">
        <ele>1376.297</ele>
        <time>2021-09-25T15:34:21Z</time>
      </trkpt>
      <trkpt lat="41.817209" lon="2.358582">
        <ele>1376.361</ele>
        <time>2021-09-25T15:34:25Z</time>
      </trkpt>
      <trkpt lat="41.817229" lon="2.358525">
        <ele>1376.566</ele>
        <time>2021-09-25T15:34:31Z</time>
      </trkpt>
      <trkpt lat="41.817252" lon="2.358458">
        <ele>1376.656</ele>
        <time>2021-09-25T15:34:37Z</time>
      </trkpt>
      <trkpt lat="41.817276" lon="2.358397">
        <ele>1376.628</ele>
        <time>2021-09-25T15:34:42Z</time>
      </trkpt>
      <trkpt lat="41.817304" lon="2.358347">
        <ele>1376.689</ele>
        <time>2021-09-25T15:34:48Z</time>
      </trkpt>
      <trkpt lat="41.817338" lon="2.358293">
        <ele>1376.517</ele>
        <time>2021-09-25T15:34:53Z</time>
      </trkpt>
      <trkpt lat="41.817371" lon="2.358248">
        <ele>1376.308</ele>
        <time>2021-09-25T15:34:59Z</time>
      </trkpt>
      <trkpt lat="41.817423" lon="2.358249">
        <ele>1376.060</ele>
        <time>2021-09-25T15:35:06Z</time>
      </trkpt>
      <trkpt lat="41.817464" lon="2.358194">
        <ele>1375.326</ele>
        <time>2021-09-25T15:35:11Z</time>
      </trkpt>
      <trkpt lat="41.817505" lon="2.358164">
        <ele>1374.939</ele>
        <time>2021-09-25T15:35:15Z</time>
      </trkpt>
      <trkpt lat="41.817554" lon="2.358146">
        <ele>1374.787</ele>
        <time>2021-09-25T15:35:19Z</time>
      </trkpt>
      <trkpt lat="41.817599" lon="2.358138">
        <ele>1373.970</ele>
        <time>2021-09-25T15:35:25Z</time>
      </trkpt>
      <trkpt lat="41.817636" lon="2.358100">
        <ele>1373.764</ele>
        <time>2021-09-25T15:35:32Z</time>
      </trkpt>
      <trkpt lat="41.817679" lon="2.358122">
        <ele>1373.189</ele>
        <time>2021-09-25T15:35:38Z</time>
      </trkpt>
      <trkpt lat="41.817734" lon="2.358102">
        <ele>1372.349</ele>
        <time>2021-09-25T15:35:48Z</time>
      </trkpt>
      <trkpt lat="41.817765" lon="2.358049">
        <ele>1372.213</ele>
        <time>2021-09-25T15:35:52Z</time>
      </trkpt>
      <trkpt lat="41.817801" lon="2.358009">
        <ele>1371.843</ele>
        <time>2021-09-25T15:35:57Z</time>
      </trkpt>
      <trkpt lat="41.817853" lon="2.358019">
        <ele>1371.507</ele>
        <time>2021-09-25T15:36:05Z</time>
      </trkpt>
      <trkpt lat="41.817907" lon="2.358020">
        <ele>1370.708</ele>
        <time>2021-09-25T15:36:08Z</time>
      </trkpt>
      <trkpt lat="41.817960" lon="2.357998">
        <ele>1370.529</ele>
        <time>2021-09-25T15:36:12Z</time>
      </trkpt>
      <trkpt lat="41.817998" lon="2.357965">
        <ele>1370.325</ele>
        <time>2021-09-25T15:36:18Z</time>
      </trkpt>
      <trkpt lat="41.818047" lon="2.357981">
        <ele>1370.058</ele>
        <time>2021-09-25T15:36:23Z</time>
      </trkpt>
      <trkpt lat="41.818079" lon="2.357934">
        <ele>1369.616</ele>
        <time>2021-09-25T15:36:30Z</time>
      </trkpt>
      <trkpt lat="41.818116" lon="2.357877">
        <ele>1369.439</ele>
        <time>2021-09-25T15:36:34Z</time>
      </trkpt>
      <trkpt lat="41.818141" lon="2.357822">
        <ele>1368.523</ele>
        <time>2021-09-25T15:36:39Z</time>
      </trkpt>
      <trkpt lat="41.818167" lon="2.357768">
        <ele>1367.528</ele>
        <time>2021-09-25T15:36:45Z</time>
      </trkpt>
      <trkpt lat="41.818193" lon="2.357713">
        <ele>1367.048</ele>
        <time>2021-09-25T15:36:51Z</time>
      </trkpt>
      <trkpt lat="41.818239" lon="2.357688">
        <ele>1365.316</ele>
        <time>2021-09-25T15:36:59Z</time>
      </trkpt>
      <trkpt lat="41.818287" lon="2.357660">
        <ele>1364.376</ele>
        <time>2021-09-25T15:37:05Z</time>
      </trkpt>
      <trkpt lat="41.818322" lon="2.357620">
        <ele>1363.513</ele>
        <time>2021-09-25T15:37:11Z</time>
      </trkpt>
      <trkpt lat="41.818363" lon="2.357570">
        <ele>1362.508</ele>
        <time>2021-09-25T15:37:17Z</time>
      </trkpt>
      <trkpt lat="41.818418" lon="2.357548">
        <ele>1361.759</ele>
        <time>2021-09-25T15:37:23Z</time>
      </trkpt>
      <trkpt lat="41.818457" lon="2.357515">
        <ele>1360.825</ele>
        <time>2021-09-25T15:37:27Z</time>
      </trkpt>
      <trkpt lat="41.818496" lon="2.357481">
        <ele>1360.098</ele>
        <time>2021-09-25T15:37:36Z</time>
      </trkpt>
      <trkpt lat="41.818533" lon="2.357436">
        <ele>1359.646</ele>
        <time>2021-09-25T15:37:41Z</time>
      </trkpt>
      <trkpt lat="41.818565" lon="2.357393">
        <ele>1358.819</ele>
        <time>2021-09-25T15:37:47Z</time>
      </trkpt>
      <trkpt lat="41.818613" lon="2.357350">
        <ele>1357.533</ele>
        <time>2021-09-25T15:37:53Z</time>
      </trkpt>
      <trkpt lat="41.818636" lon="2.357298">
        <ele>1357.178</ele>
        <time>2021-09-25T15:37:59Z</time>
      </trkpt>
      <trkpt lat="41.818666" lon="2.357253">
        <ele>1356.098</ele>
        <time>2021-09-25T15:38:05Z</time>
      </trkpt>
      <trkpt lat="41.818703" lon="2.357209">
        <ele>1354.922</ele>
        <time>2021-09-25T15:38:12Z</time>
      </trkpt>
      <trkpt lat="41.818741" lon="2.357158">
        <ele>1354.462</ele>
        <time>2021-09-25T15:38:19Z</time>
      </trkpt>
      <trkpt lat="41.818781" lon="2.357107">
        <ele>1353.608</ele>
        <time>2021-09-25T15:38:27Z</time>
      </trkpt>
      <trkpt lat="41.818822" lon="2.357075">
        <ele>1352.608</ele>
        <time>2021-09-25T15:38:31Z</time>
      </trkpt>
      <trkpt lat="41.818857" lon="2.357037">
        <ele>1351.480</ele>
        <time>2021-09-25T15:38:36Z</time>
      </trkpt>
      <trkpt lat="41.818889" lon="2.356989">
        <ele>1350.656</ele>
        <time>2021-09-25T15:38:43Z</time>
      </trkpt>
      <trkpt lat="41.818932" lon="2.356959">
        <ele>1350.169</ele>
        <time>2021-09-25T15:38:46Z</time>
      </trkpt>
      <trkpt lat="41.818956" lon="2.356905">
        <ele>1349.547</ele>
        <time>2021-09-25T15:38:54Z</time>
      </trkpt>
      <trkpt lat="41.818987" lon="2.356862">
        <ele>1349.150</ele>
        <time>2021-09-25T15:39:00Z</time>
      </trkpt>
      <trkpt lat="41.819013" lon="2.356807">
        <ele>1348.624</ele>
        <time>2021-09-25T15:39:06Z</time>
      </trkpt>
      <trkpt lat="41.819036" lon="2.356753">
        <ele>1347.569</ele>
        <time>2021-09-25T15:39:19Z</time>
      </trkpt>
      <trkpt lat="41.819082" lon="2.356720">
        <ele>1347.129</ele>
        <time>2021-09-25T15:39:25Z</time>
      </trkpt>
      <trkpt lat="41.819119" lon="2.356681">
        <ele>1346.222</ele>
        <time>2021-09-25T15:39:30Z</time>
      </trkpt>
      <trkpt lat="41.819163" lon="2.356638">
        <ele>1345.362</ele>
        <time>2021-09-25T15:39:35Z</time>
      </trkpt>
      <trkpt lat="41.819214" lon="2.356636">
        <ele>1344.408</ele>
        <time>2021-09-25T15:39:42Z</time>
      </trkpt>
      <trkpt lat="41.819264" lon="2.356635">
        <ele>1342.908</ele>
        <time>2021-09-25T15:39:46Z</time>
      </trkpt>
      <trkpt lat="41.819313" lon="2.356612">
        <ele>1342.480</ele>
        <time>2021-09-25T15:39:50Z</time>
      </trkpt>
      <trkpt lat="41.819364" lon="2.356591">
        <ele>1341.626</ele>
        <time>2021-09-25T15:39:56Z</time>
      </trkpt>
      <trkpt lat="41.819416" lon="2.356579">
        <ele>1340.999</ele>
        <time>2021-09-25T15:40:02Z</time>
      </trkpt>
      <trkpt lat="41.819465" lon="2.356562">
        <ele>1340.137</ele>
        <time>2021-09-25T15:40:05Z</time>
      </trkpt>
      <trkpt lat="41.819513" lon="2.356550">
        <ele>1339.230</ele>
        <time>2021-09-25T15:40:12Z</time>
      </trkpt>
      <trkpt lat="41.819561" lon="2.356540">
        <ele>1338.684</ele>
        <time>2021-09-25T15:40:19Z</time>
      </trkpt>
      <trkpt lat="41.819607" lon="2.356517">
        <ele>1338.129</ele>
        <time>2021-09-25T15:40:24Z</time>
      </trkpt>
      <trkpt lat="41.819650" lon="2.356476">
        <ele>1337.799</ele>
        <time>2021-09-25T15:40:31Z</time>
      </trkpt>
      <trkpt lat="41.819689" lon="2.356443">
        <ele>1337.694</ele>
        <time>2021-09-25T15:40:35Z</time>
      </trkpt>
      <trkpt lat="41.819745" lon="2.356415">
        <ele>1337.357</ele>
        <time>2021-09-25T15:40:41Z</time>
      </trkpt>
      <trkpt lat="41.819801" lon="2.356401">
        <ele>1335.822</ele>
        <time>2021-09-25T15:40:49Z</time>
      </trkpt>
      <trkpt lat="41.819853" lon="2.356375">
        <ele>1335.508</ele>
        <time>2021-09-25T15:40:53Z</time>
      </trkpt>
      <trkpt lat="41.819897" lon="2.356344">
        <ele>1335.327</ele>
        <time>2021-09-25T15:40:58Z</time>
      </trkpt>
      <trkpt lat="41.819935" lon="2.356306">
        <ele>1335.253</ele>
        <time>2021-09-25T15:41:04Z</time>
      </trkpt>
      <trkpt lat="41.819977" lon="2.356261">
        <ele>1335.076</ele>
        <time>2021-09-25T15:41:13Z</time>
      </trkpt>
      <trkpt lat="41.820019" lon="2.356225">
        <ele>1334.214</ele>
        <time>2021-09-25T15:41:18Z</time>
      </trkpt>
      <trkpt lat="41.820060" lon="2.356182">
        <ele>1333.047</ele>
        <time>2021-09-25T15:41:23Z</time>
      </trkpt>
      <trkpt lat="41.820099" lon="2.356139">
        <ele>1332.421</ele>
        <time>2021-09-25T15:41:27Z</time>
      </trkpt>
      <trkpt lat="41.820138" lon="2.356097">
        <ele>1331.296</ele>
        <time>2021-09-25T15:41:32Z</time>
      </trkpt>
      <trkpt lat="41.820183" lon="2.356069">
        <ele>1330.856</ele>
        <time>2021-09-25T15:41:36Z</time>
      </trkpt>
      <trkpt lat="41.820211" lon="2.356013">
        <ele>1329.728</ele>
        <time>2021-09-25T15:41:44Z</time>
      </trkpt>
      <trkpt lat="41.820250" lon="2.355973">
        <ele>1329.089</ele>
        <time>2021-09-25T15:41:51Z</time>
      </trkpt>
      <trkpt lat="41.820290" lon="2.355927">
        <ele>1328.017</ele>
        <time>2021-09-25T15:41:55Z</time>
      </trkpt>
      <trkpt lat="41.820341" lon="2.355881">
        <ele>1327.208</ele>
        <time>2021-09-25T15:41:59Z</time>
      </trkpt>
      <trkpt lat="41.820374" lon="2.355826">
        <ele>1326.880</ele>
        <time>2021-09-25T15:42:02Z</time>
      </trkpt>
      <trkpt lat="41.820408" lon="2.355772">
        <ele>1326.566</ele>
        <time>2021-09-25T15:42:05Z</time>
      </trkpt>
      <trkpt lat="41.820426" lon="2.355703">
        <ele>1325.389</ele>
        <time>2021-09-25T15:42:10Z</time>
      </trkpt>
      <trkpt lat="41.820438" lon="2.355641">
        <ele>1324.917</ele>
        <time>2021-09-25T15:42:17Z</time>
      </trkpt>
      <trkpt lat="41.820430" lon="2.355575">
        <ele>1324.570</ele>
        <time>2021-09-25T15:42:23Z</time>
      </trkpt>
      <trkpt lat="41.820432" lon="2.355513">
        <ele>1324.394</ele>
        <time>2021-09-25T15:42:29Z</time>
      </trkpt>
      <trkpt lat="41.820446" lon="2.355449">
        <ele>1324.259</ele>
        <time>2021-09-25T15:42:35Z</time>
      </trkpt>
      <trkpt lat="41.820454" lon="2.355389">
        <ele>1324.249</ele>
        <time>2021-09-25T15:42:42Z</time>
      </trkpt>
      <trkpt lat="41.820478" lon="2.355332">
        <ele>1324.057</ele>
        <time>2021-09-25T15:42:51Z</time>
      </trkpt>
      <trkpt lat="41.820469" lon="2.355271">
        <ele>1323.600</ele>
        <time>2021-09-25T15:43:02Z</time>
      </trkpt>
      <trkpt lat="41.820475" lon="2.355210">
        <ele>1322.520</ele>
        <time>2021-09-25T15:43:11Z</time>
      </trkpt>
      <trkpt lat="41.820504" lon="2.355149">
        <ele>1321.408</ele>
        <time>2021-09-25T15:43:16Z</time>
      </trkpt>
      <trkpt lat="41.820544" lon="2.355101">
        <ele>1320.133</ele>
        <time>2021-09-25T15:43:22Z</time>
      </trkpt>
      <trkpt lat="41.820564" lon="2.355042">
        <ele>1318.249</ele>
        <time>2021-09-25T15:43:28Z</time>
      </trkpt>
      <trkpt lat="41.820600" lon="2.354994">
        <ele>1316.262</ele>
        <time>2021-09-25T15:43:35Z</time>
      </trkpt>
      <trkpt lat="41.820629" lon="2.354940">
        <ele>1314.590</ele>
        <time>2021-09-25T15:43:40Z</time>
      </trkpt>
      <trkpt lat="41.820645" lon="2.354876">
        <ele>1313.033</ele>
        <time>2021-09-25T15:43:48Z</time>
      </trkpt>
      <trkpt lat="41.820655" lon="2.354812">
        <ele>1311.737</ele>
        <time>2021-09-25T15:43:55Z</time>
      </trkpt>
      <trkpt lat="41.820701" lon="2.354803">
        <ele>1309.752</ele>
        <time>2021-09-25T15:44:09Z</time>
      </trkpt>
      <trkpt lat="41.820736" lon="2.354758">
        <ele>1308.472</ele>
        <time>2021-09-25T15:44:36Z</time>
      </trkpt>
      <trkpt lat="41.820723" lon="2.354697">
        <ele>1308.084</ele>
        <time>2021-09-25T15:44:45Z</time>
      </trkpt>
      <trkpt lat="41.820737" lon="2.354625">
        <ele>1307.607</ele>
        <time>2021-09-25T15:45:01Z</time>
      </trkpt>
      <trkpt lat="41.820720" lon="2.354559">
        <ele>1304.117</ele>
        <time>2021-09-25T15:45:19Z</time>
      </trkpt>
      <trkpt lat="41.820707" lon="2.354494">
        <ele>1301.208</ele>
        <time>2021-09-25T15:45:31Z</time>
      </trkpt>
      <trkpt lat="41.820741" lon="2.354437">
        <ele>1298.126</ele>
        <time>2021-09-25T15:45:45Z</time>
      </trkpt>
      <trkpt lat="41.820722" lon="2.354375">
        <ele>1296.582</ele>
        <time>2021-09-25T15:45:55Z</time>
      </trkpt>
      <trkpt lat="41.820759" lon="2.354327">
        <ele>1293.715</ele>
        <time>2021-09-25T15:46:10Z</time>
      </trkpt>
      <trkpt lat="41.820800" lon="2.354294">
        <ele>1292.253</ele>
        <time>2021-09-25T15:46:18Z</time>
      </trkpt>
      <trkpt lat="41.820848" lon="2.354286">
        <ele>1289.636</ele>
        <time>2021-09-25T15:46:28Z</time>
      </trkpt>
      <trkpt lat="41.820870" lon="2.354233">
        <ele>1288.190</ele>
        <time>2021-09-25T15:46:33Z</time>
      </trkpt>
      <trkpt lat="41.820893" lon="2.354179">
        <ele>1286.365</ele>
        <time>2021-09-25T15:47:19Z</time>
      </trkpt>
      <trkpt lat="41.820862" lon="2.354125">
        <ele>1286.295</ele>
        <time>2021-09-25T15:47:29Z</time>
      </trkpt>
      <trkpt lat="41.820818" lon="2.354092">
        <ele>1286.185</ele>
        <time>2021-09-25T15:47:41Z</time>
      </trkpt>
      <trkpt lat="41.820822" lon="2.354023">
        <ele>1285.589</ele>
        <time>2021-09-25T15:47:53Z</time>
      </trkpt>
      <trkpt lat="41.820838" lon="2.353961">
        <ele>1281.517</ele>
        <time>2021-09-25T15:47:59Z</time>
      </trkpt>
      <trkpt lat="41.820862" lon="2.353904">
        <ele>1279.008</ele>
        <time>2021-09-25T15:48:11Z</time>
      </trkpt>
      <trkpt lat="41.820871" lon="2.353844">
        <ele>1278.246</ele>
        <time>2021-09-25T15:48:15Z</time>
      </trkpt>
      <trkpt lat="41.820841" lon="2.353797">
        <ele>1275.082</ele>
        <time>2021-09-25T15:48:31Z</time>
      </trkpt>
      <trkpt lat="41.820841" lon="2.353732">
        <ele>1273.755</ele>
        <time>2021-09-25T15:48:40Z</time>
      </trkpt>
      <trkpt lat="41.820818" lon="2.353676">
        <ele>1272.823</ele>
        <time>2021-09-25T15:48:47Z</time>
      </trkpt>
      <trkpt lat="41.820832" lon="2.353619">
        <ele>1271.926</ele>
        <time>2021-09-25T15:48:54Z</time>
      </trkpt>
      <trkpt lat="41.820839" lon="2.353558">
        <ele>1270.720</ele>
        <time>2021-09-25T15:49:02Z</time>
      </trkpt>
      <trkpt lat="41.820848" lon="2.353495">
        <ele>1268.175</ele>
        <time>2021-09-25T15:49:12Z</time>
      </trkpt>
      <trkpt lat="41.820871" lon="2.353439">
        <ele>1266.125</ele>
        <time>2021-09-25T15:49:23Z</time>
      </trkpt>
      <trkpt lat="41.820845" lon="2.353383">
        <ele>1260.227</ele>
        <time>2021-09-25T15:50:03Z</time>
      </trkpt>
      <trkpt lat="41.820825" lon="2.353326">
        <ele>1257.768</ele>
        <time>2021-09-25T15:50:15Z</time>
      </trkpt>
      <trkpt lat="41.820823" lon="2.353261">
        <ele>1255.714</ele>
        <time>2021-09-25T15:50:26Z</time>
      </trkpt>
      <trkpt lat="41.820845" lon="2.353206">
        <ele>1249.208</ele>
        <time>2021-09-25T15:50:44Z</time>
      </trkpt>
      <trkpt lat="41.820858" lon="2.353145">
        <ele>1246.890</ele>
        <time>2021-09-25T15:51:02Z</time>
      </trkpt>
      <trkpt lat="41.820863" lon="2.353076">
        <ele>1244.346</ele>
        <time>2021-09-25T15:51:18Z</time>
      </trkpt>
      <trkpt lat="41.820850" lon="2.353004">
        <ele>1242.969</ele>
        <time>2021-09-25T15:51:30Z</time>
      </trkpt>
      <trkpt lat="41.820825" lon="2.352951">
        <ele>1240.727</ele>
        <time>2021-09-25T15:51:39Z</time>
      </trkpt>
      <trkpt lat="41.820777" lon="2.352950">
        <ele>1238.510</ele>
        <time>2021-09-25T15:51:49Z</time>
      </trkpt>
      <trkpt lat="41.820755" lon="2.352894">
        <ele>1234.154</ele>
        <time>2021-09-25T15:52:11Z</time>
      </trkpt>
      <trkpt lat="41.820786" lon="2.352849">
        <ele>1231.329</ele>
        <time>2021-09-25T15:52:31Z</time>
      </trkpt>
      <trkpt lat="41.820825" lon="2.352820">
        <ele>1229.479</ele>
        <time>2021-09-25T15:52:48Z</time>
      </trkpt>
      <trkpt lat="41.820866" lon="2.352789">
        <ele>1227.087</ele>
        <time>2021-09-25T15:52:55Z</time>
      </trkpt>
      <trkpt lat="41.820904" lon="2.352746">
        <ele>1224.242</ele>
        <time>2021-09-25T15:53:04Z</time>
      </trkpt>
      <trkpt lat="41.820929" lon="2.352678">
        <ele>1222.626</ele>
        <time>2021-09-25T15:53:09Z</time>
      </trkpt>
      <trkpt lat="41.820969" lon="2.352648">
        <ele>1221.308</ele>
        <time>2021-09-25T15:53:14Z</time>
      </trkpt>
      <trkpt lat="41.821011" lon="2.352622">
        <ele>1219.296</ele>
        <time>2021-09-25T15:53:19Z</time>
      </trkpt>
      <trkpt lat="41.821058" lon="2.352581">
        <ele>1218.962</ele>
        <time>2021-09-25T15:53:24Z</time>
      </trkpt>
      <trkpt lat="41.821096" lon="2.352541">
        <ele>1218.685</ele>
        <time>2021-09-25T15:53:29Z</time>
      </trkpt>
      <trkpt lat="41.821143" lon="2.352502">
        <ele>1218.483</ele>
        <time>2021-09-25T15:53:33Z</time>
      </trkpt>
      <trkpt lat="41.821189" lon="2.352477">
        <ele>1218.116</ele>
        <time>2021-09-25T15:53:37Z</time>
      </trkpt>
      <trkpt lat="41.821237" lon="2.352475">
        <ele>1218.040</ele>
        <time>2021-09-25T15:53:42Z</time>
      </trkpt>
      <trkpt lat="41.821278" lon="2.352507">
        <ele>1217.815</ele>
        <time>2021-09-25T15:53:46Z</time>
      </trkpt>
      <trkpt lat="41.821313" lon="2.352548">
        <ele>1217.895</ele>
        <time>2021-09-25T15:53:49Z</time>
      </trkpt>
      <trkpt lat="41.821348" lon="2.352605">
        <ele>1217.548</ele>
        <time>2021-09-25T15:53:53Z</time>
      </trkpt>
      <trkpt lat="41.821380" lon="2.352652">
        <ele>1217.361</ele>
        <time>2021-09-25T15:53:56Z</time>
      </trkpt>
      <trkpt lat="41.821404" lon="2.352715">
        <ele>1216.817</ele>
        <time>2021-09-25T15:54:00Z</time>
      </trkpt>
      <trkpt lat="41.821414" lon="2.352784">
        <ele>1216.608</ele>
        <time>2021-09-25T15:54:05Z</time>
      </trkpt>
      <trkpt lat="41.821434" lon="2.352855">
        <ele>1216.382</ele>
        <time>2021-09-25T15:54:09Z</time>
      </trkpt>
      <trkpt lat="41.821443" lon="2.352935">
        <ele>1216.048</ele>
        <time>2021-09-25T15:54:13Z</time>
      </trkpt>
      <trkpt lat="41.821433" lon="2.353000">
        <ele>1215.641</ele>
        <time>2021-09-25T15:54:18Z</time>
      </trkpt>
      <trkpt lat="41.821432" lon="2.353065">
        <ele>1215.179</ele>
        <time>2021-09-25T15:54:23Z</time>
      </trkpt>
      <trkpt lat="41.821443" lon="2.353127">
        <ele>1214.472</ele>
        <time>2021-09-25T15:55:04Z</time>
      </trkpt>
      <trkpt lat="41.821484" lon="2.353163">
        <ele>1214.156</ele>
        <time>2021-09-25T15:55:23Z</time>
      </trkpt>
      <trkpt lat="41.821504" lon="2.353220">
        <ele>1213.721</ele>
        <time>2021-09-25T15:55:32Z</time>
      </trkpt>
      <trkpt lat="41.821526" lon="2.353274">
        <ele>1213.681</ele>
        <time>2021-09-25T15:55:39Z</time>
      </trkpt>
      <trkpt lat="41.821561" lon="2.353317">
        <ele>1212.294</ele>
        <time>2021-09-25T15:55:48Z</time>
      </trkpt>
      <trkpt lat="41.821607" lon="2.353340">
        <ele>1207.957</ele>
        <time>2021-09-25T15:56:02Z</time>
      </trkpt>
      <trkpt lat="41.821647" lon="2.353387">
        <ele>1206.022</ele>
        <time>2021-09-25T15:56:09Z</time>
      </trkpt>
      <trkpt lat="41.821678" lon="2.353448">
        <ele>1203.808</ele>
        <time>2021-09-25T15:56:17Z</time>
      </trkpt>
      <trkpt lat="41.821711" lon="2.353502">
        <ele>1201.887</ele>
        <time>2021-09-25T15:56:23Z</time>
      </trkpt>
      <trkpt lat="41.821754" lon="2.353525">
        <ele>1200.833</ele>
        <time>2021-09-25T15:56:29Z</time>
      </trkpt>
      <trkpt lat="41.821779" lon="2.353579">
        <ele>1199.196</ele>
        <time>2021-09-25T15:56:37Z</time>
      </trkpt>
      <trkpt lat="41.821812" lon="2.353651">
        <ele>1197.784</ele>
        <time>2021-09-25T15:56:44Z</time>
      </trkpt>
      <trkpt lat="41.821841" lon="2.353699">
        <ele>1196.957</ele>
        <time>2021-09-25T15:56:47Z</time>
      </trkpt>
      <trkpt lat="41.821855" lon="2.353778">
        <ele>1195.821</ele>
        <time>2021-09-25T15:56:53Z</time>
      </trkpt>
      <trkpt lat="41.821865" lon="2.353843">
        <ele>1194.086</ele>
        <time>2021-09-25T15:57:01Z</time>
      </trkpt>
      <trkpt lat="41.821892" lon="2.353909">
        <ele>1192.386</ele>
        <time>2021-09-25T15:57:17Z</time>
      </trkpt>
      <trkpt lat="41.821921" lon="2.353960">
        <ele>1191.449</ele>
        <time>2021-09-25T15:57:20Z</time>
      </trkpt>
      <trkpt lat="41.821959" lon="2.354009">
        <ele>1190.802</ele>
        <time>2021-09-25T15:57:33Z</time>
      </trkpt>
      <trkpt lat="41.821999" lon="2.354085">
        <ele>1189.422</ele>
        <time>2021-09-25T15:57:41Z</time>
      </trkpt>
      <trkpt lat="41.822044" lon="2.354118">
        <ele>1188.408</ele>
        <time>2021-09-25T15:57:47Z</time>
      </trkpt>
      <trkpt lat="41.822115" lon="2.354137">
        <ele>1188.162</ele>
        <time>2021-09-25T15:57:53Z</time>
      </trkpt>
      <trkpt lat="41.822155" lon="2.354174">
        <ele>1187.028</ele>
        <time>2021-09-25T15:57:56Z</time>
      </trkpt>
      <trkpt lat="41.822208" lon="2.354202">
        <ele>1186.011</ele>
        <time>2021-09-25T15:57:59Z</time>
      </trkpt>
      <trkpt lat="41.822256" lon="2.354239">
        <ele>1185.579</ele>
        <time>2021-09-25T15:58:02Z</time>
      </trkpt>
      <trkpt lat="41.822297" lon="2.354275">
        <ele>1185.152</ele>
        <time>2021-09-25T15:58:06Z</time>
      </trkpt>
      <trkpt lat="41.822342" lon="2.354307">
        <ele>1185.046</ele>
        <time>2021-09-25T15:58:12Z</time>
      </trkpt>
      <trkpt lat="41.822395" lon="2.354288">
        <ele>1184.871</ele>
        <time>2021-09-25T15:58:26Z</time>
      </trkpt>
      <trkpt lat="41.822449" lon="2.354293">
        <ele>1184.761</ele>
        <time>2021-09-25T15:58:30Z</time>
      </trkpt>
      <trkpt lat="41.822495" lon="2.354290">
        <ele>1184.383</ele>
        <time>2021-09-25T15:58:33Z</time>
      </trkpt>
      <trkpt lat="41.822550" lon="2.354286">
        <ele>1183.725</ele>
        <time>2021-09-25T15:58:38Z</time>
      </trkpt>
      <trkpt lat="41.822592" lon="2.354259">
        <ele>1182.817</ele>
        <time>2021-09-25T15:58:49Z</time>
      </trkpt>
      <trkpt lat="41.822642" lon="2.354232">
        <ele>1181.808</ele>
        <time>2021-09-25T15:58:55Z</time>
      </trkpt>
      <trkpt lat="41.822686" lon="2.354207">
        <ele>1181.286</ele>
        <time>2021-09-25T15:58:59Z</time>
      </trkpt>
      <trkpt lat="41.822723" lon="2.354243">
        <ele>1181.092</ele>
        <time>2021-09-25T15:59:01Z</time>
      </trkpt>
      <trkpt lat="41.822765" lon="2.354270">
        <ele>1180.685</ele>
        <time>2021-09-25T15:59:04Z</time>
      </trkpt>
      <trkpt lat="41.822811" lon="2.354253">
        <ele>1180.193</ele>
        <time>2021-09-25T15:59:08Z</time>
      </trkpt>
      <trkpt lat="41.822869" lon="2.354257">
        <ele>1179.426</ele>
        <time>2021-09-25T15:59:13Z</time>
      </trkpt>
      <trkpt lat="41.822923" lon="2.354257">
        <ele>1178.810</ele>
        <time>2021-09-25T15:59:21Z</time>
      </trkpt>
      <trkpt lat="41.822935" lon="2.354325">
        <ele>1178.425</ele>
        <time>2021-09-25T15:59:35Z</time>
      </trkpt>
      <trkpt lat="41.822921" lon="2.354389">
        <ele>1178.435</ele>
        <time>2021-09-25T15:59:44Z</time>
      </trkpt>
      <trkpt lat="41.822947" lon="2.354447">
        <ele>1178.272</ele>
        <time>2021-09-25T15:59:50Z</time>
      </trkpt>
      <trkpt lat="41.822996" lon="2.354488">
        <ele>1178.013</ele>
        <time>2021-09-25T15:59:54Z</time>
      </trkpt>
      <trkpt lat="41.823035" lon="2.354534">
        <ele>1178.014</ele>
        <time>2021-09-25T15:59:57Z</time>
      </trkpt>
      <trkpt lat="41.823068" lon="2.354576">
        <ele>1175.608</ele>
        <time>2021-09-25T16:00:13Z</time>
      </trkpt>
      <trkpt lat="41.823109" lon="2.354619">
        <ele>1174.695</ele>
        <time>2021-09-25T16:00:17Z</time>
      </trkpt>
      <trkpt lat="41.823166" lon="2.354665">
        <ele>1174.071</ele>
        <time>2021-09-25T16:00:19Z</time>
      </trkpt>
      <trkpt lat="41.823218" lon="2.354696">
        <ele>1173.074</ele>
        <time>2021-09-25T16:00:22Z</time>
      </trkpt>
      <trkpt lat="41.823233" lon="2.354759">
        <ele>1171.052</ele>
        <time>2021-09-25T16:00:35Z</time>
      </trkpt>
      <trkpt lat="41.823223" lon="2.354821">
        <ele>1169.085</ele>
        <time>2021-09-25T16:00:49Z</time>
      </trkpt>
      <trkpt lat="41.823246" lon="2.354883">
        <ele>1167.469</ele>
        <time>2021-09-25T16:01:08Z</time>
      </trkpt>
      <trkpt lat="41.823247" lon="2.354954">
        <ele>1165.844</ele>
        <time>2021-09-25T16:01:19Z</time>
      </trkpt>
      <trkpt lat="41.823291" lon="2.354977">
        <ele>1162.644</ele>
        <time>2021-09-25T16:01:42Z</time>
      </trkpt>
      <trkpt lat="41.823339" lon="2.354969">
        <ele>1161.642</ele>
        <time>2021-09-25T16:01:47Z</time>
      </trkpt>
      <trkpt lat="41.823387" lon="2.354927">
        <ele>1161.522</ele>
        <time>2021-09-25T16:01:49Z</time>
      </trkpt>
      <trkpt lat="41.823435" lon="2.354891">
        <ele>1160.914</ele>
        <time>2021-09-25T16:01:51Z</time>
      </trkpt>
      <trkpt lat="41.823479" lon="2.354914">
        <ele>1158.308</ele>
        <time>2021-09-25T16:02:14Z</time>
      </trkpt>
      <trkpt lat="41.823535" lon="2.354930">
        <ele>1157.572</ele>
        <time>2021-09-25T16:02:28Z</time>
      </trkpt>
      <trkpt lat="41.823582" lon="2.354922">
        <ele>1156.778</ele>
        <time>2021-09-25T16:02:37Z</time>
      </trkpt>
      <trkpt lat="41.823619" lon="2.354872">
        <ele>1154.171</ele>
        <time>2021-09-25T16:02:44Z</time>
      </trkpt>
      <trkpt lat="41.823653" lon="2.354832">
        <ele>1152.919</ele>
        <time>2021-09-25T16:02:49Z</time>
      </trkpt>
      <trkpt lat="41.823691" lon="2.354793">
        <ele>1152.352</ele>
        <time>2021-09-25T16:02:53Z</time>
      </trkpt>
      <trkpt lat="41.823726" lon="2.354752">
        <ele>1150.776</ele>
        <time>2021-09-25T16:02:56Z</time>
      </trkpt>
      <trkpt lat="41.823757" lon="2.354800">
        <ele>1149.611</ele>
        <time>2021-09-25T16:03:04Z</time>
      </trkpt>
      <trkpt lat="41.823798" lon="2.354770">
        <ele>1147.351</ele>
        <time>2021-09-25T16:03:22Z</time>
      </trkpt>
      <trkpt lat="41.823845" lon="2.354806">
        <ele>1146.616</ele>
        <time>2021-09-25T16:03:26Z</time>
      </trkpt>
      <trkpt lat="41.823817" lon="2.354856">
        <ele>1144.476</ele>
        <time>2021-09-25T16:04:14Z</time>
      </trkpt>
      <trkpt lat="41.823813" lon="2.354916">
        <ele>1143.313</ele>
        <time>2021-09-25T16:04:54Z</time>
      </trkpt>
      <trkpt lat="41.823773" lon="2.354884">
        <ele>1141.908</ele>
        <time>2021-09-25T16:06:19Z</time>
      </trkpt>
      <trkpt lat="41.823764" lon="2.354950">
        <ele>1141.939</ele>
        <time>2021-09-25T16:07:20Z</time>
      </trkpt>
      <trkpt lat="41.823756" lon="2.355012">
        <ele>1141.985</ele>
        <time>2021-09-25T16:07:30Z</time>
      </trkpt>
      <trkpt lat="41.823737" lon="2.355070">
        <ele>1141.988</ele>
        <time>2021-09-25T16:07:41Z</time>
      </trkpt>
      <trkpt lat="41.823728" lon="2.355131">
        <ele>1140.926</ele>
        <time>2021-09-25T16:07:48Z</time>
      </trkpt>
      <trkpt lat="41.823682" lon="2.355177">
        <ele>1138.739</ele>
        <time>2021-09-25T16:07:54Z</time>
      </trkpt>
      <trkpt lat="41.823652" lon="2.355228">
        <ele>1137.683</ele>
        <time>2021-09-25T16:08:00Z</time>
      </trkpt>
      <trkpt lat="41.823617" lon="2.355271">
        <ele>1136.728</ele>
        <time>2021-09-25T16:08:10Z</time>
      </trkpt>
      <trkpt lat="41.823577" lon="2.355306">
        <ele>1136.498</ele>
        <time>2021-09-25T16:08:15Z</time>
      </trkpt>
      <trkpt lat="41.823550" lon="2.355359">
        <ele>1135.729</ele>
        <time>2021-09-25T16:08:20Z</time>
      </trkpt>
      <trkpt lat="41.823527" lon="2.355425">
        <ele>1135.100</ele>
        <time>2021-09-25T16:08:25Z</time>
      </trkpt>
      <trkpt lat="41.823503" lon="2.355483">
        <ele>1134.920</ele>
        <time>2021-09-25T16:08:31Z</time>
      </trkpt>
      <trkpt lat="41.823498" lon="2.355544">
        <ele>1134.708</ele>
        <time>2021-09-25T16:08:34Z</time>
      </trkpt>
      <trkpt lat="41.823492" lon="2.355612">
        <ele>1133.780</ele>
        <time>2021-09-25T16:08:39Z</time>
      </trkpt>
      <trkpt lat="41.823466" lon="2.355667">
        <ele>1133.036</ele>
        <time>2021-09-25T16:08:48Z</time>
      </trkpt>
      <trkpt lat="41.823442" lon="2.355738">
        <ele>1131.999</ele>
        <time>2021-09-25T16:08:58Z</time>
      </trkpt>
      <trkpt lat="41.823420" lon="2.355797">
        <ele>1131.537</ele>
        <time>2021-09-25T16:09:02Z</time>
      </trkpt>
      <trkpt lat="41.823401" lon="2.355856">
        <ele>1129.720</ele>
        <time>2021-09-25T16:09:14Z</time>
      </trkpt>
      <trkpt lat="41.823383" lon="2.355925">
        <ele>1129.314</ele>
        <time>2021-09-25T16:09:20Z</time>
      </trkpt>
      <trkpt lat="41.823377" lon="2.356008">
        <ele>1127.199</ele>
        <time>2021-09-25T16:09:33Z</time>
      </trkpt>
      <trkpt lat="41.823355" lon="2.356062">
        <ele>1125.749</ele>
        <time>2021-09-25T16:09:42Z</time>
      </trkpt>
      <trkpt lat="41.823347" lon="2.356123">
        <ele>1124.535</ele>
        <time>2021-09-25T16:09:49Z</time>
      </trkpt>
      <trkpt lat="41.823326" lon="2.356191">
        <ele>1123.286</ele>
        <time>2021-09-25T16:09:55Z</time>
      </trkpt>
      <trkpt lat="41.823297" lon="2.356238">
        <ele>1122.014</ele>
        <time>2021-09-25T16:10:04Z</time>
      </trkpt>
      <trkpt lat="41.823269" lon="2.356290">
        <ele>1121.208</ele>
        <time>2021-09-25T16:10:13Z</time>
      </trkpt>
      <trkpt lat="41.823236" lon="2.356336">
        <ele>1120.051</ele>
        <time>2021-09-25T16:10:22Z</time>
      </trkpt>
      <trkpt lat="41.823202" lon="2.356397">
        <ele>1118.817</ele>
        <time>2021-09-25T16:10:27Z</time>
      </trkpt>
      <trkpt lat="41.823161" lon="2.356436">
        <ele>1118.460</ele>
        <time>2021-09-25T16:10:31Z</time>
      </trkpt>
      <trkpt lat="41.823112" lon="2.356465">
        <ele>1118.098</ele>
        <time>2021-09-25T16:10:35Z</time>
      </trkpt>
      <trkpt lat="41.823074" lon="2.356507">
        <ele>1117.571</ele>
        <time>2021-09-25T16:10:40Z</time>
      </trkpt>
      <trkpt lat="41.823059" lon="2.356570">
        <ele>1116.935</ele>
        <time>2021-09-25T16:10:46Z</time>
      </trkpt>
      <trkpt lat="41.823030" lon="2.356630">
        <ele>1115.710</ele>
        <time>2021-09-25T16:10:55Z</time>
      </trkpt>
      <trkpt lat="41.822979" lon="2.356654">
        <ele>1114.730</ele>
        <time>2021-09-25T16:11:05Z</time>
      </trkpt>
      <trkpt lat="41.822953" lon="2.356706">
        <ele>1114.091</ele>
        <time>2021-09-25T16:11:11Z</time>
      </trkpt>
      <trkpt lat="41.822911" lon="2.356755">
        <ele>1112.581</ele>
        <time>2021-09-25T16:11:20Z</time>
      </trkpt>
      <trkpt lat="41.822888" lon="2.356816">
        <ele>1111.319</ele>
        <time>2021-09-25T16:11:24Z</time>
      </trkpt>
      <trkpt lat="41.822866" lon="2.356875">
        <ele>1110.908</ele>
        <time>2021-09-25T16:11:31Z</time>
      </trkpt>
      <trkpt lat="41.822828" lon="2.356918">
        <ele>1110.137</ele>
        <time>2021-09-25T16:11:38Z</time>
      </trkpt>
      <trkpt lat="41.822797" lon="2.356963">
        <ele>1109.473</ele>
        <time>2021-09-25T16:11:46Z</time>
      </trkpt>
      <trkpt lat="41.822798" lon="2.357024">
        <ele>1108.796</ele>
        <time>2021-09-25T16:11:55Z</time>
      </trkpt>
      <trkpt lat="41.822792" lon="2.357090">
        <ele>1108.464</ele>
        <time>2021-09-25T16:12:01Z</time>
      </trkpt>
      <trkpt lat="41.822785" lon="2.357166">
        <ele>1107.447</ele>
        <time>2021-09-25T16:12:06Z</time>
      </trkpt>
      <trkpt lat="41.822763" lon="2.357222">
        <ele>1106.941</ele>
        <time>2021-09-25T16:12:13Z</time>
      </trkpt>
      <trkpt lat="41.822773" lon="2.357289">
        <ele>1106.476</ele>
        <time>2021-09-25T16:12:21Z</time>
      </trkpt>
      <trkpt lat="41.822784" lon="2.357357">
        <ele>1105.436</ele>
        <time>2021-09-25T16:12:29Z</time>
      </trkpt>
      <trkpt lat="41.822787" lon="2.357418">
        <ele>1104.912</ele>
        <time>2021-09-25T16:12:34Z</time>
      </trkpt>
      <trkpt lat="41.822795" lon="2.357490">
        <ele>1104.732</ele>
        <time>2021-09-25T16:12:40Z</time>
      </trkpt>
      <trkpt lat="41.822806" lon="2.357561">
        <ele>1104.305</ele>
        <time>2021-09-25T16:12:43Z</time>
      </trkpt>
      <trkpt lat="41.822819" lon="2.357626">
        <ele>1103.408</ele>
        <time>2021-09-25T16:12:48Z</time>
      </trkpt>
      <trkpt lat="41.822842" lon="2.357684">
        <ele>1102.729</ele>
        <time>2021-09-25T16:12:54Z</time>
      </trkpt>
      <trkpt lat="41.822850" lon="2.357750">
        <ele>1102.075</ele>
        <time>2021-09-25T16:13:08Z</time>
      </trkpt>
      <trkpt lat="41.822870" lon="2.357805">
        <ele>1101.998</ele>
        <time>2021-09-25T16:13:12Z</time>
      </trkpt>
      <trkpt lat="41.822887" lon="2.357866">
        <ele>1101.736</ele>
        <time>2021-09-25T16:13:17Z</time>
      </trkpt>
      <trkpt lat="41.822905" lon="2.357927">
        <ele>1101.559</ele>
        <time>2021-09-25T16:13:22Z</time>
      </trkpt>
      <trkpt lat="41.822933" lon="2.357994">
        <ele>1100.943</ele>
        <time>2021-09-25T16:13:29Z</time>
      </trkpt>
      <trkpt lat="41.822951" lon="2.358058">
        <ele>1100.168</ele>
        <time>2021-09-25T16:13:38Z</time>
      </trkpt>
      <trkpt lat="41.822957" lon="2.358120">
        <ele>1099.768</ele>
        <time>2021-09-25T16:13:43Z</time>
      </trkpt>
      <trkpt lat="41.822970" lon="2.358186">
        <ele>1099.363</ele>
        <time>2021-09-25T16:13:47Z</time>
      </trkpt>
      <trkpt lat="41.822996" lon="2.358236">
        <ele>1099.144</ele>
        <time>2021-09-25T16:13:51Z</time>
      </trkpt>
      <trkpt lat="41.823018" lon="2.358304">
        <ele>1098.818</ele>
        <time>2021-09-25T16:13:57Z</time>
      </trkpt>
      <trkpt lat="41.823047" lon="2.358365">
        <ele>1098.508</ele>
        <time>2021-09-25T16:14:01Z</time>
      </trkpt>
      <trkpt lat="41.823059" lon="2.358424">
        <ele>1098.134</ele>
        <time>2021-09-25T16:14:07Z</time>
      </trkpt>
      <trkpt lat="41.823063" lon="2.358488">
        <ele>1097.770</ele>
        <time>2021-09-25T16:14:10Z</time>
      </trkpt>
      <trkpt lat="41.823051" lon="2.358547">
        <ele>1097.313</ele>
        <time>2021-09-25T16:14:16Z</time>
      </trkpt>
      <trkpt lat="41.823056" lon="2.358614">
        <ele>1097.281</ele>
        <time>2021-09-25T16:14:22Z</time>
      </trkpt>
      <trkpt lat="41.823064" lon="2.358685">
        <ele>1097.174</ele>
        <time>2021-09-25T16:14:27Z</time>
      </trkpt>
      <trkpt lat="41.823079" lon="2.358742">
        <ele>1096.928</ele>
        <time>2021-09-25T16:14:31Z</time>
      </trkpt>
      <trkpt lat="41.823089" lon="2.358801">
        <ele>1096.823</ele>
        <time>2021-09-25T16:14:35Z</time>
      </trkpt>
      <trkpt lat="41.823111" lon="2.358858">
        <ele>1096.673</ele>
        <time>2021-09-25T16:14:41Z</time>
      </trkpt>
      <trkpt lat="41.823108" lon="2.358932">
        <ele>1096.377</ele>
        <time>2021-09-25T16:14:48Z</time>
      </trkpt>
      <trkpt lat="41.823096" lon="2.358992">
        <ele>1095.661</ele>
        <time>2021-09-25T16:14:58Z</time>
      </trkpt>
      <trkpt lat="41.823094" lon="2.359055">
        <ele>1094.927</ele>
        <time>2021-09-25T16:15:05Z</time>
      </trkpt>
      <trkpt lat="41.823091" lon="2.359123">
        <ele>1094.508</ele>
        <time>2021-09-25T16:15:19Z</time>
      </trkpt>
      <trkpt lat="41.823075" lon="2.359189">
        <ele>1093.715</ele>
        <time>2021-09-25T16:15:27Z</time>
      </trkpt>
      <trkpt lat="41.823045" lon="2.359246">
        <ele>1092.911</ele>
        <time>2021-09-25T16:15:37Z</time>
      </trkpt>
      <trkpt lat="41.823004" lon="2.359277">
        <ele>1092.724</ele>
        <time>2021-09-25T16:15:43Z</time>
      </trkpt>
      <trkpt lat="41.822964" lon="2.359314">
        <ele>1091.532</ele>
        <time>2021-09-25T16:15:52Z</time>
      </trkpt>
      <trkpt lat="41.822933" lon="2.359372">
        <ele>1090.525</ele>
        <time>2021-09-25T16:15:58Z</time>
      </trkpt>
      <trkpt lat="41.822890" lon="2.359404">
        <ele>1089.719</ele>
        <time>2021-09-25T16:16:03Z</time>
      </trkpt>
      <trkpt lat="41.822853" lon="2.359439">
        <ele>1089.084</ele>
        <time>2021-09-25T16:16:06Z</time>
      </trkpt>
      <trkpt lat="41.822808" lon="2.359473">
        <ele>1088.154</ele>
        <time>2021-09-25T16:16:10Z</time>
      </trkpt>
      <trkpt lat="41.822764" lon="2.359501">
        <ele>1087.084</ele>
        <time>2021-09-25T16:16:17Z</time>
      </trkpt>
      <trkpt lat="41.822745" lon="2.359560">
        <ele>1086.007</ele>
        <time>2021-09-25T16:16:23Z</time>
      </trkpt>
      <trkpt lat="41.822729" lon="2.359616">
        <ele>1085.417</ele>
        <time>2021-09-25T16:16:29Z</time>
      </trkpt>
      <trkpt lat="41.822774" lon="2.359623">
        <ele>1083.708</ele>
        <time>2021-09-25T16:16:48Z</time>
      </trkpt>
      <trkpt lat="41.822814" lon="2.359592">
        <ele>1082.796</ele>
        <time>2021-09-25T16:16:55Z</time>
      </trkpt>
      <trkpt lat="41.822856" lon="2.359631">
        <ele>1082.422</ele>
        <time>2021-09-25T16:17:02Z</time>
      </trkpt>
      <trkpt lat="41.822813" lon="2.359675">
        <ele>1079.535</ele>
        <time>2021-09-25T16:17:28Z</time>
      </trkpt>
      <trkpt lat="41.822759" lon="2.359701">
        <ele>1077.083</ele>
        <time>2021-09-25T16:17:49Z</time>
      </trkpt>
      <trkpt lat="41.822722" lon="2.359748">
        <ele>1076.776</ele>
        <time>2021-09-25T16:17:52Z</time>
      </trkpt>
      <trkpt lat="41.822686" lon="2.359795">
        <ele>1075.650</ele>
        <time>2021-09-25T16:17:54Z</time>
      </trkpt>
      <trkpt lat="41.822634" lon="2.359837">
        <ele>1073.315</ele>
        <time>2021-09-25T16:18:07Z</time>
      </trkpt>
      <trkpt lat="41.822622" lon="2.359909">
        <ele>1071.795</ele>
        <time>2021-09-25T16:18:11Z</time>
      </trkpt>
      <trkpt lat="41.822605" lon="2.359983">
        <ele>1070.626</ele>
        <time>2021-09-25T16:18:17Z</time>
      </trkpt>
      <trkpt lat="41.822635" lon="2.360034">
        <ele>1069.347</ele>
        <time>2021-09-25T16:18:24Z</time>
      </trkpt>
      <trkpt lat="41.822627" lon="2.360102">
        <ele>1067.711</ele>
        <time>2021-09-25T16:18:31Z</time>
      </trkpt>
      <trkpt lat="41.822661" lon="2.360041">
        <ele>1063.808</ele>
        <time>2021-09-25T16:18:53Z</time>
      </trkpt>
      <trkpt lat="41.822701" lon="2.359994">
        <ele>1062.750</ele>
        <time>2021-09-25T16:18:58Z</time>
      </trkpt>
      <trkpt lat="41.822746" lon="2.360030">
        <ele>1061.366</ele>
        <time>2021-09-25T16:19:02Z</time>
      </trkpt>
      <trkpt lat="41.822750" lon="2.360091">
        <ele>1059.889</ele>
        <time>2021-09-25T16:19:10Z</time>
      </trkpt>
      <trkpt lat="41.822735" lon="2.360153">
        <ele>1058.017</ele>
        <time>2021-09-25T16:19:27Z</time>
      </trkpt>
      <trkpt lat="41.822757" lon="2.360206">
        <ele>1057.270</ele>
        <time>2021-09-25T16:19:33Z</time>
      </trkpt>
      <trkpt lat="41.822791" lon="2.360165">
        <ele>1054.264</ele>
        <time>2021-09-25T16:19:53Z</time>
      </trkpt>
      <trkpt lat="41.822837" lon="2.360194">
        <ele>1052.059</ele>
        <time>2021-09-25T16:20:03Z</time>
      </trkpt>
      <trkpt lat="41.822861" lon="2.360252">
        <ele>1050.489</ele>
        <time>2021-09-25T16:20:06Z</time>
      </trkpt>
      <trkpt lat="41.822911" lon="2.360271">
        <ele>1049.244</ele>
        <time>2021-09-25T16:20:11Z</time>
      </trkpt>
      <trkpt lat="41.822937" lon="2.360321">
        <ele>1048.005</ele>
        <time>2021-09-25T16:20:16Z</time>
      </trkpt>
      <trkpt lat="41.822978" lon="2.360353">
        <ele>1044.115</ele>
        <time>2021-09-25T16:20:40Z</time>
      </trkpt>
      <trkpt lat="41.823045" lon="2.360362">
        <ele>1043.808</ele>
        <time>2021-09-25T16:20:43Z</time>
      </trkpt>
      <trkpt lat="41.823096" lon="2.360355">
        <ele>1043.032</ele>
        <time>2021-09-25T16:20:46Z</time>
      </trkpt>
      <trkpt lat="41.823064" lon="2.360404">
        <ele>1041.478</ele>
        <time>2021-09-25T16:20:53Z</time>
      </trkpt>
      <trkpt lat="41.823097" lon="2.360446">
        <ele>1039.191</ele>
        <time>2021-09-25T16:21:19Z</time>
      </trkpt>
      <trkpt lat="41.823114" lon="2.360388">
        <ele>1037.389</ele>
        <time>2021-09-25T16:21:33Z</time>
      </trkpt>
      <trkpt lat="41.823158" lon="2.360365">
        <ele>1034.622</ele>
        <time>2021-09-25T16:21:51Z</time>
      </trkpt>
      <trkpt lat="41.823201" lon="2.360312">
        <ele>1033.216</ele>
        <time>2021-09-25T16:22:05Z</time>
      </trkpt>
      <trkpt lat="41.823242" lon="2.360338">
        <ele>1033.121</ele>
        <time>2021-09-25T16:22:19Z</time>
      </trkpt>
      <trkpt lat="41.823238" lon="2.360407">
        <ele>1032.841</ele>
        <time>2021-09-25T16:22:26Z</time>
      </trkpt>
      <trkpt lat="41.823276" lon="2.360366">
        <ele>1031.819</ele>
        <time>2021-09-25T16:22:29Z</time>
      </trkpt>
      <trkpt lat="41.823321" lon="2.360416">
        <ele>1030.309</ele>
        <time>2021-09-25T16:22:38Z</time>
      </trkpt>
      <trkpt lat="41.823395" lon="2.360420">
        <ele>1029.719</ele>
        <time>2021-09-25T16:22:41Z</time>
      </trkpt>
      <trkpt lat="41.823461" lon="2.360433">
        <ele>1027.808</ele>
        <time>2021-09-25T16:22:45Z</time>
      </trkpt>
      <trkpt lat="41.823508" lon="2.360436">
        <ele>1026.819</ele>
        <time>2021-09-25T16:22:47Z</time>
      </trkpt>
      <trkpt lat="41.823556" lon="2.360449">
        <ele>1024.995</ele>
        <time>2021-09-25T16:23:24Z</time>
      </trkpt>
      <trkpt lat="41.823593" lon="2.360485">
        <ele>1024.878</ele>
        <time>2021-09-25T16:23:31Z</time>
      </trkpt>
      <trkpt lat="41.823635" lon="2.360525">
        <ele>1024.766</ele>
        <time>2021-09-25T16:23:37Z</time>
      </trkpt>
      <trkpt lat="41.823687" lon="2.360534">
        <ele>1024.469</ele>
        <time>2021-09-25T16:23:49Z</time>
      </trkpt>
      <trkpt lat="41.823724" lon="2.360499">
        <ele>1024.313</ele>
        <time>2021-09-25T16:23:58Z</time>
      </trkpt>
      <trkpt lat="41.823777" lon="2.360492">
        <ele>1024.288</ele>
        <time>2021-09-25T16:24:00Z</time>
      </trkpt>
      <trkpt lat="41.823836" lon="2.360493">
        <ele>1024.028</ele>
        <time>2021-09-25T16:24:03Z</time>
      </trkpt>
      <trkpt lat="41.823883" lon="2.360508">
        <ele>1024.069</ele>
        <time>2021-09-25T16:24:08Z</time>
      </trkpt>
      <trkpt lat="41.823933" lon="2.360535">
        <ele>1024.204</ele>
        <time>2021-09-25T16:24:22Z</time>
      </trkpt>
      <trkpt lat="41.823980" lon="2.360554">
        <ele>1023.924</ele>
        <time>2021-09-25T16:24:29Z</time>
      </trkpt>
      <trkpt lat="41.824022" lon="2.360585">
        <ele>1023.908</ele>
        <time>2021-09-25T16:24:35Z</time>
      </trkpt>
      <trkpt lat="41.824068" lon="2.360575">
        <ele>1023.824</ele>
        <time>2021-09-25T16:24:40Z</time>
      </trkpt>
      <trkpt lat="41.824114" lon="2.360554">
        <ele>1023.660</ele>
        <time>2021-09-25T16:24:46Z</time>
      </trkpt>
      <trkpt lat="41.824151" lon="2.360514">
        <ele>1023.473</ele>
        <time>2021-09-25T16:24:52Z</time>
      </trkpt>
      <trkpt lat="41.824178" lon="2.360455">
        <ele>1023.361</ele>
        <time>2021-09-25T16:25:00Z</time>
      </trkpt>
      <trkpt lat="41.824226" lon="2.360421">
        <ele>1023.364</ele>
        <time>2021-09-25T16:25:05Z</time>
      </trkpt>
      <trkpt lat="41.824264" lon="2.360367">
        <ele>1023.468</ele>
        <time>2021-09-25T16:25:11Z</time>
      </trkpt>
      <trkpt lat="41.824307" lon="2.360316">
        <ele>1023.493</ele>
        <time>2021-09-25T16:25:16Z</time>
      </trkpt>
      <trkpt lat="41.824350" lon="2.360280">
        <ele>1023.643</ele>
        <time>2021-09-25T16:25:21Z</time>
      </trkpt>
      <trkpt lat="41.824387" lon="2.360233">
        <ele>1023.653</ele>
        <time>2021-09-25T16:25:31Z</time>
      </trkpt>
      <trkpt lat="41.824410" lon="2.360180">
        <ele>1023.404</ele>
        <time>2021-09-25T16:25:38Z</time>
      </trkpt>
      <trkpt lat="41.824451" lon="2.360154">
        <ele>1023.414</ele>
        <time>2021-09-25T16:25:45Z</time>
      </trkpt>
      <trkpt lat="41.824490" lon="2.360092">
        <ele>1023.408</ele>
        <time>2021-09-25T16:25:53Z</time>
      </trkpt>
      <trkpt lat="41.824517" lon="2.360036">
        <ele>1023.683</ele>
        <time>2021-09-25T16:25:56Z</time>
      </trkpt>
      <trkpt lat="41.824550" lon="2.359978">
        <ele>1024.679</ele>
        <time>2021-09-25T16:26:03Z</time>
      </trkpt>
      <trkpt lat="41.824574" lon="2.359915">
        <ele>1025.492</ele>
        <time>2021-09-25T16:26:08Z</time>
      </trkpt>
      <trkpt lat="41.824617" lon="2.359875">
        <ele>1026.080</ele>
        <time>2021-09-25T16:26:19Z</time>
      </trkpt>
      <trkpt lat="41.824647" lon="2.359827">
        <ele>1026.293</ele>
        <time>2021-09-25T16:26:23Z</time>
      </trkpt>
      <trkpt lat="41.824675" lon="2.359759">
        <ele>1026.357</ele>
        <time>2021-09-25T16:26:29Z</time>
      </trkpt>
      <trkpt lat="41.824705" lon="2.359714">
        <ele>1026.232</ele>
        <time>2021-09-25T16:26:33Z</time>
      </trkpt>
      <trkpt lat="41.824732" lon="2.359662">
        <ele>1026.252</ele>
        <time>2021-09-25T16:26:38Z</time>
      </trkpt>
      <trkpt lat="41.824753" lon="2.359608">
        <ele>1026.049</ele>
        <time>2021-09-25T16:26:45Z</time>
      </trkpt>
      <trkpt lat="41.824784" lon="2.359555">
        <ele>1025.302</ele>
        <time>2021-09-25T16:26:54Z</time>
      </trkpt>
      <trkpt lat="41.824809" lon="2.359496">
        <ele>1024.422</ele>
        <time>2021-09-25T16:26:59Z</time>
      </trkpt>
      <trkpt lat="41.824830" lon="2.359432">
        <ele>1023.708</ele>
        <time>2021-09-25T16:27:03Z</time>
      </trkpt>
      <trkpt lat="41.824842" lon="2.359363">
        <ele>1022.572</ele>
        <time>2021-09-25T16:27:17Z</time>
      </trkpt>
      <trkpt lat="41.824887" lon="2.359345">
        <ele>1021.848</ele>
        <time>2021-09-25T16:27:54Z</time>
      </trkpt>
      <trkpt lat="41.824933" lon="2.359347">
        <ele>1021.741</ele>
        <time>2021-09-25T16:28:06Z</time>
      </trkpt>
      <trkpt lat="41.824973" lon="2.359377">
        <ele>1021.689</ele>
        <time>2021-09-25T16:28:15Z</time>
      </trkpt>
      <trkpt lat="41.825015" lon="2.359347">
        <ele>1021.562</ele>
        <time>2021-09-25T16:28:25Z</time>
      </trkpt>
      <trkpt lat="41.825005" lon="2.359286">
        <ele>1019.856</ele>
        <time>2021-09-25T16:28:33Z</time>
      </trkpt>
      <trkpt lat="41.825015" lon="2.359349">
        <ele>1016.281</ele>
        <time>2021-09-25T16:28:49Z</time>
      </trkpt>
      <trkpt lat="41.825003" lon="2.359410">
        <ele>1015.391</ele>
        <time>2021-09-25T16:28:52Z</time>
      </trkpt>
      <trkpt lat="41.825002" lon="2.359479">
        <ele>1013.371</ele>
        <time>2021-09-25T16:29:01Z</time>
      </trkpt>
      <trkpt lat="41.824990" lon="2.359539">
        <ele>1012.341</ele>
        <time>2021-09-25T16:29:07Z</time>
      </trkpt>
      <trkpt lat="41.825006" lon="2.359599">
        <ele>1011.215</ele>
        <time>2021-09-25T16:29:16Z</time>
      </trkpt>
      <trkpt lat="41.824994" lon="2.359658">
        <ele>1010.408</ele>
        <time>2021-09-25T16:29:26Z</time>
      </trkpt>
      <trkpt lat="41.824992" lon="2.359729">
        <ele>1009.575</ele>
        <time>2021-09-25T16:29:33Z</time>
      </trkpt>
      <trkpt lat="41.825038" lon="2.359685">
        <ele>1008.561</ele>
        <time>2021-09-25T16:29:41Z</time>
      </trkpt>
      <trkpt lat="41.825084" lon="2.359676">
        <ele>1006.754</ele>
        <time>2021-09-25T16:29:50Z</time>
      </trkpt>
      <trkpt lat="41.825135" lon="2.359690">
        <ele>1004.272</ele>
        <time>2021-09-25T16:29:58Z</time>
      </trkpt>
      <trkpt lat="41.825178" lon="2.359712">
        <ele>1002.895</ele>
        <time>2021-09-25T16:30:02Z</time>
      </trkpt>
      <trkpt lat="41.825230" lon="2.359732">
        <ele>1001.959</ele>
        <time>2021-09-25T16:30:06Z</time>
      </trkpt>
      <trkpt lat="41.825282" lon="2.359719">
        <ele>999.634</ele>
        <time>2021-09-25T16:30:17Z</time>
      </trkpt>
      <trkpt lat="41.825318" lon="2.359762">
        <ele>999.064</ele>
        <time>2021-09-25T16:30:20Z</time>
      </trkpt>
      <trkpt lat="41.825339" lon="2.359817">
        <ele>998.576</ele>
        <time>2021-09-25T16:30:23Z</time>
      </trkpt>
      <trkpt lat="41.825342" lon="2.359889">
        <ele>996.790</ele>
        <time>2021-09-25T16:30:31Z</time>
      </trkpt>
      <trkpt lat="41.825389" lon="2.359910">
        <ele>995.519</ele>
        <time>2021-09-25T16:30:36Z</time>
      </trkpt>
      <trkpt lat="41.825387" lon="2.359848">
        <ele>994.708</ele>
        <time>2021-09-25T16:30:55Z</time>
      </trkpt>
      <trkpt lat="41.825432" lon="2.359852">
        <ele>994.795</ele>
        <time>2021-09-25T16:31:10Z</time>
      </trkpt>
      <trkpt lat="41.825466" lon="2.359901">
        <ele>994.621</ele>
        <time>2021-09-25T16:31:19Z</time>
      </trkpt>
      <trkpt lat="41.825480" lon="2.359962">
        <ele>994.674</ele>
        <time>2021-09-25T16:31:26Z</time>
      </trkpt>
      <trkpt lat="41.825481" lon="2.360026">
        <ele>993.782</ele>
        <time>2021-09-25T16:31:35Z</time>
      </trkpt>
      <trkpt lat="41.825514" lon="2.360074">
        <ele>992.045</ele>
        <time>2021-09-25T16:31:41Z</time>
      </trkpt>
      <trkpt lat="41.825522" lon="2.360138">
        <ele>991.419</ele>
        <time>2021-09-25T16:31:45Z</time>
      </trkpt>
      <trkpt lat="41.825543" lon="2.360193">
        <ele>990.244</ele>
        <time>2021-09-25T16:31:55Z</time>
      </trkpt>
      <trkpt lat="41.825591" lon="2.360236">
        <ele>989.124</ele>
        <time>2021-09-25T16:31:59Z</time>
      </trkpt>
      <trkpt lat="41.825599" lon="2.360318">
        <ele>987.766</ele>
        <time>2021-09-25T16:32:07Z</time>
      </trkpt>
      <trkpt lat="41.825639" lon="2.360368">
        <ele>986.929</ele>
        <time>2021-09-25T16:32:15Z</time>
      </trkpt>
      <trkpt lat="41.825658" lon="2.360424">
        <ele>986.221</ele>
        <time>2021-09-25T16:32:20Z</time>
      </trkpt>
      <trkpt lat="41.825706" lon="2.360431">
        <ele>984.508</ele>
        <time>2021-09-25T16:32:32Z</time>
      </trkpt>
      <trkpt lat="41.825720" lon="2.360490">
        <ele>983.154</ele>
        <time>2021-09-25T16:32:39Z</time>
      </trkpt>
      <trkpt lat="41.825750" lon="2.360542">
        <ele>981.950</ele>
        <time>2021-09-25T16:32:50Z</time>
      </trkpt>
      <trkpt lat="41.825814" lon="2.360545">
        <ele>981.733</ele>
        <time>2021-09-25T16:32:58Z</time>
      </trkpt>
      <trkpt lat="41.825873" lon="2.360508">
        <ele>981.631</ele>
        <time>2021-09-25T16:33:00Z</time>
      </trkpt>
      <trkpt lat="41.825924" lon="2.360516">
        <ele>981.464</ele>
        <time>2021-09-25T16:33:03Z</time>
      </trkpt>
      <trkpt lat="41.825973" lon="2.360494">
        <ele>980.778</ele>
        <time>2021-09-25T16:33:07Z</time>
      </trkpt>
      <trkpt lat="41.826032" lon="2.360521">
        <ele>980.513</ele>
        <time>2021-09-25T16:33:10Z</time>
      </trkpt>
      <trkpt lat="41.826060" lon="2.360570">
        <ele>979.743</ele>
        <time>2021-09-25T16:33:12Z</time>
      </trkpt>
      <trkpt lat="41.826102" lon="2.360610">
        <ele>979.522</ele>
        <time>2021-09-25T16:33:16Z</time>
      </trkpt>
      <trkpt lat="41.826140" lon="2.360646">
        <ele>979.062</ele>
        <time>2021-09-25T16:33:25Z</time>
      </trkpt>
      <trkpt lat="41.826158" lon="2.360708">
        <ele>978.308</ele>
        <time>2021-09-25T16:33:31Z</time>
      </trkpt>
      <trkpt lat="41.826184" lon="2.360758">
        <ele>977.508</ele>
        <time>2021-09-25T16:33:36Z</time>
      </trkpt>
      <trkpt lat="41.826212" lon="2.360814">
        <ele>976.490</ele>
        <time>2021-09-25T16:33:48Z</time>
      </trkpt>
      <trkpt lat="41.826257" lon="2.360822">
        <ele>975.776</ele>
        <time>2021-09-25T16:33:54Z</time>
      </trkpt>
      <trkpt lat="41.826309" lon="2.360849">
        <ele>974.629</ele>
        <time>2021-09-25T16:34:00Z</time>
      </trkpt>
      <trkpt lat="41.826345" lon="2.360897">
        <ele>974.297</ele>
        <time>2021-09-25T16:34:03Z</time>
      </trkpt>
      <trkpt lat="41.826375" lon="2.360946">
        <ele>972.720</ele>
        <time>2021-09-25T16:34:08Z</time>
      </trkpt>
      <trkpt lat="41.826407" lon="2.361002">
        <ele>971.644</ele>
        <time>2021-09-25T16:34:12Z</time>
      </trkpt>
      <trkpt lat="41.826439" lon="2.361053">
        <ele>969.979</ele>
        <time>2021-09-25T16:34:18Z</time>
      </trkpt>
      <trkpt lat="41.826480" lon="2.361087">
        <ele>968.639</ele>
        <time>2021-09-25T16:34:26Z</time>
      </trkpt>
      <trkpt lat="41.826519" lon="2.361125">
        <ele>968.378</ele>
        <time>2021-09-25T16:34:30Z</time>
      </trkpt>
      <trkpt lat="41.826564" lon="2.361165">
        <ele>966.533</ele>
        <time>2021-09-25T16:34:45Z</time>
      </trkpt>
      <trkpt lat="41.826610" lon="2.361168">
        <ele>965.426</ele>
        <time>2021-09-25T16:34:49Z</time>
      </trkpt>
      <trkpt lat="41.826653" lon="2.361147">
        <ele>964.808</ele>
        <time>2021-09-25T16:34:54Z</time>
      </trkpt>
      <trkpt lat="41.826706" lon="2.361139">
        <ele>963.895</ele>
        <time>2021-09-25T16:34:58Z</time>
      </trkpt>
      <trkpt lat="41.826760" lon="2.361148">
        <ele>962.421</ele>
        <time>2021-09-25T16:35:05Z</time>
      </trkpt>
      <trkpt lat="41.826809" lon="2.361141">
        <ele>961.074</ele>
        <time>2021-09-25T16:35:14Z</time>
      </trkpt>
      <trkpt lat="41.826856" lon="2.361146">
        <ele>960.462</ele>
        <time>2021-09-25T16:35:21Z</time>
      </trkpt>
      <trkpt lat="41.826901" lon="2.361170">
        <ele>960.035</ele>
        <time>2021-09-25T16:35:28Z</time>
      </trkpt>
      <trkpt lat="41.826961" lon="2.361178">
        <ele>959.799</ele>
        <time>2021-09-25T16:35:34Z</time>
      </trkpt>
      <trkpt lat="41.827006" lon="2.361215">
        <ele>958.824</ele>
        <time>2021-09-25T16:35:43Z</time>
      </trkpt>
      <trkpt lat="41.827034" lon="2.361273">
        <ele>957.984</ele>
        <time>2021-09-25T16:35:49Z</time>
      </trkpt>
      <trkpt lat="41.827063" lon="2.361321">
        <ele>957.398</ele>
        <time>2021-09-25T16:35:55Z</time>
      </trkpt>
      <trkpt lat="41.827123" lon="2.361332">
        <ele>956.615</ele>
        <time>2021-09-25T16:36:00Z</time>
      </trkpt>
      <trkpt lat="41.827162" lon="2.361371">
        <ele>955.926</ele>
        <time>2021-09-25T16:36:04Z</time>
      </trkpt>
      <trkpt lat="41.827207" lon="2.361402">
        <ele>955.208</ele>
        <time>2021-09-25T16:36:09Z</time>
      </trkpt>
      <trkpt lat="41.827249" lon="2.361438">
        <ele>954.047</ele>
        <time>2021-09-25T16:36:14Z</time>
      </trkpt>
      <trkpt lat="41.827285" lon="2.361478">
        <ele>953.483</ele>
        <time>2021-09-25T16:36:18Z</time>
      </trkpt>
      <trkpt lat="41.827309" lon="2.361544">
        <ele>952.996</ele>
        <time>2021-09-25T16:36:24Z</time>
      </trkpt>
      <trkpt lat="41.827330" lon="2.361602">
        <ele>952.174</ele>
        <time>2021-09-25T16:36:28Z</time>
      </trkpt>
      <trkpt lat="41.827337" lon="2.361668">
        <ele>951.097</ele>
        <time>2021-09-25T16:36:35Z</time>
      </trkpt>
      <trkpt lat="41.827350" lon="2.361738">
        <ele>950.541</ele>
        <time>2021-09-25T16:36:39Z</time>
      </trkpt>
      <trkpt lat="41.827379" lon="2.361785">
        <ele>949.886</ele>
        <time>2021-09-25T16:36:44Z</time>
      </trkpt>
      <trkpt lat="41.827413" lon="2.361826">
        <ele>948.916</ele>
        <time>2021-09-25T16:36:47Z</time>
      </trkpt>
      <trkpt lat="41.827452" lon="2.361868">
        <ele>948.558</ele>
        <time>2021-09-25T16:36:51Z</time>
      </trkpt>
      <trkpt lat="41.827469" lon="2.361924">
        <ele>947.152</ele>
        <time>2021-09-25T16:36:58Z</time>
      </trkpt>
      <trkpt lat="41.827488" lon="2.361983">
        <ele>946.917</ele>
        <time>2021-09-25T16:37:02Z</time>
      </trkpt>
      <trkpt lat="41.827529" lon="2.362035">
        <ele>946.808</ele>
        <time>2021-09-25T16:37:07Z</time>
      </trkpt>
      <trkpt lat="41.827576" lon="2.362073">
        <ele>946.733</ele>
        <time>2021-09-25T16:37:13Z</time>
      </trkpt>
      <trkpt lat="41.827600" lon="2.362130">
        <ele>946.749</ele>
        <time>2021-09-25T16:37:16Z</time>
      </trkpt>
      <trkpt lat="41.827625" lon="2.362182">
        <ele>946.762</ele>
        <time>2021-09-25T16:37:22Z</time>
      </trkpt>
      <trkpt lat="41.827642" lon="2.362246">
        <ele>946.730</ele>
        <time>2021-09-25T16:37:26Z</time>
      </trkpt>
      <trkpt lat="41.827655" lon="2.362317">
        <ele>946.843</ele>
        <time>2021-09-25T16:37:29Z</time>
      </trkpt>
      <trkpt lat="41.827665" lon="2.362386">
        <ele>947.047</ele>
        <time>2021-09-25T16:37:32Z</time>
      </trkpt>
      <trkpt lat="41.827677" lon="2.362444">
        <ele>947.192</ele>
        <time>2021-09-25T16:37:36Z</time>
      </trkpt>
      <trkpt lat="41.827700" lon="2.362505">
        <ele>946.742</ele>
        <time>2021-09-25T16:37:44Z</time>
      </trkpt>
      <trkpt lat="41.827718" lon="2.362567">
        <ele>946.595</ele>
        <time>2021-09-25T16:37:47Z</time>
      </trkpt>
      <trkpt lat="41.827743" lon="2.362624">
        <ele>945.749</ele>
        <time>2021-09-25T16:37:57Z</time>
      </trkpt>
      <trkpt lat="41.827765" lon="2.362690">
        <ele>945.423</ele>
        <time>2021-09-25T16:38:56Z</time>
      </trkpt>
      <trkpt lat="41.827802" lon="2.362730">
        <ele>945.608</ele>
        <time>2021-09-25T16:39:01Z</time>
      </trkpt>
      <trkpt lat="41.827804" lon="2.362792">
        <ele>945.777</ele>
        <time>2021-09-25T16:39:10Z</time>
      </trkpt>
      <trkpt lat="41.827822" lon="2.362849">
        <ele>945.843</ele>
        <time>2021-09-25T16:39:15Z</time>
      </trkpt>
      <trkpt lat="41.827830" lon="2.362912">
        <ele>946.246</ele>
        <time>2021-09-25T16:39:20Z</time>
      </trkpt>
      <trkpt lat="41.827879" lon="2.362917">
        <ele>946.864</ele>
        <time>2021-09-25T16:39:25Z</time>
      </trkpt>
      <trkpt lat="41.827925" lon="2.362895">
        <ele>947.987</ele>
        <time>2021-09-25T16:39:30Z</time>
      </trkpt>
      <trkpt lat="41.827971" lon="2.362867">
        <ele>948.121</ele>
        <time>2021-09-25T16:39:32Z</time>
      </trkpt>
      <trkpt lat="41.828032" lon="2.362842">
        <ele>948.546</ele>
        <time>2021-09-25T16:39:34Z</time>
      </trkpt>
      <trkpt lat="41.828067" lon="2.362801">
        <ele>948.776</ele>
        <time>2021-09-25T16:39:37Z</time>
      </trkpt>
      <trkpt lat="41.828109" lon="2.362763">
        <ele>948.837</ele>
        <time>2021-09-25T16:39:39Z</time>
      </trkpt>
      <trkpt lat="41.828143" lon="2.362722">
        <ele>948.949</ele>
        <time>2021-09-25T16:39:42Z</time>
      </trkpt>
      <trkpt lat="41.828170" lon="2.362669">
        <ele>948.913</ele>
        <time>2021-09-25T16:39:48Z</time>
      </trkpt>
      <trkpt lat="41.828200" lon="2.362613">
        <ele>948.808</ele>
        <time>2021-09-25T16:39:55Z</time>
      </trkpt>
      <trkpt lat="41.828246" lon="2.362593">
        <ele>948.881</ele>
        <time>2021-09-25T16:39:59Z</time>
      </trkpt>
      <trkpt lat="41.828288" lon="2.362557">
        <ele>948.957</ele>
        <time>2021-09-25T16:40:03Z</time>
      </trkpt>
      <trkpt lat="41.828330" lon="2.362527">
        <ele>949.090</ele>
        <time>2021-09-25T16:40:08Z</time>
      </trkpt>
      <trkpt lat="41.828373" lon="2.362507">
        <ele>949.298</ele>
        <time>2021-09-25T16:40:13Z</time>
      </trkpt>
      <trkpt lat="41.828417" lon="2.362464">
        <ele>949.471</ele>
        <time>2021-09-25T16:40:20Z</time>
      </trkpt>
      <trkpt lat="41.828461" lon="2.362434">
        <ele>949.455</ele>
        <time>2021-09-25T16:40:29Z</time>
      </trkpt>
      <trkpt lat="41.828517" lon="2.362450">
        <ele>949.340</ele>
        <time>2021-09-25T16:40:39Z</time>
      </trkpt>
      <trkpt lat="41.828567" lon="2.362454">
        <ele>949.040</ele>
        <time>2021-09-25T16:40:44Z</time>
      </trkpt>
      <trkpt lat="41.828621" lon="2.362479">
        <ele>948.082</ele>
        <time>2021-09-25T16:40:50Z</time>
      </trkpt>
      <trkpt lat="41.828655" lon="2.362519">
        <ele>947.043</ele>
        <time>2021-09-25T16:40:55Z</time>
      </trkpt>
      <trkpt lat="41.828693" lon="2.362556">
        <ele>946.617</ele>
        <time>2021-09-25T16:40:59Z</time>
      </trkpt>
      <trkpt lat="41.828728" lon="2.362617">
        <ele>945.008</ele>
        <time>2021-09-25T16:41:06Z</time>
      </trkpt>
      <trkpt lat="41.828775" lon="2.362624">
        <ele>944.326</ele>
        <time>2021-09-25T16:41:09Z</time>
      </trkpt>
      <trkpt lat="41.828807" lon="2.362675">
        <ele>943.652</ele>
        <time>2021-09-25T16:41:13Z</time>
      </trkpt>
      <trkpt lat="41.828842" lon="2.362722">
        <ele>943.225</ele>
        <time>2021-09-25T16:41:17Z</time>
      </trkpt>
      <trkpt lat="41.828877" lon="2.362770">
        <ele>942.553</ele>
        <time>2021-09-25T16:41:25Z</time>
      </trkpt>
      <trkpt lat="41.828923" lon="2.362802">
        <ele>941.396</ele>
        <time>2021-09-25T16:41:32Z</time>
      </trkpt>
      <trkpt lat="41.828965" lon="2.362844">
        <ele>940.690</ele>
        <time>2021-09-25T16:41:36Z</time>
      </trkpt>
      <trkpt lat="41.828998" lon="2.362899">
        <ele>940.095</ele>
        <time>2021-09-25T16:41:40Z</time>
      </trkpt>
      <trkpt lat="41.829037" lon="2.362961">
        <ele>939.445</ele>
        <time>2021-09-25T16:41:47Z</time>
      </trkpt>
      <trkpt lat="41.829082" lon="2.362987">
        <ele>938.328</ele>
        <time>2021-09-25T16:41:51Z</time>
      </trkpt>
      <trkpt lat="41.829113" lon="2.363048">
        <ele>937.989</ele>
        <time>2021-09-25T16:41:57Z</time>
      </trkpt>
      <trkpt lat="41.829154" lon="2.363091">
        <ele>936.917</ele>
        <time>2021-09-25T16:42:04Z</time>
      </trkpt>
      <trkpt lat="41.829195" lon="2.363121">
        <ele>936.308</ele>
        <time>2021-09-25T16:42:09Z</time>
      </trkpt>
      <trkpt lat="41.829220" lon="2.363173">
        <ele>936.090</ele>
        <time>2021-09-25T16:42:13Z</time>
      </trkpt>
      <trkpt lat="41.829232" lon="2.363238">
        <ele>935.746</ele>
        <time>2021-09-25T16:42:17Z</time>
      </trkpt>
      <trkpt lat="41.829271" lon="2.363207">
        <ele>935.439</ele>
        <time>2021-09-25T16:42:25Z</time>
      </trkpt>
      <trkpt lat="41.829314" lon="2.363178">
        <ele>935.197</ele>
        <time>2021-09-25T16:42:49Z</time>
      </trkpt>
      <trkpt lat="41.829355" lon="2.363207">
        <ele>934.910</ele>
        <time>2021-09-25T16:43:09Z</time>
      </trkpt>
      <trkpt lat="41.829400" lon="2.363215">
        <ele>934.694</ele>
        <time>2021-09-25T16:43:37Z</time>
      </trkpt>
      <trkpt lat="41.829450" lon="2.363207">
        <ele>933.679</ele>
        <time>2021-09-25T16:45:07Z</time>
      </trkpt>
      <trkpt lat="41.829463" lon="2.363266">
        <ele>931.999</ele>
        <time>2021-09-25T16:45:50Z</time>
      </trkpt>
      <trkpt lat="41.829479" lon="2.363328">
        <ele>931.624</ele>
        <time>2021-09-25T16:45:57Z</time>
      </trkpt>
      <trkpt lat="41.829499" lon="2.363390">
        <ele>931.404</ele>
        <time>2021-09-25T16:46:07Z</time>
      </trkpt>
      <trkpt lat="41.829556" lon="2.363445">
        <ele>931.214</ele>
        <time>2021-09-25T16:46:13Z</time>
      </trkpt>
      <trkpt lat="41.829602" lon="2.363492">
        <ele>927.608</ele>
        <time>2021-09-25T16:46:32Z</time>
      </trkpt>
      <trkpt lat="41.829607" lon="2.363555">
        <ele>926.210</ele>
        <time>2021-09-25T16:46:44Z</time>
      </trkpt>
      <trkpt lat="41.829621" lon="2.363612">
        <ele>925.816</ele>
        <time>2021-09-25T16:46:46Z</time>
      </trkpt>
      <trkpt lat="41.829663" lon="2.363652">
        <ele>925.569</ele>
        <time>2021-09-25T16:46:51Z</time>
      </trkpt>
      <trkpt lat="41.829699" lon="2.363694">
        <ele>925.127</ele>
        <time>2021-09-25T16:46:53Z</time>
      </trkpt>
      <trkpt lat="41.829758" lon="2.363741">
        <ele>924.890</ele>
        <time>2021-09-25T16:46:56Z</time>
      </trkpt>
      <trkpt lat="41.829784" lon="2.363791">
        <ele>924.364</ele>
        <time>2021-09-25T16:47:02Z</time>
      </trkpt>
      <trkpt lat="41.829828" lon="2.363779">
        <ele>923.249</ele>
        <time>2021-09-25T16:47:10Z</time>
      </trkpt>
      <trkpt lat="41.829834" lon="2.363841">
        <ele>922.729</ele>
        <time>2021-09-25T16:47:15Z</time>
      </trkpt>
      <trkpt lat="41.829865" lon="2.363904">
        <ele>922.383</ele>
        <time>2021-09-25T16:47:21Z</time>
      </trkpt>
      <trkpt lat="41.829850" lon="2.363993">
        <ele>921.825</ele>
        <time>2021-09-25T16:47:31Z</time>
      </trkpt>
      <trkpt lat="41.829889" lon="2.364055">
        <ele>921.517</ele>
        <time>2021-09-25T16:47:40Z</time>
      </trkpt>
      <trkpt lat="41.829912" lon="2.364118">
        <ele>920.908</ele>
        <time>2021-09-25T16:47:50Z</time>
      </trkpt>
      <trkpt lat="41.829952" lon="2.364167">
        <ele>920.666</ele>
        <time>2021-09-25T16:47:55Z</time>
      </trkpt>
      <trkpt lat="41.829993" lon="2.364192">
        <ele>919.832</ele>
        <time>2021-09-25T16:48:00Z</time>
      </trkpt>
      <trkpt lat="41.830041" lon="2.364194">
        <ele>919.025</ele>
        <time>2021-09-25T16:48:06Z</time>
      </trkpt>
      <trkpt lat="41.830089" lon="2.364189">
        <ele>918.433</ele>
        <time>2021-09-25T16:48:13Z</time>
      </trkpt>
      <trkpt lat="41.830131" lon="2.364229">
        <ele>917.496</ele>
        <time>2021-09-25T16:48:18Z</time>
      </trkpt>
      <trkpt lat="41.830153" lon="2.364286">
        <ele>916.870</ele>
        <time>2021-09-25T16:48:21Z</time>
      </trkpt>
      <trkpt lat="41.830201" lon="2.364271">
        <ele>916.025</ele>
        <time>2021-09-25T16:48:29Z</time>
      </trkpt>
      <trkpt lat="41.830244" lon="2.364328">
        <ele>914.985</ele>
        <time>2021-09-25T16:48:36Z</time>
      </trkpt>
      <trkpt lat="41.830293" lon="2.364386">
        <ele>914.727</ele>
        <time>2021-09-25T16:48:38Z</time>
      </trkpt>
      <trkpt lat="41.830354" lon="2.364428">
        <ele>913.468</ele>
        <time>2021-09-25T16:48:45Z</time>
      </trkpt>
      <trkpt lat="41.830392" lon="2.364467">
        <ele>911.514</ele>
        <time>2021-09-25T16:48:56Z</time>
      </trkpt>
      <trkpt lat="41.830443" lon="2.364450">
        <ele>910.208</ele>
        <time>2021-09-25T16:49:11Z</time>
      </trkpt>
      <trkpt lat="41.830477" lon="2.364502">
        <ele>909.890</ele>
        <time>2021-09-25T16:49:28Z</time>
      </trkpt>
      <trkpt lat="41.830535" lon="2.364512">
        <ele>908.836</ele>
        <time>2021-09-25T16:49:39Z</time>
      </trkpt>
      <trkpt lat="41.830569" lon="2.364469">
        <ele>908.159</ele>
        <time>2021-09-25T16:49:46Z</time>
      </trkpt>
      <trkpt lat="41.830620" lon="2.364471">
        <ele>907.137</ele>
        <time>2021-09-25T16:49:52Z</time>
      </trkpt>
      <trkpt lat="41.830642" lon="2.364526">
        <ele>906.390</ele>
        <time>2021-09-25T16:49:55Z</time>
      </trkpt>
      <trkpt lat="41.830631" lon="2.364607">
        <ele>906.174</ele>
        <time>2021-09-25T16:49:58Z</time>
      </trkpt>
      <trkpt lat="41.830630" lon="2.364689">
        <ele>905.199</ele>
        <time>2021-09-25T16:50:03Z</time>
      </trkpt>
      <trkpt lat="41.830672" lon="2.364742">
        <ele>904.019</ele>
        <time>2021-09-25T16:50:12Z</time>
      </trkpt>
      <trkpt lat="41.830711" lon="2.364698">
        <ele>903.859</ele>
        <time>2021-09-25T16:50:15Z</time>
      </trkpt>
      <trkpt lat="41.830764" lon="2.364730">
        <ele>903.203</ele>
        <time>2021-09-25T16:50:21Z</time>
      </trkpt>
      <trkpt lat="41.830791" lon="2.364786">
        <ele>902.823</ele>
        <time>2021-09-25T16:50:24Z</time>
      </trkpt>
      <trkpt lat="41.830819" lon="2.364833">
        <ele>901.608</ele>
        <time>2021-09-25T16:50:33Z</time>
      </trkpt>
      <trkpt lat="41.830835" lon="2.364902">
        <ele>901.183</ele>
        <time>2021-09-25T16:50:37Z</time>
      </trkpt>
      <trkpt lat="41.830873" lon="2.364937">
        <ele>900.039</ele>
        <time>2021-09-25T16:50:48Z</time>
      </trkpt>
      <trkpt lat="41.830921" lon="2.364961">
        <ele>899.572</ele>
        <time>2021-09-25T16:50:59Z</time>
      </trkpt>
      <trkpt lat="41.830967" lon="2.364980">
        <ele>899.280</ele>
        <time>2021-09-25T16:51:06Z</time>
      </trkpt>
      <trkpt lat="41.831013" lon="2.364996">
        <ele>898.063</ele>
        <time>2021-09-25T16:51:13Z</time>
      </trkpt>
      <trkpt lat="41.831059" lon="2.364998">
        <ele>897.497</ele>
        <time>2021-09-25T16:51:19Z</time>
      </trkpt>
      <trkpt lat="41.831104" lon="2.365000">
        <ele>896.892</ele>
        <time>2021-09-25T16:51:24Z</time>
      </trkpt>
      <trkpt lat="41.831118" lon="2.365072">
        <ele>895.762</ele>
        <time>2021-09-25T16:51:27Z</time>
      </trkpt>
      <trkpt lat="41.831138" lon="2.365130">
        <ele>894.759</ele>
        <time>2021-09-25T16:51:32Z</time>
      </trkpt>
      <trkpt lat="41.831190" lon="2.365143">
        <ele>893.603</ele>
        <time>2021-09-25T16:51:37Z</time>
      </trkpt>
      <trkpt lat="41.831241" lon="2.365156">
        <ele>892.923</ele>
        <time>2021-09-25T16:51:40Z</time>
      </trkpt>
      <trkpt lat="41.831279" lon="2.365217">
        <ele>892.208</ele>
        <time>2021-09-25T16:51:46Z</time>
      </trkpt>
      <trkpt lat="41.831317" lon="2.365252">
        <ele>891.483</ele>
        <time>2021-09-25T16:51:50Z</time>
      </trkpt>
      <trkpt lat="41.831350" lon="2.365321">
        <ele>890.839</ele>
        <time>2021-09-25T16:51:57Z</time>
      </trkpt>
      <trkpt lat="41.831390" lon="2.365354">
        <ele>890.632</ele>
        <time>2021-09-25T16:51:58Z</time>
      </trkpt>
      <trkpt lat="41.831414" lon="2.365273">
        <ele>889.750</ele>
        <time>2021-09-25T16:52:03Z</time>
      </trkpt>
      <trkpt lat="41.831459" lon="2.365299">
        <ele>889.263</ele>
        <time>2021-09-25T16:52:07Z</time>
      </trkpt>
      <trkpt lat="41.831468" lon="2.365236">
        <ele>888.997</ele>
        <time>2021-09-25T16:52:16Z</time>
      </trkpt>
      <trkpt lat="41.831498" lon="2.365190">
        <ele>888.562</ele>
        <time>2021-09-25T16:52:21Z</time>
      </trkpt>
      <trkpt lat="41.831543" lon="2.365170">
        <ele>888.152</ele>
        <time>2021-09-25T16:52:24Z</time>
      </trkpt>
      <trkpt lat="41.831597" lon="2.365196">
        <ele>887.449</ele>
        <time>2021-09-25T16:52:30Z</time>
      </trkpt>
      <trkpt lat="41.831644" lon="2.365224">
        <ele>886.902</ele>
        <time>2021-09-25T16:52:34Z</time>
      </trkpt>
      <trkpt lat="41.831690" lon="2.365251">
        <ele>886.822</ele>
        <time>2021-09-25T16:52:36Z</time>
      </trkpt>
      <trkpt lat="41.831728" lon="2.365290">
        <ele>886.108</ele>
        <time>2021-09-25T16:52:43Z</time>
      </trkpt>
      <trkpt lat="41.831773" lon="2.365325">
        <ele>885.842</ele>
        <time>2021-09-25T16:52:46Z</time>
      </trkpt>
      <trkpt lat="41.831819" lon="2.365354">
        <ele>885.158</ele>
        <time>2021-09-25T16:52:52Z</time>
      </trkpt>
      <trkpt lat="41.831871" lon="2.365326">
        <ele>884.241</ele>
        <time>2021-09-25T16:53:02Z</time>
      </trkpt>
      <trkpt lat="41.831917" lon="2.365321">
        <ele>884.129</ele>
        <time>2021-09-25T16:53:06Z</time>
      </trkpt>
      <trkpt lat="41.831957" lon="2.365279">
        <ele>883.882</ele>
        <time>2021-09-25T16:53:13Z</time>
      </trkpt>
      <trkpt lat="41.831991" lon="2.365238">
        <ele>883.916</ele>
        <time>2021-09-25T16:53:22Z</time>
      </trkpt>
      <trkpt lat="41.832042" lon="2.365248">
        <ele>884.061</ele>
        <time>2021-09-25T16:53:36Z</time>
      </trkpt>
      <trkpt lat="41.832060" lon="2.365191">
        <ele>884.361</ele>
        <time>2021-09-25T16:53:50Z</time>
      </trkpt>
      <trkpt lat="41.832113" lon="2.365219">
        <ele>884.023</ele>
        <time>2021-09-25T16:54:13Z</time>
      </trkpt>
      <trkpt lat="41.832154" lon="2.365169">
        <ele>884.183</ele>
        <time>2021-09-25T16:54:28Z</time>
      </trkpt>
      <trkpt lat="41.832108" lon="2.365185">
        <ele>884.111</ele>
        <time>2021-09-25T16:54:50Z</time>
      </trkpt>
      <trkpt lat="41.832068" lon="2.365133">
        <ele>884.008</ele>
        <time>2021-09-25T16:54:59Z</time>
      </trkpt>
      <trkpt lat="41.832020" lon="2.365139">
        <ele>883.070</ele>
        <time>2021-09-25T16:55:25Z</time>
      </trkpt>
      <trkpt lat="41.832066" lon="2.365141">
        <ele>882.826</ele>
        <time>2021-09-25T16:56:17Z</time>
      </trkpt>
      <trkpt lat="41.832056" lon="2.365203">
        <ele>882.799</ele>
        <time>2021-09-25T16:56:50Z</time>
      </trkpt>
      <trkpt lat="41.832066" lon="2.365266">
        <ele>882.767</ele>
        <time>2021-09-25T16:56:57Z</time>
      </trkpt>
      <trkpt lat="41.832101" lon="2.365320">
        <ele>882.850</ele>
        <time>2021-09-25T16:57:07Z</time>
      </trkpt>
      <trkpt lat="41.832136" lon="2.365368">
        <ele>882.784</ele>
        <time>2021-09-25T16:57:18Z</time>
      </trkpt>
      <trkpt lat="41.832148" lon="2.365427">
        <ele>882.959</ele>
        <time>2021-09-25T16:57:24Z</time>
      </trkpt>
      <trkpt lat="41.832186" lon="2.365472">
        <ele>882.619</ele>
        <time>2021-09-25T16:57:35Z</time>
      </trkpt>
      <trkpt lat="41.832234" lon="2.365485">
        <ele>881.745</ele>
        <time>2021-09-25T16:57:52Z</time>
      </trkpt>
      <trkpt lat="41.832279" lon="2.365514">
        <ele>880.847</ele>
        <time>2021-09-25T16:57:56Z</time>
      </trkpt>
      <trkpt lat="41.832310" lon="2.365560">
        <ele>880.211</ele>
        <time>2021-09-25T16:58:01Z</time>
      </trkpt>
      <trkpt lat="41.832353" lon="2.365600">
        <ele>878.908</ele>
        <time>2021-09-25T16:58:08Z</time>
      </trkpt>
      <trkpt lat="41.832383" lon="2.365651">
        <ele>878.242</ele>
        <time>2021-09-25T16:58:14Z</time>
      </trkpt>
      <trkpt lat="41.832427" lon="2.365691">
        <ele>876.748</ele>
        <time>2021-09-25T16:58:23Z</time>
      </trkpt>
      <trkpt lat="41.832463" lon="2.365739">
        <ele>875.931</ele>
        <time>2021-09-25T16:58:27Z</time>
      </trkpt>
      <trkpt lat="41.832495" lon="2.365782">
        <ele>875.529</ele>
        <time>2021-09-25T16:58:32Z</time>
      </trkpt>
      <trkpt lat="41.832531" lon="2.365834">
        <ele>875.142</ele>
        <time>2021-09-25T16:58:37Z</time>
      </trkpt>
      <trkpt lat="41.832553" lon="2.365890">
        <ele>874.766</ele>
        <time>2021-09-25T16:58:41Z</time>
      </trkpt>
      <trkpt lat="41.832577" lon="2.365947">
        <ele>873.971</ele>
        <time>2021-09-25T16:58:46Z</time>
      </trkpt>
      <trkpt lat="41.832600" lon="2.366005">
        <ele>872.321</ele>
        <time>2021-09-25T16:59:37Z</time>
      </trkpt>
      <trkpt lat="41.832615" lon="2.366074">
        <ele>872.261</ele>
        <time>2021-09-25T16:59:41Z</time>
      </trkpt>
      <trkpt lat="41.832635" lon="2.366134">
        <ele>872.021</ele>
        <time>2021-09-25T16:59:46Z</time>
      </trkpt>
      <trkpt lat="41.832669" lon="2.366178">
        <ele>871.813</ele>
        <time>2021-09-25T16:59:52Z</time>
      </trkpt>
      <trkpt lat="41.832698" lon="2.366244">
        <ele>871.108</ele>
        <time>2021-09-25T16:59:58Z</time>
      </trkpt>
      <trkpt lat="41.832739" lon="2.366280">
        <ele>868.994</ele>
        <time>2021-09-25T17:00:04Z</time>
      </trkpt>
      <trkpt lat="41.832787" lon="2.366305">
        <ele>867.950</ele>
        <time>2021-09-25T17:00:09Z</time>
      </trkpt>
      <trkpt lat="41.832835" lon="2.366312">
        <ele>866.633</ele>
        <time>2021-09-25T17:00:20Z</time>
      </trkpt>
      <trkpt lat="41.832880" lon="2.366330">
        <ele>866.381</ele>
        <time>2021-09-25T17:00:26Z</time>
      </trkpt>
      <trkpt lat="41.832924" lon="2.366360">
        <ele>866.074</ele>
        <time>2021-09-25T17:00:30Z</time>
      </trkpt>
      <trkpt lat="41.832963" lon="2.366326">
        <ele>865.978</ele>
        <time>2021-09-25T17:00:39Z</time>
      </trkpt>
      <trkpt lat="41.832999" lon="2.366269">
        <ele>865.913</ele>
        <time>2021-09-25T17:00:44Z</time>
      </trkpt>
      <trkpt lat="41.833046" lon="2.366246">
        <ele>866.523</ele>
        <time>2021-09-25T17:01:01Z</time>
      </trkpt>
      <trkpt lat="41.833072" lon="2.366188">
        <ele>866.724</ele>
        <time>2021-09-25T17:01:07Z</time>
      </trkpt>
      <trkpt lat="41.833119" lon="2.366144">
        <ele>867.104</ele>
        <time>2021-09-25T17:01:14Z</time>
      </trkpt>
      <trkpt lat="41.833142" lon="2.366076">
        <ele>867.514</ele>
        <time>2021-09-25T17:01:19Z</time>
      </trkpt>
      <trkpt lat="41.833163" lon="2.366010">
        <ele>867.708</ele>
        <time>2021-09-25T17:01:23Z</time>
      </trkpt>
      <trkpt lat="41.833181" lon="2.365941">
        <ele>867.530</ele>
        <time>2021-09-25T17:01:29Z</time>
      </trkpt>
      <trkpt lat="41.833205" lon="2.365885">
        <ele>866.526</ele>
        <time>2021-09-25T17:01:37Z</time>
      </trkpt>
      <trkpt lat="41.833235" lon="2.365837">
        <ele>865.929</ele>
        <time>2021-09-25T17:01:42Z</time>
      </trkpt>
      <trkpt lat="41.833243" lon="2.365767">
        <ele>865.337</ele>
        <time>2021-09-25T17:01:46Z</time>
      </trkpt>
      <trkpt lat="41.833262" lon="2.365711">
        <ele>864.620</ele>
        <time>2021-09-25T17:01:55Z</time>
      </trkpt>
      <trkpt lat="41.833305" lon="2.365681">
        <ele>863.924</ele>
        <time>2021-09-25T17:01:59Z</time>
      </trkpt>
      <trkpt lat="41.833354" lon="2.365682">
        <ele>862.599</ele>
        <time>2021-09-25T17:02:10Z</time>
      </trkpt>
      <trkpt lat="41.833400" lon="2.365668">
        <ele>862.199</ele>
        <time>2021-09-25T17:02:18Z</time>
      </trkpt>
      <trkpt lat="41.833433" lon="2.365625">
        <ele>862.042</ele>
        <time>2021-09-25T17:02:23Z</time>
      </trkpt>
      <trkpt lat="41.833489" lon="2.365611">
        <ele>861.822</ele>
        <time>2021-09-25T17:02:30Z</time>
      </trkpt>
      <trkpt lat="41.833543" lon="2.365608">
        <ele>861.614</ele>
        <time>2021-09-25T17:02:34Z</time>
      </trkpt>
      <trkpt lat="41.833588" lon="2.365606">
        <ele>861.508</ele>
        <time>2021-09-25T17:02:41Z</time>
      </trkpt>
      <trkpt lat="41.833652" lon="2.365621">
        <ele>861.382</ele>
        <time>2021-09-25T17:02:45Z</time>
      </trkpt>
      <trkpt lat="41.833701" lon="2.365630">
        <ele>861.258</ele>
        <time>2021-09-25T17:02:48Z</time>
      </trkpt>
      <trkpt lat="41.833754" lon="2.365619">
        <ele>860.871</ele>
        <time>2021-09-25T17:02:53Z</time>
      </trkpt>
      <trkpt lat="41.833807" lon="2.365617">
        <ele>860.289</ele>
        <time>2021-09-25T17:02:57Z</time>
      </trkpt>
      <trkpt lat="41.833870" lon="2.365619">
        <ele>859.452</ele>
        <time>2021-09-25T17:03:03Z</time>
      </trkpt>
      <trkpt lat="41.833934" lon="2.365606">
        <ele>859.196</ele>
        <time>2021-09-25T17:03:07Z</time>
      </trkpt>
      <trkpt lat="41.833987" lon="2.365597">
        <ele>858.071</ele>
        <time>2021-09-25T17:03:13Z</time>
      </trkpt>
      <trkpt lat="41.834035" lon="2.365599">
        <ele>857.731</ele>
        <time>2021-09-25T17:03:19Z</time>
      </trkpt>
      <trkpt lat="41.834093" lon="2.365608">
        <ele>857.016</ele>
        <time>2021-09-25T17:03:22Z</time>
      </trkpt>
      <trkpt lat="41.834143" lon="2.365606">
        <ele>856.876</ele>
        <time>2021-09-25T17:03:25Z</time>
      </trkpt>
      <trkpt lat="41.834178" lon="2.365566">
        <ele>856.213</ele>
        <time>2021-09-25T17:03:33Z</time>
      </trkpt>
      <trkpt lat="41.834224" lon="2.365571">
        <ele>855.708</ele>
        <time>2021-09-25T17:03:44Z</time>
      </trkpt>
      <trkpt lat="41.834278" lon="2.365561">
        <ele>855.629</ele>
        <time>2021-09-25T17:03:50Z</time>
      </trkpt>
      <trkpt lat="41.834330" lon="2.365541">
        <ele>855.515</ele>
        <time>2021-09-25T17:03:54Z</time>
      </trkpt>
      <trkpt lat="41.834380" lon="2.365545">
        <ele>855.458</ele>
        <time>2021-09-25T17:03:59Z</time>
      </trkpt>
      <trkpt lat="41.834426" lon="2.365545">
        <ele>855.346</ele>
        <time>2021-09-25T17:04:03Z</time>
      </trkpt>
      <trkpt lat="41.834473" lon="2.365542">
        <ele>855.049</ele>
        <time>2021-09-25T17:04:08Z</time>
      </trkpt>
      <trkpt lat="41.834524" lon="2.365534">
        <ele>855.023</ele>
        <time>2021-09-25T17:04:12Z</time>
      </trkpt>
      <trkpt lat="41.834576" lon="2.365523">
        <ele>855.098</ele>
        <time>2021-09-25T17:04:17Z</time>
      </trkpt>
      <trkpt lat="41.834623" lon="2.365510">
        <ele>855.118</ele>
        <time>2021-09-25T17:04:23Z</time>
      </trkpt>
      <trkpt lat="41.834672" lon="2.365499">
        <ele>855.294</ele>
        <time>2021-09-25T17:04:27Z</time>
      </trkpt>
      <trkpt lat="41.834712" lon="2.365470">
        <ele>855.357</ele>
        <time>2021-09-25T17:04:30Z</time>
      </trkpt>
      <trkpt lat="41.834762" lon="2.365450">
        <ele>855.822</ele>
        <time>2021-09-25T17:04:37Z</time>
      </trkpt>
      <trkpt lat="41.834819" lon="2.365443">
        <ele>856.008</ele>
        <time>2021-09-25T17:04:42Z</time>
      </trkpt>
      <trkpt lat="41.834864" lon="2.365448">
        <ele>856.267</ele>
        <time>2021-09-25T17:04:46Z</time>
      </trkpt>
      <trkpt lat="41.834909" lon="2.365457">
        <ele>856.743</ele>
        <time>2021-09-25T17:04:53Z</time>
      </trkpt>
      <trkpt lat="41.834970" lon="2.365449">
        <ele>856.846</ele>
        <time>2021-09-25T17:04:57Z</time>
      </trkpt>
      <trkpt lat="41.835017" lon="2.365467">
        <ele>857.134</ele>
        <time>2021-09-25T17:05:01Z</time>
      </trkpt>
      <trkpt lat="41.835069" lon="2.365475">
        <ele>857.427</ele>
        <time>2021-09-25T17:05:08Z</time>
      </trkpt>
      <trkpt lat="41.835116" lon="2.365479">
        <ele>857.671</ele>
        <time>2021-09-25T17:05:14Z</time>
      </trkpt>
      <trkpt lat="41.835164" lon="2.365485">
        <ele>857.836</ele>
        <time>2021-09-25T17:05:20Z</time>
      </trkpt>
      <trkpt lat="41.835215" lon="2.365482">
        <ele>857.816</ele>
        <time>2021-09-25T17:05:24Z</time>
      </trkpt>
      <trkpt lat="41.835261" lon="2.365487">
        <ele>857.857</ele>
        <time>2021-09-25T17:05:28Z</time>
      </trkpt>
      <trkpt lat="41.835306" lon="2.365518">
        <ele>857.800</ele>
        <time>2021-09-25T17:05:32Z</time>
      </trkpt>
      <trkpt lat="41.835352" lon="2.365534">
        <ele>857.520</ele>
        <time>2021-09-25T17:05:36Z</time>
      </trkpt>
      <trkpt lat="41.835397" lon="2.365545">
        <ele>857.208</ele>
        <time>2021-09-25T17:05:43Z</time>
      </trkpt>
      <trkpt lat="41.835444" lon="2.365549">
        <ele>857.043</ele>
        <time>2021-09-25T17:05:48Z</time>
      </trkpt>
      <trkpt lat="41.835488" lon="2.365560">
        <ele>856.889</ele>
        <time>2021-09-25T17:05:53Z</time>
      </trkpt>
      <trkpt lat="41.835540" lon="2.365553">
        <ele>856.782</ele>
        <time>2021-09-25T17:05:57Z</time>
      </trkpt>
      <trkpt lat="41.835586" lon="2.365574">
        <ele>856.620</ele>
        <time>2021-09-25T17:06:01Z</time>
      </trkpt>
      <trkpt lat="41.835637" lon="2.365569">
        <ele>856.583</ele>
        <time>2021-09-25T17:06:07Z</time>
      </trkpt>
      <trkpt lat="41.835682" lon="2.365595">
        <ele>856.527</ele>
        <time>2021-09-25T17:06:14Z</time>
      </trkpt>
      <trkpt lat="41.835727" lon="2.365609">
        <ele>856.482</ele>
        <time>2021-09-25T17:06:18Z</time>
      </trkpt>
      <trkpt lat="41.835774" lon="2.365637">
        <ele>856.492</ele>
        <time>2021-09-25T17:06:22Z</time>
      </trkpt>
      <trkpt lat="41.835819" lon="2.365648">
        <ele>856.384</ele>
        <time>2021-09-25T17:06:27Z</time>
      </trkpt>
      <trkpt lat="41.835860" lon="2.365688">
        <ele>856.207</ele>
        <time>2021-09-25T17:06:31Z</time>
      </trkpt>
      <trkpt lat="41.835897" lon="2.365728">
        <ele>856.017</ele>
        <time>2021-09-25T17:06:35Z</time>
      </trkpt>
      <trkpt lat="41.835932" lon="2.365773">
        <ele>855.808</ele>
        <time>2021-09-25T17:06:41Z</time>
      </trkpt>
      <trkpt lat="41.835963" lon="2.365822">
        <ele>855.216</ele>
        <time>2021-09-25T17:06:47Z</time>
      </trkpt>
      <trkpt lat="41.835994" lon="2.365872">
        <ele>854.882</ele>
        <time>2021-09-25T17:06:52Z</time>
      </trkpt>
      <trkpt lat="41.836019" lon="2.365937">
        <ele>854.315</ele>
        <time>2021-09-25T17:06:58Z</time>
      </trkpt>
      <trkpt lat="41.836047" lon="2.365992">
        <ele>853.963</ele>
        <time>2021-09-25T17:07:04Z</time>
      </trkpt>
      <trkpt lat="41.836057" lon="2.366055">
        <ele>853.536</ele>
        <time>2021-09-25T17:07:09Z</time>
      </trkpt>
      <trkpt lat="41.836089" lon="2.366112">
        <ele>853.180</ele>
        <time>2021-09-25T17:07:15Z</time>
      </trkpt>
      <trkpt lat="41.836122" lon="2.366166">
        <ele>853.035</ele>
        <time>2021-09-25T17:07:20Z</time>
      </trkpt>
      <trkpt lat="41.836163" lon="2.366203">
        <ele>853.145</ele>
        <time>2021-09-25T17:07:26Z</time>
      </trkpt>
      <trkpt lat="41.836204" lon="2.366246">
        <ele>853.318</ele>
        <time>2021-09-25T17:07:31Z</time>
      </trkpt>
      <trkpt lat="41.836252" lon="2.366266">
        <ele>853.898</ele>
        <time>2021-09-25T17:07:37Z</time>
      </trkpt>
      <trkpt lat="41.836310" lon="2.366296">
        <ele>853.917</ele>
        <time>2021-09-25T17:07:41Z</time>
      </trkpt>
      <trkpt lat="41.836367" lon="2.366307">
        <ele>854.308</ele>
        <time>2021-09-25T17:07:44Z</time>
      </trkpt>
      <trkpt lat="41.836411" lon="2.366289">
        <ele>854.659</ele>
        <time>2021-09-25T17:07:48Z</time>
      </trkpt>
      <trkpt lat="41.836460" lon="2.366272">
        <ele>855.285</ele>
        <time>2021-09-25T17:07:59Z</time>
      </trkpt>
      <trkpt lat="41.836506" lon="2.366258">
        <ele>855.628</ele>
        <time>2021-09-25T17:08:03Z</time>
      </trkpt>
      <trkpt lat="41.836558" lon="2.366254">
        <ele>856.026</ele>
        <time>2021-09-25T17:08:07Z</time>
      </trkpt>
      <trkpt lat="41.836604" lon="2.366264">
        <ele>856.549</ele>
        <time>2021-09-25T17:08:13Z</time>
      </trkpt>
      <trkpt lat="41.836633" lon="2.366217">
        <ele>856.693</ele>
        <time>2021-09-25T17:08:30Z</time>
      </trkpt>
      <trkpt lat="41.836679" lon="2.366197">
        <ele>856.778</ele>
        <time>2021-09-25T17:08:53Z</time>
      </trkpt>
      <trkpt lat="41.836729" lon="2.366213">
        <ele>856.798</ele>
        <time>2021-09-25T17:08:58Z</time>
      </trkpt>
      <trkpt lat="41.836782" lon="2.366227">
        <ele>856.829</ele>
        <time>2021-09-25T17:09:06Z</time>
      </trkpt>
      <trkpt lat="41.836832" lon="2.366256">
        <ele>857.000</ele>
        <time>2021-09-25T17:09:13Z</time>
      </trkpt>
      <trkpt lat="41.836873" lon="2.366288">
        <ele>857.220</ele>
        <time>2021-09-25T17:09:19Z</time>
      </trkpt>
      <trkpt lat="41.836915" lon="2.366310">
        <ele>857.508</ele>
        <time>2021-09-25T17:09:26Z</time>
      </trkpt>
      <trkpt lat="41.836970" lon="2.366329">
        <ele>857.570</ele>
        <time>2021-09-25T17:09:32Z</time>
      </trkpt>
      <trkpt lat="41.837012" lon="2.366368">
        <ele>857.526</ele>
        <time>2021-09-25T17:09:36Z</time>
      </trkpt>
      <trkpt lat="41.837056" lon="2.366400">
        <ele>857.539</ele>
        <time>2021-09-25T17:09:41Z</time>
      </trkpt>
      <trkpt lat="41.837105" lon="2.366435">
        <ele>857.667</ele>
        <time>2021-09-25T17:09:47Z</time>
      </trkpt>
      <trkpt lat="41.837153" lon="2.366459">
        <ele>858.090</ele>
        <time>2021-09-25T17:09:52Z</time>
      </trkpt>
      <trkpt lat="41.837199" lon="2.366470">
        <ele>858.224</ele>
        <time>2021-09-25T17:09:56Z</time>
      </trkpt>
      <trkpt lat="41.837248" lon="2.366485">
        <ele>858.349</ele>
        <time>2021-09-25T17:10:00Z</time>
      </trkpt>
      <trkpt lat="41.837298" lon="2.366487">
        <ele>858.369</ele>
        <time>2021-09-25T17:10:05Z</time>
      </trkpt>
      <trkpt lat="41.837344" lon="2.366473">
        <ele>858.327</ele>
        <time>2021-09-25T17:10:09Z</time>
      </trkpt>
      <trkpt lat="41.837397" lon="2.366489">
        <ele>858.168</ele>
        <time>2021-09-25T17:10:13Z</time>
      </trkpt>
      <trkpt lat="41.837445" lon="2.366501">
        <ele>857.614</ele>
        <time>2021-09-25T17:10:19Z</time>
      </trkpt>
      <trkpt lat="41.837498" lon="2.366520">
        <ele>857.208</ele>
        <time>2021-09-25T17:10:23Z</time>
      </trkpt>
      <trkpt lat="41.837547" lon="2.366536">
        <ele>856.990</ele>
        <time>2021-09-25T17:10:28Z</time>
      </trkpt>
      <trkpt lat="41.837585" lon="2.366584">
        <ele>856.616</ele>
        <time>2021-09-25T17:10:32Z</time>
      </trkpt>
      <trkpt lat="41.837628" lon="2.366608">
        <ele>856.319</ele>
        <time>2021-09-25T17:10:37Z</time>
      </trkpt>
      <trkpt lat="41.837671" lon="2.366640">
        <ele>856.197</ele>
        <time>2021-09-25T17:10:41Z</time>
      </trkpt>
      <trkpt lat="41.837718" lon="2.366654">
        <ele>855.580</ele>
        <time>2021-09-25T17:10:48Z</time>
      </trkpt>
      <trkpt lat="41.837775" lon="2.366659">
        <ele>855.054</ele>
        <time>2021-09-25T17:10:56Z</time>
      </trkpt>
      <trkpt lat="41.837820" lon="2.366661">
        <ele>855.039</ele>
        <time>2021-09-25T17:10:59Z</time>
      </trkpt>
      <trkpt lat="41.837877" lon="2.366661">
        <ele>854.919</ele>
        <time>2021-09-25T17:11:03Z</time>
      </trkpt>
      <trkpt lat="41.837922" lon="2.366661">
        <ele>854.897</ele>
        <time>2021-09-25T17:11:07Z</time>
      </trkpt>
      <trkpt lat="41.837974" lon="2.366667">
        <ele>854.723</ele>
        <time>2021-09-25T17:11:13Z</time>
      </trkpt>
      <trkpt lat="41.838021" lon="2.366673">
        <ele>854.325</ele>
        <time>2021-09-25T17:11:18Z</time>
      </trkpt>
      <trkpt lat="41.838076" lon="2.366682">
        <ele>853.508</ele>
        <time>2021-09-25T17:11:25Z</time>
      </trkpt>
      <trkpt lat="41.838130" lon="2.366703">
        <ele>853.227</ele>
        <time>2021-09-25T17:11:31Z</time>
      </trkpt>
      <trkpt lat="41.838174" lon="2.366718">
        <ele>852.843</ele>
        <time>2021-09-25T17:11:36Z</time>
      </trkpt>
      <trkpt lat="41.838229" lon="2.366720">
        <ele>852.266</ele>
        <time>2021-09-25T17:11:41Z</time>
      </trkpt>
      <trkpt lat="41.838289" lon="2.366729">
        <ele>851.714</ele>
        <time>2021-09-25T17:11:46Z</time>
      </trkpt>
      <trkpt lat="41.838344" lon="2.366752">
        <ele>851.247</ele>
        <time>2021-09-25T17:11:50Z</time>
      </trkpt>
      <trkpt lat="41.838390" lon="2.366772">
        <ele>850.691</ele>
        <time>2021-09-25T17:11:54Z</time>
      </trkpt>
      <trkpt lat="41.838433" lon="2.366794">
        <ele>850.236</ele>
        <time>2021-09-25T17:11:58Z</time>
      </trkpt>
      <trkpt lat="41.838481" lon="2.366813">
        <ele>849.966</ele>
        <time>2021-09-25T17:12:02Z</time>
      </trkpt>
      <trkpt lat="41.838525" lon="2.366836">
        <ele>849.585</ele>
        <time>2021-09-25T17:12:07Z</time>
      </trkpt>
      <trkpt lat="41.838572" lon="2.366878">
        <ele>848.989</ele>
        <time>2021-09-25T17:12:12Z</time>
      </trkpt>
      <trkpt lat="41.838619" lon="2.366898">
        <ele>848.617</ele>
        <time>2021-09-25T17:12:18Z</time>
      </trkpt>
      <trkpt lat="41.838674" lon="2.366907">
        <ele>847.608</ele>
        <time>2021-09-25T17:12:24Z</time>
      </trkpt>
      <trkpt lat="41.838725" lon="2.366923">
        <ele>846.876</ele>
        <time>2021-09-25T17:12:29Z</time>
      </trkpt>
      <trkpt lat="41.838778" lon="2.366921">
        <ele>846.072</ele>
        <time>2021-09-25T17:12:36Z</time>
      </trkpt>
      <trkpt lat="41.838826" lon="2.366934">
        <ele>845.835</ele>
        <time>2021-09-25T17:12:40Z</time>
      </trkpt>
      <trkpt lat="41.838878" lon="2.366940">
        <ele>845.423</ele>
        <time>2021-09-25T17:12:44Z</time>
      </trkpt>
      <trkpt lat="41.838924" lon="2.366950">
        <ele>845.046</ele>
        <time>2021-09-25T17:12:49Z</time>
      </trkpt>
      <trkpt lat="41.838973" lon="2.366957">
        <ele>843.910</ele>
        <time>2021-09-25T17:13:56Z</time>
      </trkpt>
      <trkpt lat="41.839018" lon="2.366986">
        <ele>843.965</ele>
        <time>2021-09-25T17:14:04Z</time>
      </trkpt>
      <trkpt lat="41.839070" lon="2.366975">
        <ele>843.885</ele>
        <time>2021-09-25T17:14:11Z</time>
      </trkpt>
      <trkpt lat="41.839117" lon="2.366963">
        <ele>843.873</ele>
        <time>2021-09-25T17:14:17Z</time>
      </trkpt>
      <trkpt lat="41.839165" lon="2.366955">
        <ele>843.885</ele>
        <time>2021-09-25T17:14:20Z</time>
      </trkpt>
      <trkpt lat="41.839212" lon="2.366961">
        <ele>843.813</ele>
        <time>2021-09-25T17:14:25Z</time>
      </trkpt>
      <trkpt lat="41.839252" lon="2.366994">
        <ele>841.208</ele>
        <time>2021-09-25T17:14:32Z</time>
      </trkpt>
      <trkpt lat="41.839301" lon="2.367026">
        <ele>840.635</ele>
        <time>2021-09-25T17:14:41Z</time>
      </trkpt>
      <trkpt lat="41.839336" lon="2.367065">
        <ele>840.031</ele>
        <time>2021-09-25T17:14:50Z</time>
      </trkpt>
      <trkpt lat="41.839379" lon="2.367083">
        <ele>839.764</ele>
        <time>2021-09-25T17:14:53Z</time>
      </trkpt>
      <trkpt lat="41.839426" lon="2.367112">
        <ele>839.672</ele>
        <time>2021-09-25T17:14:59Z</time>
      </trkpt>
      <trkpt lat="41.839466" lon="2.367161">
        <ele>839.375</ele>
        <time>2021-09-25T17:15:09Z</time>
      </trkpt>
      <trkpt lat="41.839496" lon="2.367215">
        <ele>839.399</ele>
        <time>2021-09-25T17:15:13Z</time>
      </trkpt>
      <trkpt lat="41.839529" lon="2.367260">
        <ele>839.984</ele>
        <time>2021-09-25T17:15:25Z</time>
      </trkpt>
      <trkpt lat="41.839565" lon="2.367314">
        <ele>840.594</ele>
        <time>2021-09-25T17:15:33Z</time>
      </trkpt>
      <trkpt lat="41.839614" lon="2.367350">
        <ele>840.914</ele>
        <time>2021-09-25T17:15:38Z</time>
      </trkpt>
      <trkpt lat="41.839650" lon="2.367400">
        <ele>841.154</ele>
        <time>2021-09-25T17:15:42Z</time>
      </trkpt>
      <trkpt lat="41.839693" lon="2.367442">
        <ele>841.209</ele>
        <time>2021-09-25T17:15:46Z</time>
      </trkpt>
      <trkpt lat="41.839734" lon="2.367485">
        <ele>841.208</ele>
        <time>2021-09-25T17:15:51Z</time>
      </trkpt>
      <trkpt lat="41.839764" lon="2.367551">
        <ele>841.189</ele>
        <time>2021-09-25T17:15:57Z</time>
      </trkpt>
      <trkpt lat="41.839800" lon="2.367597">
        <ele>841.055</ele>
        <time>2021-09-25T17:16:05Z</time>
      </trkpt>
      <trkpt lat="41.839835" lon="2.367643">
        <ele>840.758</ele>
        <time>2021-09-25T17:16:10Z</time>
      </trkpt>
      <trkpt lat="41.839857" lon="2.367708">
        <ele>840.456</ele>
        <time>2021-09-25T17:16:15Z</time>
      </trkpt>
      <trkpt lat="41.839889" lon="2.367769">
        <ele>840.299</ele>
        <time>2021-09-25T17:16:23Z</time>
      </trkpt>
      <trkpt lat="41.839913" lon="2.367839">
        <ele>840.233</ele>
        <time>2021-09-25T17:16:28Z</time>
      </trkpt>
      <trkpt lat="41.839948" lon="2.367891">
        <ele>840.218</ele>
        <time>2021-09-25T17:16:33Z</time>
      </trkpt>
      <trkpt lat="41.839979" lon="2.367950">
        <ele>840.398</ele>
        <time>2021-09-25T17:16:41Z</time>
      </trkpt>
      <trkpt lat="41.839988" lon="2.368027">
        <ele>840.492</ele>
        <time>2021-09-25T17:16:49Z</time>
      </trkpt>
      <trkpt lat="41.840024" lon="2.368075">
        <ele>840.673</ele>
        <time>2021-09-25T17:16:53Z</time>
      </trkpt>
      <trkpt lat="41.840053" lon="2.368135">
        <ele>840.920</ele>
        <time>2021-09-25T17:16:58Z</time>
      </trkpt>
      <trkpt lat="41.840089" lon="2.368185">
        <ele>841.208</ele>
        <time>2021-09-25T17:17:05Z</time>
      </trkpt>
      <trkpt lat="41.840119" lon="2.368232">
        <ele>841.517</ele>
        <time>2021-09-25T17:17:11Z</time>
      </trkpt>
      <trkpt lat="41.840148" lon="2.368284">
        <ele>842.013</ele>
        <time>2021-09-25T17:17:17Z</time>
      </trkpt>
      <trkpt lat="41.840175" lon="2.368346">
        <ele>842.116</ele>
        <time>2021-09-25T17:17:22Z</time>
      </trkpt>
      <trkpt lat="41.840203" lon="2.368402">
        <ele>842.384</ele>
        <time>2021-09-25T17:17:29Z</time>
      </trkpt>
      <trkpt lat="41.840239" lon="2.368440">
        <ele>842.617</ele>
        <time>2021-09-25T17:17:34Z</time>
      </trkpt>
      <trkpt lat="41.840277" lon="2.368474">
        <ele>843.211</ele>
        <time>2021-09-25T17:17:38Z</time>
      </trkpt>
      <trkpt lat="41.840324" lon="2.368505">
        <ele>843.476</ele>
        <time>2021-09-25T17:17:45Z</time>
      </trkpt>
      <trkpt lat="41.840366" lon="2.368544">
        <ele>843.676</ele>
        <time>2021-09-25T17:17:52Z</time>
      </trkpt>
      <trkpt lat="41.840407" lon="2.368575">
        <ele>843.861</ele>
        <time>2021-09-25T17:18:01Z</time>
      </trkpt>
      <trkpt lat="41.840449" lon="2.368625">
        <ele>844.021</ele>
        <time>2021-09-25T17:18:06Z</time>
      </trkpt>
      <trkpt lat="41.840486" lon="2.368669">
        <ele>844.213</ele>
        <time>2021-09-25T17:18:12Z</time>
      </trkpt>
      <trkpt lat="41.840525" lon="2.368704">
        <ele>844.508</ele>
        <time>2021-09-25T17:18:17Z</time>
      </trkpt>
      <trkpt lat="41.840562" lon="2.368745">
        <ele>844.684</ele>
        <time>2021-09-25T17:18:21Z</time>
      </trkpt>
      <trkpt lat="41.840595" lon="2.368788">
        <ele>844.740</ele>
        <time>2021-09-25T17:18:29Z</time>
      </trkpt>
      <trkpt lat="41.840647" lon="2.368786">
        <ele>844.743</ele>
        <time>2021-09-25T17:18:35Z</time>
      </trkpt>
      <trkpt lat="41.840695" lon="2.368806">
        <ele>844.641</ele>
        <time>2021-09-25T17:18:42Z</time>
      </trkpt>
      <trkpt lat="41.840743" lon="2.368854">
        <ele>844.344</ele>
        <time>2021-09-25T17:18:46Z</time>
      </trkpt>
      <trkpt lat="41.840786" lon="2.368887">
        <ele>843.948</ele>
        <time>2021-09-25T17:18:55Z</time>
      </trkpt>
      <trkpt lat="41.840829" lon="2.368916">
        <ele>843.753</ele>
        <time>2021-09-25T17:18:59Z</time>
      </trkpt>
      <trkpt lat="41.840872" lon="2.368958">
        <ele>843.253</ele>
        <time>2021-09-25T17:19:04Z</time>
      </trkpt>
      <trkpt lat="41.840922" lon="2.368988">
        <ele>842.456</ele>
        <time>2021-09-25T17:19:09Z</time>
      </trkpt>
      <trkpt lat="41.840959" lon="2.369032">
        <ele>842.259</ele>
        <time>2021-09-25T17:19:12Z</time>
      </trkpt>
      <trkpt lat="41.840987" lon="2.369082">
        <ele>841.514</ele>
        <time>2021-09-25T17:19:16Z</time>
      </trkpt>
      <trkpt lat="41.841000" lon="2.369153">
        <ele>841.008</ele>
        <time>2021-09-25T17:19:21Z</time>
      </trkpt>
      <trkpt lat="41.841014" lon="2.369216">
        <ele>840.333</ele>
        <time>2021-09-25T17:19:26Z</time>
      </trkpt>
      <trkpt lat="41.841041" lon="2.369283">
        <ele>839.859</ele>
        <time>2021-09-25T17:19:32Z</time>
      </trkpt>
      <trkpt lat="41.841048" lon="2.369351">
        <ele>839.442</ele>
        <time>2021-09-25T17:19:37Z</time>
      </trkpt>
      <trkpt lat="41.841058" lon="2.369428">
        <ele>838.840</ele>
        <time>2021-09-25T17:19:42Z</time>
      </trkpt>
      <trkpt lat="41.841065" lon="2.369495">
        <ele>837.673</ele>
        <time>2021-09-25T17:19:47Z</time>
      </trkpt>
      <trkpt lat="41.841053" lon="2.369558">
        <ele>837.177</ele>
        <time>2021-09-25T17:19:51Z</time>
      </trkpt>
      <trkpt lat="41.841049" lon="2.369629">
        <ele>836.522</ele>
        <time>2021-09-25T17:19:57Z</time>
      </trkpt>
      <trkpt lat="41.841023" lon="2.369691">
        <ele>835.852</ele>
        <time>2021-09-25T17:20:07Z</time>
      </trkpt>
      <trkpt lat="41.841021" lon="2.369754">
        <ele>835.219</ele>
        <time>2021-09-25T17:20:12Z</time>
      </trkpt>
      <trkpt lat="41.841023" lon="2.369825">
        <ele>834.709</ele>
        <time>2021-09-25T17:20:15Z</time>
      </trkpt>
      <trkpt lat="41.841022" lon="2.369903">
        <ele>834.319</ele>
        <time>2021-09-25T17:20:19Z</time>
      </trkpt>
      <trkpt lat="41.841030" lon="2.369968">
        <ele>834.008</ele>
        <time>2021-09-25T17:20:25Z</time>
      </trkpt>
      <trkpt lat="41.841022" lon="2.370029">
        <ele>833.129</ele>
        <time>2021-09-25T17:20:30Z</time>
      </trkpt>
      <trkpt lat="41.841037" lon="2.370102">
        <ele>832.665</ele>
        <time>2021-09-25T17:20:34Z</time>
      </trkpt>
      <trkpt lat="41.841059" lon="2.370164">
        <ele>832.318</ele>
        <time>2021-09-25T17:20:40Z</time>
      </trkpt>
      <trkpt lat="41.841078" lon="2.370227">
        <ele>831.676</ele>
        <time>2021-09-25T17:20:46Z</time>
      </trkpt>
      <trkpt lat="41.841069" lon="2.370292">
        <ele>831.189</ele>
        <time>2021-09-25T17:20:53Z</time>
      </trkpt>
      <trkpt lat="41.841072" lon="2.370357">
        <ele>830.673</ele>
        <time>2021-09-25T17:20:59Z</time>
      </trkpt>
      <trkpt lat="41.841077" lon="2.370418">
        <ele>830.068</ele>
        <time>2021-09-25T17:21:04Z</time>
      </trkpt>
      <trkpt lat="41.841051" lon="2.370477">
        <ele>829.868</ele>
        <time>2021-09-25T17:21:08Z</time>
      </trkpt>
      <trkpt lat="41.841021" lon="2.370545">
        <ele>829.557</ele>
        <time>2021-09-25T17:21:12Z</time>
      </trkpt>
      <trkpt lat="41.840995" lon="2.370605">
        <ele>829.000</ele>
        <time>2021-09-25T17:21:17Z</time>
      </trkpt>
      <trkpt lat="41.840981" lon="2.370672">
        <ele>828.620</ele>
        <time>2021-09-25T17:21:22Z</time>
      </trkpt>
      <trkpt lat="41.840989" lon="2.370734">
        <ele>828.408</ele>
        <time>2021-09-25T17:21:27Z</time>
      </trkpt>
      <trkpt lat="41.840988" lon="2.370808">
        <ele>827.783</ele>
        <time>2021-09-25T17:21:34Z</time>
      </trkpt>
      <trkpt lat="41.840984" lon="2.370883">
        <ele>827.359</ele>
        <time>2021-09-25T17:21:38Z</time>
      </trkpt>
      <trkpt lat="41.840974" lon="2.370946">
        <ele>827.032</ele>
        <time>2021-09-25T17:21:41Z</time>
      </trkpt>
      <trkpt lat="41.840983" lon="2.371020">
        <ele>826.410</ele>
        <time>2021-09-25T17:21:45Z</time>
      </trkpt>
      <trkpt lat="41.841031" lon="2.371031">
        <ele>825.923</ele>
        <time>2021-09-25T17:21:52Z</time>
      </trkpt>
      <trkpt lat="41.841075" lon="2.371075">
        <ele>825.787</ele>
        <time>2021-09-25T17:21:56Z</time>
      </trkpt>
      <trkpt lat="41.841103" lon="2.371125">
        <ele>825.622</ele>
        <time>2021-09-25T17:22:02Z</time>
      </trkpt>
      <trkpt lat="41.841148" lon="2.371165">
        <ele>825.672</ele>
        <time>2021-09-25T17:22:12Z</time>
      </trkpt>
      <trkpt lat="41.841184" lon="2.371206">
        <ele>825.692</ele>
        <time>2021-09-25T17:22:16Z</time>
      </trkpt>
      <trkpt lat="41.841215" lon="2.371250">
        <ele>825.773</ele>
        <time>2021-09-25T17:22:21Z</time>
      </trkpt>
      <trkpt lat="41.841252" lon="2.371288">
        <ele>826.020</ele>
        <time>2021-09-25T17:22:29Z</time>
      </trkpt>
      <trkpt lat="41.841282" lon="2.371342">
        <ele>826.608</ele>
        <time>2021-09-25T17:22:35Z</time>
      </trkpt>
      <trkpt lat="41.841320" lon="2.371395">
        <ele>826.897</ele>
        <time>2021-09-25T17:22:42Z</time>
      </trkpt>
      <trkpt lat="41.841362" lon="2.371425">
        <ele>826.923</ele>
        <time>2021-09-25T17:22:46Z</time>
      </trkpt>
      <trkpt lat="41.841415" lon="2.371440">
        <ele>827.286</ele>
        <time>2021-09-25T17:22:53Z</time>
      </trkpt>
      <trkpt lat="41.841464" lon="2.371457">
        <ele>827.484</ele>
        <time>2021-09-25T17:23:02Z</time>
      </trkpt>
      <trkpt lat="41.841510" lon="2.371478">
        <ele>828.087</ele>
        <time>2021-09-25T17:23:07Z</time>
      </trkpt>
      <trkpt lat="41.841557" lon="2.371493">
        <ele>828.231</ele>
        <time>2021-09-25T17:23:11Z</time>
      </trkpt>
      <trkpt lat="41.841603" lon="2.371516">
        <ele>828.176</ele>
        <time>2021-09-25T17:23:20Z</time>
      </trkpt>
      <trkpt lat="41.841631" lon="2.371567">
        <ele>828.196</ele>
        <time>2021-09-25T17:23:26Z</time>
      </trkpt>
      <trkpt lat="41.841653" lon="2.371625">
        <ele>827.892</ele>
        <time>2021-09-25T17:23:31Z</time>
      </trkpt>
      <trkpt lat="41.841683" lon="2.371677">
        <ele>827.673</ele>
        <time>2021-09-25T17:23:35Z</time>
      </trkpt>
      <trkpt lat="41.841723" lon="2.371714">
        <ele>827.020</ele>
        <time>2021-09-25T17:23:39Z</time>
      </trkpt>
      <trkpt lat="41.841770" lon="2.371740">
        <ele>826.508</ele>
        <time>2021-09-25T17:23:46Z</time>
      </trkpt>
      <trkpt lat="41.841812" lon="2.371776">
        <ele>826.127</ele>
        <time>2021-09-25T17:23:56Z</time>
      </trkpt>
      <trkpt lat="41.841860" lon="2.371812">
        <ele>825.913</ele>
        <time>2021-09-25T17:24:01Z</time>
      </trkpt>
      <trkpt lat="41.841905" lon="2.371840">
        <ele>825.836</ele>
        <time>2021-09-25T17:24:04Z</time>
      </trkpt>
      <trkpt lat="41.841940" lon="2.371882">
        <ele>825.784</ele>
        <time>2021-09-25T17:24:07Z</time>
      </trkpt>
      <trkpt lat="41.841986" lon="2.371888">
        <ele>825.287</ele>
        <time>2021-09-25T17:24:11Z</time>
      </trkpt>
      <trkpt lat="41.842035" lon="2.371920">
        <ele>825.061</ele>
        <time>2021-09-25T17:24:15Z</time>
      </trkpt>
      <trkpt lat="41.842086" lon="2.371944">
        <ele>824.696</ele>
        <time>2021-09-25T17:24:18Z</time>
      </trkpt>
      <trkpt lat="41.842126" lon="2.371986">
        <ele>824.386</ele>
        <time>2021-09-25T17:24:22Z</time>
      </trkpt>
      <trkpt lat="41.842156" lon="2.372034">
        <ele>824.189</ele>
        <time>2021-09-25T17:24:29Z</time>
      </trkpt>
      <trkpt lat="41.842180" lon="2.372086">
        <ele>823.306</ele>
        <time>2021-09-25T17:24:34Z</time>
      </trkpt>
      <trkpt lat="41.842217" lon="2.372123">
        <ele>822.926</ele>
        <time>2021-09-25T17:24:40Z</time>
      </trkpt>
      <trkpt lat="41.842234" lon="2.372190">
        <ele>822.508</ele>
        <time>2021-09-25T17:24:47Z</time>
      </trkpt>
      <trkpt lat="41.842261" lon="2.372247">
        <ele>822.386</ele>
        <time>2021-09-25T17:24:51Z</time>
      </trkpt>
      <trkpt lat="41.842271" lon="2.372308">
        <ele>821.932</ele>
        <time>2021-09-25T17:24:55Z</time>
      </trkpt>
      <trkpt lat="41.842276" lon="2.372369">
        <ele>821.775</ele>
        <time>2021-09-25T17:25:00Z</time>
      </trkpt>
      <trkpt lat="41.842268" lon="2.372429">
        <ele>821.123</ele>
        <time>2021-09-25T17:25:04Z</time>
      </trkpt>
      <trkpt lat="41.842274" lon="2.372492">
        <ele>820.346</ele>
        <time>2021-09-25T17:25:08Z</time>
      </trkpt>
      <trkpt lat="41.842293" lon="2.372572">
        <ele>819.830</ele>
        <time>2021-09-25T17:25:12Z</time>
      </trkpt>
      <trkpt lat="41.842295" lon="2.372643">
        <ele>819.425</ele>
        <time>2021-09-25T17:25:17Z</time>
      </trkpt>
      <trkpt lat="41.842293" lon="2.372705">
        <ele>818.955</ele>
        <time>2021-09-25T17:25:21Z</time>
      </trkpt>
      <trkpt lat="41.842321" lon="2.372762">
        <ele>818.235</ele>
        <time>2021-09-25T17:25:26Z</time>
      </trkpt>
      <trkpt lat="41.842356" lon="2.372804">
        <ele>816.786</ele>
        <time>2021-09-25T17:25:32Z</time>
      </trkpt>
      <trkpt lat="41.842405" lon="2.372815">
        <ele>815.214</ele>
        <time>2021-09-25T17:25:41Z</time>
      </trkpt>
      <trkpt lat="41.842442" lon="2.372852">
        <ele>814.508</ele>
        <time>2021-09-25T17:25:46Z</time>
      </trkpt>
      <trkpt lat="41.842470" lon="2.372899">
        <ele>813.691</ele>
        <time>2021-09-25T17:25:53Z</time>
      </trkpt>
      <trkpt lat="41.842504" lon="2.372943">
        <ele>812.487</ele>
        <time>2021-09-25T17:26:01Z</time>
      </trkpt>
      <trkpt lat="41.842547" lon="2.372961">
        <ele>811.830</ele>
        <time>2021-09-25T17:26:08Z</time>
      </trkpt>
      <trkpt lat="41.842596" lon="2.372974">
        <ele>811.368</ele>
        <time>2021-09-25T17:26:15Z</time>
      </trkpt>
      <trkpt lat="41.842646" lon="2.372969">
        <ele>810.741</ele>
        <time>2021-09-25T17:26:21Z</time>
      </trkpt>
      <trkpt lat="41.842696" lon="2.372979">
        <ele>810.185</ele>
        <time>2021-09-25T17:26:27Z</time>
      </trkpt>
      <trkpt lat="41.842743" lon="2.372971">
        <ele>809.590</ele>
        <time>2021-09-25T17:26:32Z</time>
      </trkpt>
      <trkpt lat="41.842792" lon="2.372959">
        <ele>808.660</ele>
        <time>2021-09-25T17:26:37Z</time>
      </trkpt>
      <trkpt lat="41.842842" lon="2.372974">
        <ele>808.184</ele>
        <time>2021-09-25T17:26:43Z</time>
      </trkpt>
      <trkpt lat="41.842890" lon="2.372996">
        <ele>807.707</ele>
        <time>2021-09-25T17:26:47Z</time>
      </trkpt>
      <trkpt lat="41.842942" lon="2.373012">
        <ele>807.017</ele>
        <time>2021-09-25T17:26:51Z</time>
      </trkpt>
      <trkpt lat="41.842996" lon="2.373024">
        <ele>806.208</ele>
        <time>2021-09-25T17:26:57Z</time>
      </trkpt>
      <trkpt lat="41.843043" lon="2.373044">
        <ele>805.796</ele>
        <time>2021-09-25T17:27:02Z</time>
      </trkpt>
      <trkpt lat="41.843091" lon="2.373044">
        <ele>804.872</ele>
        <time>2021-09-25T17:27:07Z</time>
      </trkpt>
      <trkpt lat="41.843143" lon="2.373033">
        <ele>804.735</ele>
        <time>2021-09-25T17:27:13Z</time>
      </trkpt>
      <trkpt lat="41.843188" lon="2.373024">
        <ele>804.143</ele>
        <time>2021-09-25T17:27:19Z</time>
      </trkpt>
      <trkpt lat="41.843240" lon="2.373049">
        <ele>803.626</ele>
        <time>2021-09-25T17:27:25Z</time>
      </trkpt>
      <trkpt lat="41.843289" lon="2.373076">
        <ele>802.160</ele>
        <time>2021-09-25T17:27:32Z</time>
      </trkpt>
      <trkpt lat="41.843329" lon="2.373113">
        <ele>801.445</ele>
        <time>2021-09-25T17:27:39Z</time>
      </trkpt>
      <trkpt lat="41.843366" lon="2.373159">
        <ele>800.765</ele>
        <time>2021-09-25T17:27:44Z</time>
      </trkpt>
      <trkpt lat="41.843409" lon="2.373184">
        <ele>800.229</ele>
        <time>2021-09-25T17:27:48Z</time>
      </trkpt>
      <trkpt lat="41.843451" lon="2.373233">
        <ele>799.700</ele>
        <time>2021-09-25T17:27:54Z</time>
      </trkpt>
      <trkpt lat="41.843480" lon="2.373285">
        <ele>799.120</ele>
        <time>2021-09-25T17:28:00Z</time>
      </trkpt>
      <trkpt lat="41.843528" lon="2.373312">
        <ele>798.408</ele>
        <time>2021-09-25T17:28:05Z</time>
      </trkpt>
      <trkpt lat="41.843567" lon="2.373357">
        <ele>797.690</ele>
        <time>2021-09-25T17:28:11Z</time>
      </trkpt>
      <trkpt lat="41.843610" lon="2.373395">
        <ele>796.786</ele>
        <time>2021-09-25T17:28:17Z</time>
      </trkpt>
      <trkpt lat="41.843661" lon="2.373415">
        <ele>796.489</ele>
        <time>2021-09-25T17:28:22Z</time>
      </trkpt>
      <trkpt lat="41.843710" lon="2.373454">
        <ele>796.147</ele>
        <time>2021-09-25T17:28:27Z</time>
      </trkpt>
      <trkpt lat="41.843753" lon="2.373479">
        <ele>795.030</ele>
        <time>2021-09-25T17:28:32Z</time>
      </trkpt>
      <trkpt lat="41.843799" lon="2.373514">
        <ele>793.954</ele>
        <time>2021-09-25T17:28:37Z</time>
      </trkpt>
      <trkpt lat="41.843848" lon="2.373527">
        <ele>792.679</ele>
        <time>2021-09-25T17:28:45Z</time>
      </trkpt>
      <trkpt lat="41.843895" lon="2.373543">
        <ele>792.039</ele>
        <time>2021-09-25T17:28:49Z</time>
      </trkpt>
      <trkpt lat="41.843945" lon="2.373560">
        <ele>791.225</ele>
        <time>2021-09-25T17:28:54Z</time>
      </trkpt>
      <trkpt lat="41.843994" lon="2.373591">
        <ele>790.026</ele>
        <time>2021-09-25T17:29:01Z</time>
      </trkpt>
      <trkpt lat="41.844045" lon="2.373608">
        <ele>789.008</ele>
        <time>2021-09-25T17:29:06Z</time>
      </trkpt>
      <trkpt lat="41.844100" lon="2.373613">
        <ele>788.808</ele>
        <time>2021-09-25T17:29:10Z</time>
      </trkpt>
      <trkpt lat="41.844145" lon="2.373621">
        <ele>788.550</ele>
        <time>2021-09-25T17:29:15Z</time>
      </trkpt>
      <trkpt lat="41.844196" lon="2.373615">
        <ele>787.186</ele>
        <time>2021-09-25T17:29:22Z</time>
      </trkpt>
      <trkpt lat="41.844242" lon="2.373647">
        <ele>786.599</ele>
        <time>2021-09-25T17:29:29Z</time>
      </trkpt>
      <trkpt lat="41.844290" lon="2.373623">
        <ele>786.457</ele>
        <time>2021-09-25T17:29:35Z</time>
      </trkpt>
      <trkpt lat="41.844342" lon="2.373616">
        <ele>786.260</ele>
        <time>2021-09-25T17:29:39Z</time>
      </trkpt>
      <trkpt lat="41.844393" lon="2.373624">
        <ele>785.284</ele>
        <time>2021-09-25T17:29:43Z</time>
      </trkpt>
      <trkpt lat="41.844336" lon="2.373618">
        <ele>783.499</ele>
        <time>2021-09-25T17:29:59Z</time>
      </trkpt>
      <trkpt lat="41.844293" lon="2.373642">
        <ele>783.189</ele>
        <time>2021-09-25T17:30:05Z</time>
      </trkpt>
      <trkpt lat="41.844272" lon="2.373705">
        <ele>782.877</ele>
        <time>2021-09-25T17:30:17Z</time>
      </trkpt>
      <trkpt lat="41.844293" lon="2.373760">
        <ele>782.561</ele>
        <time>2021-09-25T17:30:21Z</time>
      </trkpt>
      <trkpt lat="41.844315" lon="2.373813">
        <ele>782.227</ele>
        <time>2021-09-25T17:30:27Z</time>
      </trkpt>
      <trkpt lat="41.844324" lon="2.373883">
        <ele>782.008</ele>
        <time>2021-09-25T17:30:31Z</time>
      </trkpt>
      <trkpt lat="41.844344" lon="2.373950">
        <ele>781.935</ele>
        <time>2021-09-25T17:30:35Z</time>
      </trkpt>
      <trkpt lat="41.844373" lon="2.374006">
        <ele>781.381</ele>
        <time>2021-09-25T17:30:39Z</time>
      </trkpt>
      <trkpt lat="41.844408" lon="2.374046">
        <ele>780.984</ele>
        <time>2021-09-25T17:30:43Z</time>
      </trkpt>
      <trkpt lat="41.844444" lon="2.374096">
        <ele>780.572</ele>
        <time>2021-09-25T17:30:49Z</time>
      </trkpt>
      <trkpt lat="41.844495" lon="2.374133">
        <ele>780.495</ele>
        <time>2021-09-25T17:30:54Z</time>
      </trkpt>
      <trkpt lat="41.844539" lon="2.374173">
        <ele>780.379</ele>
        <time>2021-09-25T17:31:01Z</time>
      </trkpt>
      <trkpt lat="41.844580" lon="2.374215">
        <ele>780.244</ele>
        <time>2021-09-25T17:31:07Z</time>
      </trkpt>
      <trkpt lat="41.844618" lon="2.374251">
        <ele>780.014</ele>
        <time>2021-09-25T17:31:12Z</time>
      </trkpt>
      <trkpt lat="41.844655" lon="2.374299">
        <ele>779.783</ele>
        <time>2021-09-25T17:31:21Z</time>
      </trkpt>
      <trkpt lat="41.844682" lon="2.374349">
        <ele>779.425</ele>
        <time>2021-09-25T17:31:26Z</time>
      </trkpt>
      <trkpt lat="41.844697" lon="2.374411">
        <ele>778.517</ele>
        <time>2021-09-25T17:31:33Z</time>
      </trkpt>
      <trkpt lat="41.844685" lon="2.374470">
        <ele>777.708</ele>
        <time>2021-09-25T17:31:41Z</time>
      </trkpt>
      <trkpt lat="41.844677" lon="2.374538">
        <ele>776.966</ele>
        <time>2021-09-25T17:31:47Z</time>
      </trkpt>
      <trkpt lat="41.844675" lon="2.374606">
        <ele>775.832</ele>
        <time>2021-09-25T17:31:51Z</time>
      </trkpt>
      <trkpt lat="41.844654" lon="2.374683">
        <ele>775.055</ele>
        <time>2021-09-25T17:31:55Z</time>
      </trkpt>
      <trkpt lat="41.844648" lon="2.374753">
        <ele>774.463</ele>
        <time>2021-09-25T17:31:59Z</time>
      </trkpt>
      <trkpt lat="41.844665" lon="2.374834">
        <ele>773.686</ele>
        <time>2021-09-25T17:32:05Z</time>
      </trkpt>
      <trkpt lat="41.844681" lon="2.374892">
        <ele>772.720</ele>
        <time>2021-09-25T17:32:10Z</time>
      </trkpt>
      <trkpt lat="41.844703" lon="2.374944">
        <ele>772.625</ele>
        <time>2021-09-25T17:32:17Z</time>
      </trkpt>
      <trkpt lat="41.844725" lon="2.375002">
        <ele>772.335</ele>
        <time>2021-09-25T17:32:22Z</time>
      </trkpt>
      <trkpt lat="41.844748" lon="2.375055">
        <ele>771.356</ele>
        <time>2021-09-25T17:32:27Z</time>
      </trkpt>
      <trkpt lat="41.844786" lon="2.375119">
        <ele>770.059</ele>
        <time>2021-09-25T17:32:32Z</time>
      </trkpt>
      <trkpt lat="41.844806" lon="2.375176">
        <ele>769.514</ele>
        <time>2021-09-25T17:32:35Z</time>
      </trkpt>
      <trkpt lat="41.844833" lon="2.375227">
        <ele>768.508</ele>
        <time>2021-09-25T17:32:41Z</time>
      </trkpt>
      <trkpt lat="41.844862" lon="2.375277">
        <ele>767.833</ele>
        <time>2021-09-25T17:32:46Z</time>
      </trkpt>
      <trkpt lat="41.844890" lon="2.375338">
        <ele>767.519</ele>
        <time>2021-09-25T17:32:53Z</time>
      </trkpt>
      <trkpt lat="41.844886" lon="2.375411">
        <ele>766.852</ele>
        <time>2021-09-25T17:33:00Z</time>
      </trkpt>
      <trkpt lat="41.844881" lon="2.375475">
        <ele>766.530</ele>
        <time>2021-09-25T17:33:04Z</time>
      </trkpt>
      <trkpt lat="41.844874" lon="2.375543">
        <ele>766.173</ele>
        <time>2021-09-25T17:33:09Z</time>
      </trkpt>
      <trkpt lat="41.844837" lon="2.375602">
        <ele>765.717</ele>
        <time>2021-09-25T17:33:18Z</time>
      </trkpt>
      <trkpt lat="41.844819" lon="2.375664">
        <ele>765.662</ele>
        <time>2021-09-25T17:33:24Z</time>
      </trkpt>
      <trkpt lat="41.844791" lon="2.375723">
        <ele>765.522</ele>
        <time>2021-09-25T17:33:29Z</time>
      </trkpt>
      <trkpt lat="41.844756" lon="2.375769">
        <ele>764.722</ele>
        <time>2021-09-25T17:33:37Z</time>
      </trkpt>
      <trkpt lat="41.844721" lon="2.375818">
        <ele>764.562</ele>
        <time>2021-09-25T17:33:42Z</time>
      </trkpt>
      <trkpt lat="41.844703" lon="2.375880">
        <ele>764.008</ele>
        <time>2021-09-25T17:33:47Z</time>
      </trkpt>
      <trkpt lat="41.844688" lon="2.375953">
        <ele>763.908</ele>
        <time>2021-09-25T17:33:52Z</time>
      </trkpt>
      <trkpt lat="41.844654" lon="2.375997">
        <ele>763.810</ele>
        <time>2021-09-25T17:33:55Z</time>
      </trkpt>
      <trkpt lat="41.844615" lon="2.376048">
        <ele>763.636</ele>
        <time>2021-09-25T17:33:59Z</time>
      </trkpt>
      <trkpt lat="41.844631" lon="2.376106">
        <ele>763.459</ele>
        <time>2021-09-25T17:34:05Z</time>
      </trkpt>
      <trkpt lat="41.844627" lon="2.376177">
        <ele>763.497</ele>
        <time>2021-09-25T17:34:08Z</time>
      </trkpt>
      <trkpt lat="41.844617" lon="2.376238">
        <ele>763.440</ele>
        <time>2021-09-25T17:34:14Z</time>
      </trkpt>
      <trkpt lat="41.844642" lon="2.376306">
        <ele>763.574</ele>
        <time>2021-09-25T17:34:21Z</time>
      </trkpt>
      <trkpt lat="41.844657" lon="2.376367">
        <ele>763.639</ele>
        <time>2021-09-25T17:34:26Z</time>
      </trkpt>
      <trkpt lat="41.844647" lon="2.376431">
        <ele>763.849</ele>
        <time>2021-09-25T17:34:32Z</time>
      </trkpt>
      <trkpt lat="41.844659" lon="2.376491">
        <ele>763.812</ele>
        <time>2021-09-25T17:34:34Z</time>
      </trkpt>
      <trkpt lat="41.844666" lon="2.376556">
        <ele>763.832</ele>
        <time>2021-09-25T17:34:39Z</time>
      </trkpt>
      <trkpt lat="41.844677" lon="2.376620">
        <ele>763.805</ele>
        <time>2021-09-25T17:34:43Z</time>
      </trkpt>
      <trkpt lat="41.844710" lon="2.376662">
        <ele>763.808</ele>
        <time>2021-09-25T17:34:50Z</time>
      </trkpt>
      <trkpt lat="41.844745" lon="2.376714">
        <ele>763.869</ele>
        <time>2021-09-25T17:34:55Z</time>
      </trkpt>
      <trkpt lat="41.844776" lon="2.376759">
        <ele>763.715</ele>
        <time>2021-09-25T17:35:02Z</time>
      </trkpt>
      <trkpt lat="41.844803" lon="2.376813">
        <ele>763.748</ele>
        <time>2021-09-25T17:35:06Z</time>
      </trkpt>
      <trkpt lat="41.844841" lon="2.376855">
        <ele>763.736</ele>
        <time>2021-09-25T17:35:10Z</time>
      </trkpt>
      <trkpt lat="41.844879" lon="2.376897">
        <ele>763.799</ele>
        <time>2021-09-25T17:35:15Z</time>
      </trkpt>
      <trkpt lat="41.844895" lon="2.376958">
        <ele>763.733</ele>
        <time>2021-09-25T17:35:22Z</time>
      </trkpt>
      <trkpt lat="41.844907" lon="2.377017">
        <ele>763.498</ele>
        <time>2021-09-25T17:35:27Z</time>
      </trkpt>
      <trkpt lat="41.844921" lon="2.377081">
        <ele>763.238</ele>
        <time>2021-09-25T17:35:32Z</time>
      </trkpt>
      <trkpt lat="41.844945" lon="2.377136">
        <ele>762.653</ele>
        <time>2021-09-25T17:35:37Z</time>
      </trkpt>
      <trkpt lat="41.844969" lon="2.377191">
        <ele>762.404</ele>
        <time>2021-09-25T17:35:41Z</time>
      </trkpt>
      <trkpt lat="41.845008" lon="2.377234">
        <ele>762.114</ele>
        <time>2021-09-25T17:35:45Z</time>
      </trkpt>
      <trkpt lat="41.845039" lon="2.377287">
        <ele>762.008</ele>
        <time>2021-09-25T17:35:49Z</time>
      </trkpt>
      <trkpt lat="41.845085" lon="2.377309">
        <ele>761.393</ele>
        <time>2021-09-25T17:36:00Z</time>
      </trkpt>
      <trkpt lat="41.845128" lon="2.377331">
        <ele>761.229</ele>
        <time>2021-09-25T17:36:05Z</time>
      </trkpt>
      <trkpt lat="41.845161" lon="2.377377">
        <ele>760.912</ele>
        <time>2021-09-25T17:36:13Z</time>
      </trkpt>
      <trkpt lat="41.845186" lon="2.377445">
        <ele>760.810</ele>
        <time>2021-09-25T17:36:18Z</time>
      </trkpt>
      <trkpt lat="41.845200" lon="2.377507">
        <ele>760.523</ele>
        <time>2021-09-25T17:36:22Z</time>
      </trkpt>
      <trkpt lat="41.845209" lon="2.377573">
        <ele>760.497</ele>
        <time>2021-09-25T17:36:27Z</time>
      </trkpt>
      <trkpt lat="41.845209" lon="2.377651">
        <ele>760.462</ele>
        <time>2021-09-25T17:36:34Z</time>
      </trkpt>
      <trkpt lat="41.845222" lon="2.377717">
        <ele>760.432</ele>
        <time>2021-09-25T17:36:39Z</time>
      </trkpt>
      <trkpt lat="41.845202" lon="2.377771">
        <ele>760.394</ele>
        <time>2021-09-25T17:36:46Z</time>
      </trkpt>
      <trkpt lat="41.845214" lon="2.377838">
        <ele>760.257</ele>
        <time>2021-09-25T17:36:52Z</time>
      </trkpt>
      <trkpt lat="41.845215" lon="2.377903">
        <ele>760.122</ele>
        <time>2021-09-25T17:36:56Z</time>
      </trkpt>
      <trkpt lat="41.845210" lon="2.377970">
        <ele>759.908</ele>
        <time>2021-09-25T17:37:02Z</time>
      </trkpt>
      <trkpt lat="41.845197" lon="2.378034">
        <ele>759.277</ele>
        <time>2021-09-25T17:37:07Z</time>
      </trkpt>
      <trkpt lat="41.845148" lon="2.378059">
        <ele>758.883</ele>
        <time>2021-09-25T17:37:14Z</time>
      </trkpt>
      <trkpt lat="41.845099" lon="2.378084">
        <ele>758.066</ele>
        <time>2021-09-25T17:37:19Z</time>
      </trkpt>
      <trkpt lat="41.845048" lon="2.378083">
        <ele>756.864</ele>
        <time>2021-09-25T17:37:28Z</time>
      </trkpt>
      <trkpt lat="41.845009" lon="2.378115">
        <ele>756.227</ele>
        <time>2021-09-25T17:37:32Z</time>
      </trkpt>
      <trkpt lat="41.844949" lon="2.378155">
        <ele>754.851</ele>
        <time>2021-09-25T17:37:40Z</time>
      </trkpt>
      <trkpt lat="41.844908" lon="2.378199">
        <ele>753.616</ele>
        <time>2021-09-25T17:37:44Z</time>
      </trkpt>
      <trkpt lat="41.844874" lon="2.378259">
        <ele>753.256</ele>
        <time>2021-09-25T17:37:48Z</time>
      </trkpt>
      <trkpt lat="41.844872" lon="2.378332">
        <ele>752.496</ele>
        <time>2021-09-25T17:37:54Z</time>
      </trkpt>
      <trkpt lat="41.844856" lon="2.378400">
        <ele>750.931</ele>
        <time>2021-09-25T17:38:10Z</time>
      </trkpt>
      <trkpt lat="41.844855" lon="2.378484">
        <ele>750.524</ele>
        <time>2021-09-25T17:38:16Z</time>
      </trkpt>
      <trkpt lat="41.844852" lon="2.378560">
        <ele>750.408</ele>
        <time>2021-09-25T17:38:21Z</time>
      </trkpt>
      <trkpt lat="41.844877" lon="2.378613">
        <ele>749.427</ele>
        <time>2021-09-25T17:38:29Z</time>
      </trkpt>
      <trkpt lat="41.844922" lon="2.378650">
        <ele>749.233</ele>
        <time>2021-09-25T17:38:32Z</time>
      </trkpt>
      <trkpt lat="41.844960" lon="2.378685">
        <ele>748.626</ele>
        <time>2021-09-25T17:38:36Z</time>
      </trkpt>
      <trkpt lat="41.844992" lon="2.378743">
        <ele>748.514</ele>
        <time>2021-09-25T17:38:40Z</time>
      </trkpt>
      <trkpt lat="41.844996" lon="2.378806">
        <ele>748.537</ele>
        <time>2021-09-25T17:38:46Z</time>
      </trkpt>
      <trkpt lat="41.845006" lon="2.378872">
        <ele>748.551</ele>
        <time>2021-09-25T17:38:51Z</time>
      </trkpt>
      <trkpt lat="41.844995" lon="2.378941">
        <ele>748.626</ele>
        <time>2021-09-25T17:38:59Z</time>
      </trkpt>
      <trkpt lat="41.844981" lon="2.379014">
        <ele>749.146</ele>
        <time>2021-09-25T17:39:11Z</time>
      </trkpt>
      <trkpt lat="41.844947" lon="2.379070">
        <ele>749.297</ele>
        <time>2021-09-25T17:39:16Z</time>
      </trkpt>
      <trkpt lat="41.844931" lon="2.379135">
        <ele>749.223</ele>
        <time>2021-09-25T17:39:23Z</time>
      </trkpt>
      <trkpt lat="41.844927" lon="2.379198">
        <ele>749.325</ele>
        <time>2021-09-25T17:39:29Z</time>
      </trkpt>
      <trkpt lat="41.844935" lon="2.379272">
        <ele>749.408</ele>
        <time>2021-09-25T17:39:36Z</time>
      </trkpt>
      <trkpt lat="41.844948" lon="2.379332">
        <ele>749.567</ele>
        <time>2021-09-25T17:39:42Z</time>
      </trkpt>
      <trkpt lat="41.844952" lon="2.379397">
        <ele>750.483</ele>
        <time>2021-09-25T17:39:53Z</time>
      </trkpt>
      <trkpt lat="41.844957" lon="2.379465">
        <ele>750.866</ele>
        <time>2021-09-25T17:40:02Z</time>
      </trkpt>
      <trkpt lat="41.844950" lon="2.379527">
        <ele>751.084</ele>
        <time>2021-09-25T17:40:08Z</time>
      </trkpt>
      <trkpt lat="41.844940" lon="2.379588">
        <ele>751.837</ele>
        <time>2021-09-25T17:40:13Z</time>
      </trkpt>
      <trkpt lat="41.844940" lon="2.379658">
        <ele>752.481</ele>
        <time>2021-09-25T17:40:20Z</time>
      </trkpt>
      <trkpt lat="41.844946" lon="2.379721">
        <ele>753.136</ele>
        <time>2021-09-25T17:40:24Z</time>
      </trkpt>
      <trkpt lat="41.844943" lon="2.379789">
        <ele>753.696</ele>
        <time>2021-09-25T17:40:30Z</time>
      </trkpt>
      <trkpt lat="41.844943" lon="2.379851">
        <ele>754.563</ele>
        <time>2021-09-25T17:40:42Z</time>
      </trkpt>
      <trkpt lat="41.844925" lon="2.379912">
        <ele>754.744</ele>
        <time>2021-09-25T17:40:46Z</time>
      </trkpt>
      <trkpt lat="41.844910" lon="2.379974">
        <ele>755.918</ele>
        <time>2021-09-25T17:40:51Z</time>
      </trkpt>
      <trkpt lat="41.844895" lon="2.380043">
        <ele>756.708</ele>
        <time>2021-09-25T17:40:59Z</time>
      </trkpt>
      <trkpt lat="41.844881" lon="2.380101">
        <ele>756.864</ele>
        <time>2021-09-25T17:41:03Z</time>
      </trkpt>
      <trkpt lat="41.844877" lon="2.380162">
        <ele>758.020</ele>
        <time>2021-09-25T17:41:10Z</time>
      </trkpt>
      <trkpt lat="41.844880" lon="2.380225">
        <ele>758.223</ele>
        <time>2021-09-25T17:41:16Z</time>
      </trkpt>
      <trkpt lat="41.844873" lon="2.380285">
        <ele>758.451</ele>
        <time>2021-09-25T17:41:21Z</time>
      </trkpt>
      <trkpt lat="41.844866" lon="2.380356">
        <ele>758.734</ele>
        <time>2021-09-25T17:41:24Z</time>
      </trkpt>
      <trkpt lat="41.844898" lon="2.380399">
        <ele>759.278</ele>
        <time>2021-09-25T17:41:27Z</time>
      </trkpt>
      <trkpt lat="41.844922" lon="2.380456">
        <ele>760.083</ele>
        <time>2021-09-25T17:41:34Z</time>
      </trkpt>
      <trkpt lat="41.844915" lon="2.380538">
        <ele>760.813</ele>
        <time>2021-09-25T17:41:38Z</time>
      </trkpt>
      <trkpt lat="41.844924" lon="2.380600">
        <ele>761.411</ele>
        <time>2021-09-25T17:41:45Z</time>
      </trkpt>
      <trkpt lat="41.844941" lon="2.380668">
        <ele>761.521</ele>
        <time>2021-09-25T17:41:50Z</time>
      </trkpt>
      <trkpt lat="41.844962" lon="2.380721">
        <ele>761.803</ele>
        <time>2021-09-25T17:41:55Z</time>
      </trkpt>
      <trkpt lat="41.844995" lon="2.380766">
        <ele>762.308</ele>
        <time>2021-09-25T17:42:00Z</time>
      </trkpt>
      <trkpt lat="41.845013" lon="2.380827">
        <ele>763.299</ele>
        <time>2021-09-25T17:42:07Z</time>
      </trkpt>
      <trkpt lat="41.845017" lon="2.380887">
        <ele>763.755</ele>
        <time>2021-09-25T17:42:14Z</time>
      </trkpt>
      <trkpt lat="41.845042" lon="2.380942">
        <ele>764.148</ele>
        <time>2021-09-25T17:42:20Z</time>
      </trkpt>
      <trkpt lat="41.845062" lon="2.381000">
        <ele>764.756</ele>
        <time>2021-09-25T17:42:25Z</time>
      </trkpt>
      <trkpt lat="41.845086" lon="2.381058">
        <ele>765.249</ele>
        <time>2021-09-25T17:42:32Z</time>
      </trkpt>
      <trkpt lat="41.845084" lon="2.381126">
        <ele>765.853</ele>
        <time>2021-09-25T17:42:39Z</time>
      </trkpt>
      <trkpt lat="41.845097" lon="2.381195">
        <ele>766.938</ele>
        <time>2021-09-25T17:42:45Z</time>
      </trkpt>
      <trkpt lat="41.845116" lon="2.381274">
        <ele>767.148</ele>
        <time>2021-09-25T17:42:51Z</time>
      </trkpt>
      <trkpt lat="41.845146" lon="2.381331">
        <ele>767.217</ele>
        <time>2021-09-25T17:42:57Z</time>
      </trkpt>
      <trkpt lat="41.845160" lon="2.381398">
        <ele>767.487</ele>
        <time>2021-09-25T17:43:03Z</time>
      </trkpt>
      <trkpt lat="41.845158" lon="2.381468">
        <ele>767.815</ele>
        <time>2021-09-25T17:43:12Z</time>
      </trkpt>
      <trkpt lat="41.845149" lon="2.381530">
        <ele>768.208</ele>
        <time>2021-09-25T17:43:17Z</time>
      </trkpt>
      <trkpt lat="41.845145" lon="2.381594">
        <ele>768.419</ele>
        <time>2021-09-25T17:43:23Z</time>
      </trkpt>
      <trkpt lat="41.845155" lon="2.381655">
        <ele>768.575</ele>
        <time>2021-09-25T17:43:29Z</time>
      </trkpt>
      <trkpt lat="41.845180" lon="2.381733">
        <ele>768.898</ele>
        <time>2021-09-25T17:43:33Z</time>
      </trkpt>
      <trkpt lat="41.845196" lon="2.381795">
        <ele>769.116</ele>
        <time>2021-09-25T17:43:37Z</time>
      </trkpt>
      <trkpt lat="41.845201" lon="2.381864">
        <ele>769.849</ele>
        <time>2021-09-25T17:43:44Z</time>
      </trkpt>
      <trkpt lat="41.845199" lon="2.381931">
        <ele>770.023</ele>
        <time>2021-09-25T17:43:51Z</time>
      </trkpt>
      <trkpt lat="41.845176" lon="2.381991">
        <ele>771.118</ele>
        <time>2021-09-25T17:44:01Z</time>
      </trkpt>
      <trkpt lat="41.845186" lon="2.382052">
        <ele>771.138</ele>
        <time>2021-09-25T17:44:15Z</time>
      </trkpt>
      <trkpt lat="41.845204" lon="2.382120">
        <ele>771.229</ele>
        <time>2021-09-25T17:44:23Z</time>
      </trkpt>
      <trkpt lat="41.845222" lon="2.382188">
        <ele>771.300</ele>
        <time>2021-09-25T17:44:29Z</time>
      </trkpt>
      <trkpt lat="41.845238" lon="2.382256">
        <ele>771.520</ele>
        <time>2021-09-25T17:44:35Z</time>
      </trkpt>
      <trkpt lat="41.845265" lon="2.382307">
        <ele>772.108</ele>
        <time>2021-09-25T17:44:40Z</time>
      </trkpt>
      <trkpt lat="41.845269" lon="2.382378">
        <ele>772.430</ele>
        <time>2021-09-25T17:44:45Z</time>
      </trkpt>
      <trkpt lat="41.845295" lon="2.382432">
        <ele>772.786</ele>
        <time>2021-09-25T17:44:50Z</time>
      </trkpt>
      <trkpt lat="41.845319" lon="2.382489">
        <ele>773.449</ele>
        <time>2021-09-25T17:44:56Z</time>
      </trkpt>
      <trkpt lat="41.845333" lon="2.382558">
        <ele>773.687</ele>
        <time>2021-09-25T17:45:02Z</time>
      </trkpt>
      <trkpt lat="41.845343" lon="2.382620">
        <ele>774.290</ele>
        <time>2021-09-25T17:45:09Z</time>
      </trkpt>
      <trkpt lat="41.845357" lon="2.382689">
        <ele>774.694</ele>
        <time>2021-09-25T17:45:17Z</time>
      </trkpt>
      <trkpt lat="41.845372" lon="2.382751">
        <ele>774.819</ele>
        <time>2021-09-25T17:45:22Z</time>
      </trkpt>
      <trkpt lat="41.845390" lon="2.382815">
        <ele>775.499</ele>
        <time>2021-09-25T17:45:27Z</time>
      </trkpt>
      <trkpt lat="41.845418" lon="2.382884">
        <ele>775.883</ele>
        <time>2021-09-25T17:45:31Z</time>
      </trkpt>
      <trkpt lat="41.845421" lon="2.382944">
        <ele>776.225</ele>
        <time>2021-09-25T17:45:36Z</time>
      </trkpt>
      <trkpt lat="41.845401" lon="2.383004">
        <ele>777.117</ele>
        <time>2021-09-25T17:45:42Z</time>
      </trkpt>
      <trkpt lat="41.845409" lon="2.383071">
        <ele>777.608</ele>
        <time>2021-09-25T17:45:48Z</time>
      </trkpt>
      <trkpt lat="41.845400" lon="2.383133">
        <ele>778.456</ele>
        <time>2021-09-25T17:45:53Z</time>
      </trkpt>
      <trkpt lat="41.845372" lon="2.383198">
        <ele>778.872</ele>
        <time>2021-09-25T17:46:00Z</time>
      </trkpt>
      <trkpt lat="41.845353" lon="2.383255">
        <ele>779.075</ele>
        <time>2021-09-25T17:46:04Z</time>
      </trkpt>
      <trkpt lat="41.845346" lon="2.383324">
        <ele>779.423</ele>
        <time>2021-09-25T17:46:12Z</time>
      </trkpt>
      <trkpt lat="41.845351" lon="2.383386">
        <ele>779.686</ele>
        <time>2021-09-25T17:46:19Z</time>
      </trkpt>
      <trkpt lat="41.845369" lon="2.383445">
        <ele>779.660</ele>
        <time>2021-09-25T17:46:23Z</time>
      </trkpt>
      <trkpt lat="41.845379" lon="2.383511">
        <ele>779.695</ele>
        <time>2021-09-25T17:46:27Z</time>
      </trkpt>
      <trkpt lat="41.845389" lon="2.383584">
        <ele>779.265</ele>
        <time>2021-09-25T17:46:32Z</time>
      </trkpt>
      <trkpt lat="41.845387" lon="2.383653">
        <ele>778.288</ele>
        <time>2021-09-25T17:46:38Z</time>
      </trkpt>
      <trkpt lat="41.845382" lon="2.383726">
        <ele>777.924</ele>
        <time>2021-09-25T17:46:44Z</time>
      </trkpt>
      <trkpt lat="41.845365" lon="2.383788">
        <ele>777.826</ele>
        <time>2021-09-25T17:46:51Z</time>
      </trkpt>
      <trkpt lat="41.845356" lon="2.383850">
        <ele>777.408</ele>
        <time>2021-09-25T17:46:58Z</time>
      </trkpt>
      <trkpt lat="41.845344" lon="2.383917">
        <ele>777.256</ele>
        <time>2021-09-25T17:47:01Z</time>
      </trkpt>
      <trkpt lat="41.845336" lon="2.383980">
        <ele>776.712</ele>
        <time>2021-09-25T17:47:04Z</time>
      </trkpt>
      <trkpt lat="41.845323" lon="2.384046">
        <ele>776.545</ele>
        <time>2021-09-25T17:47:08Z</time>
      </trkpt>
      <trkpt lat="41.845308" lon="2.384114">
        <ele>776.343</ele>
        <time>2021-09-25T17:47:13Z</time>
      </trkpt>
      <trkpt lat="41.845281" lon="2.384176">
        <ele>775.676</ele>
        <time>2021-09-25T17:47:18Z</time>
      </trkpt>
      <trkpt lat="41.845254" lon="2.384229">
        <ele>775.440</ele>
        <time>2021-09-25T17:47:23Z</time>
      </trkpt>
      <trkpt lat="41.845233" lon="2.384284">
        <ele>775.425</ele>
        <time>2021-09-25T17:47:28Z</time>
      </trkpt>
      <trkpt lat="41.845232" lon="2.384346">
        <ele>775.395</ele>
        <time>2021-09-25T17:47:32Z</time>
      </trkpt>
      <trkpt lat="41.845245" lon="2.384411">
        <ele>775.378</ele>
        <time>2021-09-25T17:47:37Z</time>
      </trkpt>
      <trkpt lat="41.845228" lon="2.384476">
        <ele>775.333</ele>
        <time>2021-09-25T17:47:44Z</time>
      </trkpt>
      <trkpt lat="41.845255" lon="2.384530">
        <ele>775.126</ele>
        <time>2021-09-25T17:47:50Z</time>
      </trkpt>
      <trkpt lat="41.845262" lon="2.384592">
        <ele>774.508</ele>
        <time>2021-09-25T17:47:58Z</time>
      </trkpt>
      <trkpt lat="41.845257" lon="2.384653">
        <ele>773.835</ele>
        <time>2021-09-25T17:48:07Z</time>
      </trkpt>
      <trkpt lat="41.845246" lon="2.384713">
        <ele>773.911</ele>
        <time>2021-09-25T17:48:15Z</time>
      </trkpt>
      <trkpt lat="41.845237" lon="2.384774">
        <ele>773.934</ele>
        <time>2021-09-25T17:48:22Z</time>
      </trkpt>
      <trkpt lat="41.845228" lon="2.384835">
        <ele>774.142</ele>
        <time>2021-09-25T17:48:27Z</time>
      </trkpt>
      <trkpt lat="41.845219" lon="2.384906">
        <ele>774.345</ele>
        <time>2021-09-25T17:48:34Z</time>
      </trkpt>
      <trkpt lat="41.845248" lon="2.384963">
        <ele>774.989</ele>
        <time>2021-09-25T17:48:41Z</time>
      </trkpt>
      <trkpt lat="41.845269" lon="2.385017">
        <ele>775.654</ele>
        <time>2021-09-25T17:48:45Z</time>
      </trkpt>
      <trkpt lat="41.845276" lon="2.385079">
        <ele>776.154</ele>
        <time>2021-09-25T17:48:51Z</time>
      </trkpt>
      <trkpt lat="41.845245" lon="2.385138">
        <ele>776.664</ele>
        <time>2021-09-25T17:48:57Z</time>
      </trkpt>
      <trkpt lat="41.845210" lon="2.385185">
        <ele>776.906</ele>
        <time>2021-09-25T17:49:06Z</time>
      </trkpt>
      <trkpt lat="41.845170" lon="2.385217">
        <ele>777.016</ele>
        <time>2021-09-25T17:49:09Z</time>
      </trkpt>
      <trkpt lat="41.845137" lon="2.385263">
        <ele>777.208</ele>
        <time>2021-09-25T17:49:15Z</time>
      </trkpt>
      <trkpt lat="41.845098" lon="2.385302">
        <ele>777.524</ele>
        <time>2021-09-25T17:49:19Z</time>
      </trkpt>
      <trkpt lat="41.845082" lon="2.385363">
        <ele>777.710</ele>
        <time>2021-09-25T17:49:28Z</time>
      </trkpt>
      <trkpt lat="41.845076" lon="2.385423">
        <ele>777.983</ele>
        <time>2021-09-25T17:49:32Z</time>
      </trkpt>
      <trkpt lat="41.845076" lon="2.385489">
        <ele>778.131</ele>
        <time>2021-09-25T17:49:38Z</time>
      </trkpt>
      <trkpt lat="41.845088" lon="2.385561">
        <ele>778.264</ele>
        <time>2021-09-25T17:49:44Z</time>
      </trkpt>
      <trkpt lat="41.845112" lon="2.385627">
        <ele>778.568</ele>
        <time>2021-09-25T17:49:53Z</time>
      </trkpt>
      <trkpt lat="41.845145" lon="2.385673">
        <ele>778.993</ele>
        <time>2021-09-25T17:50:00Z</time>
      </trkpt>
      <trkpt lat="41.845163" lon="2.385730">
        <ele>779.253</ele>
        <time>2021-09-25T17:50:05Z</time>
      </trkpt>
      <trkpt lat="41.845163" lon="2.385799">
        <ele>779.632</ele>
        <time>2021-09-25T17:50:11Z</time>
      </trkpt>
      <trkpt lat="41.845186" lon="2.385857">
        <ele>779.992</ele>
        <time>2021-09-25T17:50:16Z</time>
      </trkpt>
      <trkpt lat="41.845217" lon="2.385915">
        <ele>780.111</ele>
        <time>2021-09-25T17:50:22Z</time>
      </trkpt>
      <trkpt lat="41.845224" lon="2.385975">
        <ele>780.408</ele>
        <time>2021-09-25T17:50:25Z</time>
      </trkpt>
      <trkpt lat="41.845207" lon="2.386039">
        <ele>780.711</ele>
        <time>2021-09-25T17:50:31Z</time>
      </trkpt>
      <trkpt lat="41.845190" lon="2.386109">
        <ele>780.737</ele>
        <time>2021-09-25T17:50:37Z</time>
      </trkpt>
      <trkpt lat="41.845180" lon="2.386168">
        <ele>780.970</ele>
        <time>2021-09-25T17:50:47Z</time>
      </trkpt>
      <trkpt lat="41.845170" lon="2.386229">
        <ele>781.028</ele>
        <time>2021-09-25T17:50:51Z</time>
      </trkpt>
      <trkpt lat="41.845149" lon="2.386295">
        <ele>781.121</ele>
        <time>2021-09-25T17:50:59Z</time>
      </trkpt>
      <trkpt lat="41.845123" lon="2.386344">
        <ele>781.435</ele>
        <time>2021-09-25T17:51:02Z</time>
      </trkpt>
      <trkpt lat="41.845097" lon="2.386398">
        <ele>782.080</ele>
        <time>2021-09-25T17:51:06Z</time>
      </trkpt>
      <trkpt lat="41.845071" lon="2.386459">
        <ele>782.720</ele>
        <time>2021-09-25T17:51:16Z</time>
      </trkpt>
      <trkpt lat="41.845042" lon="2.386515">
        <ele>783.547</ele>
        <time>2021-09-25T17:51:25Z</time>
      </trkpt>
      <trkpt lat="41.845000" lon="2.386557">
        <ele>784.529</ele>
        <time>2021-09-25T17:51:32Z</time>
      </trkpt>
      <trkpt lat="41.844974" lon="2.386612">
        <ele>785.221</ele>
        <time>2021-09-25T17:51:39Z</time>
      </trkpt>
      <trkpt lat="41.844990" lon="2.386682">
        <ele>785.408</ele>
        <time>2021-09-25T17:51:45Z</time>
      </trkpt>
      <trkpt lat="41.844999" lon="2.386751">
        <ele>785.622</ele>
        <time>2021-09-25T17:51:51Z</time>
      </trkpt>
      <trkpt lat="41.845013" lon="2.386809">
        <ele>785.998</ele>
        <time>2021-09-25T17:51:56Z</time>
      </trkpt>
      <trkpt lat="41.845027" lon="2.386879">
        <ele>786.061</ele>
        <time>2021-09-25T17:52:00Z</time>
      </trkpt>
      <trkpt lat="41.845032" lon="2.386948">
        <ele>786.239</ele>
        <time>2021-09-25T17:52:06Z</time>
      </trkpt>
      <trkpt lat="41.845029" lon="2.387011">
        <ele>786.462</ele>
        <time>2021-09-25T17:52:11Z</time>
      </trkpt>
      <trkpt lat="41.845028" lon="2.387074">
        <ele>786.696</ele>
        <time>2021-09-25T17:52:17Z</time>
      </trkpt>
      <trkpt lat="41.845032" lon="2.387148">
        <ele>786.731</ele>
        <time>2021-09-25T17:52:23Z</time>
      </trkpt>
      <trkpt lat="41.845025" lon="2.387226">
        <ele>786.961</ele>
        <time>2021-09-25T17:52:29Z</time>
      </trkpt>
      <trkpt lat="41.845029" lon="2.387290">
        <ele>787.068</ele>
        <time>2021-09-25T17:52:36Z</time>
      </trkpt>
      <trkpt lat="41.845021" lon="2.387363">
        <ele>787.242</ele>
        <time>2021-09-25T17:52:42Z</time>
      </trkpt>
      <trkpt lat="41.845024" lon="2.387434">
        <ele>787.426</ele>
        <time>2021-09-25T17:52:47Z</time>
      </trkpt>
      <trkpt lat="41.845013" lon="2.387494">
        <ele>787.808</ele>
        <time>2021-09-25T17:52:54Z</time>
      </trkpt>
      <trkpt lat="41.844986" lon="2.387544">
        <ele>787.964</ele>
        <time>2021-09-25T17:53:00Z</time>
      </trkpt>
      <trkpt lat="41.844955" lon="2.387591">
        <ele>788.020</ele>
        <time>2021-09-25T17:53:06Z</time>
      </trkpt>
      <trkpt lat="41.844942" lon="2.387663">
        <ele>788.213</ele>
        <time>2021-09-25T17:53:11Z</time>
      </trkpt>
      <trkpt lat="41.844955" lon="2.387724">
        <ele>788.521</ele>
        <time>2021-09-25T17:53:18Z</time>
      </trkpt>
      <trkpt lat="41.844970" lon="2.387787">
        <ele>788.754</ele>
        <time>2021-09-25T17:53:26Z</time>
      </trkpt>
      <trkpt lat="41.844976" lon="2.387862">
        <ele>788.998</ele>
        <time>2021-09-25T17:53:32Z</time>
      </trkpt>
      <trkpt lat="41.844944" lon="2.387923">
        <ele>789.323</ele>
        <time>2021-09-25T17:53:39Z</time>
      </trkpt>
      <trkpt lat="41.844922" lon="2.387986">
        <ele>789.623</ele>
        <time>2021-09-25T17:53:44Z</time>
      </trkpt>
      <trkpt lat="41.844892" lon="2.388041">
        <ele>789.815</ele>
        <time>2021-09-25T17:53:50Z</time>
      </trkpt>
      <trkpt lat="41.844850" lon="2.388078">
        <ele>790.165</ele>
        <time>2021-09-25T17:53:55Z</time>
      </trkpt>
      <trkpt lat="41.844818" lon="2.388138">
        <ele>790.311</ele>
        <time>2021-09-25T17:54:02Z</time>
      </trkpt>
      <trkpt lat="41.844788" lon="2.388204">
        <ele>790.408</ele>
        <time>2021-09-25T17:54:09Z</time>
      </trkpt>
      <trkpt lat="41.844769" lon="2.388264">
        <ele>790.589</ele>
        <time>2021-09-25T17:54:15Z</time>
      </trkpt>
      <trkpt lat="41.844754" lon="2.388334">
        <ele>790.895</ele>
        <time>2021-09-25T17:54:22Z</time>
      </trkpt>
      <trkpt lat="41.844743" lon="2.388393">
        <ele>791.478</ele>
        <time>2021-09-25T17:54:28Z</time>
      </trkpt>
      <trkpt lat="41.844759" lon="2.388462">
        <ele>792.456</ele>
        <time>2021-09-25T17:54:37Z</time>
      </trkpt>
      <trkpt lat="41.844804" lon="2.388478">
        <ele>793.249</ele>
        <time>2021-09-25T17:54:41Z</time>
      </trkpt>
      <trkpt lat="41.844854" lon="2.388505">
        <ele>793.653</ele>
        <time>2021-09-25T17:54:46Z</time>
      </trkpt>
      <trkpt lat="41.844902" lon="2.388531">
        <ele>794.488</ele>
        <time>2021-09-25T17:54:54Z</time>
      </trkpt>
      <trkpt lat="41.844958" lon="2.388544">
        <ele>794.998</ele>
        <time>2021-09-25T17:54:59Z</time>
      </trkpt>
      <trkpt lat="41.845005" lon="2.388551">
        <ele>795.588</ele>
        <time>2021-09-25T17:55:05Z</time>
      </trkpt>
      <trkpt lat="41.845052" lon="2.388551">
        <ele>795.924</ele>
        <time>2021-09-25T17:55:10Z</time>
      </trkpt>
      <trkpt lat="41.845095" lon="2.388574">
        <ele>796.526</ele>
        <time>2021-09-25T17:55:17Z</time>
      </trkpt>
      <trkpt lat="41.845145" lon="2.388610">
        <ele>797.008</ele>
        <time>2021-09-25T17:55:24Z</time>
      </trkpt>
      <trkpt lat="41.848055" lon="2.376093">
        <ele>790.012</ele>
        <time>2016-06-07T14:16:45Z</time>
      </trkpt>
      <trkpt lat="41.848029" lon="2.376212">
        <ele>792.032</ele>
        <time>2016-06-07T14:17:31Z</time>
      </trkpt>
      <trkpt lat="41.847934" lon="2.376267">
        <ele>795.005</ele>
        <time>2016-06-07T14:18:07Z</time>
      </trkpt>
      <trkpt lat="41.847843" lon="2.376290">
        <ele>791.008</ele>
        <time>2016-06-07T14:18:15Z</time>
      </trkpt>
      <trkpt lat="41.847790" lon="2.376185">
        <ele>788.062</ele>
        <time>2016-06-07T14:18:21Z</time>
      </trkpt>
      <trkpt lat="41.847767" lon="2.376046">
        <ele>787.024</ele>
        <time>2016-06-07T14:18:29Z</time>
      </trkpt>
      <trkpt lat="41.847751" lon="2.375919">
        <ele>786.047</ele>
        <time>2016-06-07T14:18:36Z</time>
      </trkpt>
      <trkpt lat="41.847665" lon="2.375875">
        <ele>779.071</ele>
        <time>2016-06-07T14:18:48Z</time>
      </trkpt>
      <trkpt lat="41.847628" lon="2.375991">
        <ele>777.057</ele>
        <time>2016-06-07T14:18:59Z</time>
      </trkpt>
      <trkpt lat="41.847567" lon="2.376085">
        <ele>778.092</ele>
        <time>2016-06-07T14:19:07Z</time>
      </trkpt>
      <trkpt lat="41.847471" lon="2.376060">
        <ele>780.011</ele>
        <time>2016-06-07T14:19:14Z</time>
      </trkpt>
      <trkpt lat="41.847415" lon="2.375954">
        <ele>782.057</ele>
        <time>2016-06-07T14:19:21Z</time>
      </trkpt>
      <trkpt lat="41.847366" lon="2.375850">
        <ele>780.047</ele>
        <time>2016-06-07T14:19:45Z</time>
      </trkpt>
      <trkpt lat="41.847388" lon="2.375718">
        <ele>781.029</ele>
        <time>2016-06-07T14:19:52Z</time>
      </trkpt>
      <trkpt lat="41.847419" lon="2.375586">
        <ele>776.021</ele>
        <time>2016-06-07T14:19:59Z</time>
      </trkpt>
      <trkpt lat="41.847329" lon="2.375580">
        <ele>776.008</ele>
        <time>2016-06-07T14:20:11Z</time>
      </trkpt>
      <trkpt lat="41.847236" lon="2.375625">
        <ele>771.075</ele>
        <time>2016-06-07T14:20:18Z</time>
      </trkpt>
      <trkpt lat="41.847153" lon="2.375700">
        <ele>769.087</ele>
        <time>2016-06-07T14:20:26Z</time>
      </trkpt>
      <trkpt lat="41.847102" lon="2.375820">
        <ele>767.040</ele>
        <time>2016-06-07T14:20:32Z</time>
      </trkpt>
      <trkpt lat="41.847084" lon="2.375945">
        <ele>766.024</ele>
        <time>2016-06-07T14:20:39Z</time>
      </trkpt>
      <trkpt lat="41.847117" lon="2.376073">
        <ele>772.090</ele>
        <time>2016-06-07T14:20:47Z</time>
      </trkpt>
      <trkpt lat="41.847124" lon="2.376204">
        <ele>771.025</ele>
        <time>2016-06-07T14:20:55Z</time>
      </trkpt>
      <trkpt lat="41.847064" lon="2.376298">
        <ele>772.014</ele>
        <time>2016-06-07T14:21:01Z</time>
      </trkpt>
      <trkpt lat="41.846963" lon="2.376330">
        <ele>769.090</ele>
        <time>2016-06-07T14:21:09Z</time>
      </trkpt>
      <trkpt lat="41.846870" lon="2.376335">
        <ele>771.072</ele>
        <time>2016-06-07T14:21:15Z</time>
      </trkpt>
      <trkpt lat="41.846784" lon="2.376372">
        <ele>767.013</ele>
        <time>2016-06-07T14:21:20Z</time>
      </trkpt>
      <trkpt lat="41.846704" lon="2.376440">
        <ele>770.014</ele>
        <time>2016-06-07T14:21:27Z</time>
      </trkpt>
      <trkpt lat="41.846632" lon="2.376515">
        <ele>769.008</ele>
        <time>2016-06-07T14:21:32Z</time>
      </trkpt>
      <trkpt lat="41.846561" lon="2.376604">
        <ele>771.028</ele>
        <time>2016-06-07T14:21:37Z</time>
      </trkpt>
      <trkpt lat="41.846474" lon="2.376657">
        <ele>768.010</ele>
        <time>2016-06-07T14:21:44Z</time>
      </trkpt>
      <trkpt lat="41.846359" lon="2.376665">
        <ele>770.093</ele>
        <time>2016-06-07T14:21:52Z</time>
      </trkpt>
      <trkpt lat="41.846264" lon="2.376662">
        <ele>771.017</ele>
        <time>2016-06-07T14:21:58Z</time>
      </trkpt>
      <trkpt lat="41.846175" lon="2.376684">
        <ele>776.043</ele>
        <time>2016-06-07T14:22:03Z</time>
      </trkpt>
      <trkpt lat="41.846106" lon="2.376586">
        <ele>773.098</ele>
        <time>2016-06-07T14:22:10Z</time>
      </trkpt>
      <trkpt lat="41.846087" lon="2.376450">
        <ele>771.077</ele>
        <time>2016-06-07T14:22:17Z</time>
      </trkpt>
      <trkpt lat="41.846101" lon="2.376313">
        <ele>769.053</ele>
        <time>2016-06-07T14:22:23Z</time>
      </trkpt>
      <trkpt lat="41.846087" lon="2.376184">
        <ele>768.089</ele>
        <time>2016-06-07T14:22:32Z</time>
      </trkpt>
      <trkpt lat="41.846029" lon="2.376068">
        <ele>763.006</ele>
        <time>2016-06-07T14:22:39Z</time>
      </trkpt>
      <trkpt lat="41.846010" lon="2.375946">
        <ele>764.026</ele>
        <time>2016-06-07T14:22:45Z</time>
      </trkpt>
      <trkpt lat="41.845996" lon="2.375808">
        <ele>767.008</ele>
        <time>2016-06-07T14:22:52Z</time>
      </trkpt>
      <trkpt lat="41.845998" lon="2.375670">
        <ele>770.059</ele>
        <time>2016-06-07T14:23:00Z</time>
      </trkpt>
      <trkpt lat="41.846009" lon="2.375546">
        <ele>770.011</ele>
        <time>2016-06-07T14:23:07Z</time>
      </trkpt>
      <trkpt lat="41.845999" lon="2.375420">
        <ele>767.014</ele>
        <time>2016-06-07T14:23:13Z</time>
      </trkpt>
      <trkpt lat="41.845973" lon="2.375291">
        <ele>769.038</ele>
        <time>2016-06-07T14:23:19Z</time>
      </trkpt>
      <trkpt lat="41.845991" lon="2.375146">
        <ele>771.014</ele>
        <time>2016-06-07T14:23:28Z</time>
      </trkpt>
      <trkpt lat="41.846023" lon="2.375011">
        <ele>772.099</ele>
        <time>2016-06-07T14:23:36Z</time>
      </trkpt>
      <trkpt lat="41.846005" lon="2.374893">
        <ele>771.088</ele>
        <time>2016-06-07T14:23:43Z</time>
      </trkpt>
      <trkpt lat="41.845987" lon="2.374762">
        <ele>770.024</ele>
        <time>2016-06-07T14:23:50Z</time>
      </trkpt>
      <trkpt lat="41.845913" lon="2.374676">
        <ele>773.061</ele>
        <time>2016-06-07T14:23:57Z</time>
      </trkpt>
      <trkpt lat="41.845805" lon="2.374636">
        <ele>774.021</ele>
        <time>2016-06-07T14:24:02Z</time>
      </trkpt>
      <trkpt lat="41.845740" lon="2.374540">
        <ele>774.013</ele>
        <time>2016-06-07T14:24:12Z</time>
      </trkpt>
      <trkpt lat="41.845693" lon="2.374430">
        <ele>777.008</ele>
        <time>2016-06-07T14:24:20Z</time>
      </trkpt>
      <trkpt lat="41.845703" lon="2.374308">
        <ele>776.057</ele>
        <time>2016-06-07T14:24:26Z</time>
      </trkpt>
      <trkpt lat="41.845746" lon="2.374190">
        <ele>778.039</ele>
        <time>2016-06-07T14:24:33Z</time>
      </trkpt>
      <trkpt lat="41.845736" lon="2.374059">
        <ele>776.032</ele>
        <time>2016-06-07T14:24:40Z</time>
      </trkpt>
      <trkpt lat="41.845757" lon="2.373929">
        <ele>777.016</ele>
        <time>2016-06-07T14:24:48Z</time>
      </trkpt>
      <trkpt lat="41.845820" lon="2.373826">
        <ele>775.072</ele>
        <time>2016-06-07T14:24:53Z</time>
      </trkpt>
      <trkpt lat="41.845877" lon="2.373728">
        <ele>775.047</ele>
        <time>2016-06-07T14:24:59Z</time>
      </trkpt>
      <trkpt lat="41.845943" lon="2.373623">
        <ele>779.016</ele>
        <time>2016-06-07T14:25:05Z</time>
      </trkpt>
      <trkpt lat="41.845996" lon="2.373526">
        <ele>774.032</ele>
        <time>2016-06-07T14:25:12Z</time>
      </trkpt>
      <trkpt lat="41.846022" lon="2.373404">
        <ele>774.026</ele>
        <time>2016-06-07T14:25:19Z</time>
      </trkpt>
      <trkpt lat="41.846051" lon="2.373269">
        <ele>778.047</ele>
        <time>2016-06-07T14:25:28Z</time>
      </trkpt>
      <trkpt lat="41.846080" lon="2.373145">
        <ele>777.011</ele>
        <time>2016-06-07T14:25:35Z</time>
      </trkpt>
      <trkpt lat="41.846033" lon="2.373017">
        <ele>776.008</ele>
        <time>2016-06-07T14:25:41Z</time>
      </trkpt>
      <trkpt lat="41.846024" lon="2.372892">
        <ele>775.073</ele>
        <time>2016-06-07T14:25:46Z</time>
      </trkpt>
      <trkpt lat="41.845971" lon="2.372786">
        <ele>779.065</ele>
        <time>2016-06-07T14:25:53Z</time>
      </trkpt>
      <trkpt lat="41.845953" lon="2.372664">
        <ele>779.088</ele>
        <time>2016-06-07T14:26:01Z</time>
      </trkpt>
      <trkpt lat="41.845891" lon="2.372567">
        <ele>782.092</ele>
        <time>2016-06-07T14:26:10Z</time>
      </trkpt>
      <trkpt lat="41.845800" lon="2.372525">
        <ele>782.058</ele>
        <time>2016-06-07T14:26:14Z</time>
      </trkpt>
      <trkpt lat="41.845731" lon="2.372430">
        <ele>784.023</ele>
        <time>2016-06-07T14:26:20Z</time>
      </trkpt>
      <trkpt lat="41.845640" lon="2.372357">
        <ele>785.042</ele>
        <time>2016-06-07T14:26:26Z</time>
      </trkpt>
      <trkpt lat="41.845565" lon="2.372276">
        <ele>792.048</ele>
        <time>2016-06-07T14:26:33Z</time>
      </trkpt>
      <trkpt lat="41.845498" lon="2.372176">
        <ele>791.018</ele>
        <time>2016-06-07T14:26:40Z</time>
      </trkpt>
      <trkpt lat="41.845438" lon="2.372076">
        <ele>785.098</ele>
        <time>2016-06-07T14:26:46Z</time>
      </trkpt>
      <trkpt lat="41.845361" lon="2.372003">
        <ele>785.017</ele>
        <time>2016-06-07T14:26:51Z</time>
      </trkpt>
      <trkpt lat="41.845311" lon="2.371856">
        <ele>787.008</ele>
        <time>2016-06-07T14:26:59Z</time>
      </trkpt>
      <trkpt lat="41.845269" lon="2.371742">
        <ele>787.062</ele>
        <time>2016-06-07T14:27:05Z</time>
      </trkpt>
      <trkpt lat="41.845211" lon="2.371648">
        <ele>790.064</ele>
        <time>2016-06-07T14:27:11Z</time>
      </trkpt>
      <trkpt lat="41.845173" lon="2.371511">
        <ele>791.057</ele>
        <time>2016-06-07T14:27:17Z</time>
      </trkpt>
      <trkpt lat="41.845182" lon="2.371388">
        <ele>791.061</ele>
        <time>2016-06-07T14:27:22Z</time>
      </trkpt>
      <trkpt lat="41.845166" lon="2.371260">
        <ele>791.097</ele>
        <time>2016-06-07T14:27:28Z</time>
      </trkpt>
      <trkpt lat="41.845186" lon="2.371136">
        <ele>789.022</ele>
        <time>2016-06-07T14:27:34Z</time>
      </trkpt>
      <trkpt lat="41.845137" lon="2.371030">
        <ele>790.011</ele>
        <time>2016-06-07T14:27:41Z</time>
      </trkpt>
      <trkpt lat="41.845089" lon="2.370914">
        <ele>791.027</ele>
        <time>2016-06-07T14:27:48Z</time>
      </trkpt>
      <trkpt lat="41.845054" lon="2.370790">
        <ele>792.023</ele>
        <time>2016-06-07T14:27:54Z</time>
      </trkpt>
      <trkpt lat="41.845004" lon="2.370674">
        <ele>792.083</ele>
        <time>2016-06-07T14:28:00Z</time>
      </trkpt>
      <trkpt lat="41.844964" lon="2.370558">
        <ele>794.011</ele>
        <time>2016-06-07T14:28:06Z</time>
      </trkpt>
      <trkpt lat="41.844880" lon="2.370480">
        <ele>791.008</ele>
        <time>2016-06-07T14:28:12Z</time>
      </trkpt>
      <trkpt lat="41.844809" lon="2.370391">
        <ele>791.093</ele>
        <time>2016-06-07T14:28:18Z</time>
      </trkpt>
      <trkpt lat="41.844787" lon="2.370264">
        <ele>790.075</ele>
        <time>2016-06-07T14:28:25Z</time>
      </trkpt>
      <trkpt lat="41.844748" lon="2.370153">
        <ele>794.028</ele>
        <time>2016-06-07T14:28:32Z</time>
      </trkpt>
      <trkpt lat="41.844684" lon="2.370068">
        <ele>795.012</ele>
        <time>2016-06-07T14:28:38Z</time>
      </trkpt>
      <trkpt lat="41.844619" lon="2.369984">
        <ele>796.098</ele>
        <time>2016-06-07T14:28:44Z</time>
      </trkpt>
      <trkpt lat="41.844568" lon="2.369876">
        <ele>795.043</ele>
        <time>2016-06-07T14:28:51Z</time>
      </trkpt>
      <trkpt lat="41.844484" lon="2.369817">
        <ele>795.022</ele>
        <time>2016-06-07T14:28:58Z</time>
      </trkpt>
      <trkpt lat="41.844399" lon="2.369742">
        <ele>793.018</ele>
        <time>2016-06-07T14:29:04Z</time>
      </trkpt>
      <trkpt lat="41.844291" lon="2.369711">
        <ele>794.081</ele>
        <time>2016-06-07T14:29:10Z</time>
      </trkpt>
      <trkpt lat="41.844250" lon="2.369597">
        <ele>797.061</ele>
        <time>2016-06-07T14:29:17Z</time>
      </trkpt>
      <trkpt lat="41.844213" lon="2.369476">
        <ele>801.017</ele>
        <time>2016-06-07T14:29:23Z</time>
      </trkpt>
      <trkpt lat="41.844208" lon="2.369351">
        <ele>795.008</ele>
        <time>2016-06-07T14:29:30Z</time>
      </trkpt>
      <trkpt lat="41.844274" lon="2.369243">
        <ele>798.019</ele>
        <time>2016-06-07T14:29:38Z</time>
      </trkpt>
      <trkpt lat="41.844366" lon="2.369187">
        <ele>802.021</ele>
        <time>2016-06-07T14:29:46Z</time>
      </trkpt>
      <trkpt lat="41.844456" lon="2.369170">
        <ele>803.074</ele>
        <time>2016-06-07T14:29:53Z</time>
      </trkpt>
      <trkpt lat="41.844454" lon="2.369036">
        <ele>799.098</ele>
        <time>2016-06-07T14:30:21Z</time>
      </trkpt>
      <trkpt lat="41.844359" lon="2.368968">
        <ele>799.034</ele>
        <time>2016-06-07T14:30:26Z</time>
      </trkpt>
      <trkpt lat="41.844260" lon="2.369020">
        <ele>802.039</ele>
        <time>2016-06-07T14:30:30Z</time>
      </trkpt>
      <trkpt lat="41.844182" lon="2.368950">
        <ele>812.018</ele>
        <time>2016-06-07T14:30:44Z</time>
      </trkpt>
      <trkpt lat="41.844118" lon="2.368851">
        <ele>815.074</ele>
        <time>2016-06-07T14:30:51Z</time>
      </trkpt>
      <trkpt lat="41.844015" lon="2.368826">
        <ele>815.081</ele>
        <time>2016-06-07T14:30:58Z</time>
      </trkpt>
      <trkpt lat="41.843919" lon="2.368784">
        <ele>817.061</ele>
        <time>2016-06-07T14:31:06Z</time>
      </trkpt>
      <trkpt lat="41.843834" lon="2.368708">
        <ele>818.017</ele>
        <time>2016-06-07T14:31:12Z</time>
      </trkpt>
      <trkpt lat="41.843754" lon="2.368647">
        <ele>819.008</ele>
        <time>2016-06-07T14:31:21Z</time>
      </trkpt>
      <trkpt lat="41.843667" lon="2.368703">
        <ele>821.089</ele>
        <time>2016-06-07T14:31:41Z</time>
      </trkpt>
      <trkpt lat="41.843581" lon="2.368752">
        <ele>819.091</ele>
        <time>2016-06-07T14:31:50Z</time>
      </trkpt>
      <trkpt lat="41.843534" lon="2.368881">
        <ele>812.094</ele>
        <time>2016-06-07T14:32:02Z</time>
      </trkpt>
      <trkpt lat="41.843563" lon="2.369010">
        <ele>816.028</ele>
        <time>2016-06-07T14:32:10Z</time>
      </trkpt>
      <trkpt lat="41.843551" lon="2.369143">
        <ele>817.074</ele>
        <time>2016-06-07T14:32:18Z</time>
      </trkpt>
      <trkpt lat="41.843535" lon="2.369283">
        <ele>814.099</ele>
        <time>2016-06-07T14:32:26Z</time>
      </trkpt>
      <trkpt lat="41.843517" lon="2.369414">
        <ele>813.018</ele>
        <time>2016-06-07T14:32:33Z</time>
      </trkpt>
      <trkpt lat="41.843509" lon="2.369544">
        <ele>812.094</ele>
        <time>2016-06-07T14:32:39Z</time>
      </trkpt>
      <trkpt lat="41.843488" lon="2.369667">
        <ele>813.065</ele>
        <time>2016-06-07T14:32:48Z</time>
      </trkpt>
      <trkpt lat="41.843399" lon="2.369724">
        <ele>818.068</ele>
        <time>2016-06-07T14:32:57Z</time>
      </trkpt>
      <trkpt lat="41.843310" lon="2.369752">
        <ele>822.014</ele>
        <time>2016-06-07T14:33:05Z</time>
      </trkpt>
      <trkpt lat="41.843230" lon="2.369831">
        <ele>823.008</ele>
        <time>2016-06-07T14:33:17Z</time>
      </trkpt>
      <trkpt lat="41.843136" lon="2.369883">
        <ele>826.067</ele>
        <time>2016-06-07T14:33:23Z</time>
      </trkpt>
      <trkpt lat="41.843045" lon="2.369888">
        <ele>824.049</ele>
        <time>2016-06-07T14:33:32Z</time>
      </trkpt>
      <trkpt lat="41.842953" lon="2.369914">
        <ele>826.042</ele>
        <time>2016-06-07T14:33:41Z</time>
      </trkpt>
      <trkpt lat="41.842857" lon="2.369972">
        <ele>826.076</ele>
        <time>2016-06-07T14:33:51Z</time>
      </trkpt>
      <trkpt lat="41.842775" lon="2.370057">
        <ele>822.052</ele>
        <time>2016-06-07T14:33:58Z</time>
      </trkpt>
      <trkpt lat="41.842686" lon="2.370099">
        <ele>822.077</ele>
        <time>2016-06-07T14:34:04Z</time>
      </trkpt>
      <trkpt lat="41.842618" lon="2.370182">
        <ele>830.026</ele>
        <time>2016-06-07T14:34:13Z</time>
      </trkpt>
      <trkpt lat="41.842529" lon="2.370252">
        <ele>827.082</ele>
        <time>2016-06-07T14:34:19Z</time>
      </trkpt>
      <trkpt lat="41.842431" lon="2.370300">
        <ele>826.061</ele>
        <time>2016-06-07T14:34:25Z</time>
      </trkpt>
      <trkpt lat="41.842355" lon="2.370372">
        <ele>834.021</ele>
        <time>2016-06-07T14:34:38Z</time>
      </trkpt>
      <trkpt lat="41.842253" lon="2.370410">
        <ele>833.013</ele>
        <time>2016-06-07T14:34:51Z</time>
      </trkpt>
      <trkpt lat="41.842169" lon="2.370468">
        <ele>837.008</ele>
        <time>2016-06-07T14:35:00Z</time>
      </trkpt>
      <trkpt lat="41.842067" lon="2.370472">
        <ele>837.047</ele>
        <time>2016-06-07T14:35:06Z</time>
      </trkpt>
      <trkpt lat="41.841970" lon="2.370511">
        <ele>843.059</ele>
        <time>2016-06-07T14:35:13Z</time>
      </trkpt>
      <trkpt lat="41.841859" lon="2.370538">
        <ele>842.022</ele>
        <time>2016-06-07T14:35:21Z</time>
      </trkpt>
      <trkpt lat="41.841773" lon="2.370595">
        <ele>839.016</ele>
        <time>2016-06-07T14:35:28Z</time>
      </trkpt>
      <trkpt lat="41.841671" lon="2.370688">
        <ele>844.012</ele>
        <time>2016-06-07T14:35:37Z</time>
      </trkpt>
      <trkpt lat="41.841570" lon="2.370738">
        <ele>847.027</ele>
        <time>2016-06-07T14:36:05Z</time>
      </trkpt>
      <trkpt lat="41.841508" lon="2.370841">
        <ele>850.066</ele>
        <time>2016-06-07T14:36:10Z</time>
      </trkpt>
      <trkpt lat="41.841423" lon="2.370899">
        <ele>852.012</ele>
        <time>2016-06-07T14:36:16Z</time>
      </trkpt>
      <trkpt lat="41.841352" lon="2.370974">
        <ele>855.068</ele>
        <time>2016-06-07T14:36:22Z</time>
      </trkpt>
      <trkpt lat="41.841264" lon="2.371017">
        <ele>854.042</ele>
        <time>2016-06-07T14:36:27Z</time>
      </trkpt>
      <trkpt lat="41.841170" lon="2.371021">
        <ele>856.026</ele>
        <time>2016-06-07T14:36:32Z</time>
      </trkpt>
      <trkpt lat="41.841070" lon="2.371029">
        <ele>855.008</ele>
        <time>2016-06-07T14:36:42Z</time>
      </trkpt>
      <trkpt lat="41.840972" lon="2.371059">
        <ele>858.097</ele>
        <time>2016-06-07T14:36:46Z</time>
      </trkpt>
      <trkpt lat="41.840927" lon="2.370944">
        <ele>863.019</ele>
        <time>2016-06-07T14:37:25Z</time>
      </trkpt>
      <trkpt lat="41.840863" lon="2.370846">
        <ele>861.072</ele>
        <time>2016-06-07T14:37:30Z</time>
      </trkpt>
      <trkpt lat="41.840880" lon="2.370715">
        <ele>863.086</ele>
        <time>2016-06-07T14:37:34Z</time>
      </trkpt>
      <trkpt lat="41.840887" lon="2.370588">
        <ele>866.072</ele>
        <time>2016-06-07T14:37:39Z</time>
      </trkpt>
      <trkpt lat="41.840912" lon="2.370445">
        <ele>866.057</ele>
        <time>2016-06-07T14:37:47Z</time>
      </trkpt>
      <trkpt lat="41.840950" lon="2.370321">
        <ele>867.056</ele>
        <time>2016-06-07T14:37:51Z</time>
      </trkpt>
      <trkpt lat="41.840931" lon="2.370194">
        <ele>864.052</ele>
        <time>2016-06-07T14:37:55Z</time>
      </trkpt>
      <trkpt lat="41.840940" lon="2.370067">
        <ele>865.028</ele>
        <time>2016-06-07T14:38:01Z</time>
      </trkpt>
      <trkpt lat="41.840891" lon="2.369954">
        <ele>867.089</ele>
        <time>2016-06-07T14:38:12Z</time>
      </trkpt>
      <trkpt lat="41.840893" lon="2.369822">
        <ele>868.017</ele>
        <time>2016-06-07T14:38:17Z</time>
      </trkpt>
      <trkpt lat="41.840895" lon="2.369689">
        <ele>865.008</ele>
        <time>2016-06-07T14:38:23Z</time>
      </trkpt>
      <trkpt lat="41.840931" lon="2.369568">
        <ele>864.073</ele>
        <time>2016-06-07T14:38:30Z</time>
      </trkpt>
      <trkpt lat="41.840937" lon="2.369446">
        <ele>862.035</ele>
        <time>2016-06-07T14:38:37Z</time>
      </trkpt>
      <trkpt lat="41.840915" lon="2.369328">
        <ele>864.038</ele>
        <time>2016-06-07T14:38:44Z</time>
      </trkpt>
      <trkpt lat="41.840871" lon="2.369212">
        <ele>863.072</ele>
        <time>2016-06-07T14:38:51Z</time>
      </trkpt>
      <trkpt lat="41.840861" lon="2.369082">
        <ele>869.018</ele>
        <time>2016-06-07T14:38:58Z</time>
      </trkpt>
      <trkpt lat="41.840829" lon="2.368963">
        <ele>873.033</ele>
        <time>2016-06-07T14:39:05Z</time>
      </trkpt>
      <trkpt lat="41.840773" lon="2.368857">
        <ele>875.012</ele>
        <time>2016-06-07T14:39:13Z</time>
      </trkpt>
      <trkpt lat="41.840685" lon="2.368808">
        <ele>880.048</ele>
        <time>2016-06-07T14:39:19Z</time>
      </trkpt>
      <trkpt lat="41.840602" lon="2.368759">
        <ele>879.051</ele>
        <time>2016-06-07T14:39:27Z</time>
      </trkpt>
      <trkpt lat="41.840521" lon="2.368691">
        <ele>881.001</ele>
        <time>2016-06-07T14:39:32Z</time>
      </trkpt>
      <trkpt lat="41.840470" lon="2.368574">
        <ele>882.011</ele>
        <time>2016-06-07T14:39:40Z</time>
      </trkpt>
      <trkpt lat="41.840385" lon="2.368531">
        <ele>880.008</ele>
        <time>2016-06-07T14:39:45Z</time>
      </trkpt>
      <trkpt lat="41.840291" lon="2.368488">
        <ele>880.016</ele>
        <time>2016-06-07T14:39:51Z</time>
      </trkpt>
      <trkpt lat="41.840198" lon="2.368428">
        <ele>882.048</ele>
        <time>2016-06-07T14:39:59Z</time>
      </trkpt>
      <trkpt lat="41.840101" lon="2.368382">
        <ele>880.091</ele>
        <time>2016-06-07T14:40:05Z</time>
      </trkpt>
      <trkpt lat="41.840052" lon="2.368260">
        <ele>877.025</ele>
        <time>2016-06-07T14:40:10Z</time>
      </trkpt>
      <trkpt lat="41.840025" lon="2.368123">
        <ele>876.081</ele>
        <time>2016-06-07T14:40:15Z</time>
      </trkpt>
      <trkpt lat="41.840010" lon="2.368001">
        <ele>876.066</ele>
        <time>2016-06-07T14:40:21Z</time>
      </trkpt>
      <trkpt lat="41.839928" lon="2.367933">
        <ele>874.095</ele>
        <time>2016-06-07T14:40:27Z</time>
      </trkpt>
      <trkpt lat="41.839849" lon="2.367846">
        <ele>873.041</ele>
        <time>2016-06-07T14:40:34Z</time>
      </trkpt>
      <trkpt lat="41.839762" lon="2.367789">
        <ele>872.038</ele>
        <time>2016-06-07T14:40:56Z</time>
      </trkpt>
      <trkpt lat="41.839789" lon="2.367661">
        <ele>878.070</ele>
        <time>2016-06-07T14:42:32Z</time>
      </trkpt>
      <trkpt lat="41.839778" lon="2.367534">
        <ele>875.017</ele>
        <time>2016-06-07T14:42:39Z</time>
      </trkpt>
      <trkpt lat="41.839758" lon="2.367406">
        <ele>876.008</ele>
        <time>2016-06-07T14:42:45Z</time>
      </trkpt>
      <trkpt lat="41.839726" lon="2.367289">
        <ele>878.084</ele>
        <time>2016-06-07T14:42:52Z</time>
      </trkpt>
      <trkpt lat="41.839643" lon="2.367208">
        <ele>875.026</ele>
        <time>2016-06-07T14:42:57Z</time>
      </trkpt>
      <trkpt lat="41.839635" lon="2.367084">
        <ele>877.049</ele>
        <time>2016-06-07T14:43:03Z</time>
      </trkpt>
      <trkpt lat="41.839554" lon="2.366938">
        <ele>877.013</ele>
        <time>2016-06-07T14:43:17Z</time>
      </trkpt>
      <trkpt lat="41.839474" lon="2.366870">
        <ele>874.079</ele>
        <time>2016-06-07T14:43:21Z</time>
      </trkpt>
      <trkpt lat="41.839378" lon="2.366843">
        <ele>878.034</ele>
        <time>2016-06-07T14:43:26Z</time>
      </trkpt>
      <trkpt lat="41.839288" lon="2.366868">
        <ele>877.053</ele>
        <time>2016-06-07T14:43:31Z</time>
      </trkpt>
      <trkpt lat="41.839203" lon="2.366826">
        <ele>878.079</ele>
        <time>2016-06-07T14:43:39Z</time>
      </trkpt>
      <trkpt lat="41.839106" lon="2.366834">
        <ele>881.012</ele>
        <time>2016-06-07T14:43:45Z</time>
      </trkpt>
      <trkpt lat="41.839012" lon="2.366842">
        <ele>879.032</ele>
        <time>2016-06-07T14:43:53Z</time>
      </trkpt>
      <trkpt lat="41.838906" lon="2.366830">
        <ele>882.005</ele>
        <time>2016-06-07T14:44:00Z</time>
      </trkpt>
      <trkpt lat="41.838806" lon="2.366814">
        <ele>881.008</ele>
        <time>2016-06-07T14:44:09Z</time>
      </trkpt>
      <trkpt lat="41.838700" lon="2.366829">
        <ele>880.012</ele>
        <time>2016-06-07T14:44:16Z</time>
      </trkpt>
      <trkpt lat="41.838612" lon="2.366785">
        <ele>881.044</ele>
        <time>2016-06-07T14:44:22Z</time>
      </trkpt>
      <trkpt lat="41.838528" lon="2.366718">
        <ele>879.077</ele>
        <time>2016-06-07T14:44:30Z</time>
      </trkpt>
      <trkpt lat="41.838432" lon="2.366689">
        <ele>882.021</ele>
        <time>2016-06-07T14:44:37Z</time>
      </trkpt>
      <trkpt lat="41.838337" lon="2.366656">
        <ele>886.017</ele>
        <time>2016-06-07T14:44:45Z</time>
      </trkpt>
      <trkpt lat="41.838244" lon="2.366634">
        <ele>886.092</ele>
        <time>2016-06-07T14:44:53Z</time>
      </trkpt>
      <trkpt lat="41.838142" lon="2.366639">
        <ele>888.041</ele>
        <time>2016-06-07T14:45:01Z</time>
      </trkpt>
      <trkpt lat="41.838047" lon="2.366623">
        <ele>886.097</ele>
        <time>2016-06-07T14:45:10Z</time>
      </trkpt>
      <trkpt lat="41.837940" lon="2.366609">
        <ele>886.082</ele>
        <time>2016-06-07T14:45:16Z</time>
      </trkpt>
      <trkpt lat="41.837841" lon="2.366624">
        <ele>889.043</ele>
        <time>2016-06-07T14:45:21Z</time>
      </trkpt>
      <trkpt lat="41.837743" lon="2.366615">
        <ele>888.017</ele>
        <time>2016-06-07T14:45:28Z</time>
      </trkpt>
      <trkpt lat="41.837649" lon="2.366557">
        <ele>889.008</ele>
        <time>2016-06-07T14:45:35Z</time>
      </trkpt>
      <trkpt lat="41.837583" lon="2.366459">
        <ele>887.049</ele>
        <time>2016-06-07T14:45:42Z</time>
      </trkpt>
      <trkpt lat="41.837491" lon="2.366436">
        <ele>888.021</ele>
        <time>2016-06-07T14:45:48Z</time>
      </trkpt>
      <trkpt lat="41.837397" lon="2.366396">
        <ele>889.064</ele>
        <time>2016-06-07T14:45:55Z</time>
      </trkpt>
      <trkpt lat="41.837297" lon="2.366401">
        <ele>897.058</ele>
        <time>2016-06-07T14:46:14Z</time>
      </trkpt>
      <trkpt lat="41.837214" lon="2.366341">
        <ele>896.024</ele>
        <time>2016-06-07T14:46:31Z</time>
      </trkpt>
      <trkpt lat="41.837117" lon="2.366309">
        <ele>896.029</ele>
        <time>2016-06-07T14:46:37Z</time>
      </trkpt>
      <trkpt lat="41.837029" lon="2.366276">
        <ele>893.058</ele>
        <time>2016-06-07T14:46:43Z</time>
      </trkpt>
      <trkpt lat="41.836938" lon="2.366272">
        <ele>895.084</ele>
        <time>2016-06-07T14:46:48Z</time>
      </trkpt>
      <trkpt lat="41.836823" lon="2.366285">
        <ele>893.038</ele>
        <time>2016-06-07T14:46:55Z</time>
      </trkpt>
      <trkpt lat="41.836741" lon="2.366227">
        <ele>889.070</ele>
        <time>2016-06-07T14:47:05Z</time>
      </trkpt>
      <trkpt lat="41.836654" lon="2.366183">
        <ele>891.017</ele>
        <time>2016-06-07T14:47:17Z</time>
      </trkpt>
      <trkpt lat="41.836564" lon="2.366167">
        <ele>894.008</ele>
        <time>2016-06-07T14:47:31Z</time>
      </trkpt>
      <trkpt lat="41.836453" lon="2.366161">
        <ele>895.044</ele>
        <time>2016-06-07T14:47:50Z</time>
      </trkpt>
      <trkpt lat="41.836361" lon="2.366156">
        <ele>894.066</ele>
        <time>2016-06-07T14:47:53Z</time>
      </trkpt>
      <trkpt lat="41.836302" lon="2.366034">
        <ele>892.049</ele>
        <time>2016-06-07T14:47:59Z</time>
      </trkpt>
      <trkpt lat="41.836224" lon="2.365958">
        <ele>892.053</ele>
        <time>2016-06-07T14:48:06Z</time>
      </trkpt>
      <trkpt lat="41.836139" lon="2.365884">
        <ele>888.029</ele>
        <time>2016-06-07T14:48:12Z</time>
      </trkpt>
      <trkpt lat="41.836052" lon="2.365827">
        <ele>884.084</ele>
        <time>2016-06-07T14:48:18Z</time>
      </trkpt>
      <trkpt lat="41.835951" lon="2.365830">
        <ele>884.083</ele>
        <time>2016-06-07T14:48:21Z</time>
      </trkpt>
      <trkpt lat="41.835925" lon="2.365712">
        <ele>887.029</ele>
        <time>2016-06-07T14:48:28Z</time>
      </trkpt>
      <trkpt lat="41.835877" lon="2.365593">
        <ele>892.014</ele>
        <time>2016-06-07T14:48:34Z</time>
      </trkpt>
      <trkpt lat="41.835791" lon="2.365530">
        <ele>892.054</ele>
        <time>2016-06-07T14:48:40Z</time>
      </trkpt>
      <trkpt lat="41.835703" lon="2.365492">
        <ele>891.009</ele>
        <time>2016-06-07T14:48:48Z</time>
      </trkpt>
      <trkpt lat="41.835613" lon="2.365478">
        <ele>891.008</ele>
        <time>2016-06-07T14:48:56Z</time>
      </trkpt>
      <trkpt lat="41.835521" lon="2.365446">
        <ele>893.092</ele>
        <time>2016-06-07T14:49:03Z</time>
      </trkpt>
      <trkpt lat="41.835425" lon="2.365429">
        <ele>893.034</ele>
        <time>2016-06-07T14:49:09Z</time>
      </trkpt>
      <trkpt lat="41.835327" lon="2.365407">
        <ele>895.047</ele>
        <time>2016-06-07T14:49:17Z</time>
      </trkpt>
      <trkpt lat="41.835231" lon="2.365373">
        <ele>895.071</ele>
        <time>2016-06-07T14:49:24Z</time>
      </trkpt>
      <trkpt lat="41.835136" lon="2.365349">
        <ele>894.097</ele>
        <time>2016-06-07T14:49:30Z</time>
      </trkpt>
      <trkpt lat="41.835038" lon="2.365353">
        <ele>897.082</ele>
        <time>2016-06-07T14:49:39Z</time>
      </trkpt>
      <trkpt lat="41.834936" lon="2.365368">
        <ele>898.091</ele>
        <time>2016-06-07T14:49:44Z</time>
      </trkpt>
      <trkpt lat="41.834844" lon="2.365356">
        <ele>897.077</ele>
        <time>2016-06-07T14:49:52Z</time>
      </trkpt>
      <trkpt lat="41.834741" lon="2.365389">
        <ele>897.025</ele>
        <time>2016-06-07T14:50:02Z</time>
      </trkpt>
      <trkpt lat="41.834645" lon="2.365399">
        <ele>892.026</ele>
        <time>2016-06-07T14:50:08Z</time>
      </trkpt>
      <trkpt lat="41.834541" lon="2.365430">
        <ele>895.008</ele>
        <time>2016-06-07T14:50:16Z</time>
      </trkpt>
      <trkpt lat="41.834443" lon="2.365442">
        <ele>894.008</ele>
        <time>2016-06-07T14:50:22Z</time>
      </trkpt>
      <trkpt lat="41.834349" lon="2.365418">
        <ele>895.023</ele>
        <time>2016-06-07T14:50:29Z</time>
      </trkpt>
      <trkpt lat="41.834261" lon="2.365451">
        <ele>897.085</ele>
        <time>2016-06-07T14:50:34Z</time>
      </trkpt>
      <trkpt lat="41.834164" lon="2.365452">
        <ele>894.068</ele>
        <time>2016-06-07T14:50:41Z</time>
      </trkpt>
      <trkpt lat="41.834074" lon="2.365453">
        <ele>898.032</ele>
        <time>2016-06-07T14:50:50Z</time>
      </trkpt>
      <trkpt lat="41.833976" lon="2.365458">
        <ele>899.088</ele>
        <time>2016-06-07T14:50:59Z</time>
      </trkpt>
      <trkpt lat="41.833885" lon="2.365463">
        <ele>901.093</ele>
        <time>2016-06-07T14:51:05Z</time>
      </trkpt>
      <trkpt lat="41.833781" lon="2.365475">
        <ele>904.012</ele>
        <time>2016-06-07T14:51:12Z</time>
      </trkpt>
      <trkpt lat="41.833673" lon="2.365481">
        <ele>901.098</ele>
        <time>2016-06-07T14:51:21Z</time>
      </trkpt>
      <trkpt lat="41.833571" lon="2.365504">
        <ele>902.038</ele>
        <time>2016-06-07T14:51:27Z</time>
      </trkpt>
      <trkpt lat="41.833478" lon="2.365555">
        <ele>902.070</ele>
        <time>2016-06-07T14:51:34Z</time>
      </trkpt>
      <trkpt lat="41.833386" lon="2.365562">
        <ele>904.017</ele>
        <time>2016-06-07T14:51:40Z</time>
      </trkpt>
      <trkpt lat="41.833314" lon="2.365639">
        <ele>904.008</ele>
        <time>2016-06-07T14:51:46Z</time>
      </trkpt>
      <trkpt lat="41.833250" lon="2.365734">
        <ele>903.084</ele>
        <time>2016-06-07T14:52:05Z</time>
      </trkpt>
      <trkpt lat="41.833201" lon="2.365855">
        <ele>906.066</ele>
        <time>2016-06-07T14:52:13Z</time>
      </trkpt>
      <trkpt lat="41.833166" lon="2.365980">
        <ele>909.079</ele>
        <time>2016-06-07T14:52:21Z</time>
      </trkpt>
      <trkpt lat="41.833117" lon="2.366081">
        <ele>911.093</ele>
        <time>2016-06-07T14:52:29Z</time>
      </trkpt>
      <trkpt lat="41.833063" lon="2.366186">
        <ele>909.029</ele>
        <time>2016-06-07T14:52:34Z</time>
      </trkpt>
      <trkpt lat="41.832972" lon="2.366239">
        <ele>908.064</ele>
        <time>2016-06-07T14:52:39Z</time>
      </trkpt>
      <trkpt lat="41.832847" lon="2.366254">
        <ele>911.093</ele>
        <time>2016-06-07T14:52:46Z</time>
      </trkpt>
      <trkpt lat="41.832766" lon="2.366196">
        <ele>911.029</ele>
        <time>2016-06-07T14:52:54Z</time>
      </trkpt>
      <trkpt lat="41.832698" lon="2.366091">
        <ele>911.082</ele>
        <time>2016-06-07T14:53:03Z</time>
      </trkpt>
      <trkpt lat="41.832631" lon="2.366003">
        <ele>912.043</ele>
        <time>2016-06-07T14:53:15Z</time>
      </trkpt>
      <trkpt lat="41.832594" lon="2.365886">
        <ele>913.017</ele>
        <time>2016-06-07T14:53:29Z</time>
      </trkpt>
      <trkpt lat="41.832568" lon="2.365763">
        <ele>912.008</ele>
        <time>2016-06-07T14:53:36Z</time>
      </trkpt>
      <trkpt lat="41.832494" lon="2.365685">
        <ele>915.099</ele>
        <time>2016-06-07T14:53:44Z</time>
      </trkpt>
      <trkpt lat="41.832418" lon="2.365613">
        <ele>915.031</ele>
        <time>2016-06-07T14:53:49Z</time>
      </trkpt>
      <trkpt lat="41.832330" lon="2.365561">
        <ele>915.014</ele>
        <time>2016-06-07T14:53:54Z</time>
      </trkpt>
      <trkpt lat="41.832253" lon="2.365488">
        <ele>915.068</ele>
        <time>2016-06-07T14:54:04Z</time>
      </trkpt>
      <trkpt lat="41.832167" lon="2.365421">
        <ele>916.034</ele>
        <time>2016-06-07T14:54:11Z</time>
      </trkpt>
      <trkpt lat="41.832113" lon="2.365314">
        <ele>921.039</ele>
        <time>2016-06-07T14:54:31Z</time>
      </trkpt>
      <trkpt lat="41.832060" lon="2.365202">
        <ele>922.048</ele>
        <time>2016-06-07T14:54:40Z</time>
      </trkpt>
      <trkpt lat="41.832105" lon="2.365097">
        <ele>920.034</ele>
        <time>2016-06-07T14:55:06Z</time>
      </trkpt>
      <trkpt lat="41.832180" lon="2.365010">
        <ele>921.088</ele>
        <time>2016-06-07T14:55:18Z</time>
      </trkpt>
      <trkpt lat="41.832162" lon="2.365156">
        <ele>926.024</ele>
        <time>2016-06-07T14:55:35Z</time>
      </trkpt>
      <trkpt lat="41.831911" lon="2.365250">
        <ele>922.026</ele>
        <time>2016-06-07T14:55:45Z</time>
      </trkpt>
      <trkpt lat="41.832059" lon="2.365176">
        <ele>924.008</ele>
        <time>2016-06-07T14:55:48Z</time>
      </trkpt>
      <trkpt lat="41.831971" lon="2.365115">
        <ele>929.019</ele>
        <time>2016-06-07T14:55:58Z</time>
      </trkpt>
      <trkpt lat="41.832062" lon="2.365144">
        <ele>929.061</ele>
        <time>2016-06-07T14:56:01Z</time>
      </trkpt>
      <trkpt lat="41.832352" lon="2.365131">
        <ele>935.054</ele>
        <time>2016-06-07T14:56:09Z</time>
      </trkpt>
      <trkpt lat="41.832343" lon="2.365324">
        <ele>929.048</ele>
        <time>2016-06-07T14:56:12Z</time>
      </trkpt>
      <trkpt lat="41.832256" lon="2.365359">
        <ele>927.094</ele>
        <time>2016-06-07T14:56:14Z</time>
      </trkpt>
      <trkpt lat="41.832266" lon="2.365176">
        <ele>927.089</ele>
        <time>2016-06-07T14:56:16Z</time>
      </trkpt>
      <trkpt lat="41.832150" lon="2.365209">
        <ele>930.068</ele>
        <time>2016-06-07T14:56:26Z</time>
      </trkpt>
      <trkpt lat="41.832164" lon="2.365090">
        <ele>929.054</ele>
        <time>2016-06-07T14:56:27Z</time>
      </trkpt>
      <trkpt lat="41.832099" lon="2.365184">
        <ele>929.013</ele>
        <time>2016-06-07T14:56:35Z</time>
      </trkpt>
      <trkpt lat="41.832067" lon="2.365064">
        <ele>928.043</ele>
        <time>2016-06-07T14:56:42Z</time>
      </trkpt>
      <trkpt lat="41.832145" lon="2.364974">
        <ele>925.007</ele>
        <time>2016-06-07T14:56:51Z</time>
      </trkpt>
      <trkpt lat="41.832049" lon="2.365061">
        <ele>933.008</ele>
        <time>2016-06-07T14:56:57Z</time>
      </trkpt>
      <trkpt lat="41.832130" lon="2.364980">
        <ele>928.092</ele>
        <time>2016-06-07T14:59:09Z</time>
      </trkpt>
      <trkpt lat="41.832247" lon="2.364977">
        <ele>902.094</ele>
        <time>2016-06-07T14:59:22Z</time>
      </trkpt>
      <trkpt lat="41.832338" lon="2.364962">
        <ele>909.017</ele>
        <time>2016-06-07T14:59:25Z</time>
      </trkpt>
      <trkpt lat="41.832313" lon="2.365079">
        <ele>918.031</ele>
        <time>2016-06-07T14:59:46Z</time>
      </trkpt>
      <trkpt lat="41.832258" lon="2.365199">
        <ele>919.037</ele>
        <time>2016-06-07T14:59:54Z</time>
      </trkpt>
      <trkpt lat="41.832151" lon="2.365263">
        <ele>919.042</ele>
        <time>2016-06-07T15:00:06Z</time>
      </trkpt>
      <trkpt lat="41.832111" lon="2.365150">
        <ele>916.041</ele>
        <time>2016-06-07T15:00:22Z</time>
      </trkpt>
      <trkpt lat="41.832177" lon="2.365245">
        <ele>922.037</ele>
        <time>2016-06-07T15:01:07Z</time>
      </trkpt>
      <trkpt lat="41.832069" lon="2.365263">
        <ele>927.087</ele>
        <time>2016-06-07T15:03:10Z</time>
      </trkpt>
      <trkpt lat="41.832009" lon="2.365169">
        <ele>922.042</ele>
        <time>2016-06-07T15:03:20Z</time>
      </trkpt>
      <trkpt lat="41.832068" lon="2.365271">
        <ele>924.026</ele>
        <time>2016-06-07T15:08:14Z</time>
      </trkpt>
      <trkpt lat="41.832152" lon="2.365349">
        <ele>921.008</ele>
        <time>2016-06-07T15:08:23Z</time>
      </trkpt>
      <trkpt lat="41.832225" lon="2.365423">
        <ele>922.099</ele>
        <time>2016-06-07T15:08:32Z</time>
      </trkpt>
      <trkpt lat="41.832286" lon="2.365542">
        <ele>923.021</ele>
        <time>2016-06-07T15:08:44Z</time>
      </trkpt>
      <trkpt lat="41.832388" lon="2.365591">
        <ele>923.094</ele>
        <time>2016-06-07T15:08:51Z</time>
      </trkpt>
      <trkpt lat="41.832459" lon="2.365680">
        <ele>920.098</ele>
        <time>2016-06-07T15:08:56Z</time>
      </trkpt>
      <trkpt lat="41.832507" lon="2.365792">
        <ele>918.034</ele>
        <time>2016-06-07T15:09:11Z</time>
      </trkpt>
      <trkpt lat="41.832460" lon="2.365907">
        <ele>915.079</ele>
        <time>2016-06-07T15:09:21Z</time>
      </trkpt>
      <trkpt lat="41.832422" lon="2.366021">
        <ele>919.018</ele>
        <time>2016-06-07T15:09:47Z</time>
      </trkpt>
      <trkpt lat="41.832353" lon="2.366103">
        <ele>921.094</ele>
        <time>2016-06-07T15:09:57Z</time>
      </trkpt>
      <trkpt lat="41.832364" lon="2.366238">
        <ele>922.096</ele>
        <time>2016-06-07T15:10:10Z</time>
      </trkpt>
      <trkpt lat="41.832273" lon="2.366245">
        <ele>915.031</ele>
        <time>2016-06-07T15:10:13Z</time>
      </trkpt>
      <trkpt lat="41.832243" lon="2.366365">
        <ele>919.024</ele>
        <time>2016-06-07T15:10:32Z</time>
      </trkpt>
      <trkpt lat="41.832216" lon="2.366482">
        <ele>924.008</ele>
        <time>2016-06-07T15:10:43Z</time>
      </trkpt>
      <trkpt lat="41.832186" lon="2.366597">
        <ele>929.080</ele>
        <time>2016-06-07T15:10:55Z</time>
      </trkpt>
      <trkpt lat="41.832111" lon="2.366665">
        <ele>928.022</ele>
        <time>2016-06-07T15:11:07Z</time>
      </trkpt>
      <trkpt lat="41.832041" lon="2.366742">
        <ele>921.065</ele>
        <time>2016-06-07T15:11:13Z</time>
      </trkpt>
      <trkpt lat="41.832055" lon="2.366874">
        <ele>925.059</ele>
        <time>2016-06-07T15:11:31Z</time>
      </trkpt>
      <trkpt lat="41.832003" lon="2.366976">
        <ele>930.035</ele>
        <time>2016-06-07T15:11:38Z</time>
      </trkpt>
      <trkpt lat="41.831973" lon="2.367127">
        <ele>931.070</ele>
        <time>2016-06-07T15:12:04Z</time>
      </trkpt>
      <trkpt lat="41.831917" lon="2.367240">
        <ele>930.099</ele>
        <time>2016-06-07T15:12:11Z</time>
      </trkpt>
      <trkpt lat="41.831869" lon="2.367347">
        <ele>933.065</ele>
        <time>2016-06-07T15:12:20Z</time>
      </trkpt>
      <trkpt lat="41.831826" lon="2.367459">
        <ele>936.082</ele>
        <time>2016-06-07T15:12:38Z</time>
      </trkpt>
      <trkpt lat="41.831691" lon="2.367533">
        <ele>937.043</ele>
        <time>2016-06-07T15:12:57Z</time>
      </trkpt>
      <trkpt lat="41.831706" lon="2.367660">
        <ele>938.017</ele>
        <time>2016-06-07T15:13:01Z</time>
      </trkpt>
      <trkpt lat="41.831732" lon="2.367809">
        <ele>945.008</ele>
        <time>2016-06-07T15:13:11Z</time>
      </trkpt>
      <trkpt lat="41.831642" lon="2.367893">
        <ele>944.079</ele>
        <time>2016-06-07T15:13:22Z</time>
      </trkpt>
      <trkpt lat="41.831616" lon="2.368015">
        <ele>950.061</ele>
        <time>2016-06-07T15:13:36Z</time>
      </trkpt>
      <trkpt lat="41.831563" lon="2.368121">
        <ele>954.094</ele>
        <time>2016-06-07T15:14:06Z</time>
      </trkpt>
      <trkpt lat="41.831577" lon="2.368257">
        <ele>965.028</ele>
        <time>2016-06-07T15:14:17Z</time>
      </trkpt>
      <trkpt lat="41.831505" lon="2.368331">
        <ele>965.034</ele>
        <time>2016-06-07T15:14:30Z</time>
      </trkpt>
      <trkpt lat="41.831425" lon="2.368391">
        <ele>963.029</ele>
        <time>2016-06-07T15:14:44Z</time>
      </trkpt>
      <trkpt lat="41.831461" lon="2.368520">
        <ele>967.048</ele>
        <time>2016-06-07T15:14:54Z</time>
      </trkpt>
      <trkpt lat="41.831441" lon="2.368643">
        <ele>967.044</ele>
        <time>2016-06-07T15:15:06Z</time>
      </trkpt>
      <trkpt lat="41.831345" lon="2.368696">
        <ele>953.092</ele>
        <time>2016-06-07T15:15:18Z</time>
      </trkpt>
      <trkpt lat="41.831262" lon="2.368780">
        <ele>963.073</ele>
        <time>2016-06-07T15:15:24Z</time>
      </trkpt>
      <trkpt lat="41.831171" lon="2.368877">
        <ele>965.020</ele>
        <time>2016-06-07T15:15:30Z</time>
      </trkpt>
      <trkpt lat="41.831053" lon="2.368919">
        <ele>965.008</ele>
        <time>2016-06-07T15:15:37Z</time>
      </trkpt>
      <trkpt lat="41.830954" lon="2.368914">
        <ele>964.070</ele>
        <time>2016-06-07T15:15:41Z</time>
      </trkpt>
      <trkpt lat="41.830870" lon="2.368861">
        <ele>964.032</ele>
        <time>2016-06-07T15:15:44Z</time>
      </trkpt>
      <trkpt lat="41.830788" lon="2.368910">
        <ele>964.035</ele>
        <time>2016-06-07T15:15:51Z</time>
      </trkpt>
      <trkpt lat="41.830675" lon="2.368911">
        <ele>968.099</ele>
        <time>2016-06-07T15:16:04Z</time>
      </trkpt>
      <trkpt lat="41.830563" lon="2.368907">
        <ele>979.045</ele>
        <time>2016-06-07T15:16:16Z</time>
      </trkpt>
      <trkpt lat="41.830402" lon="2.368879">
        <ele>975.020</ele>
        <time>2016-06-07T15:16:39Z</time>
      </trkpt>
      <trkpt lat="41.830297" lon="2.368935">
        <ele>973.029</ele>
        <time>2016-06-07T15:16:53Z</time>
      </trkpt>
      <trkpt lat="41.830213" lon="2.368886">
        <ele>979.085</ele>
        <time>2016-06-07T15:17:04Z</time>
      </trkpt>
      <trkpt lat="41.830106" lon="2.368925">
        <ele>983.017</ele>
        <time>2016-06-07T15:17:59Z</time>
      </trkpt>
      <trkpt lat="41.829995" lon="2.368998">
        <ele>979.087</ele>
        <time>2016-06-07T15:18:07Z</time>
      </trkpt>
      <trkpt lat="41.829851" lon="2.369071">
        <ele>979.015</ele>
        <time>2016-06-07T15:18:15Z</time>
      </trkpt>
      <trkpt lat="41.829884" lon="2.369189">
        <ele>987.008</ele>
        <time>2016-06-07T15:18:24Z</time>
      </trkpt>
      <trkpt lat="41.829868" lon="2.369328">
        <ele>996.032</ele>
        <time>2016-06-07T15:18:39Z</time>
      </trkpt>
      <trkpt lat="41.829761" lon="2.369389">
        <ele>1008.074</ele>
        <time>2016-06-07T15:19:08Z</time>
      </trkpt>
      <trkpt lat="41.829686" lon="2.369467">
        <ele>1006.087</ele>
        <time>2016-06-07T15:19:11Z</time>
      </trkpt>
      <trkpt lat="41.829602" lon="2.369518">
        <ele>1006.061</ele>
        <time>2016-06-07T15:19:15Z</time>
      </trkpt>
      <trkpt lat="41.829555" lon="2.369640">
        <ele>1014.087</ele>
        <time>2016-06-07T15:19:22Z</time>
      </trkpt>
      <trkpt lat="41.829450" lon="2.369652">
        <ele>1021.052</ele>
        <time>2016-06-07T15:19:49Z</time>
      </trkpt>
      <trkpt lat="41.829365" lon="2.369705">
        <ele>1022.051</ele>
        <time>2016-06-07T15:19:55Z</time>
      </trkpt>
      <trkpt lat="41.829315" lon="2.369826">
        <ele>1024.097</ele>
        <time>2016-06-07T15:20:07Z</time>
      </trkpt>
      <trkpt lat="41.829206" lon="2.369874">
        <ele>1024.049</ele>
        <time>2016-06-07T15:20:13Z</time>
      </trkpt>
      <trkpt lat="41.829133" lon="2.369959">
        <ele>1025.002</ele>
        <time>2016-06-07T15:20:19Z</time>
      </trkpt>
      <trkpt lat="41.829075" lon="2.370051">
        <ele>1028.022</ele>
        <time>2016-06-07T15:20:24Z</time>
      </trkpt>
      <trkpt lat="41.828980" lon="2.370091">
        <ele>1029.008</ele>
        <time>2016-06-07T15:20:49Z</time>
      </trkpt>
      <trkpt lat="41.828888" lon="2.370095">
        <ele>1026.035</ele>
        <time>2016-06-07T15:20:50Z</time>
      </trkpt>
      <trkpt lat="41.828933" lon="2.370220">
        <ele>1027.057</ele>
        <time>2016-06-07T15:20:57Z</time>
      </trkpt>
      <trkpt lat="41.828842" lon="2.370264">
        <ele>1022.050</ele>
        <time>2016-06-07T15:21:06Z</time>
      </trkpt>
      <trkpt lat="41.828907" lon="2.370360">
        <ele>1026.074</ele>
        <time>2016-06-07T15:21:16Z</time>
      </trkpt>
      <trkpt lat="41.828906" lon="2.370501">
        <ele>1027.010</ele>
        <time>2016-06-07T15:21:27Z</time>
      </trkpt>
      <trkpt lat="41.828843" lon="2.370601">
        <ele>1033.015</ele>
        <time>2016-06-07T15:21:53Z</time>
      </trkpt>
      <trkpt lat="41.828749" lon="2.370644">
        <ele>1038.064</ele>
        <time>2016-06-07T15:22:00Z</time>
      </trkpt>
      <trkpt lat="41.828648" lon="2.370685">
        <ele>1039.040</ele>
        <time>2016-06-07T15:22:06Z</time>
      </trkpt>
      <trkpt lat="41.828547" lon="2.370662">
        <ele>1040.027</ele>
        <time>2016-06-07T15:22:08Z</time>
      </trkpt>
      <trkpt lat="41.828613" lon="2.370770">
        <ele>1033.068</ele>
        <time>2016-06-07T15:22:12Z</time>
      </trkpt>
      <trkpt lat="41.828542" lon="2.370863">
        <ele>1037.014</ele>
        <time>2016-06-07T15:22:33Z</time>
      </trkpt>
      <trkpt lat="41.828451" lon="2.370940">
        <ele>1040.008</ele>
        <time>2016-06-07T15:22:53Z</time>
      </trkpt>
      <trkpt lat="41.828411" lon="2.371055">
        <ele>1039.073</ele>
        <time>2016-06-07T15:22:58Z</time>
      </trkpt>
      <trkpt lat="41.828340" lon="2.371152">
        <ele>1043.055</ele>
        <time>2016-06-07T15:23:06Z</time>
      </trkpt>
      <trkpt lat="41.828326" lon="2.371288">
        <ele>1044.038</ele>
        <time>2016-06-07T15:23:13Z</time>
      </trkpt>
      <trkpt lat="41.828241" lon="2.371339">
        <ele>1047.082</ele>
        <time>2016-06-07T15:23:21Z</time>
      </trkpt>
      <trkpt lat="41.828181" lon="2.371449">
        <ele>1051.038</ele>
        <time>2016-06-07T15:23:31Z</time>
      </trkpt>
      <trkpt lat="41.828097" lon="2.371546">
        <ele>1052.043</ele>
        <time>2016-06-07T15:24:56Z</time>
      </trkpt>
      <trkpt lat="41.827968" lon="2.371580">
        <ele>1057.072</ele>
        <time>2016-06-07T15:25:08Z</time>
      </trkpt>
      <trkpt lat="41.828006" lon="2.371715">
        <ele>1063.068</ele>
        <time>2016-06-07T15:25:26Z</time>
      </trkpt>
      <trkpt lat="41.828001" lon="2.371851">
        <ele>1069.031</ele>
        <time>2016-06-07T15:26:53Z</time>
      </trkpt>
      <trkpt lat="41.828018" lon="2.371992">
        <ele>1070.061</ele>
        <time>2016-06-07T15:27:01Z</time>
      </trkpt>
      <trkpt lat="41.827982" lon="2.372113">
        <ele>1071.007</ele>
        <time>2016-06-07T15:27:12Z</time>
      </trkpt>
      <trkpt lat="41.827906" lon="2.372202">
        <ele>1075.008</ele>
        <time>2016-06-07T15:27:21Z</time>
      </trkpt>
      <trkpt lat="41.827876" lon="2.372316">
        <ele>1073.014</ele>
        <time>2016-06-07T15:27:38Z</time>
      </trkpt>
      <trkpt lat="41.827891" lon="2.372443">
        <ele>1081.016</ele>
        <time>2016-06-07T15:28:02Z</time>
      </trkpt>
      <trkpt lat="41.827809" lon="2.372529">
        <ele>1085.059</ele>
        <time>2016-06-07T15:28:20Z</time>
      </trkpt>
      <trkpt lat="41.827541" lon="2.372812">
        <ele>1095.083</ele>
        <time>2016-06-07T15:29:21Z</time>
      </trkpt>
      <trkpt lat="41.827639" lon="2.372937">
        <ele>1095.049</ele>
        <time>2016-06-07T15:29:23Z</time>
      </trkpt>
      <trkpt lat="41.827679" lon="2.372825">
        <ele>1094.064</ele>
        <time>2016-06-07T15:29:32Z</time>
      </trkpt>
      <trkpt lat="41.827569" lon="2.372763">
        <ele>1104.073</ele>
        <time>2016-06-07T15:29:35Z</time>
      </trkpt>
      <trkpt lat="41.827647" lon="2.372829">
        <ele>1101.039</ele>
        <time>2016-06-07T15:29:53Z</time>
      </trkpt>
      <trkpt lat="41.827615" lon="2.372948">
        <ele>1097.066</ele>
        <time>2016-06-07T15:30:16Z</time>
      </trkpt>
      <trkpt lat="41.827668" lon="2.373085">
        <ele>1096.029</ele>
        <time>2016-06-07T15:30:24Z</time>
      </trkpt>
      <trkpt lat="41.827572" lon="2.373135">
        <ele>1076.021</ele>
        <time>2016-06-07T15:30:56Z</time>
      </trkpt>
      <trkpt lat="41.827474" lon="2.373184">
        <ele>1076.008</ele>
        <time>2016-06-07T15:30:58Z</time>
      </trkpt>
      <trkpt lat="41.827384" lon="2.373209">
        <ele>1083.057</ele>
        <time>2016-06-07T15:31:02Z</time>
      </trkpt>
      <trkpt lat="41.827356" lon="2.373337">
        <ele>1099.059</ele>
        <time>2016-06-07T15:31:46Z</time>
      </trkpt>
      <trkpt lat="41.827243" lon="2.373406">
        <ele>1106.012</ele>
        <time>2016-06-07T15:32:04Z</time>
      </trkpt>
      <trkpt lat="41.827296" lon="2.373521">
        <ele>1109.026</ele>
        <time>2016-06-07T15:32:56Z</time>
      </trkpt>
      <trkpt lat="41.827290" lon="2.373647">
        <ele>1107.032</ele>
        <time>2016-06-07T15:33:06Z</time>
      </trkpt>
      <trkpt lat="41.827242" lon="2.373752">
        <ele>1112.057</ele>
        <time>2016-06-07T15:33:18Z</time>
      </trkpt>
      <trkpt lat="41.827199" lon="2.373858">
        <ele>1120.056</ele>
        <time>2016-06-07T15:33:36Z</time>
      </trkpt>
      <trkpt lat="41.827133" lon="2.373945">
        <ele>1117.052</ele>
        <time>2016-06-07T15:33:52Z</time>
      </trkpt>
      <trkpt lat="41.827044" lon="2.373967">
        <ele>1118.058</ele>
        <time>2016-06-07T15:34:18Z</time>
      </trkpt>
      <trkpt lat="41.826948" lon="2.373981">
        <ele>1118.052</ele>
        <time>2016-06-07T15:34:19Z</time>
      </trkpt>
      <trkpt lat="41.826949" lon="2.374103">
        <ele>1118.017</ele>
        <time>2016-06-07T15:34:24Z</time>
      </trkpt>
      <trkpt lat="41.826873" lon="2.374194">
        <ele>1126.008</ele>
        <time>2016-06-07T15:35:03Z</time>
      </trkpt>
      <trkpt lat="41.826883" lon="2.374326">
        <ele>1130.096</ele>
        <time>2016-06-07T15:35:09Z</time>
      </trkpt>
      <trkpt lat="41.826934" lon="2.374448">
        <ele>1124.078</ele>
        <time>2016-06-07T15:35:43Z</time>
      </trkpt>
      <trkpt lat="41.827001" lon="2.374531">
        <ele>1128.051</ele>
        <time>2016-06-07T15:35:48Z</time>
      </trkpt>
      <trkpt lat="41.827056" lon="2.374630">
        <ele>1133.075</ele>
        <time>2016-06-07T15:35:57Z</time>
      </trkpt>
      <trkpt lat="41.827102" lon="2.374741">
        <ele>1135.051</ele>
        <time>2016-06-07T15:36:02Z</time>
      </trkpt>
      <trkpt lat="41.827114" lon="2.374870">
        <ele>1135.066</ele>
        <time>2016-06-07T15:36:20Z</time>
      </trkpt>
      <trkpt lat="41.827125" lon="2.374997">
        <ele>1143.045</ele>
        <time>2016-06-07T15:36:45Z</time>
      </trkpt>
      <trkpt lat="41.827070" lon="2.375100">
        <ele>1145.051</ele>
        <time>2016-06-07T15:36:55Z</time>
      </trkpt>
      <trkpt lat="41.826979" lon="2.375106">
        <ele>1144.026</ele>
        <time>2016-06-07T15:37:12Z</time>
      </trkpt>
      <trkpt lat="41.826886" lon="2.375132">
        <ele>1146.047</ele>
        <time>2016-06-07T15:37:19Z</time>
      </trkpt>
      <trkpt lat="41.826775" lon="2.375141">
        <ele>1148.011</ele>
        <time>2016-06-07T15:37:25Z</time>
      </trkpt>
      <trkpt lat="41.826696" lon="2.375049">
        <ele>1150.008</ele>
        <time>2016-06-07T15:37:35Z</time>
      </trkpt>
      <trkpt lat="41.826619" lon="2.374957">
        <ele>1152.043</ele>
        <time>2016-06-07T15:37:39Z</time>
      </trkpt>
      <trkpt lat="41.826446" lon="2.374924">
        <ele>1148.015</ele>
        <time>2016-06-07T15:38:54Z</time>
      </trkpt>
      <trkpt lat="41.826344" lon="2.374980">
        <ele>1147.088</ele>
        <time>2016-06-07T15:38:59Z</time>
      </trkpt>
      <trkpt lat="41.826255" lon="2.374955">
        <ele>1148.082</ele>
        <time>2016-06-07T15:39:01Z</time>
      </trkpt>
      <trkpt lat="41.826165" lon="2.374980">
        <ele>1149.088</ele>
        <time>2016-06-07T15:39:03Z</time>
      </trkpt>
      <trkpt lat="41.826075" lon="2.375028">
        <ele>1154.033</ele>
        <time>2016-06-07T15:39:16Z</time>
      </trkpt>
      <trkpt lat="41.825988" lon="2.374989">
        <ele>1173.052</ele>
        <time>2016-06-07T15:40:11Z</time>
      </trkpt>
      <trkpt lat="41.825889" lon="2.374999">
        <ele>1172.088</ele>
        <time>2016-06-07T15:40:18Z</time>
      </trkpt>
      <trkpt lat="41.825783" lon="2.375008">
        <ele>1172.072</ele>
        <time>2016-06-07T15:40:22Z</time>
      </trkpt>
      <trkpt lat="41.825688" lon="2.374999">
        <ele>1178.013</ele>
        <time>2016-06-07T15:40:32Z</time>
      </trkpt>
      <trkpt lat="41.825591" lon="2.375000">
        <ele>1180.014</ele>
        <time>2016-06-07T15:40:58Z</time>
      </trkpt>
      <trkpt lat="41.825493" lon="2.374967">
        <ele>1180.008</ele>
        <time>2016-06-07T15:41:28Z</time>
      </trkpt>
      <trkpt lat="41.825399" lon="2.374958">
        <ele>1184.088</ele>
        <time>2016-06-07T15:41:45Z</time>
      </trkpt>
      <trkpt lat="41.825315" lon="2.375005">
        <ele>1182.080</ele>
        <time>2016-06-07T15:41:57Z</time>
      </trkpt>
      <trkpt lat="41.825222" lon="2.375043">
        <ele>1169.093</ele>
        <time>2016-06-07T15:42:38Z</time>
      </trkpt>
      <trkpt lat="41.825160" lon="2.375152">
        <ele>1196.017</ele>
        <time>2016-06-07T15:43:19Z</time>
      </trkpt>
      <trkpt lat="41.825241" lon="2.375240">
        <ele>1195.053</ele>
        <time>2016-06-07T15:43:31Z</time>
      </trkpt>
      <trkpt lat="41.825272" lon="2.375354">
        <ele>1195.058</ele>
        <time>2016-06-07T15:43:39Z</time>
      </trkpt>
      <trkpt lat="41.825358" lon="2.375441">
        <ele>1198.037</ele>
        <time>2016-06-07T15:43:47Z</time>
      </trkpt>
      <trkpt lat="41.825365" lon="2.375566">
        <ele>1198.063</ele>
        <time>2016-06-07T15:44:01Z</time>
      </trkpt>
      <trkpt lat="41.825429" lon="2.375671">
        <ele>1196.069</ele>
        <time>2016-06-07T15:44:09Z</time>
      </trkpt>
      <trkpt lat="41.825522" lon="2.375737">
        <ele>1196.004</ele>
        <time>2016-06-07T15:44:15Z</time>
      </trkpt>
      <trkpt lat="41.825598" lon="2.375807">
        <ele>1198.024</ele>
        <time>2016-06-07T15:44:20Z</time>
      </trkpt>
      <trkpt lat="41.825556" lon="2.375939">
        <ele>1198.008</ele>
        <time>2016-06-07T15:44:28Z</time>
      </trkpt>
      <trkpt lat="41.825540" lon="2.376059">
        <ele>1201.087</ele>
        <time>2016-06-07T15:44:38Z</time>
      </trkpt>
      <trkpt lat="41.825504" lon="2.376171">
        <ele>1201.019</ele>
        <time>2016-06-07T15:44:46Z</time>
      </trkpt>
      <trkpt lat="41.825476" lon="2.376311">
        <ele>1203.042</ele>
        <time>2016-06-07T15:44:55Z</time>
      </trkpt>
      <trkpt lat="41.825508" lon="2.376433">
        <ele>1199.016</ele>
        <time>2016-06-07T15:45:20Z</time>
      </trkpt>
      <trkpt lat="41.825483" lon="2.376553">
        <ele>1216.062</ele>
        <time>2016-06-07T15:45:41Z</time>
      </trkpt>
      <trkpt lat="41.825422" lon="2.376684">
        <ele>1215.047</ele>
        <time>2016-06-07T15:46:17Z</time>
      </trkpt>
      <trkpt lat="41.825322" lon="2.376717">
        <ele>1214.056</ele>
        <time>2016-06-07T15:46:23Z</time>
      </trkpt>
      <trkpt lat="41.825257" lon="2.376835">
        <ele>1218.062</ele>
        <time>2016-06-07T15:46:28Z</time>
      </trkpt>
      <trkpt lat="41.825170" lon="2.376921">
        <ele>1219.026</ele>
        <time>2016-06-07T15:46:38Z</time>
      </trkpt>
      <trkpt lat="41.825091" lon="2.376979">
        <ele>1217.047</ele>
        <time>2016-06-07T15:46:48Z</time>
      </trkpt>
      <trkpt lat="41.825126" lon="2.377096">
        <ele>1024.011</ele>
        <time>2016-06-07T15:46:58Z</time>
      </trkpt>
      <trkpt lat="41.825080" lon="2.377206">
        <ele>1224.008</ele>
        <time>2016-06-07T15:47:32Z</time>
      </trkpt>
      <trkpt lat="41.825006" lon="2.377274">
        <ele>1227.023</ele>
        <time>2016-06-07T15:47:49Z</time>
      </trkpt>
      <trkpt lat="41.824947" lon="2.377370">
        <ele>1232.085</ele>
        <time>2016-06-07T15:47:55Z</time>
      </trkpt>
      <trkpt lat="41.824846" lon="2.377363">
        <ele>1229.038</ele>
        <time>2016-06-07T15:48:01Z</time>
      </trkpt>
      <trkpt lat="41.824799" lon="2.377476">
        <ele>1239.092</ele>
        <time>2016-06-07T15:48:13Z</time>
      </trkpt>
      <trkpt lat="41.824703" lon="2.377496">
        <ele>1240.088</ele>
        <time>2016-06-07T15:48:24Z</time>
      </trkpt>
      <trkpt lat="41.824672" lon="2.377617">
        <ele>1244.043</ele>
        <time>2016-06-07T15:48:36Z</time>
      </trkpt>
      <trkpt lat="41.824690" lon="2.377752">
        <ele>1243.022</ele>
        <time>2016-06-07T15:48:49Z</time>
      </trkpt>
      <trkpt lat="41.824724" lon="2.377869">
        <ele>1244.078</ele>
        <time>2016-06-07T15:49:04Z</time>
      </trkpt>
      <trkpt lat="41.824687" lon="2.377742">
        <ele>1240.085</ele>
        <time>2016-06-07T15:49:21Z</time>
      </trkpt>
      <trkpt lat="41.824595" lon="2.377677">
        <ele>1246.089</ele>
        <time>2016-06-07T15:49:34Z</time>
      </trkpt>
      <trkpt lat="41.824543" lon="2.377789">
        <ele>1253.017</ele>
        <time>2016-06-07T15:50:15Z</time>
      </trkpt>
      <trkpt lat="41.824444" lon="2.377808">
        <ele>1252.008</ele>
        <time>2016-06-07T15:50:19Z</time>
      </trkpt>
      <trkpt lat="41.824349" lon="2.377843">
        <ele>1255.069</ele>
        <time>2016-06-07T15:50:26Z</time>
      </trkpt>
      <trkpt lat="41.824265" lon="2.377899">
        <ele>1252.081</ele>
        <time>2016-06-07T15:50:36Z</time>
      </trkpt>
      <trkpt lat="41.824185" lon="2.377986">
        <ele>1253.024</ele>
        <time>2016-06-07T15:50:44Z</time>
      </trkpt>
      <trkpt lat="41.824189" lon="2.378111">
        <ele>1258.018</ele>
        <time>2016-06-07T15:50:52Z</time>
      </trkpt>
      <trkpt lat="41.824108" lon="2.378049">
        <ele>1261.014</ele>
        <time>2016-06-07T15:51:58Z</time>
      </trkpt>
      <trkpt lat="41.824121" lon="2.377927">
        <ele>1263.069</ele>
        <time>2016-06-07T15:52:09Z</time>
      </trkpt>
      <trkpt lat="41.824101" lon="2.377786">
        <ele>1264.028</ele>
        <time>2016-06-07T15:52:20Z</time>
      </trkpt>
      <trkpt lat="41.824109" lon="2.377666">
        <ele>1267.014</ele>
        <time>2016-06-07T15:52:37Z</time>
      </trkpt>
      <trkpt lat="41.824073" lon="2.377552">
        <ele>1268.074</ele>
        <time>2016-06-07T15:52:48Z</time>
      </trkpt>
      <trkpt lat="41.824083" lon="2.377431">
        <ele>1278.056</ele>
        <time>2016-06-07T15:53:10Z</time>
      </trkpt>
      <trkpt lat="41.824066" lon="2.377310">
        <ele>1280.021</ele>
        <time>2016-06-07T15:53:44Z</time>
      </trkpt>
      <trkpt lat="41.824016" lon="2.377207">
        <ele>1289.008</ele>
        <time>2016-06-07T15:54:33Z</time>
      </trkpt>
      <trkpt lat="41.823924" lon="2.377220">
        <ele>1292.028</ele>
        <time>2016-06-07T15:55:23Z</time>
      </trkpt>
      <trkpt lat="41.823837" lon="2.377256">
        <ele>1301.050</ele>
        <time>2016-06-07T15:56:19Z</time>
      </trkpt>
      <trkpt lat="41.823753" lon="2.377301">
        <ele>1306.093</ele>
        <time>2016-06-07T15:57:12Z</time>
      </trkpt>
      <trkpt lat="41.823665" lon="2.377276">
        <ele>1306.017</ele>
        <time>2016-06-07T15:57:19Z</time>
      </trkpt>
      <trkpt lat="41.823573" lon="2.377216">
        <ele>1313.073</ele>
        <time>2016-06-07T15:57:46Z</time>
      </trkpt>
      <trkpt lat="41.823521" lon="2.377112">
        <ele>1326.048</ele>
        <time>2016-06-07T15:58:08Z</time>
      </trkpt>
      <trkpt lat="41.823461" lon="2.377021">
        <ele>1325.037</ele>
        <time>2016-06-07T15:58:15Z</time>
      </trkpt>
      <trkpt lat="41.823380" lon="2.376961">
        <ele>1327.073</ele>
        <time>2016-06-07T15:58:35Z</time>
      </trkpt>
      <trkpt lat="41.823291" lon="2.376907">
        <ele>1328.096</ele>
        <time>2016-06-07T15:58:55Z</time>
      </trkpt>
      <trkpt lat="41.823221" lon="2.376826">
        <ele>1331.031</ele>
        <time>2016-06-07T15:59:06Z</time>
      </trkpt>
      <trkpt lat="41.823139" lon="2.376690">
        <ele>1332.024</ele>
        <time>2016-06-07T15:59:23Z</time>
      </trkpt>
      <trkpt lat="41.823063" lon="2.376763">
        <ele>1323.008</ele>
        <time>2016-06-07T15:59:42Z</time>
      </trkpt>
      <trkpt lat="41.822969" lon="2.376747">
        <ele>1341.030</ele>
        <time>2016-06-07T16:00:04Z</time>
      </trkpt>
      <trkpt lat="41.822919" lon="2.376642">
        <ele>1349.082</ele>
        <time>2016-06-07T16:00:52Z</time>
      </trkpt>
      <trkpt lat="41.822877" lon="2.376527">
        <ele>1353.065</ele>
        <time>2016-06-07T16:01:05Z</time>
      </trkpt>
      <trkpt lat="41.822788" lon="2.376495">
        <ele>1360.049</ele>
        <time>2016-06-07T16:01:18Z</time>
      </trkpt>
      <trkpt lat="41.822713" lon="2.376412">
        <ele>1364.065</ele>
        <time>2016-06-07T16:01:34Z</time>
      </trkpt>
      <trkpt lat="41.822630" lon="2.376347">
        <ele>1370.020</ele>
        <time>2016-06-07T16:01:59Z</time>
      </trkpt>
      <trkpt lat="41.822549" lon="2.376279">
        <ele>1370.029</ele>
        <time>2016-06-07T16:02:10Z</time>
      </trkpt>
      <trkpt lat="41.822543" lon="2.376151">
        <ele>1371.065</ele>
        <time>2016-06-07T16:03:35Z</time>
      </trkpt>
      <trkpt lat="41.822491" lon="2.376050">
        <ele>1375.015</ele>
        <time>2016-06-07T16:03:56Z</time>
      </trkpt>
      <trkpt lat="41.822464" lon="2.375932">
        <ele>1380.065</ele>
        <time>2016-06-07T16:04:43Z</time>
      </trkpt>
      <trkpt lat="41.822426" lon="2.375821">
        <ele>1381.011</ele>
        <time>2016-06-07T16:04:58Z</time>
      </trkpt>
      <trkpt lat="41.822363" lon="2.375733">
        <ele>1383.008</ele>
        <time>2016-06-07T16:05:16Z</time>
      </trkpt>
      <trkpt lat="41.822265" lon="2.375740">
        <ele>1384.042</ele>
        <time>2016-06-07T16:06:18Z</time>
      </trkpt>
      <trkpt lat="41.822179" lon="2.375775">
        <ele>1382.044</ele>
        <time>2016-06-07T16:06:26Z</time>
      </trkpt>
      <trkpt lat="41.822078" lon="2.375796">
        <ele>1314.087</ele>
        <time>2016-06-07T16:06:51Z</time>
      </trkpt>
      <trkpt lat="41.821975" lon="2.375820">
        <ele>1354.051</ele>
        <time>2016-06-07T16:06:58Z</time>
      </trkpt>
      <trkpt lat="41.821873" lon="2.375851">
        <ele>1369.077</ele>
        <time>2016-06-07T16:07:05Z</time>
      </trkpt>
      <trkpt lat="41.821786" lon="2.375895">
        <ele>1371.072</ele>
        <time>2016-06-07T16:07:13Z</time>
      </trkpt>
      <trkpt lat="41.821693" lon="2.375932">
        <ele>1385.041</ele>
        <time>2016-06-07T16:07:33Z</time>
      </trkpt>
      <trkpt lat="41.821599" lon="2.375947">
        <ele>1379.077</ele>
        <time>2016-06-07T16:07:44Z</time>
      </trkpt>
      <trkpt lat="41.821501" lon="2.375941">
        <ele>1388.026</ele>
        <time>2016-06-07T16:08:04Z</time>
      </trkpt>
      <trkpt lat="41.821409" lon="2.375922">
        <ele>1387.047</ele>
        <time>2016-06-07T16:08:15Z</time>
      </trkpt>
      <trkpt lat="41.821324" lon="2.375873">
        <ele>1386.011</ele>
        <time>2016-06-07T16:08:30Z</time>
      </trkpt>
      <trkpt lat="41.821256" lon="2.375774">
        <ele>1397.008</ele>
        <time>2016-06-07T16:09:17Z</time>
      </trkpt>
      <trkpt lat="41.821183" lon="2.375688">
        <ele>1401.033</ele>
        <time>2016-06-07T16:09:25Z</time>
      </trkpt>
      <trkpt lat="41.821111" lon="2.375610">
        <ele>1401.015</ele>
        <time>2016-06-07T16:09:52Z</time>
      </trkpt>
      <trkpt lat="41.821036" lon="2.375530">
        <ele>1394.088</ele>
        <time>2016-06-07T16:09:58Z</time>
      </trkpt>
      <trkpt lat="41.820999" lon="2.375404">
        <ele>1394.032</ele>
        <time>2016-06-07T16:10:05Z</time>
      </trkpt>
      <trkpt lat="41.820946" lon="2.375270">
        <ele>1397.018</ele>
        <time>2016-06-07T16:10:12Z</time>
      </trkpt>
      <trkpt lat="41.820877" lon="2.375358">
        <ele>1396.073</ele>
        <time>2016-06-07T16:11:45Z</time>
      </trkpt>
      <trkpt lat="41.820863" lon="2.375483">
        <ele>1404.082</ele>
        <time>2016-06-07T16:11:59Z</time>
      </trkpt>
      <trkpt lat="41.820946" lon="2.375426">
        <ele>1391.028</ele>
        <time>2016-06-07T16:12:35Z</time>
      </trkpt>
      <trkpt lat="41.821036" lon="2.375421">
        <ele>1383.077</ele>
        <time>2016-06-07T16:13:07Z</time>
      </trkpt>
      <trkpt lat="41.821121" lon="2.375487">
        <ele>1393.061</ele>
        <time>2016-06-07T16:13:19Z</time>
      </trkpt>
      <trkpt lat="41.821202" lon="2.375539">
        <ele>1396.027</ele>
        <time>2016-06-07T16:13:26Z</time>
      </trkpt>
      <trkpt lat="41.821274" lon="2.375619">
        <ele>1399.008</ele>
        <time>2016-06-07T16:13:46Z</time>
      </trkpt>
      <trkpt lat="41.821359" lon="2.375664">
        <ele>1409.098</ele>
        <time>2016-06-07T16:14:07Z</time>
      </trkpt>
      <trkpt lat="41.821288" lon="2.375740">
        <ele>1403.050</ele>
        <time>2016-06-07T16:14:38Z</time>
      </trkpt>
      <trkpt lat="41.821197" lon="2.375800">
        <ele>1395.043</ele>
        <time>2016-06-07T16:14:46Z</time>
      </trkpt>
      <trkpt lat="41.821107" lon="2.375848">
        <ele>1399.097</ele>
        <time>2016-06-07T16:15:15Z</time>
      </trkpt>
      <trkpt lat="41.821012" lon="2.375875">
        <ele>1402.083</ele>
        <time>2016-06-07T16:15:21Z</time>
      </trkpt>
      <trkpt lat="41.820954" lon="2.375973">
        <ele>1427.088</ele>
        <time>2016-06-07T16:17:12Z</time>
      </trkpt>
      <trkpt lat="41.820975" lon="2.375849">
        <ele>1432.067</ele>
        <time>2016-06-07T16:17:46Z</time>
      </trkpt>
      <trkpt lat="41.820886" lon="2.375883">
        <ele>1424.073</ele>
        <time>2016-06-07T16:18:02Z</time>
      </trkpt>
      <trkpt lat="41.820834" lon="2.375745">
        <ele>1427.093</ele>
        <time>2016-06-07T16:18:15Z</time>
      </trkpt>
      <trkpt lat="41.820736" lon="2.375716">
        <ele>1425.065</ele>
        <time>2016-06-07T16:18:35Z</time>
      </trkpt>
      <trkpt lat="41.820646" lon="2.375685">
        <ele>1427.021</ele>
        <time>2016-06-07T16:18:53Z</time>
      </trkpt>
      <trkpt lat="41.820556" lon="2.375666">
        <ele>1429.008</ele>
        <time>2016-06-07T16:19:14Z</time>
      </trkpt>
      <trkpt lat="41.820464" lon="2.375654">
        <ele>1410.060</ele>
        <time>2016-06-07T16:19:41Z</time>
      </trkpt>
      <trkpt lat="41.820320" lon="2.375760">
        <ele>1349.022</ele>
        <time>2016-06-07T16:20:26Z</time>
      </trkpt>
      <trkpt lat="41.820310" lon="2.375603">
        <ele>1388.085</ele>
        <time>2016-06-07T16:20:28Z</time>
      </trkpt>
      <trkpt lat="41.820394" lon="2.375540">
        <ele>1432.039</ele>
        <time>2016-06-07T16:21:07Z</time>
      </trkpt>
      <trkpt lat="41.820404" lon="2.375413">
        <ele>1441.045</ele>
        <time>2016-06-07T16:21:36Z</time>
      </trkpt>
      <trkpt lat="41.820410" lon="2.375281">
        <ele>1435.080</ele>
        <time>2016-06-07T16:22:48Z</time>
      </trkpt>
      <trkpt lat="41.820437" lon="2.375155">
        <ele>1437.029</ele>
        <time>2016-06-07T16:22:58Z</time>
      </trkpt>
      <trkpt lat="41.820450" lon="2.375031">
        <ele>1437.075</ele>
        <time>2016-06-07T16:23:11Z</time>
      </trkpt>
      <trkpt lat="41.820493" lon="2.374913">
        <ele>1447.092</ele>
        <time>2016-06-07T16:23:30Z</time>
      </trkpt>
      <trkpt lat="41.820564" lon="2.374826">
        <ele>1444.073</ele>
        <time>2016-06-07T16:23:51Z</time>
      </trkpt>
      <trkpt lat="41.820623" lon="2.374732">
        <ele>1448.020</ele>
        <time>2016-06-07T16:24:14Z</time>
      </trkpt>
      <trkpt lat="41.820683" lon="2.374635">
        <ele>1460.008</ele>
        <time>2016-06-07T16:24:24Z</time>
      </trkpt>
      <trkpt lat="41.820679" lon="2.374514">
        <ele>1464.080</ele>
        <time>2016-06-07T16:24:44Z</time>
      </trkpt>
      <trkpt lat="41.820727" lon="2.374411">
        <ele>1464.022</ele>
        <time>2016-06-07T16:24:57Z</time>
      </trkpt>
      <trkpt lat="41.820765" lon="2.374287">
        <ele>1466.095</ele>
        <time>2016-06-07T16:25:13Z</time>
      </trkpt>
      <trkpt lat="41.820718" lon="2.374179">
        <ele>1468.019</ele>
        <time>2016-06-07T16:25:25Z</time>
      </trkpt>
      <trkpt lat="41.820660" lon="2.374076">
        <ele>1472.045</ele>
        <time>2016-06-07T16:25:53Z</time>
      </trkpt>
      <trkpt lat="41.820643" lon="2.373951">
        <ele>1472.090</ele>
        <time>2016-06-07T16:26:21Z</time>
      </trkpt>
      <trkpt lat="41.820639" lon="2.373829">
        <ele>1472.039</ele>
        <time>2016-06-07T16:26:42Z</time>
      </trkpt>
      <trkpt lat="41.820672" lon="2.373708">
        <ele>1474.075</ele>
        <time>2016-06-07T16:26:56Z</time>
      </trkpt>
      <trkpt lat="41.820729" lon="2.373612">
        <ele>1475.045</ele>
        <time>2016-06-07T16:27:10Z</time>
      </trkpt>
      <trkpt lat="41.820759" lon="2.373493">
        <ele>1492.047</ele>
        <time>2016-06-07T16:28:15Z</time>
      </trkpt>
      <trkpt lat="41.820759" lon="2.373370">
        <ele>1496.011</ele>
        <time>2016-06-07T16:28:47Z</time>
      </trkpt>
      <trkpt lat="41.820714" lon="2.373259">
        <ele>1494.008</ele>
        <time>2016-06-07T16:29:04Z</time>
      </trkpt>
      <trkpt lat="41.820645" lon="2.373180">
        <ele>1496.015</ele>
        <time>2016-06-07T16:29:27Z</time>
      </trkpt>
      <trkpt lat="41.820579" lon="2.373090">
        <ele>1499.077</ele>
        <time>2016-06-07T16:29:37Z</time>
      </trkpt>
      <trkpt lat="41.820528" lon="2.372990">
        <ele>1499.020</ele>
        <time>2016-06-07T16:29:46Z</time>
      </trkpt>
      <trkpt lat="41.820479" lon="2.372860">
        <ele>1499.024</ele>
        <time>2016-06-07T16:29:56Z</time>
      </trkpt>
      <trkpt lat="41.820427" lon="2.372741">
        <ele>1501.020</ele>
        <time>2016-06-07T16:30:04Z</time>
      </trkpt>
      <trkpt lat="41.820442" lon="2.372619">
        <ele>1507.075</ele>
        <time>2016-06-07T16:30:16Z</time>
      </trkpt>
      <trkpt lat="41.820425" lon="2.372482">
        <ele>1512.084</ele>
        <time>2016-06-07T16:30:40Z</time>
      </trkpt>
      <trkpt lat="41.820404" lon="2.372346">
        <ele>1517.010</ele>
        <time>2016-06-07T16:30:51Z</time>
      </trkpt>
      <trkpt lat="41.820398" lon="2.372219">
        <ele>1514.093</ele>
        <time>2016-06-07T16:30:59Z</time>
      </trkpt>
      <trkpt lat="41.820418" lon="2.372080">
        <ele>1510.065</ele>
        <time>2016-06-07T16:31:07Z</time>
      </trkpt>
      <trkpt lat="41.820408" lon="2.371952">
        <ele>1512.021</ele>
        <time>2016-06-07T16:31:16Z</time>
      </trkpt>
      <trkpt lat="41.820370" lon="2.371840">
        <ele>1487.008</ele>
        <time>2016-06-07T16:31:34Z</time>
      </trkpt>
      <trkpt lat="41.820358" lon="2.371708">
        <ele>1515.030</ele>
        <time>2016-06-07T16:31:52Z</time>
      </trkpt>
      <trkpt lat="41.820361" lon="2.371580">
        <ele>1515.092</ele>
        <time>2016-06-07T16:31:58Z</time>
      </trkpt>
      <trkpt lat="41.820361" lon="2.371454">
        <ele>1518.055</ele>
        <time>2016-06-07T16:32:05Z</time>
      </trkpt>
      <trkpt lat="41.820365" lon="2.371312">
        <ele>1518.019</ele>
        <time>2016-06-07T16:32:25Z</time>
      </trkpt>
      <trkpt lat="41.820379" lon="2.371187">
        <ele>1524.065</ele>
        <time>2016-06-07T16:32:35Z</time>
      </trkpt>
      <trkpt lat="41.820365" lon="2.371061">
        <ele>1523.050</ele>
        <time>2016-06-07T16:32:45Z</time>
      </trkpt>
      <trkpt lat="41.820415" lon="2.370955">
        <ele>1521.019</ele>
        <time>2016-06-07T16:32:52Z</time>
      </trkpt>
      <trkpt lat="41.820467" lon="2.370857">
        <ele>1519.015</ele>
        <time>2016-06-07T16:32:58Z</time>
      </trkpt>
      <trkpt lat="41.820528" lon="2.370754">
        <ele>1517.016</ele>
        <time>2016-06-07T16:33:05Z</time>
      </trkpt>
      <trkpt lat="41.820580" lon="2.370634">
        <ele>1517.076</ele>
        <time>2016-06-07T16:33:12Z</time>
      </trkpt>
      <trkpt lat="41.820663" lon="2.370573">
        <ele>1520.013</ele>
        <time>2016-06-07T16:33:24Z</time>
      </trkpt>
      <trkpt lat="41.820766" lon="2.370533">
        <ele>1526.008</ele>
        <time>2016-06-07T16:33:31Z</time>
      </trkpt>
      <trkpt lat="41.820837" lon="2.370456">
        <ele>1527.032</ele>
        <time>2016-06-07T16:33:37Z</time>
      </trkpt>
      <trkpt lat="41.820884" lon="2.370352">
        <ele>1525.074</ele>
        <time>2016-06-07T16:33:43Z</time>
      </trkpt>
      <trkpt lat="41.820972" lon="2.370298">
        <ele>1526.067</ele>
        <time>2016-06-07T16:33:50Z</time>
      </trkpt>
      <trkpt lat="41.821064" lon="2.370246">
        <ele>1526.061</ele>
        <time>2016-06-07T16:33:58Z</time>
      </trkpt>
      <trkpt lat="41.821163" lon="2.370239">
        <ele>1527.067</ele>
        <time>2016-06-07T16:34:09Z</time>
      </trkpt>
      <trkpt lat="41.821259" lon="2.370230">
        <ele>1530.032</ele>
        <time>2016-06-07T16:34:28Z</time>
      </trkpt>
      <trkpt lat="41.821315" lon="2.370120">
        <ele>1529.061</ele>
        <time>2016-06-07T16:34:39Z</time>
      </trkpt>
      <trkpt lat="41.821376" lon="2.370017">
        <ele>1530.037</ele>
        <time>2016-06-07T16:34:50Z</time>
      </trkpt>
      <trkpt lat="41.821413" lon="2.369903">
        <ele>1531.016</ele>
        <time>2016-06-07T16:34:59Z</time>
      </trkpt>
      <trkpt lat="41.821381" lon="2.369773">
        <ele>1530.076</ele>
        <time>2016-06-07T16:35:07Z</time>
      </trkpt>
      <trkpt lat="41.821392" lon="2.369650">
        <ele>1529.013</ele>
        <time>2016-06-07T16:35:14Z</time>
      </trkpt>
      <trkpt lat="41.821434" lon="2.369757">
        <ele>1537.008</ele>
        <time>2016-06-07T16:36:18Z</time>
      </trkpt>
      <trkpt lat="41.821462" lon="2.369876">
        <ele>1538.082</ele>
        <time>2016-06-07T16:36:26Z</time>
      </trkpt>
      <trkpt lat="41.821435" lon="2.369992">
        <ele>1545.024</ele>
        <time>2016-06-07T16:39:15Z</time>
      </trkpt>
      <trkpt lat="41.821382" lon="2.370109">
        <ele>1541.057</ele>
        <time>2016-06-07T16:39:26Z</time>
      </trkpt>
      <trkpt lat="41.821300" lon="2.370181">
        <ele>1538.031</ele>
        <time>2016-06-07T16:39:33Z</time>
      </trkpt>
      <trkpt lat="41.821220" lon="2.370239">
        <ele>1534.087</ele>
        <time>2016-06-07T16:39:39Z</time>
      </trkpt>
      <trkpt lat="41.821138" lon="2.370296">
        <ele>1531.012</ele>
        <time>2016-06-07T16:39:46Z</time>
      </trkpt>
      <trkpt lat="41.821052" lon="2.370338">
        <ele>1528.091</ele>
        <time>2016-06-07T16:39:52Z</time>
      </trkpt>
      <trkpt lat="41.820962" lon="2.370357">
        <ele>1527.027</ele>
        <time>2016-06-07T16:39:59Z</time>
      </trkpt>
      <trkpt lat="41.820871" lon="2.370414">
        <ele>1523.082</ele>
        <time>2016-06-07T16:40:07Z</time>
      </trkpt>
      <trkpt lat="41.820796" lon="2.370498">
        <ele>1521.043</ele>
        <time>2016-06-07T16:40:15Z</time>
      </trkpt>
      <trkpt lat="41.820712" lon="2.370564">
        <ele>1520.017</ele>
        <time>2016-06-07T16:40:23Z</time>
      </trkpt>
      <trkpt lat="41.820642" lon="2.370654">
        <ele>1516.008</ele>
        <time>2016-06-07T16:40:31Z</time>
      </trkpt>
      <trkpt lat="41.820553" lon="2.370684">
        <ele>1517.069</ele>
        <time>2016-06-07T16:40:39Z</time>
      </trkpt>
      <trkpt lat="41.820481" lon="2.370770">
        <ele>1520.021</ele>
        <time>2016-06-07T16:40:53Z</time>
      </trkpt>
      <trkpt lat="41.820425" lon="2.370878">
        <ele>1521.024</ele>
        <time>2016-06-07T16:41:00Z</time>
      </trkpt>
      <trkpt lat="41.820368" lon="2.370974">
        <ele>1520.048</ele>
        <time>2016-06-07T16:41:09Z</time>
      </trkpt>
      <trkpt lat="41.820325" lon="2.371081">
        <ele>1523.034</ele>
        <time>2016-06-07T16:41:24Z</time>
      </trkpt>
      <trkpt lat="41.820262" lon="2.371172">
        <ele>1526.069</ele>
        <time>2016-06-07T16:41:39Z</time>
      </trkpt>
      <trkpt lat="41.820165" lon="2.371209">
        <ele>1527.048</ele>
        <time>2016-06-07T16:41:48Z</time>
      </trkpt>
      <trkpt lat="41.820111" lon="2.371316">
        <ele>1534.024</ele>
        <time>2016-06-07T16:42:20Z</time>
      </trkpt>
      <trkpt lat="41.820029" lon="2.371390">
        <ele>1535.086</ele>
        <time>2016-06-07T16:42:33Z</time>
      </trkpt>
      <trkpt lat="41.819962" lon="2.371472">
        <ele>1531.060</ele>
        <time>2016-06-07T16:42:43Z</time>
      </trkpt>
      <trkpt lat="41.819859" lon="2.371509">
        <ele>1540.026</ele>
        <time>2016-06-07T16:42:59Z</time>
      </trkpt>
      <trkpt lat="41.819772" lon="2.371563">
        <ele>1540.008</ele>
        <time>2016-06-07T16:43:12Z</time>
      </trkpt>
      <trkpt lat="41.819699" lon="2.371642">
        <ele>1541.069</ele>
        <time>2016-06-07T16:43:28Z</time>
      </trkpt>
      <trkpt lat="41.819603" lon="2.371688">
        <ele>1547.091</ele>
        <time>2016-06-07T16:43:58Z</time>
      </trkpt>
      <trkpt lat="41.819516" lon="2.371727">
        <ele>1542.054</ele>
        <time>2016-06-07T16:44:04Z</time>
      </trkpt>
      <trkpt lat="41.819443" lon="2.371800">
        <ele>1543.088</ele>
        <time>2016-06-07T16:44:19Z</time>
      </trkpt>
      <trkpt lat="41.819350" lon="2.371831">
        <ele>1548.084</ele>
        <time>2016-06-07T16:44:31Z</time>
      </trkpt>
      <trkpt lat="41.819260" lon="2.371846">
        <ele>1553.099</ele>
        <time>2016-06-07T16:44:40Z</time>
      </trkpt>
      <trkpt lat="41.819185" lon="2.371914">
        <ele>1562.028</ele>
        <time>2016-06-07T16:45:07Z</time>
      </trkpt>
      <trkpt lat="41.819093" lon="2.371926">
        <ele>1561.084</ele>
        <time>2016-06-07T16:45:43Z</time>
      </trkpt>
      <trkpt lat="41.819005" lon="2.371966">
        <ele>1567.036</ele>
        <time>2016-06-07T16:46:14Z</time>
      </trkpt>
      <trkpt lat="41.818924" lon="2.372027">
        <ele>1579.017</ele>
        <time>2016-06-07T16:46:32Z</time>
      </trkpt>
      <trkpt lat="41.818829" lon="2.372069">
        <ele>1579.018</ele>
        <time>2016-06-07T16:46:43Z</time>
      </trkpt>
      <trkpt lat="41.818737" lon="2.372076">
        <ele>1577.008</ele>
        <time>2016-06-07T16:47:03Z</time>
      </trkpt>
      <trkpt lat="41.818647" lon="2.372097">
        <ele>1575.094</ele>
        <time>2016-06-07T16:47:12Z</time>
      </trkpt>
      <trkpt lat="41.818552" lon="2.372124">
        <ele>1577.066</ele>
        <time>2016-06-07T16:47:23Z</time>
      </trkpt>
      <trkpt lat="41.818462" lon="2.372139">
        <ele>1581.059</ele>
        <time>2016-06-07T16:47:32Z</time>
      </trkpt>
      <trkpt lat="41.818371" lon="2.372154">
        <ele>1583.033</ele>
        <time>2016-06-07T16:47:40Z</time>
      </trkpt>
      <trkpt lat="41.818286" lon="2.372210">
        <ele>1586.089</ele>
        <time>2016-06-07T16:47:52Z</time>
      </trkpt>
      <trkpt lat="41.818192" lon="2.372235">
        <ele>1588.084</ele>
        <time>2016-06-07T16:48:18Z</time>
      </trkpt>
      <trkpt lat="41.818128" lon="2.372324">
        <ele>1591.093</ele>
        <time>2016-06-07T16:48:34Z</time>
      </trkpt>
      <trkpt lat="41.818070" lon="2.372433">
        <ele>1594.059</ele>
        <time>2016-06-07T16:48:53Z</time>
      </trkpt>
      <trkpt lat="41.818063" lon="2.372553">
        <ele>1593.079</ele>
        <time>2016-06-07T16:49:06Z</time>
      </trkpt>
      <trkpt lat="41.817985" lon="2.372620">
        <ele>1594.005</ele>
        <time>2016-06-07T16:49:15Z</time>
      </trkpt>
      <trkpt lat="41.817934" lon="2.372728">
        <ele>1597.025</ele>
        <time>2016-06-07T16:49:25Z</time>
      </trkpt>
      <trkpt lat="41.817844" lon="2.372773">
        <ele>1599.008</ele>
        <time>2016-06-07T16:49:49Z</time>
      </trkpt>
      <trkpt lat="41.817748" lon="2.372785">
        <ele>1601.038</ele>
        <time>2016-06-07T16:50:03Z</time>
      </trkpt>
      <trkpt lat="41.817662" lon="2.372731">
        <ele>1603.010</ele>
        <time>2016-06-07T16:50:15Z</time>
      </trkpt>
      <trkpt lat="41.817567" lon="2.372737">
        <ele>1604.023</ele>
        <time>2016-06-07T16:50:24Z</time>
      </trkpt>
      <trkpt lat="41.817478" lon="2.372710">
        <ele>1606.067</ele>
        <time>2016-06-07T16:50:34Z</time>
      </trkpt>
      <trkpt lat="41.817386" lon="2.372707">
        <ele>1607.043</ele>
        <time>2016-06-07T16:50:44Z</time>
      </trkpt>
      <trkpt lat="41.817289" lon="2.372720">
        <ele>1609.028</ele>
        <time>2016-06-07T16:50:53Z</time>
      </trkpt>
      <trkpt lat="41.817193" lon="2.372737">
        <ele>1563.067</ele>
        <time>2016-06-07T16:51:03Z</time>
      </trkpt>
      <trkpt lat="41.817108" lon="2.372813">
        <ele>1604.023</ele>
        <time>2016-06-07T16:51:15Z</time>
      </trkpt>
      <trkpt lat="41.817022" lon="2.372867">
        <ele>1606.072</ele>
        <time>2016-06-07T16:51:23Z</time>
      </trkpt>
      <trkpt lat="41.816947" lon="2.372956">
        <ele>1604.013</ele>
        <time>2016-06-07T16:51:39Z</time>
      </trkpt>
      <trkpt lat="41.816861" lon="2.373010">
        <ele>1603.014</ele>
        <time>2016-06-07T16:51:47Z</time>
      </trkpt>
      <trkpt lat="41.816760" lon="2.373047">
        <ele>1605.008</ele>
        <time>2016-06-07T16:51:56Z</time>
      </trkpt>
      <trkpt lat="41.816670" lon="2.373061">
        <ele>1603.038</ele>
        <time>2016-06-07T16:52:07Z</time>
      </trkpt>
      <trkpt lat="41.816573" lon="2.373043">
        <ele>1604.040</ele>
        <time>2016-06-07T16:52:13Z</time>
      </trkpt>
      <trkpt lat="41.816474" lon="2.373059">
        <ele>1608.013</ele>
        <time>2016-06-07T16:52:24Z</time>
      </trkpt>
      <trkpt lat="41.816375" lon="2.373079">
        <ele>1608.057</ele>
        <time>2016-06-07T16:52:33Z</time>
      </trkpt>
      <trkpt lat="41.816278" lon="2.373087">
        <ele>1605.033</ele>
        <time>2016-06-07T16:52:40Z</time>
      </trkpt>
      <trkpt lat="41.816183" lon="2.373059">
        <ele>1603.058</ele>
        <time>2016-06-07T16:52:49Z</time>
      </trkpt>
      <trkpt lat="41.816082" lon="2.373024">
        <ele>1603.057</ele>
        <time>2016-06-07T16:52:57Z</time>
      </trkpt>
      <trkpt lat="41.815994" lon="2.373052">
        <ele>1605.023</ele>
        <time>2016-06-07T16:53:05Z</time>
      </trkpt>
      <trkpt lat="41.815906" lon="2.373099">
        <ele>1607.013</ele>
        <time>2016-06-07T16:53:17Z</time>
      </trkpt>
      <trkpt lat="41.815813" lon="2.373110">
        <ele>1608.043</ele>
        <time>2016-06-07T16:53:27Z</time>
      </trkpt>
      <trkpt lat="41.815712" lon="2.373139">
        <ele>1614.007</ele>
        <time>2016-06-07T16:53:42Z</time>
      </trkpt>
      <trkpt lat="41.815621" lon="2.373148">
        <ele>1615.008</ele>
        <time>2016-06-07T16:53:50Z</time>
      </trkpt>
      <trkpt lat="41.815525" lon="2.373147">
        <ele>1615.092</ele>
        <time>2016-06-07T16:54:04Z</time>
      </trkpt>
      <trkpt lat="41.815425" lon="2.373151">
        <ele>1614.054</ele>
        <time>2016-06-07T16:54:12Z</time>
      </trkpt>
      <trkpt lat="41.815329" lon="2.373155">
        <ele>1614.077</ele>
        <time>2016-06-07T16:54:19Z</time>
      </trkpt>
      <trkpt lat="41.815234" lon="2.373140">
        <ele>1611.051</ele>
        <time>2016-06-07T16:54:26Z</time>
      </trkpt>
      <trkpt lat="41.815140" lon="2.373142">
        <ele>1613.037</ele>
        <time>2016-06-07T16:54:36Z</time>
      </trkpt>
      <trkpt lat="41.815044" lon="2.373162">
        <ele>1613.042</ele>
        <time>2016-06-07T16:54:45Z</time>
      </trkpt>
      <trkpt lat="41.814960" lon="2.373227">
        <ele>1612.041</ele>
        <time>2016-06-07T16:54:53Z</time>
      </trkpt>
      <trkpt lat="41.814900" lon="2.373331">
        <ele>1613.067</ele>
        <time>2016-06-07T16:55:00Z</time>
      </trkpt>
      <trkpt lat="41.814852" lon="2.373437">
        <ele>1612.029</ele>
        <time>2016-06-07T16:55:05Z</time>
      </trkpt>
      <trkpt lat="41.814765" lon="2.373506">
        <ele>1609.000</ele>
        <time>2016-06-07T16:55:12Z</time>
      </trkpt>
      <trkpt lat="41.814714" lon="2.373622">
        <ele>1608.020</ele>
        <time>2016-06-07T16:55:21Z</time>
      </trkpt>
      <trkpt lat="41.814663" lon="2.373722">
        <ele>1609.008</ele>
        <time>2016-06-07T16:55:27Z</time>
      </trkpt>
      <trkpt lat="41.814591" lon="2.373795">
        <ele>1609.083</ele>
        <time>2016-06-07T16:55:34Z</time>
      </trkpt>
      <trkpt lat="41.814530" lon="2.373899">
        <ele>1608.085</ele>
        <time>2016-06-07T16:55:43Z</time>
      </trkpt>
      <trkpt lat="41.814515" lon="2.374019">
        <ele>1606.098</ele>
        <time>2016-06-07T16:55:50Z</time>
      </trkpt>
      <trkpt lat="41.814459" lon="2.374120">
        <ele>1607.062</ele>
        <time>2016-06-07T16:55:57Z</time>
      </trkpt>
      <trkpt lat="41.814376" lon="2.374181">
        <ele>1607.028</ele>
        <time>2016-06-07T16:56:04Z</time>
      </trkpt>
      <trkpt lat="41.814294" lon="2.374242">
        <ele>1609.063</ele>
        <time>2016-06-07T16:56:12Z</time>
      </trkpt>
      <trkpt lat="41.814230" lon="2.374352">
        <ele>1608.052</ele>
        <time>2016-06-07T16:56:21Z</time>
      </trkpt>
      <trkpt lat="41.814149" lon="2.374440">
        <ele>1608.058</ele>
        <time>2016-06-07T16:56:30Z</time>
      </trkpt>
      <trkpt lat="41.814053" lon="2.374475">
        <ele>1610.014</ele>
        <time>2016-06-07T16:56:37Z</time>
      </trkpt>
      <trkpt lat="41.813961" lon="2.374544">
        <ele>1608.054</ele>
        <time>2016-06-07T16:56:45Z</time>
      </trkpt>
      <trkpt lat="41.813876" lon="2.374587">
        <ele>1610.009</ele>
        <time>2016-06-07T16:56:51Z</time>
      </trkpt>
      <trkpt lat="41.813771" lon="2.374616">
        <ele>1610.008</ele>
        <time>2016-06-07T16:56:59Z</time>
      </trkpt>
      <trkpt lat="41.813681" lon="2.374652">
        <ele>1610.082</ele>
        <time>2016-06-07T16:57:08Z</time>
      </trkpt>
      <trkpt lat="41.813663" lon="2.374780">
        <ele>1609.074</ele>
        <time>2016-06-07T16:57:26Z</time>
      </trkpt>
      <trkpt lat="41.813598" lon="2.374864">
        <ele>1609.077</ele>
        <time>2016-06-07T16:57:38Z</time>
      </trkpt>
      <trkpt lat="41.813514" lon="2.374919">
        <ele>1612.081</ele>
        <time>2016-06-07T16:57:57Z</time>
      </trkpt>
      <trkpt lat="41.813413" lon="2.374892">
        <ele>1615.067</ele>
        <time>2016-06-07T16:58:07Z</time>
      </trkpt>
      <trkpt lat="41.813320" lon="2.374897">
        <ele>1614.032</ele>
        <time>2016-06-07T16:58:15Z</time>
      </trkpt>
      <trkpt lat="41.813235" lon="2.374957">
        <ele>1614.091</ele>
        <time>2016-06-07T16:58:23Z</time>
      </trkpt>
      <trkpt lat="41.813162" lon="2.375030">
        <ele>1611.017</ele>
        <time>2016-06-07T16:58:34Z</time>
      </trkpt>
      <trkpt lat="41.813084" lon="2.375104">
        <ele>1613.057</ele>
        <time>2016-06-07T16:58:42Z</time>
      </trkpt>
      <trkpt lat="41.813020" lon="2.375202">
        <ele>1617.000</ele>
        <time>2016-06-07T16:58:50Z</time>
      </trkpt>
      <trkpt lat="41.812934" lon="2.375256">
        <ele>1620.020</ele>
        <time>2016-06-07T16:58:58Z</time>
      </trkpt>
      <trkpt lat="41.812841" lon="2.375287">
        <ele>1620.008</ele>
        <time>2016-06-07T16:59:06Z</time>
      </trkpt>
      <trkpt lat="41.812745" lon="2.375272">
        <ele>1620.056</ele>
        <time>2016-06-07T16:59:13Z</time>
      </trkpt>
      <trkpt lat="41.812649" lon="2.375281">
        <ele>1623.048</ele>
        <time>2016-06-07T16:59:33Z</time>
      </trkpt>
      <trkpt lat="41.812569" lon="2.375343">
        <ele>1624.021</ele>
        <time>2016-06-07T16:59:38Z</time>
      </trkpt>
      <trkpt lat="41.812497" lon="2.375438">
        <ele>1626.065</ele>
        <time>2016-06-07T16:59:46Z</time>
      </trkpt>
      <trkpt lat="41.812416" lon="2.375510">
        <ele>1626.091</ele>
        <time>2016-06-07T16:59:53Z</time>
      </trkpt>
      <trkpt lat="41.812369" lon="2.375618">
        <ele>1623.086</ele>
        <time>2016-06-07T17:00:03Z</time>
      </trkpt>
      <trkpt lat="41.812343" lon="2.375751">
        <ele>1625.015</ele>
        <time>2016-06-07T17:00:14Z</time>
      </trkpt>
      <trkpt lat="41.812296" lon="2.375876">
        <ele>1628.021</ele>
        <time>2016-06-07T17:00:22Z</time>
      </trkpt>
      <trkpt lat="41.812240" lon="2.375981">
        <ele>1629.016</ele>
        <time>2016-06-07T17:00:30Z</time>
      </trkpt>
      <trkpt lat="41.812148" lon="2.376023">
        <ele>1631.076</ele>
        <time>2016-06-07T17:00:38Z</time>
      </trkpt>
      <trkpt lat="41.812078" lon="2.376113">
        <ele>1635.013</ele>
        <time>2016-06-07T17:00:50Z</time>
      </trkpt>
      <trkpt lat="41.811988" lon="2.376081">
        <ele>1634.008</ele>
        <time>2016-06-07T17:01:06Z</time>
      </trkpt>
      <trkpt lat="41.811900" lon="2.376116">
        <ele>1632.022</ele>
        <time>2016-06-07T17:01:15Z</time>
      </trkpt>
      <trkpt lat="41.811807" lon="2.376084">
        <ele>1637.064</ele>
        <time>2016-06-07T17:01:24Z</time>
      </trkpt>
      <trkpt lat="41.811713" lon="2.376134">
        <ele>1636.087</ele>
        <time>2016-06-07T17:01:33Z</time>
      </trkpt>
      <trkpt lat="41.811636" lon="2.376216">
        <ele>1638.071</ele>
        <time>2016-06-07T17:01:41Z</time>
      </trkpt>
      <trkpt lat="41.811559" lon="2.376285">
        <ele>1640.077</ele>
        <time>2016-06-07T17:01:49Z</time>
      </trkpt>
      <trkpt lat="41.811478" lon="2.376359">
        <ele>1643.092</ele>
        <time>2016-06-07T17:01:58Z</time>
      </trkpt>
      <trkpt lat="41.811413" lon="2.376447">
        <ele>1645.021</ele>
        <time>2016-06-07T17:02:06Z</time>
      </trkpt>
      <trkpt lat="41.811329" lon="2.376492">
        <ele>1645.027</ele>
        <time>2016-06-07T17:02:13Z</time>
      </trkpt>
      <trkpt lat="41.811258" lon="2.376572">
        <ele>1647.027</ele>
        <time>2016-06-07T17:02:22Z</time>
      </trkpt>
      <trkpt lat="41.811168" lon="2.376620">
        <ele>1648.068</ele>
        <time>2016-06-07T17:02:32Z</time>
      </trkpt>
      <trkpt lat="41.811178" lon="2.376742">
        <ele>1650.014</ele>
        <time>2016-06-07T17:02:45Z</time>
      </trkpt>
      <trkpt lat="41.811132" lon="2.376854">
        <ele>1649.008</ele>
        <time>2016-06-07T17:03:04Z</time>
      </trkpt>
      <trkpt lat="41.811092" lon="2.376969">
        <ele>1650.073</ele>
        <time>2016-06-07T17:03:13Z</time>
      </trkpt>
      <trkpt lat="41.811012" lon="2.377026">
        <ele>1648.045</ele>
        <time>2016-06-07T17:03:25Z</time>
      </trkpt>
      <trkpt lat="41.810962" lon="2.377136">
        <ele>1651.078</ele>
        <time>2016-06-07T17:05:56Z</time>
      </trkpt>
      <trkpt lat="41.810955" lon="2.377260">
        <ele>1656.082</ele>
        <time>2016-06-07T17:06:08Z</time>
      </trkpt>
      <trkpt lat="41.810934" lon="2.377387">
        <ele>1659.098</ele>
        <time>2016-06-07T17:06:30Z</time>
      </trkpt>
      <trkpt lat="41.810860" lon="2.377459">
        <ele>1660.033</ele>
        <time>2016-06-07T17:06:45Z</time>
      </trkpt>
      <trkpt lat="41.810782" lon="2.377541">
        <ele>1660.092</ele>
        <time>2016-06-07T17:06:52Z</time>
      </trkpt>
      <trkpt lat="41.810729" lon="2.377641">
        <ele>1661.078</ele>
        <time>2016-06-07T17:07:01Z</time>
      </trkpt>
      <trkpt lat="41.810671" lon="2.377742">
        <ele>1662.073</ele>
        <time>2016-06-07T17:07:20Z</time>
      </trkpt>
      <trkpt lat="41.810595" lon="2.377828">
        <ele>1661.085</ele>
        <time>2016-06-07T17:07:29Z</time>
      </trkpt>
      <trkpt lat="41.810507" lon="2.377865">
        <ele>1661.013</ele>
        <time>2016-06-07T17:07:34Z</time>
      </trkpt>
      <trkpt lat="41.810435" lon="2.377960">
        <ele>1662.008</ele>
        <time>2016-06-07T17:07:41Z</time>
      </trkpt>
      <trkpt lat="41.810415" lon="2.378089">
        <ele>1662.058</ele>
        <time>2016-06-07T17:07:47Z</time>
      </trkpt>
      <trkpt lat="41.810333" lon="2.378155">
        <ele>1667.070</ele>
        <time>2016-06-07T17:07:57Z</time>
      </trkpt>
      <trkpt lat="41.810244" lon="2.378207">
        <ele>1668.083</ele>
        <time>2016-06-07T17:08:07Z</time>
      </trkpt>
      <trkpt lat="41.810154" lon="2.378247">
        <ele>1669.077</ele>
        <time>2016-06-07T17:08:21Z</time>
      </trkpt>
      <trkpt lat="41.810089" lon="2.378336">
        <ele>1671.083</ele>
        <time>2016-06-07T17:08:32Z</time>
      </trkpt>
      <trkpt lat="41.810043" lon="2.378448">
        <ele>1672.018</ele>
        <time>2016-06-07T17:08:41Z</time>
      </trkpt>
      <trkpt lat="41.810009" lon="2.378571">
        <ele>1673.087</ele>
        <time>2016-06-07T17:08:50Z</time>
      </trkpt>
      <trkpt lat="41.809955" lon="2.378683">
        <ele>1676.013</ele>
        <time>2016-06-07T17:09:00Z</time>
      </trkpt>
      <trkpt lat="41.809886" lon="2.378762">
        <ele>1676.092</ele>
        <time>2016-06-07T17:09:08Z</time>
      </trkpt>
      <trkpt lat="41.809828" lon="2.378870">
        <ele>1678.073</ele>
        <time>2016-06-07T17:09:17Z</time>
      </trkpt>
      <trkpt lat="41.809758" lon="2.378955">
        <ele>1680.020</ele>
        <time>2016-06-07T17:09:26Z</time>
      </trkpt>
      <trkpt lat="41.809782" lon="2.379081">
        <ele>1680.008</ele>
        <time>2016-06-07T17:09:39Z</time>
      </trkpt>
      <trkpt lat="41.809739" lon="2.379188">
        <ele>1680.040</ele>
        <time>2016-06-07T17:09:47Z</time>
      </trkpt>
      <trkpt lat="41.809679" lon="2.379284">
        <ele>1683.062</ele>
        <time>2016-06-07T17:09:56Z</time>
      </trkpt>
      <trkpt lat="41.809611" lon="2.379365">
        <ele>1684.045</ele>
        <time>2016-06-07T17:10:05Z</time>
      </trkpt>
      <trkpt lat="41.809551" lon="2.379462">
        <ele>1688.059</ele>
        <time>2016-06-07T17:10:12Z</time>
      </trkpt>
      <trkpt lat="41.809536" lon="2.379580">
        <ele>1690.015</ele>
        <time>2016-06-07T17:10:21Z</time>
      </trkpt>
      <trkpt lat="41.809495" lon="2.379696">
        <ele>1690.060</ele>
        <time>2016-06-07T17:10:29Z</time>
      </trkpt>
      <trkpt lat="41.809447" lon="2.379799">
        <ele>1693.099</ele>
        <time>2016-06-07T17:10:38Z</time>
      </trkpt>
      <trkpt lat="41.809397" lon="2.379903">
        <ele>1698.035</ele>
        <time>2016-06-07T17:10:47Z</time>
      </trkpt>
      <trkpt lat="41.809322" lon="2.379971">
        <ele>1699.013</ele>
        <time>2016-06-07T17:10:57Z</time>
      </trkpt>
      <trkpt lat="41.809244" lon="2.380046">
        <ele>1702.043</ele>
        <time>2016-06-07T17:11:07Z</time>
      </trkpt>
      <trkpt lat="41.809205" lon="2.380157">
        <ele>1707.007</ele>
        <time>2016-06-07T17:11:33Z</time>
      </trkpt>
      <trkpt lat="41.809208" lon="2.380285">
        <ele>1710.008</ele>
        <time>2016-06-07T17:11:41Z</time>
      </trkpt>
      <trkpt lat="41.809178" lon="2.380405">
        <ele>1710.042</ele>
        <time>2016-06-07T17:11:48Z</time>
      </trkpt>
      <trkpt lat="41.809176" lon="2.380526">
        <ele>1714.054</ele>
        <time>2016-06-07T17:11:53Z</time>
      </trkpt>
      <trkpt lat="41.809177" lon="2.380667">
        <ele>1717.067</ele>
        <time>2016-06-07T17:11:58Z</time>
      </trkpt>
      <trkpt lat="41.809182" lon="2.380795">
        <ele>1720.041</ele>
        <time>2016-06-07T17:12:03Z</time>
      </trkpt>
      <trkpt lat="41.809176" lon="2.380931">
        <ele>1722.037</ele>
        <time>2016-06-07T17:12:09Z</time>
      </trkpt>
      <trkpt lat="41.809173" lon="2.381058">
        <ele>1725.092</ele>
        <time>2016-06-07T17:12:16Z</time>
      </trkpt>
      <trkpt lat="41.809172" lon="2.381180">
        <ele>1728.061</ele>
        <time>2016-06-07T17:12:25Z</time>
      </trkpt>
      <trkpt lat="41.809131" lon="2.381296">
        <ele>1730.037</ele>
        <time>2016-06-07T17:12:35Z</time>
      </trkpt>
      <trkpt lat="41.809090" lon="2.381405">
        <ele>1730.023</ele>
        <time>2016-06-07T17:12:43Z</time>
      </trkpt>
      <trkpt lat="41.809036" lon="2.381503">
        <ele>1732.083</ele>
        <time>2016-06-07T17:12:54Z</time>
      </trkpt>
      <trkpt lat="41.808995" lon="2.381634">
        <ele>1734.011</ele>
        <time>2016-06-07T17:13:04Z</time>
      </trkpt>
      <trkpt lat="41.808974" lon="2.381752">
        <ele>1737.008</ele>
        <time>2016-06-07T17:13:11Z</time>
      </trkpt>
      <trkpt lat="41.808946" lon="2.381870">
        <ele>1740.023</ele>
        <time>2016-06-07T17:13:19Z</time>
      </trkpt>
      <trkpt lat="41.808909" lon="2.381990">
        <ele>1742.095</ele>
        <time>2016-06-07T17:13:26Z</time>
      </trkpt>
      <trkpt lat="41.808894" lon="2.382115">
        <ele>1744.038</ele>
        <time>2016-06-07T17:13:34Z</time>
      </trkpt>
      <trkpt lat="41.808871" lon="2.382234">
        <ele>1745.082</ele>
        <time>2016-06-07T17:13:41Z</time>
      </trkpt>
      <trkpt lat="41.808869" lon="2.382373">
        <ele>1746.028</ele>
        <time>2016-06-07T17:13:49Z</time>
      </trkpt>
      <trkpt lat="41.808819" lon="2.382486">
        <ele>1747.013</ele>
        <time>2016-06-07T17:14:04Z</time>
      </trkpt>
      <trkpt lat="41.808789" lon="2.382607">
        <ele>1748.062</ele>
        <time>2016-06-07T17:14:15Z</time>
      </trkpt>
      <trkpt lat="41.808869" lon="2.382691">
        <ele>1750.038</ele>
        <time>2016-06-07T17:31:59Z</time>
      </trkpt>
      <trkpt lat="41.808815" lon="2.382579">
        <ele>1748.078</ele>
        <time>2016-06-07T17:36:06Z</time>
      </trkpt>
      <trkpt lat="41.808728" lon="2.382542">
        <ele>1749.033</ele>
        <time>2016-06-07T17:36:14Z</time>
      </trkpt>
      <trkpt lat="41.808642" lon="2.382484">
        <ele>1746.026</ele>
        <time>2016-06-07T17:36:22Z</time>
      </trkpt>
      <trkpt lat="41.808589" lon="2.382366">
        <ele>1745.008</ele>
        <time>2016-06-07T17:36:31Z</time>
      </trkpt>
      <trkpt lat="41.808554" lon="2.382253">
        <ele>1742.098</ele>
        <time>2016-06-07T17:38:34Z</time>
      </trkpt>
      <trkpt lat="41.808483" lon="2.382157">
        <ele>1742.030</ele>
        <time>2016-06-07T17:38:44Z</time>
      </trkpt>
      <trkpt lat="41.808421" lon="2.382048">
        <ele>1741.043</ele>
        <time>2016-06-07T17:38:52Z</time>
      </trkpt>
      <trkpt lat="41.808363" lon="2.381940">
        <ele>1738.037</ele>
        <time>2016-06-07T17:38:59Z</time>
      </trkpt>
      <trkpt lat="41.808296" lon="2.381848">
        <ele>1734.053</ele>
        <time>2016-06-07T17:39:05Z</time>
      </trkpt>
      <trkpt lat="41.808317" lon="2.381731">
        <ele>1731.088</ele>
        <time>2016-06-07T17:39:20Z</time>
      </trkpt>
      <trkpt lat="41.808343" lon="2.381606">
        <ele>1730.017</ele>
        <time>2016-06-07T17:39:27Z</time>
      </trkpt>
      <trkpt lat="41.808371" lon="2.381484">
        <ele>1729.023</ele>
        <time>2016-06-07T17:39:34Z</time>
      </trkpt>
      <trkpt lat="41.808401" lon="2.381367">
        <ele>1728.019</ele>
        <time>2016-06-07T17:39:41Z</time>
      </trkpt>
      <trkpt lat="41.808433" lon="2.381240">
        <ele>1726.009</ele>
        <time>2016-06-07T17:39:49Z</time>
      </trkpt>
      <trkpt lat="41.808454" lon="2.381118">
        <ele>1725.019</ele>
        <time>2016-06-07T17:39:55Z</time>
      </trkpt>
      <trkpt lat="41.808452" lon="2.380994">
        <ele>1722.008</ele>
        <time>2016-06-07T17:40:07Z</time>
      </trkpt>
      <trkpt lat="41.808454" lon="2.380864">
        <ele>1721.072</ele>
        <time>2016-06-07T17:40:14Z</time>
      </trkpt>
      <trkpt lat="41.808457" lon="2.380743">
        <ele>1720.064</ele>
        <time>2016-06-07T17:40:21Z</time>
      </trkpt>
      <trkpt lat="41.808519" lon="2.380645">
        <ele>1716.047</ele>
        <time>2016-06-07T17:40:28Z</time>
      </trkpt>
      <trkpt lat="41.808564" lon="2.380539">
        <ele>1714.091</ele>
        <time>2016-06-07T17:40:35Z</time>
      </trkpt>
      <trkpt lat="41.808601" lon="2.380417">
        <ele>1712.027</ele>
        <time>2016-06-07T17:40:43Z</time>
      </trkpt>
      <trkpt lat="41.808626" lon="2.380300">
        <ele>1710.072</ele>
        <time>2016-06-07T17:40:50Z</time>
      </trkpt>
      <trkpt lat="41.808613" lon="2.380177">
        <ele>1708.021</ele>
        <time>2016-06-07T17:40:57Z</time>
      </trkpt>
      <trkpt lat="41.808630" lon="2.380053">
        <ele>1707.077</ele>
        <time>2016-06-07T17:41:04Z</time>
      </trkpt>
      <trkpt lat="41.808664" lon="2.379937">
        <ele>1706.041</ele>
        <time>2016-06-07T17:41:13Z</time>
      </trkpt>
      <trkpt lat="41.808731" lon="2.379841">
        <ele>1703.081</ele>
        <time>2016-06-07T17:41:20Z</time>
      </trkpt>
      <trkpt lat="41.808745" lon="2.379719">
        <ele>1701.009</ele>
        <time>2016-06-07T17:41:27Z</time>
      </trkpt>
      <trkpt lat="41.808794" lon="2.379608">
        <ele>1700.008</ele>
        <time>2016-06-07T17:41:34Z</time>
      </trkpt>
      <trkpt lat="41.808819" lon="2.379482">
        <ele>1697.015</ele>
        <time>2016-06-07T17:41:41Z</time>
      </trkpt>
      <trkpt lat="41.808840" lon="2.379361">
        <ele>1696.057</ele>
        <time>2016-06-07T17:41:47Z</time>
      </trkpt>
      <trkpt lat="41.808868" lon="2.379232">
        <ele>1697.040</ele>
        <time>2016-06-07T17:41:54Z</time>
      </trkpt>
      <trkpt lat="41.808865" lon="2.379105">
        <ele>1694.054</ele>
        <time>2016-06-07T17:42:01Z</time>
      </trkpt>
      <trkpt lat="41.808905" lon="2.378985">
        <ele>1693.020</ele>
        <time>2016-06-07T17:42:08Z</time>
      </trkpt>
      <trkpt lat="41.808933" lon="2.378862">
        <ele>1692.065</ele>
        <time>2016-06-07T17:42:14Z</time>
      </trkpt>
      <trkpt lat="41.808989" lon="2.378758">
        <ele>1692.034</ele>
        <time>2016-06-07T17:42:21Z</time>
      </trkpt>
      <trkpt lat="41.809033" lon="2.378647">
        <ele>1692.030</ele>
        <time>2016-06-07T17:42:29Z</time>
      </trkpt>
      <trkpt lat="41.809017" lon="2.378528">
        <ele>1691.042</ele>
        <time>2016-06-07T17:43:16Z</time>
      </trkpt>
      <trkpt lat="41.809003" lon="2.378399">
        <ele>1689.022</ele>
        <time>2016-06-07T17:43:28Z</time>
      </trkpt>
      <trkpt lat="41.808980" lon="2.378278">
        <ele>1689.014</ele>
        <time>2016-06-07T17:43:39Z</time>
      </trkpt>
      <trkpt lat="41.808945" lon="2.378166">
        <ele>1689.008</ele>
        <time>2016-06-07T17:44:05Z</time>
      </trkpt>
      <trkpt lat="41.808907" lon="2.378036">
        <ele>1686.025</ele>
        <time>2016-06-07T17:44:11Z</time>
      </trkpt>
      <trkpt lat="41.808879" lon="2.377916">
        <ele>1687.037</ele>
        <time>2016-06-07T17:44:18Z</time>
      </trkpt>
      <trkpt lat="41.808870" lon="2.377785">
        <ele>1688.040</ele>
        <time>2016-06-07T17:44:25Z</time>
      </trkpt>
      <trkpt lat="41.808864" lon="2.377664">
        <ele>1686.064</ele>
        <time>2016-06-07T17:44:32Z</time>
      </trkpt>
      <trkpt lat="41.808865" lon="2.377534">
        <ele>1687.070</ele>
        <time>2016-06-07T17:44:39Z</time>
      </trkpt>
      <trkpt lat="41.808854" lon="2.377404">
        <ele>1686.055</ele>
        <time>2016-06-07T17:44:47Z</time>
      </trkpt>
      <trkpt lat="41.808838" lon="2.377272">
        <ele>1684.034</ele>
        <time>2016-06-07T17:44:54Z</time>
      </trkpt>
      <trkpt lat="41.808825" lon="2.377143">
        <ele>1684.050</ele>
        <time>2016-06-07T17:45:01Z</time>
      </trkpt>
      <trkpt lat="41.808804" lon="2.377019">
        <ele>1682.019</ele>
        <time>2016-06-07T17:45:08Z</time>
      </trkpt>
      <trkpt lat="41.808780" lon="2.376899">
        <ele>1682.009</ele>
        <time>2016-06-07T17:45:16Z</time>
      </trkpt>
      <trkpt lat="41.808754" lon="2.376784">
        <ele>1681.019</ele>
        <time>2016-06-07T17:45:22Z</time>
      </trkpt>
      <trkpt lat="41.808743" lon="2.376663">
        <ele>1681.008</ele>
        <time>2016-06-07T17:45:29Z</time>
      </trkpt>
      <trkpt lat="41.808719" lon="2.376532">
        <ele>1680.092</ele>
        <time>2016-06-07T17:45:36Z</time>
      </trkpt>
      <trkpt lat="41.808703" lon="2.376410">
        <ele>1680.024</ele>
        <time>2016-06-07T17:45:43Z</time>
      </trkpt>
      <trkpt lat="41.808704" lon="2.376274">
        <ele>1681.077</ele>
        <time>2016-06-07T17:45:51Z</time>
      </trkpt>
      <trkpt lat="41.808684" lon="2.376154">
        <ele>1680.091</ele>
        <time>2016-06-07T17:45:58Z</time>
      </trkpt>
      <trkpt lat="41.808649" lon="2.376032">
        <ele>1676.037</ele>
        <time>2016-06-07T17:46:05Z</time>
      </trkpt>
      <trkpt lat="41.808637" lon="2.375904">
        <ele>1673.052</ele>
        <time>2016-06-07T17:46:12Z</time>
      </trkpt>
      <trkpt lat="41.808637" lon="2.375767">
        <ele>1671.071</ele>
        <time>2016-06-07T17:46:19Z</time>
      </trkpt>
      <trkpt lat="41.808641" lon="2.375639">
        <ele>1669.057</ele>
        <time>2016-06-07T17:46:26Z</time>
      </trkpt>
      <trkpt lat="41.808694" lon="2.375529">
        <ele>1668.075</ele>
        <time>2016-06-07T17:46:34Z</time>
      </trkpt>
      <trkpt lat="41.808772" lon="2.375465">
        <ele>1667.028</ele>
        <time>2016-06-07T17:46:43Z</time>
      </trkpt>
      <trkpt lat="41.808840" lon="2.375376">
        <ele>1664.020</ele>
        <time>2016-06-07T17:46:56Z</time>
      </trkpt>
      <trkpt lat="41.808880" lon="2.375265">
        <ele>1662.008</ele>
        <time>2016-06-07T17:47:05Z</time>
      </trkpt>
      <trkpt lat="41.808904" lon="2.375144">
        <ele>1660.078</ele>
        <time>2016-06-07T17:47:42Z</time>
      </trkpt>
      <trkpt lat="41.808934" lon="2.375025">
        <ele>1657.090</ele>
        <time>2016-06-07T17:47:54Z</time>
      </trkpt>
      <trkpt lat="41.809000" lon="2.374938">
        <ele>1655.053</ele>
        <time>2016-06-07T17:48:04Z</time>
      </trkpt>
      <trkpt lat="41.809044" lon="2.374819">
        <ele>1652.077</ele>
        <time>2016-06-07T17:48:17Z</time>
      </trkpt>
      <trkpt lat="41.809094" lon="2.374702">
        <ele>1650.063</ele>
        <time>2016-06-07T17:48:27Z</time>
      </trkpt>
      <trkpt lat="41.809104" lon="2.374576">
        <ele>1648.018</ele>
        <time>2016-06-07T17:48:36Z</time>
      </trkpt>
      <trkpt lat="41.809098" lon="2.374447">
        <ele>1646.037</ele>
        <time>2016-06-07T17:48:45Z</time>
      </trkpt>
      <trkpt lat="41.809137" lon="2.374335">
        <ele>1642.073</ele>
        <time>2016-06-07T17:48:55Z</time>
      </trkpt>
      <trkpt lat="41.809138" lon="2.374200">
        <ele>1640.047</ele>
        <time>2016-06-07T17:49:12Z</time>
      </trkpt>
      <trkpt lat="41.809141" lon="2.374073">
        <ele>1637.029</ele>
        <time>2016-06-07T17:49:28Z</time>
      </trkpt>
      <trkpt lat="41.809166" lon="2.373946">
        <ele>1634.021</ele>
        <time>2016-06-07T17:49:43Z</time>
      </trkpt>
      <trkpt lat="41.809238" lon="2.373858">
        <ele>1629.008</ele>
        <time>2016-06-07T17:50:04Z</time>
      </trkpt>
      <trkpt lat="41.809269" lon="2.373729">
        <ele>1627.095</ele>
        <time>2016-06-07T17:50:18Z</time>
      </trkpt>
      <trkpt lat="41.809302" lon="2.373604">
        <ele>1624.047</ele>
        <time>2016-06-07T17:50:25Z</time>
      </trkpt>
      <trkpt lat="41.809373" lon="2.373517">
        <ele>1622.060</ele>
        <time>2016-06-07T17:50:31Z</time>
      </trkpt>
      <trkpt lat="41.809449" lon="2.373450">
        <ele>1619.054</ele>
        <time>2016-06-07T17:50:38Z</time>
      </trkpt>
      <trkpt lat="41.809508" lon="2.373344">
        <ele>1618.030</ele>
        <time>2016-06-07T17:51:06Z</time>
      </trkpt>
      <trkpt lat="41.809581" lon="2.373223">
        <ele>1613.035</ele>
        <time>2016-06-07T17:51:11Z</time>
      </trkpt>
      <trkpt lat="41.809642" lon="2.373132">
        <ele>1610.054</ele>
        <time>2016-06-07T17:51:15Z</time>
      </trkpt>
      <trkpt lat="41.809706" lon="2.373045">
        <ele>1608.040</ele>
        <time>2016-06-07T17:51:21Z</time>
      </trkpt>
      <trkpt lat="41.809745" lon="2.372922">
        <ele>1607.011</ele>
        <time>2016-06-07T17:52:04Z</time>
      </trkpt>
      <trkpt lat="41.809774" lon="2.372803">
        <ele>1607.021</ele>
        <time>2016-06-07T17:52:12Z</time>
      </trkpt>
      <trkpt lat="41.809820" lon="2.372687">
        <ele>1605.003</ele>
        <time>2016-06-07T17:52:20Z</time>
      </trkpt>
      <trkpt lat="41.809861" lon="2.372571">
        <ele>1605.008</ele>
        <time>2016-06-07T17:52:27Z</time>
      </trkpt>
      <trkpt lat="41.809899" lon="2.372448">
        <ele>1606.012</ele>
        <time>2016-06-07T17:52:34Z</time>
      </trkpt>
      <trkpt lat="41.809942" lon="2.372340">
        <ele>1606.064</ele>
        <time>2016-06-07T17:52:42Z</time>
      </trkpt>
      <trkpt lat="41.810003" lon="2.372240">
        <ele>1607.087</ele>
        <time>2016-06-07T17:52:48Z</time>
      </trkpt>
      <trkpt lat="41.810062" lon="2.372125">
        <ele>1607.081</ele>
        <time>2016-06-07T17:52:55Z</time>
      </trkpt>
      <trkpt lat="41.810118" lon="2.372026">
        <ele>1607.017</ele>
        <time>2016-06-07T17:53:01Z</time>
      </trkpt>
      <trkpt lat="41.810162" lon="2.371916">
        <ele>1607.072</ele>
        <time>2016-06-07T17:53:09Z</time>
      </trkpt>
      <trkpt lat="41.810232" lon="2.371825">
        <ele>1606.081</ele>
        <time>2016-06-07T17:53:17Z</time>
      </trkpt>
      <trkpt lat="41.810299" lon="2.371731">
        <ele>1607.077</ele>
        <time>2016-06-07T17:53:24Z</time>
      </trkpt>
      <trkpt lat="41.810355" lon="2.371621">
        <ele>1609.078</ele>
        <time>2016-06-07T17:53:32Z</time>
      </trkpt>
      <trkpt lat="41.810415" lon="2.371519">
        <ele>1609.033</ele>
        <time>2016-06-07T17:53:40Z</time>
      </trkpt>
      <trkpt lat="41.810472" lon="2.371412">
        <ele>1610.026</ele>
        <time>2016-06-07T17:53:48Z</time>
      </trkpt>
      <trkpt lat="41.810542" lon="2.371326">
        <ele>1610.008</ele>
        <time>2016-06-07T17:53:56Z</time>
      </trkpt>
      <trkpt lat="41.810604" lon="2.371230">
        <ele>1611.018</ele>
        <time>2016-06-07T17:54:04Z</time>
      </trkpt>
      <trkpt lat="41.810639" lon="2.371114">
        <ele>1612.010</ele>
        <time>2016-06-07T17:54:11Z</time>
      </trkpt>
      <trkpt lat="41.810669" lon="2.370990">
        <ele>1612.073</ele>
        <time>2016-06-07T17:54:18Z</time>
      </trkpt>
      <trkpt lat="41.810708" lon="2.370866">
        <ele>1613.057</ele>
        <time>2016-06-07T17:54:25Z</time>
      </trkpt>
      <trkpt lat="41.810750" lon="2.370748">
        <ele>1613.093</ele>
        <time>2016-06-07T17:54:32Z</time>
      </trkpt>
      <trkpt lat="41.810788" lon="2.370620">
        <ele>1613.058</ele>
        <time>2016-06-07T17:54:39Z</time>
      </trkpt>
      <trkpt lat="41.810832" lon="2.370508">
        <ele>1613.047</ele>
        <time>2016-06-07T17:54:46Z</time>
      </trkpt>
      <trkpt lat="41.810889" lon="2.370404">
        <ele>1611.073</ele>
        <time>2016-06-07T17:54:53Z</time>
      </trkpt>
      <trkpt lat="41.810947" lon="2.370291">
        <ele>1612.082</ele>
        <time>2016-06-07T17:55:00Z</time>
      </trkpt>
      <trkpt lat="41.811006" lon="2.370176">
        <ele>1611.043</ele>
        <time>2016-06-07T17:55:07Z</time>
      </trkpt>
      <trkpt lat="41.811067" lon="2.370085">
        <ele>1611.017</ele>
        <time>2016-06-07T17:55:14Z</time>
      </trkpt>
      <trkpt lat="41.811113" lon="2.369963">
        <ele>1611.008</ele>
        <time>2016-06-07T17:55:22Z</time>
      </trkpt>
      <trkpt lat="41.811157" lon="2.369846">
        <ele>1612.019</ele>
        <time>2016-06-07T17:55:32Z</time>
      </trkpt>
      <trkpt lat="41.811185" lon="2.369725">
        <ele>1612.051</ele>
        <time>2016-06-07T17:55:41Z</time>
      </trkpt>
      <trkpt lat="41.811160" lon="2.369595">
        <ele>1610.054</ele>
        <time>2016-06-07T17:55:49Z</time>
      </trkpt>
      <trkpt lat="41.811139" lon="2.369474">
        <ele>1608.088</ele>
        <time>2016-06-07T17:55:57Z</time>
      </trkpt>
      <trkpt lat="41.811171" lon="2.369350">
        <ele>1608.074</ele>
        <time>2016-06-07T17:56:06Z</time>
      </trkpt>
      <trkpt lat="41.811209" lon="2.369233">
        <ele>1605.059</ele>
        <time>2016-06-07T17:56:13Z</time>
      </trkpt>
      <trkpt lat="41.811223" lon="2.369100">
        <ele>1603.048</ele>
        <time>2016-06-07T17:56:22Z</time>
      </trkpt>
      <trkpt lat="41.811234" lon="2.368976">
        <ele>1601.094</ele>
        <time>2016-06-07T17:56:34Z</time>
      </trkpt>
      <trkpt lat="41.811271" lon="2.368855">
        <ele>1599.047</ele>
        <time>2016-06-07T17:56:42Z</time>
      </trkpt>
      <trkpt lat="41.811249" lon="2.368733">
        <ele>1597.029</ele>
        <time>2016-06-07T17:56:50Z</time>
      </trkpt>
      <trkpt lat="41.811253" lon="2.368603">
        <ele>1595.021</ele>
        <time>2016-06-07T17:56:59Z</time>
      </trkpt>
      <trkpt lat="41.811269" lon="2.368471">
        <ele>1592.008</ele>
        <time>2016-06-07T17:57:11Z</time>
      </trkpt>
      <trkpt lat="41.811294" lon="2.368350">
        <ele>1588.095</ele>
        <time>2016-06-07T17:57:33Z</time>
      </trkpt>
      <trkpt lat="41.811309" lon="2.368219">
        <ele>1585.057</ele>
        <time>2016-06-07T17:57:41Z</time>
      </trkpt>
      <trkpt lat="41.811369" lon="2.368110">
        <ele>1584.040</ele>
        <time>2016-06-07T17:57:48Z</time>
      </trkpt>
      <trkpt lat="41.811406" lon="2.367985">
        <ele>1582.094</ele>
        <time>2016-06-07T17:57:56Z</time>
      </trkpt>
      <trkpt lat="41.811426" lon="2.367857">
        <ele>1582.030</ele>
        <time>2016-06-07T17:58:03Z</time>
      </trkpt>
      <trkpt lat="41.811453" lon="2.367741">
        <ele>1583.025</ele>
        <time>2016-06-07T17:58:11Z</time>
      </trkpt>
      <trkpt lat="41.811458" lon="2.367620">
        <ele>1580.074</ele>
        <time>2016-06-07T17:59:25Z</time>
      </trkpt>
      <trkpt lat="41.811473" lon="2.367491">
        <ele>1579.040</ele>
        <time>2016-06-07T17:59:32Z</time>
      </trkpt>
      <trkpt lat="41.811467" lon="2.367368">
        <ele>1580.068</ele>
        <time>2016-06-07T17:59:40Z</time>
      </trkpt>
      <trkpt lat="41.811472" lon="2.367245">
        <ele>1578.042</ele>
        <time>2016-06-07T17:59:47Z</time>
      </trkpt>
      <trkpt lat="41.811473" lon="2.367124">
        <ele>1576.026</ele>
        <time>2016-06-07T17:59:54Z</time>
      </trkpt>
      <trkpt lat="41.811480" lon="2.366989">
        <ele>1576.008</ele>
        <time>2016-06-07T18:00:02Z</time>
      </trkpt>
      <trkpt lat="41.811502" lon="2.366857">
        <ele>1576.097</ele>
        <time>2016-06-07T18:00:10Z</time>
      </trkpt>
      <trkpt lat="41.811545" lon="2.366731">
        <ele>1576.059</ele>
        <time>2016-06-07T18:00:18Z</time>
      </trkpt>
      <trkpt lat="41.811616" lon="2.366645">
        <ele>1576.072</ele>
        <time>2016-06-07T18:00:28Z</time>
      </trkpt>
      <trkpt lat="41.811672" lon="2.366547">
        <ele>1337.026</ele>
        <time>2016-06-07T18:00:36Z</time>
      </trkpt>
      <trkpt lat="41.811662" lon="2.366412">
        <ele>1572.022</ele>
        <time>2016-06-07T18:00:51Z</time>
      </trkpt>
      <trkpt lat="41.811653" lon="2.366289">
        <ele>1570.097</ele>
        <time>2016-06-07T18:00:59Z</time>
      </trkpt>
      <trkpt lat="41.811623" lon="2.366172">
        <ele>1567.056</ele>
        <time>2016-06-07T18:01:07Z</time>
      </trkpt>
      <trkpt lat="41.811594" lon="2.366056">
        <ele>1567.042</ele>
        <time>2016-06-07T18:01:17Z</time>
      </trkpt>
      <trkpt lat="41.811586" lon="2.365934">
        <ele>1563.081</ele>
        <time>2016-06-07T18:01:32Z</time>
      </trkpt>
      <trkpt lat="41.811586" lon="2.365807">
        <ele>1560.061</ele>
        <time>2016-06-07T18:01:42Z</time>
      </trkpt>
      <trkpt lat="41.811618" lon="2.365687">
        <ele>1557.017</ele>
        <time>2016-06-07T18:01:49Z</time>
      </trkpt>
      <trkpt lat="41.811644" lon="2.365564">
        <ele>1556.008</ele>
        <time>2016-06-07T18:01:58Z</time>
      </trkpt>
      <trkpt lat="41.811690" lon="2.365456">
        <ele>1555.079</ele>
        <time>2016-06-07T18:02:04Z</time>
      </trkpt>
      <trkpt lat="41.811685" lon="2.365325">
        <ele>1555.071</ele>
        <time>2016-06-07T18:02:12Z</time>
      </trkpt>
      <trkpt lat="41.811695" lon="2.365203">
        <ele>1555.074</ele>
        <time>2016-06-07T18:02:23Z</time>
      </trkpt>
      <trkpt lat="41.811719" lon="2.365079">
        <ele>1552.098</ele>
        <time>2016-06-07T18:02:30Z</time>
      </trkpt>
      <trkpt lat="41.811724" lon="2.364957">
        <ele>1551.084</ele>
        <time>2016-06-07T18:02:37Z</time>
      </trkpt>
      <trkpt lat="41.811685" lon="2.364836">
        <ele>1550.019</ele>
        <time>2016-06-07T18:02:45Z</time>
      </trkpt>
      <trkpt lat="41.811665" lon="2.364715">
        <ele>1548.078</ele>
        <time>2016-06-07T18:02:54Z</time>
      </trkpt>
      <trkpt lat="41.811635" lon="2.364600">
        <ele>1548.094</ele>
        <time>2016-06-07T18:03:01Z</time>
      </trkpt>
      <trkpt lat="41.811670" lon="2.364475">
        <ele>1545.011</ele>
        <time>2016-06-07T18:03:11Z</time>
      </trkpt>
      <trkpt lat="41.811729" lon="2.364369">
        <ele>1543.021</ele>
        <time>2016-06-07T18:03:19Z</time>
      </trkpt>
      <trkpt lat="41.811764" lon="2.364246">
        <ele>1542.003</ele>
        <time>2016-06-07T18:03:29Z</time>
      </trkpt>
      <trkpt lat="41.811806" lon="2.364117">
        <ele>1540.008</ele>
        <time>2016-06-07T18:03:36Z</time>
      </trkpt>
      <trkpt lat="41.811833" lon="2.363987">
        <ele>1541.062</ele>
        <time>2016-06-07T18:03:55Z</time>
      </trkpt>
      <trkpt lat="41.811861" lon="2.363863">
        <ele>1539.064</ele>
        <time>2016-06-07T18:04:02Z</time>
      </trkpt>
      <trkpt lat="41.811898" lon="2.363745">
        <ele>1538.097</ele>
        <time>2016-06-07T18:04:09Z</time>
      </trkpt>
      <trkpt lat="41.811949" lon="2.363637">
        <ele>1535.021</ele>
        <time>2016-06-07T18:04:15Z</time>
      </trkpt>
      <trkpt lat="41.812002" lon="2.363517">
        <ele>1535.077</ele>
        <time>2016-06-07T18:04:22Z</time>
      </trkpt>
      <trkpt lat="41.812040" lon="2.363390">
        <ele>1538.052</ele>
        <time>2016-06-07T18:04:29Z</time>
      </trkpt>
      <trkpt lat="41.812111" lon="2.363293">
        <ele>1535.081</ele>
        <time>2016-06-07T18:04:36Z</time>
      </trkpt>
      <trkpt lat="41.812142" lon="2.363176">
        <ele>1530.027</ele>
        <time>2016-06-07T18:04:42Z</time>
      </trkpt>
      <trkpt lat="41.812185" lon="2.363071">
        <ele>1529.081</ele>
        <time>2016-06-07T18:04:48Z</time>
      </trkpt>
      <trkpt lat="41.812218" lon="2.362953">
        <ele>1527.061</ele>
        <time>2016-06-07T18:04:56Z</time>
      </trkpt>
      <trkpt lat="41.812287" lon="2.362868">
        <ele>1526.017</ele>
        <time>2016-06-07T18:05:10Z</time>
      </trkpt>
      <trkpt lat="41.812362" lon="2.362787">
        <ele>1523.008</ele>
        <time>2016-06-07T18:05:48Z</time>
      </trkpt>
      <trkpt lat="41.812429" lon="2.362699">
        <ele>1524.039</ele>
        <time>2016-06-07T18:06:29Z</time>
      </trkpt>
      <trkpt lat="41.812491" lon="2.362600">
        <ele>1524.071</ele>
        <time>2016-06-07T18:06:43Z</time>
      </trkpt>
      <trkpt lat="41.812566" lon="2.362532">
        <ele>1522.084</ele>
        <time>2016-06-07T18:06:52Z</time>
      </trkpt>
      <trkpt lat="41.812656" lon="2.362496">
        <ele>1522.048</ele>
        <time>2016-06-07T18:07:02Z</time>
      </trkpt>
      <trkpt lat="41.812750" lon="2.362456">
        <ele>1522.084</ele>
        <time>2016-06-07T18:07:11Z</time>
      </trkpt>
      <trkpt lat="41.812839" lon="2.362418">
        <ele>1522.069</ele>
        <time>2016-06-07T18:07:47Z</time>
      </trkpt>
      <trkpt lat="41.812916" lon="2.362340">
        <ele>1520.058</ele>
        <time>2016-06-07T18:07:56Z</time>
      </trkpt>
      <trkpt lat="41.812970" lon="2.362232">
        <ele>1517.084</ele>
        <time>2016-06-07T18:08:05Z</time>
      </trkpt>
      <trkpt lat="41.813035" lon="2.362142">
        <ele>1515.059</ele>
        <time>2016-06-07T18:08:17Z</time>
      </trkpt>
      <trkpt lat="41.813129" lon="2.362110">
        <ele>1514.003</ele>
        <time>2016-06-07T18:08:25Z</time>
      </trkpt>
      <trkpt lat="41.813212" lon="2.362026">
        <ele>1510.023</ele>
        <time>2016-06-07T18:08:33Z</time>
      </trkpt>
      <trkpt lat="41.813298" lon="2.361970">
        <ele>1508.008</ele>
        <time>2016-06-07T18:08:41Z</time>
      </trkpt>
      <trkpt lat="41.813380" lon="2.361905">
        <ele>1507.096</ele>
        <time>2016-06-07T18:08:50Z</time>
      </trkpt>
      <trkpt lat="41.813472" lon="2.361911">
        <ele>1505.048</ele>
        <time>2016-06-07T18:09:03Z</time>
      </trkpt>
      <trkpt lat="41.813565" lon="2.361931">
        <ele>1501.041</ele>
        <time>2016-06-07T18:09:15Z</time>
      </trkpt>
      <trkpt lat="41.813662" lon="2.361935">
        <ele>1498.025</ele>
        <time>2016-06-07T18:09:26Z</time>
      </trkpt>
      <trkpt lat="41.813752" lon="2.361893">
        <ele>1497.071</ele>
        <time>2016-06-07T18:09:36Z</time>
      </trkpt>
      <trkpt lat="41.813844" lon="2.361859">
        <ele>1496.036</ele>
        <time>2016-06-07T18:09:44Z</time>
      </trkpt>
      <trkpt lat="41.813937" lon="2.361834">
        <ele>1497.035</ele>
        <time>2016-06-07T18:09:54Z</time>
      </trkpt>
      <trkpt lat="41.814027" lon="2.361801">
        <ele>1495.031</ele>
        <time>2016-06-07T18:10:01Z</time>
      </trkpt>
      <trkpt lat="41.814110" lon="2.361743">
        <ele>1494.094</ele>
        <time>2016-06-07T18:10:08Z</time>
      </trkpt>
      <trkpt lat="41.814184" lon="2.361660">
        <ele>1490.057</ele>
        <time>2016-06-07T18:10:15Z</time>
      </trkpt>
      <trkpt lat="41.814255" lon="2.361578">
        <ele>1488.022</ele>
        <time>2016-06-07T18:10:22Z</time>
      </trkpt>
      <trkpt lat="41.814337" lon="2.361504">
        <ele>1488.008</ele>
        <time>2016-06-07T18:10:29Z</time>
      </trkpt>
      <trkpt lat="41.814417" lon="2.361440">
        <ele>1487.090</ele>
        <time>2016-06-07T18:10:36Z</time>
      </trkpt>
      <trkpt lat="41.814475" lon="2.361347">
        <ele>1485.032</ele>
        <time>2016-06-07T18:10:44Z</time>
      </trkpt>
      <trkpt lat="41.814540" lon="2.361252">
        <ele>1484.085</ele>
        <time>2016-06-07T18:10:51Z</time>
      </trkpt>
      <trkpt lat="41.814629" lon="2.361187">
        <ele>1481.099</ele>
        <time>2016-06-07T18:10:58Z</time>
      </trkpt>
      <trkpt lat="41.814711" lon="2.361135">
        <ele>1478.035</ele>
        <time>2016-06-07T18:11:04Z</time>
      </trkpt>
      <trkpt lat="41.814801" lon="2.361067">
        <ele>1479.070</ele>
        <time>2016-06-07T18:11:12Z</time>
      </trkpt>
      <trkpt lat="41.814883" lon="2.361019">
        <ele>1480.029</ele>
        <time>2016-06-07T18:11:19Z</time>
      </trkpt>
      <trkpt lat="41.814965" lon="2.360969">
        <ele>1480.065</ele>
        <time>2016-06-07T18:11:26Z</time>
      </trkpt>
      <trkpt lat="41.815046" lon="2.360896">
        <ele>1478.042</ele>
        <time>2016-06-07T18:11:34Z</time>
      </trkpt>
      <trkpt lat="41.815141" lon="2.360854">
        <ele>1477.022</ele>
        <time>2016-06-07T18:11:43Z</time>
      </trkpt>
      <trkpt lat="41.815227" lon="2.360817">
        <ele>1474.014</ele>
        <time>2016-06-07T18:11:51Z</time>
      </trkpt>
      <trkpt lat="41.815319" lon="2.360768">
        <ele>1472.008</ele>
        <time>2016-06-07T18:11:58Z</time>
      </trkpt>
      <trkpt lat="41.815402" lon="2.360708">
        <ele>1473.045</ele>
        <time>2016-06-07T18:12:07Z</time>
      </trkpt>
      <trkpt lat="41.815472" lon="2.360614">
        <ele>1471.027</ele>
        <time>2016-06-07T18:12:15Z</time>
      </trkpt>
      <trkpt lat="41.815549" lon="2.360533">
        <ele>1471.020</ele>
        <time>2016-06-07T18:12:22Z</time>
      </trkpt>
      <trkpt lat="41.815630" lon="2.360455">
        <ele>1471.054</ele>
        <time>2016-06-07T18:12:29Z</time>
      </trkpt>
      <trkpt lat="41.815688" lon="2.360358">
        <ele>1468.060</ele>
        <time>2016-06-07T18:12:36Z</time>
      </trkpt>
      <trkpt lat="41.815729" lon="2.360247">
        <ele>1466.065</ele>
        <time>2016-06-07T18:12:44Z</time>
      </trkpt>
      <trkpt lat="41.815793" lon="2.360161">
        <ele>1461.014</ele>
        <time>2016-06-07T18:12:51Z</time>
      </trkpt>
      <trkpt lat="41.815869" lon="2.360077">
        <ele>1457.010</ele>
        <time>2016-06-07T18:13:00Z</time>
      </trkpt>
      <trkpt lat="41.815961" lon="2.360045">
        <ele>1456.081</ele>
        <time>2016-06-07T18:13:07Z</time>
      </trkpt>
      <trkpt lat="41.816063" lon="2.360014">
        <ele>1453.061</ele>
        <time>2016-06-07T18:13:15Z</time>
      </trkpt>
      <trkpt lat="41.816154" lon="2.359986">
        <ele>1450.017</ele>
        <time>2016-06-07T18:13:23Z</time>
      </trkpt>
      <trkpt lat="41.816241" lon="2.359950">
        <ele>1450.008</ele>
        <time>2016-06-07T18:13:33Z</time>
      </trkpt>
      <trkpt lat="41.816333" lon="2.359934">
        <ele>1448.079</ele>
        <time>2016-06-07T18:13:42Z</time>
      </trkpt>
      <trkpt lat="41.816421" lon="2.359896">
        <ele>1450.061</ele>
        <time>2016-06-07T18:13:53Z</time>
      </trkpt>
      <trkpt lat="41.816528" lon="2.359870">
        <ele>1451.064</ele>
        <time>2016-06-07T18:14:00Z</time>
      </trkpt>
      <trkpt lat="41.816622" lon="2.359848">
        <ele>1449.068</ele>
        <time>2016-06-07T18:14:07Z</time>
      </trkpt>
      <trkpt lat="41.816718" lon="2.359846">
        <ele>1449.054</ele>
        <time>2016-06-07T18:14:15Z</time>
      </trkpt>
      <trkpt lat="41.816808" lon="2.359800">
        <ele>1446.029</ele>
        <time>2016-06-07T18:14:21Z</time>
      </trkpt>
      <trkpt lat="41.816905" lon="2.359736">
        <ele>1446.038</ele>
        <time>2016-06-07T18:14:39Z</time>
      </trkpt>
      <trkpt lat="41.816984" lon="2.359675">
        <ele>1442.044</ele>
        <time>2016-06-07T18:15:04Z</time>
      </trkpt>
      <trkpt lat="41.817063" lon="2.359586">
        <ele>1440.034</ele>
        <time>2016-06-07T18:15:15Z</time>
      </trkpt>
      <trkpt lat="41.817125" lon="2.359477">
        <ele>1440.055</ele>
        <time>2016-06-07T18:15:22Z</time>
      </trkpt>
      <trkpt lat="41.817139" lon="2.359349">
        <ele>1439.010</ele>
        <time>2016-06-07T18:15:29Z</time>
      </trkpt>
      <trkpt lat="41.817159" lon="2.359224">
        <ele>1440.008</ele>
        <time>2016-06-07T18:15:36Z</time>
      </trkpt>
      <trkpt lat="41.817202" lon="2.359117">
        <ele>1439.074</ele>
        <time>2016-06-07T18:15:42Z</time>
      </trkpt>
      <trkpt lat="41.817269" lon="2.359011">
        <ele>1441.076</ele>
        <time>2016-06-07T18:15:50Z</time>
      </trkpt>
      <trkpt lat="41.817312" lon="2.358888">
        <ele>1442.029</ele>
        <time>2016-06-07T18:15:57Z</time>
      </trkpt>
      <trkpt lat="41.817358" lon="2.358784">
        <ele>1442.043</ele>
        <time>2016-06-07T18:16:04Z</time>
      </trkpt>
      <trkpt lat="41.817395" lon="2.358662">
        <ele>1442.099</ele>
        <time>2016-06-07T18:16:15Z</time>
      </trkpt>
      <trkpt lat="41.817404" lon="2.358537">
        <ele>1440.084</ele>
        <time>2016-06-07T18:16:33Z</time>
      </trkpt>
      <trkpt lat="41.817434" lon="2.358420">
        <ele>1440.043</ele>
        <time>2016-06-07T18:16:39Z</time>
      </trkpt>
      <trkpt lat="41.817491" lon="2.358326">
        <ele>1438.019</ele>
        <time>2016-06-07T18:16:48Z</time>
      </trkpt>
      <trkpt lat="41.817564" lon="2.358241">
        <ele>1436.072</ele>
        <time>2016-06-07T18:16:55Z</time>
      </trkpt>
      <trkpt lat="41.817645" lon="2.358187">
        <ele>1435.013</ele>
        <time>2016-06-07T18:17:01Z</time>
      </trkpt>
      <trkpt lat="41.817755" lon="2.358136">
        <ele>1438.014</ele>
        <time>2016-06-07T18:17:21Z</time>
      </trkpt>
      <trkpt lat="41.817847" lon="2.358089">
        <ele>1433.008</ele>
        <time>2016-06-07T18:17:29Z</time>
      </trkpt>
      <trkpt lat="41.817945" lon="2.358057">
        <ele>1433.038</ele>
        <time>2016-06-07T18:17:37Z</time>
      </trkpt>
      <trkpt lat="41.818031" lon="2.358005">
        <ele>1433.030</ele>
        <time>2016-06-07T18:17:45Z</time>
      </trkpt>
      <trkpt lat="41.818125" lon="2.357978">
        <ele>1430.083</ele>
        <time>2016-06-07T18:17:52Z</time>
      </trkpt>
      <trkpt lat="41.818182" lon="2.357883">
        <ele>1426.077</ele>
        <time>2016-06-07T18:17:59Z</time>
      </trkpt>
      <trkpt lat="41.818246" lon="2.357784">
        <ele>1424.033</ele>
        <time>2016-06-07T18:18:06Z</time>
      </trkpt>
      <trkpt lat="41.818331" lon="2.357727">
        <ele>1424.048</ele>
        <time>2016-06-07T18:18:18Z</time>
      </trkpt>
      <trkpt lat="41.818412" lon="2.357644">
        <ele>1424.057</ele>
        <time>2016-06-07T18:18:26Z</time>
      </trkpt>
      <trkpt lat="41.818489" lon="2.357575">
        <ele>1423.073</ele>
        <time>2016-06-07T18:18:34Z</time>
      </trkpt>
      <trkpt lat="41.818565" lon="2.357500">
        <ele>1421.034</ele>
        <time>2016-06-07T18:18:41Z</time>
      </trkpt>
      <trkpt lat="41.818651" lon="2.357424">
        <ele>1421.055</ele>
        <time>2016-06-07T18:18:48Z</time>
      </trkpt>
      <trkpt lat="41.818732" lon="2.357348">
        <ele>1415.010</ele>
        <time>2016-06-07T18:18:55Z</time>
      </trkpt>
      <trkpt lat="41.818808" lon="2.357281">
        <ele>1411.008</ele>
        <time>2016-06-07T18:19:01Z</time>
      </trkpt>
      <trkpt lat="41.818872" lon="2.357179">
        <ele>1411.034</ele>
        <time>2016-06-07T18:19:14Z</time>
      </trkpt>
      <trkpt lat="41.818955" lon="2.357122">
        <ele>1409.096</ele>
        <time>2016-06-07T18:19:21Z</time>
      </trkpt>
      <trkpt lat="41.819021" lon="2.357032">
        <ele>1408.029</ele>
        <time>2016-06-07T18:19:28Z</time>
      </trkpt>
      <trkpt lat="41.819097" lon="2.356946">
        <ele>1408.013</ele>
        <time>2016-06-07T18:19:36Z</time>
      </trkpt>
      <trkpt lat="41.819163" lon="2.356858">
        <ele>1407.039</ele>
        <time>2016-06-07T18:19:43Z</time>
      </trkpt>
      <trkpt lat="41.819231" lon="2.356775">
        <ele>1405.024</ele>
        <time>2016-06-07T18:19:52Z</time>
      </trkpt>
      <trkpt lat="41.819311" lon="2.356708">
        <ele>1402.083</ele>
        <time>2016-06-07T18:20:04Z</time>
      </trkpt>
      <trkpt lat="41.819411" lon="2.356680">
        <ele>1401.099</ele>
        <time>2016-06-07T18:20:12Z</time>
      </trkpt>
      <trkpt lat="41.819506" lon="2.356651">
        <ele>1401.029</ele>
        <time>2016-06-07T18:20:19Z</time>
      </trkpt>
      <trkpt lat="41.819596" lon="2.356627">
        <ele>1401.000</ele>
        <time>2016-06-07T18:20:25Z</time>
      </trkpt>
      <trkpt lat="41.819681" lon="2.356581">
        <ele>1400.020</ele>
        <time>2016-06-07T18:20:31Z</time>
      </trkpt>
      <trkpt lat="41.819783" lon="2.356555">
        <ele>1399.008</ele>
        <time>2016-06-07T18:20:38Z</time>
      </trkpt>
      <trkpt lat="41.819866" lon="2.356481">
        <ele>1395.093</ele>
        <time>2016-06-07T18:20:45Z</time>
      </trkpt>
      <trkpt lat="41.819957" lon="2.356444">
        <ele>1396.015</ele>
        <time>2016-06-07T18:20:53Z</time>
      </trkpt>
      <trkpt lat="41.820041" lon="2.356388">
        <ele>1396.058</ele>
        <time>2016-06-07T18:21:03Z</time>
      </trkpt>
      <trkpt lat="41.820117" lon="2.356319">
        <ele>1393.052</ele>
        <time>2016-06-07T18:21:11Z</time>
      </trkpt>
      <trkpt lat="41.820196" lon="2.356249">
        <ele>1391.078</ele>
        <time>2016-06-07T18:21:18Z</time>
      </trkpt>
      <trkpt lat="41.820260" lon="2.356160">
        <ele>1390.043</ele>
        <time>2016-06-07T18:21:24Z</time>
      </trkpt>
      <trkpt lat="41.820344" lon="2.356087">
        <ele>1387.082</ele>
        <time>2016-06-07T18:21:37Z</time>
      </trkpt>
      <trkpt lat="41.820402" lon="2.355991">
        <ele>1387.018</ele>
        <time>2016-06-07T18:21:44Z</time>
      </trkpt>
      <trkpt lat="41.820462" lon="2.355881">
        <ele>1385.029</ele>
        <time>2016-06-07T18:21:52Z</time>
      </trkpt>
      <trkpt lat="41.820492" lon="2.355747">
        <ele>1385.000</ele>
        <time>2016-06-07T18:21:59Z</time>
      </trkpt>
      <trkpt lat="41.820537" lon="2.355629">
        <ele>1386.020</ele>
        <time>2016-06-07T18:22:08Z</time>
      </trkpt>
      <trkpt lat="41.820580" lon="2.355523">
        <ele>1386.008</ele>
        <time>2016-06-07T18:22:17Z</time>
      </trkpt>
      <trkpt lat="41.820626" lon="2.355411">
        <ele>1386.093</ele>
        <time>2016-06-07T18:22:26Z</time>
      </trkpt>
      <trkpt lat="41.820639" lon="2.355284">
        <ele>1381.075</ele>
        <time>2016-06-07T18:22:36Z</time>
      </trkpt>
      <trkpt lat="41.820701" lon="2.355181">
        <ele>1378.048</ele>
        <time>2016-06-07T18:22:46Z</time>
      </trkpt>
      <trkpt lat="41.820776" lon="2.355092">
        <ele>1374.092</ele>
        <time>2016-06-07T18:22:55Z</time>
      </trkpt>
      <trkpt lat="41.820847" lon="2.355014">
        <ele>1373.038</ele>
        <time>2016-06-07T18:23:27Z</time>
      </trkpt>
      <trkpt lat="41.820882" lon="2.354902">
        <ele>1372.083</ele>
        <time>2016-06-07T18:23:49Z</time>
      </trkpt>
      <trkpt lat="41.820925" lon="2.354793">
        <ele>1369.052</ele>
        <time>2016-06-07T18:24:44Z</time>
      </trkpt>
      <trkpt lat="41.820971" lon="2.354898">
        <ele>1369.088</ele>
        <time>2016-06-07T18:25:12Z</time>
      </trkpt>
      <trkpt lat="41.821031" lon="2.354988">
        <ele>1367.072</ele>
        <time>2016-06-07T18:25:21Z</time>
      </trkpt>
      <trkpt lat="41.821125" lon="2.354938">
        <ele>1361.013</ele>
        <time>2016-06-07T18:25:42Z</time>
      </trkpt>
      <trkpt lat="41.821215" lon="2.354921">
        <ele>1360.014</ele>
        <time>2016-06-07T18:25:53Z</time>
      </trkpt>
      <trkpt lat="41.821266" lon="2.354812">
        <ele>1357.008</ele>
        <time>2016-06-07T18:28:19Z</time>
      </trkpt>
      <trkpt lat="41.821272" lon="2.354933">
        <ele>1356.048</ele>
        <time>2016-06-07T18:29:03Z</time>
      </trkpt>
      <trkpt lat="41.821185" lon="2.354972">
        <ele>1352.090</ele>
        <time>2016-06-07T18:29:56Z</time>
      </trkpt>
      <trkpt lat="41.821136" lon="2.355086">
        <ele>1349.063</ele>
        <time>2016-06-07T18:30:08Z</time>
      </trkpt>
      <trkpt lat="41.821119" lon="2.355215">
        <ele>1347.047</ele>
        <time>2016-06-07T18:30:24Z</time>
      </trkpt>
      <trkpt lat="41.821154" lon="2.355333">
        <ele>1344.013</ele>
        <time>2016-06-07T18:30:34Z</time>
      </trkpt>
      <trkpt lat="41.821140" lon="2.355462">
        <ele>1341.088</ele>
        <time>2016-06-07T18:30:51Z</time>
      </trkpt>
      <trkpt lat="41.821179" lon="2.355580">
        <ele>1335.077</ele>
        <time>2016-06-07T18:31:12Z</time>
      </trkpt>
      <trkpt lat="41.821183" lon="2.355705">
        <ele>1332.083</ele>
        <time>2016-06-07T18:31:25Z</time>
      </trkpt>
      <trkpt lat="41.821189" lon="2.355825">
        <ele>1327.063</ele>
        <time>2016-06-07T18:31:37Z</time>
      </trkpt>
      <trkpt lat="41.821209" lon="2.355704">
        <ele>1323.044</ele>
        <time>2016-06-07T18:31:55Z</time>
      </trkpt>
      <trkpt lat="41.821278" lon="2.355781">
        <ele>1321.018</ele>
        <time>2016-06-07T18:32:16Z</time>
      </trkpt>
      <trkpt lat="41.821367" lon="2.355822">
        <ele>1317.008</ele>
        <time>2016-06-07T18:33:17Z</time>
      </trkpt>
      <trkpt lat="41.821421" lon="2.355918">
        <ele>1309.017</ele>
        <time>2016-06-07T18:34:03Z</time>
      </trkpt>
      <trkpt lat="41.821515" lon="2.355926">
        <ele>1306.099</ele>
        <time>2016-06-07T18:35:04Z</time>
      </trkpt>
      <trkpt lat="41.821557" lon="2.356033">
        <ele>1295.072</ele>
        <time>2016-06-07T18:35:56Z</time>
      </trkpt>
      <trkpt lat="41.821474" lon="2.356087">
        <ele>1288.026</ele>
        <time>2016-06-07T18:36:10Z</time>
      </trkpt>
      <trkpt lat="41.821587" lon="2.356089">
        <ele>1287.082</ele>
        <time>2016-06-07T18:36:40Z</time>
      </trkpt>
      <trkpt lat="41.821677" lon="2.356082">
        <ele>1294.097</ele>
        <time>2016-06-07T18:38:23Z</time>
      </trkpt>
      <trkpt lat="41.821592" lon="2.356034">
        <ele>1293.036</ele>
        <time>2016-06-07T18:38:41Z</time>
      </trkpt>
      <trkpt lat="41.821621" lon="2.355912">
        <ele>1294.082</ele>
        <time>2016-06-07T18:39:01Z</time>
      </trkpt>
      <trkpt lat="41.821650" lon="2.355796">
        <ele>1292.037</ele>
        <time>2016-06-07T18:39:06Z</time>
      </trkpt>
      <trkpt lat="41.821705" lon="2.355684">
        <ele>1295.049</ele>
        <time>2016-06-07T18:39:10Z</time>
      </trkpt>
      <trkpt lat="41.821748" lon="2.355568">
        <ele>1295.013</ele>
        <time>2016-06-07T18:39:17Z</time>
      </trkpt>
      <trkpt lat="41.821718" lon="2.355686">
        <ele>1203.008</ele>
        <time>2016-06-07T18:41:46Z</time>
      </trkpt>
      <trkpt lat="41.821679" lon="2.355805">
        <ele>1277.064</ele>
        <time>2016-06-07T18:41:54Z</time>
      </trkpt>
      <trkpt lat="41.821618" lon="2.355905">
        <ele>1282.076</ele>
        <time>2016-06-07T18:42:19Z</time>
      </trkpt>
      <trkpt lat="41.821562" lon="2.356016">
        <ele>1283.029</ele>
        <time>2016-06-07T18:42:29Z</time>
      </trkpt>
      <trkpt lat="41.821452" lon="2.355994">
        <ele>1302.043</ele>
        <time>2016-06-07T18:43:31Z</time>
      </trkpt>
      <trkpt lat="41.821441" lon="2.355872">
        <ele>1308.089</ele>
        <time>2016-06-07T18:44:07Z</time>
      </trkpt>
      <trkpt lat="41.821347" lon="2.355851">
        <ele>1306.094</ele>
        <time>2016-06-07T18:44:26Z</time>
      </trkpt>
      <trkpt lat="41.821298" lon="2.355956">
        <ele>1317.083</ele>
        <time>2016-06-07T18:45:00Z</time>
      </trkpt>
      <trkpt lat="41.821204" lon="2.355963">
        <ele>1317.079</ele>
        <time>2016-06-07T18:45:10Z</time>
      </trkpt>
      <trkpt lat="41.821174" lon="2.355846">
        <ele>1330.079</ele>
        <time>2016-06-07T18:46:29Z</time>
      </trkpt>
      <trkpt lat="41.821121" lon="2.355740">
        <ele>1329.005</ele>
        <time>2016-06-07T18:46:37Z</time>
      </trkpt>
      <trkpt lat="41.821157" lon="2.355629">
        <ele>1334.025</ele>
        <time>2016-06-07T18:46:54Z</time>
      </trkpt>
      <trkpt lat="41.821132" lon="2.355507">
        <ele>1339.008</ele>
        <time>2016-06-07T18:47:27Z</time>
      </trkpt>
      <trkpt lat="41.821109" lon="2.355389">
        <ele>1341.028</ele>
        <time>2016-06-07T18:48:02Z</time>
      </trkpt>
      <trkpt lat="41.821097" lon="2.355257">
        <ele>1343.090</ele>
        <time>2016-06-07T18:48:13Z</time>
      </trkpt>
      <trkpt lat="41.821102" lon="2.355126">
        <ele>1346.083</ele>
        <time>2016-06-07T18:48:32Z</time>
      </trkpt>
      <trkpt lat="41.821160" lon="2.355023">
        <ele>1348.057</ele>
        <time>2016-06-07T18:48:42Z</time>
      </trkpt>
      <trkpt lat="41.821151" lon="2.354897">
        <ele>1351.053</ele>
        <time>2016-06-07T18:48:55Z</time>
      </trkpt>
      <trkpt lat="41.821068" lon="2.354949">
        <ele>1356.048</ele>
        <time>2016-06-07T18:49:11Z</time>
      </trkpt>
      <trkpt lat="41.820977" lon="2.354915">
        <ele>1359.017</ele>
        <time>2016-06-07T18:49:33Z</time>
      </trkpt>
      <trkpt lat="41.820944" lon="2.354797">
        <ele>1363.063</ele>
        <time>2016-06-07T18:49:48Z</time>
      </trkpt>
      <trkpt lat="41.820908" lon="2.354670">
        <ele>1362.075</ele>
        <time>2016-06-07T18:50:02Z</time>
      </trkpt>
      <trkpt lat="41.820839" lon="2.354587">
        <ele>1360.028</ele>
        <time>2016-06-07T18:50:15Z</time>
      </trkpt>
      <trkpt lat="41.820855" lon="2.354467">
        <ele>1352.020</ele>
        <time>2016-06-07T18:50:31Z</time>
      </trkpt>
      <trkpt lat="41.820904" lon="2.354364">
        <ele>1349.008</ele>
        <time>2016-06-07T18:50:41Z</time>
      </trkpt>
      <trkpt lat="41.820968" lon="2.354266">
        <ele>1348.018</ele>
        <time>2016-06-07T18:51:13Z</time>
      </trkpt>
      <trkpt lat="41.820979" lon="2.354143">
        <ele>1345.090</ele>
        <time>2016-06-07T18:51:33Z</time>
      </trkpt>
      <trkpt lat="41.820949" lon="2.354023">
        <ele>1340.093</ele>
        <time>2016-06-07T18:51:45Z</time>
      </trkpt>
      <trkpt lat="41.820997" lon="2.353920">
        <ele>1337.087</ele>
        <time>2016-06-07T18:51:52Z</time>
      </trkpt>
      <trkpt lat="41.820977" lon="2.353788">
        <ele>1333.093</ele>
        <time>2016-06-07T18:52:05Z</time>
      </trkpt>
      <trkpt lat="41.820998" lon="2.353660">
        <ele>1329.078</ele>
        <time>2016-06-07T18:52:14Z</time>
      </trkpt>
      <trkpt lat="41.821002" lon="2.353528">
        <ele>1325.077</ele>
        <time>2016-06-07T18:52:30Z</time>
      </trkpt>
      <trkpt lat="41.820980" lon="2.353406">
        <ele>1319.073</ele>
        <time>2016-06-07T18:52:50Z</time>
      </trkpt>
      <trkpt lat="41.820909" lon="2.353327">
        <ele>1315.029</ele>
        <time>2016-06-07T18:53:14Z</time>
      </trkpt>
      <trkpt lat="41.820818" lon="2.353284">
        <ele>1309.000</ele>
        <time>2016-06-07T18:53:29Z</time>
      </trkpt>
      <trkpt lat="41.820806" lon="2.353164">
        <ele>1303.020</ele>
        <time>2016-06-07T18:53:47Z</time>
      </trkpt>
      <trkpt lat="41.820831" lon="2.353041">
        <ele>1300.008</ele>
        <time>2016-06-07T18:54:07Z</time>
      </trkpt>
      <trkpt lat="41.820771" lon="2.352950">
        <ele>1293.043</ele>
        <time>2016-06-07T18:54:40Z</time>
      </trkpt>
      <trkpt lat="41.820698" lon="2.352873">
        <ele>1288.065</ele>
        <time>2016-06-07T18:54:53Z</time>
      </trkpt>
      <trkpt lat="41.820770" lon="2.352799">
        <ele>1284.068</ele>
        <time>2016-06-07T18:55:07Z</time>
      </trkpt>
      <trkpt lat="41.820862" lon="2.352773">
        <ele>1281.012</ele>
        <time>2016-06-07T18:55:24Z</time>
      </trkpt>
      <trkpt lat="41.820940" lon="2.352697">
        <ele>1274.068</ele>
        <time>2016-06-07T18:55:35Z</time>
      </trkpt>
      <trkpt lat="41.821034" lon="2.352667">
        <ele>1275.053</ele>
        <time>2016-06-07T18:55:54Z</time>
      </trkpt>
      <trkpt lat="41.821096" lon="2.352569">
        <ele>1275.072</ele>
        <time>2016-06-07T18:56:01Z</time>
      </trkpt>
      <trkpt lat="41.821169" lon="2.352496">
        <ele>1273.048</ele>
        <time>2016-06-07T18:56:07Z</time>
      </trkpt>
      <trkpt lat="41.821201" lon="2.352370">
        <ele>1273.062</ele>
        <time>2016-06-07T18:56:55Z</time>
      </trkpt>
      <trkpt lat="41.821248" lon="2.352266">
        <ele>1275.083</ele>
        <time>2016-06-07T18:57:21Z</time>
      </trkpt>
      <trkpt lat="41.821282" lon="2.352381">
        <ele>1274.011</ele>
        <time>2016-06-07T18:58:36Z</time>
      </trkpt>
      <trkpt lat="41.821327" lon="2.352496">
        <ele>1272.008</ele>
        <time>2016-06-07T18:58:59Z</time>
      </trkpt>
      <trkpt lat="41.821260" lon="2.352411">
        <ele>1276.017</ele>
        <time>2016-06-07T18:59:16Z</time>
      </trkpt>
      <trkpt lat="41.821168" lon="2.352415">
        <ele>1274.099</ele>
        <time>2016-06-07T18:59:33Z</time>
      </trkpt>
      <trkpt lat="41.821081" lon="2.352348">
        <ele>1271.012</ele>
        <time>2016-06-07T19:00:45Z</time>
      </trkpt>
      <trkpt lat="41.821100" lon="2.352222">
        <ele>1267.096</ele>
        <time>2016-06-07T19:00:57Z</time>
      </trkpt>
      <trkpt lat="41.821027" lon="2.352306">
        <ele>1263.052</ele>
        <time>2016-06-07T19:01:12Z</time>
      </trkpt>
      <trkpt lat="41.820934" lon="2.352317">
        <ele>1256.087</ele>
        <time>2016-06-07T19:01:36Z</time>
      </trkpt>
      <trkpt lat="41.820885" lon="2.352449">
        <ele>1257.096</ele>
        <time>2016-06-07T19:01:41Z</time>
      </trkpt>
      <trkpt lat="41.820969" lon="2.352379">
        <ele>1257.022</ele>
        <time>2016-06-07T19:01:43Z</time>
      </trkpt>
      <trkpt lat="41.820918" lon="2.352254">
        <ele>1261.059</ele>
        <time>2016-06-07T19:01:55Z</time>
      </trkpt>
      <trkpt lat="41.820818" lon="2.352253">
        <ele>1255.003</ele>
        <time>2016-06-07T19:02:11Z</time>
      </trkpt>
      <trkpt lat="41.820701" lon="2.352196">
        <ele>1256.023</ele>
        <time>2016-06-07T19:02:15Z</time>
      </trkpt>
      <trkpt lat="41.820599" lon="2.352212">
        <ele>1249.008</ele>
        <time>2016-06-07T19:02:23Z</time>
      </trkpt>
      <trkpt lat="41.820506" lon="2.352244">
        <ele>1246.076</ele>
        <time>2016-06-07T19:02:29Z</time>
      </trkpt>
      <trkpt lat="41.820417" lon="2.352288">
        <ele>1242.088</ele>
        <time>2016-06-07T19:02:36Z</time>
      </trkpt>
      <trkpt lat="41.820328" lon="2.352351">
        <ele>1243.061</ele>
        <time>2016-06-07T19:02:49Z</time>
      </trkpt>
      <trkpt lat="41.820234" lon="2.352328">
        <ele>1243.045</ele>
        <time>2016-06-07T19:02:57Z</time>
      </trkpt>
      <trkpt lat="41.820128" lon="2.352337">
        <ele>1241.021</ele>
        <time>2016-06-07T19:03:04Z</time>
      </trkpt>
      <trkpt lat="41.820032" lon="2.352349">
        <ele>1239.086</ele>
        <time>2016-06-07T19:03:11Z</time>
      </trkpt>
      <trkpt lat="41.819934" lon="2.352389">
        <ele>1237.015</ele>
        <time>2016-06-07T19:03:21Z</time>
      </trkpt>
      <trkpt lat="41.819863" lon="2.352467">
        <ele>1238.071</ele>
        <time>2016-06-07T19:03:35Z</time>
      </trkpt>
      <trkpt lat="41.819772" lon="2.352490">
        <ele>1235.044</ele>
        <time>2016-06-07T19:03:42Z</time>
      </trkpt>
      <trkpt lat="41.819682" lon="2.352518">
        <ele>1235.005</ele>
        <time>2016-06-07T19:03:49Z</time>
      </trkpt>
      <trkpt lat="41.819585" lon="2.352486">
        <ele>1234.015</ele>
        <time>2016-06-07T19:03:58Z</time>
      </trkpt>
      <trkpt lat="41.819471" lon="2.352449">
        <ele>1231.008</ele>
        <time>2016-06-07T19:04:15Z</time>
      </trkpt>
      <trkpt lat="41.819379" lon="2.352508">
        <ele>1230.075</ele>
        <time>2016-06-07T19:04:28Z</time>
      </trkpt>
      <trkpt lat="41.819309" lon="2.352612">
        <ele>1228.017</ele>
        <time>2016-06-07T19:04:34Z</time>
      </trkpt>
      <trkpt lat="41.819251" lon="2.352718">
        <ele>1224.090</ele>
        <time>2016-06-07T19:04:42Z</time>
      </trkpt>
      <trkpt lat="41.819198" lon="2.352842">
        <ele>1224.024</ele>
        <time>2016-06-07T19:04:56Z</time>
      </trkpt>
      <trkpt lat="41.819112" lon="2.352896">
        <ele>1223.070</ele>
        <time>2016-06-07T19:05:02Z</time>
      </trkpt>
      <trkpt lat="41.819014" lon="2.352862">
        <ele>1222.015</ele>
        <time>2016-06-07T19:05:12Z</time>
      </trkpt>
      <trkpt lat="41.818981" lon="2.352741">
        <ele>1217.094</ele>
        <time>2016-06-07T19:05:23Z</time>
      </trkpt>
      <trkpt lat="41.818918" lon="2.352648">
        <ele>1217.010</ele>
        <time>2016-06-07T19:05:31Z</time>
      </trkpt>
      <trkpt lat="41.818838" lon="2.352575">
        <ele>1216.081</ele>
        <time>2016-06-07T19:05:43Z</time>
      </trkpt>
      <trkpt lat="41.818794" lon="2.352466">
        <ele>1213.061</ele>
        <time>2016-06-07T19:05:50Z</time>
      </trkpt>
      <trkpt lat="41.818792" lon="2.352341">
        <ele>1212.017</ele>
        <time>2016-06-07T19:05:59Z</time>
      </trkpt>
      <trkpt lat="41.818853" lon="2.352244">
        <ele>1206.008</ele>
        <time>2016-06-07T19:06:10Z</time>
      </trkpt>
      <trkpt lat="41.818872" lon="2.352117">
        <ele>1201.049</ele>
        <time>2016-06-07T19:06:21Z</time>
      </trkpt>
      <trkpt lat="41.818856" lon="2.351997">
        <ele>1197.081</ele>
        <time>2016-06-07T19:06:31Z</time>
      </trkpt>
      <trkpt lat="41.818800" lon="2.351863">
        <ele>1199.054</ele>
        <time>2016-06-07T19:07:05Z</time>
      </trkpt>
      <trkpt lat="41.818823" lon="2.351743">
        <ele>1194.068</ele>
        <time>2016-06-07T19:07:19Z</time>
      </trkpt>
      <trkpt lat="41.818779" lon="2.351637">
        <ele>1194.094</ele>
        <time>2016-06-07T19:07:30Z</time>
      </trkpt>
      <trkpt lat="41.818707" lon="2.351555">
        <ele>1193.049</ele>
        <time>2016-06-07T19:07:35Z</time>
      </trkpt>
      <trkpt lat="41.818782" lon="2.351483">
        <ele>1182.068</ele>
        <time>2016-06-07T19:07:53Z</time>
      </trkpt>
      <trkpt lat="41.818725" lon="2.351389">
        <ele>1185.064</ele>
        <time>2016-06-07T19:08:02Z</time>
      </trkpt>
      <trkpt lat="41.818739" lon="2.351263">
        <ele>1182.025</ele>
        <time>2016-06-07T19:08:12Z</time>
      </trkpt>
      <trkpt lat="41.818672" lon="2.351178">
        <ele>1170.026</ele>
        <time>2016-06-07T19:08:35Z</time>
      </trkpt>
      <trkpt lat="41.818672" lon="2.351056">
        <ele>1170.008</ele>
        <time>2016-06-07T19:08:49Z</time>
      </trkpt>
      <trkpt lat="41.818677" lon="2.350924">
        <ele>1168.008</ele>
        <time>2016-06-07T19:09:04Z</time>
      </trkpt>
      <trkpt lat="41.818636" lon="2.350802">
        <ele>1170.033</ele>
        <time>2016-06-07T19:09:44Z</time>
      </trkpt>
      <trkpt lat="41.818729" lon="2.350871">
        <ele>1169.075</ele>
        <time>2016-06-07T19:09:57Z</time>
      </trkpt>
      <trkpt lat="41.818699" lon="2.350724">
        <ele>1167.048</ele>
        <time>2016-06-07T19:10:06Z</time>
      </trkpt>
      <trkpt lat="41.818662" lon="2.350614">
        <ele>1165.052</ele>
        <time>2016-06-07T19:10:47Z</time>
      </trkpt>
      <trkpt lat="41.818707" lon="2.350506">
        <ele>1161.048</ele>
        <time>2016-06-07T19:10:59Z</time>
      </trkpt>
      <trkpt lat="41.818806" lon="2.350474">
        <ele>1164.023</ele>
        <time>2016-06-07T19:11:19Z</time>
      </trkpt>
      <trkpt lat="41.818858" lon="2.350360">
        <ele>1162.082</ele>
        <time>2016-06-07T19:11:30Z</time>
      </trkpt>
      <trkpt lat="41.818910" lon="2.350261">
        <ele>1163.068</ele>
        <time>2016-06-07T19:11:42Z</time>
      </trkpt>
      <trkpt lat="41.818939" lon="2.350147">
        <ele>1176.047</ele>
        <time>2016-06-07T19:12:27Z</time>
      </trkpt>
      <trkpt lat="41.818972" lon="2.350011">
        <ele>1171.029</ele>
        <time>2016-06-07T19:12:33Z</time>
      </trkpt>
      <trkpt lat="41.818942" lon="2.349894">
        <ele>1179.021</ele>
        <time>2016-06-07T19:12:42Z</time>
      </trkpt>
      <trkpt lat="41.818962" lon="2.349763">
        <ele>1178.008</ele>
        <time>2016-06-07T19:13:20Z</time>
      </trkpt>
      <trkpt lat="41.819037" lon="2.349669">
        <ele>1179.095</ele>
        <time>2016-06-07T19:13:36Z</time>
      </trkpt>
      <trkpt lat="41.819077" lon="2.349531">
        <ele>1175.027</ele>
        <time>2016-06-07T19:13:50Z</time>
      </trkpt>
      <trkpt lat="41.819096" lon="2.349406">
        <ele>1174.020</ele>
        <time>2016-06-07T19:14:05Z</time>
      </trkpt>
      <trkpt lat="41.819068" lon="2.349279">
        <ele>1175.064</ele>
        <time>2016-06-07T19:14:13Z</time>
      </trkpt>
      <trkpt lat="41.819086" lon="2.349140">
        <ele>1174.080</ele>
        <time>2016-06-07T19:14:28Z</time>
      </trkpt>
      <trkpt lat="41.819152" lon="2.349050">
        <ele>1176.045</ele>
        <time>2016-06-07T19:14:48Z</time>
      </trkpt>
      <trkpt lat="41.819234" lon="2.348986">
        <ele>1175.034</ele>
        <time>2016-06-07T19:15:15Z</time>
      </trkpt>
      <trkpt lat="41.819331" lon="2.348973">
        <ele>1177.060</ele>
        <time>2016-06-07T19:15:19Z</time>
      </trkpt>
      <trkpt lat="41.819406" lon="2.348899">
        <ele>1173.056</ele>
        <time>2016-06-07T19:15:26Z</time>
      </trkpt>
      <trkpt lat="41.819471" lon="2.348791">
        <ele>1171.059</ele>
        <time>2016-06-07T19:15:36Z</time>
      </trkpt>
      <trkpt lat="41.819519" lon="2.348685">
        <ele>1169.014</ele>
        <time>2016-06-07T19:15:47Z</time>
      </trkpt>
      <trkpt lat="41.819615" lon="2.348662">
        <ele>1163.008</ele>
        <time>2016-06-07T19:16:21Z</time>
      </trkpt>
      <trkpt lat="41.819715" lon="2.348701">
        <ele>1156.046</ele>
        <time>2016-06-07T19:16:32Z</time>
      </trkpt>
      <trkpt lat="41.819723" lon="2.348577">
        <ele>1154.018</ele>
        <time>2016-06-07T19:16:47Z</time>
      </trkpt>
      <trkpt lat="41.819734" lon="2.348451">
        <ele>1157.071</ele>
        <time>2016-06-07T19:16:58Z</time>
      </trkpt>
      <trkpt lat="41.819822" lon="2.348482">
        <ele>1145.045</ele>
        <time>2016-06-07T19:17:19Z</time>
      </trkpt>
      <trkpt lat="41.819915" lon="2.348492">
        <ele>1140.081</ele>
        <time>2016-06-07T19:18:06Z</time>
      </trkpt>
      <trkpt lat="41.820003" lon="2.348517">
        <ele>1135.096</ele>
        <time>2016-06-07T19:18:41Z</time>
      </trkpt>
      <trkpt lat="41.820091" lon="2.348480">
        <ele>1137.055</ele>
        <time>2016-06-07T19:18:57Z</time>
      </trkpt>
      <trkpt lat="41.820185" lon="2.348491">
        <ele>1131.081</ele>
        <time>2016-06-07T19:19:11Z</time>
      </trkpt>
      <trkpt lat="41.820277" lon="2.348447">
        <ele>1129.044</ele>
        <time>2016-06-07T19:19:28Z</time>
      </trkpt>
      <trkpt lat="41.820371" lon="2.348451">
        <ele>1125.005</ele>
        <time>2016-06-07T19:19:38Z</time>
      </trkpt>
      <trkpt lat="41.820462" lon="2.348448">
        <ele>1122.015</ele>
        <time>2016-06-07T19:19:49Z</time>
      </trkpt>
      <trkpt lat="41.820543" lon="2.348394">
        <ele>1120.008</ele>
        <time>2016-06-07T19:20:06Z</time>
      </trkpt>
      <trkpt lat="41.820629" lon="2.348349">
        <ele>1122.075</ele>
        <time>2016-06-07T19:20:16Z</time>
      </trkpt>
      <trkpt lat="41.820673" lon="2.348244">
        <ele>1118.097</ele>
        <time>2016-06-07T19:20:35Z</time>
      </trkpt>
      <trkpt lat="41.820728" lon="2.348125">
        <ele>1117.080</ele>
        <time>2016-06-07T19:20:49Z</time>
      </trkpt>
      <trkpt lat="41.820825" lon="2.348084">
        <ele>1117.044</ele>
        <time>2016-06-07T19:21:03Z</time>
      </trkpt>
      <trkpt lat="41.820912" lon="2.348128">
        <ele>1117.040</ele>
        <time>2016-06-07T19:21:17Z</time>
      </trkpt>
      <trkpt lat="41.820988" lon="2.348198">
        <ele>1115.065</ele>
        <time>2016-06-07T19:21:30Z</time>
      </trkpt>
      <trkpt lat="41.821077" lon="2.348217">
        <ele>1120.044</ele>
        <time>2016-06-07T19:22:05Z</time>
      </trkpt>
      <trkpt lat="41.821173" lon="2.348183">
        <ele>1120.010</ele>
        <time>2016-06-07T19:22:17Z</time>
      </trkpt>
      <trkpt lat="41.821266" lon="2.348139">
        <ele>1121.028</ele>
        <time>2016-06-07T19:22:24Z</time>
      </trkpt>
      <trkpt lat="41.821346" lon="2.348071">
        <ele>1122.089</ele>
        <time>2016-06-07T19:22:33Z</time>
      </trkpt>
      <trkpt lat="41.821432" lon="2.348025">
        <ele>1120.017</ele>
        <time>2016-06-07T19:22:41Z</time>
      </trkpt>
      <trkpt lat="41.821535" lon="2.348008">
        <ele>1123.008</ele>
        <time>2016-06-07T19:22:52Z</time>
      </trkpt>
      <trkpt lat="41.821625" lon="2.348011">
        <ele>1124.033</ele>
        <time>2016-06-07T19:23:00Z</time>
      </trkpt>
      <trkpt lat="41.821717" lon="2.348000">
        <ele>1120.035</ele>
        <time>2016-06-07T19:23:13Z</time>
      </trkpt>
      <trkpt lat="41.821799" lon="2.347946">
        <ele>1116.088</ele>
        <time>2016-06-07T19:23:21Z</time>
      </trkpt>
      <trkpt lat="41.821878" lon="2.347885">
        <ele>1115.022</ele>
        <time>2016-06-07T19:23:29Z</time>
      </trkpt>
      <trkpt lat="41.821966" lon="2.347906">
        <ele>1114.028</ele>
        <time>2016-06-07T19:23:38Z</time>
      </trkpt>
      <trkpt lat="41.822005" lon="2.348022">
        <ele>1110.013</ele>
        <time>2016-06-07T19:23:50Z</time>
      </trkpt>
      <trkpt lat="41.822071" lon="2.348110">
        <ele>1109.042</ele>
        <time>2016-06-07T19:23:58Z</time>
      </trkpt>
      <trkpt lat="41.822120" lon="2.348224">
        <ele>1105.098</ele>
        <time>2016-06-07T19:24:11Z</time>
      </trkpt>
      <trkpt lat="41.822213" lon="2.348266">
        <ele>1098.074</ele>
        <time>2016-06-07T19:24:25Z</time>
      </trkpt>
      <trkpt lat="41.822303" lon="2.348330">
        <ele>1098.056</ele>
        <time>2016-06-07T19:24:39Z</time>
      </trkpt>
      <trkpt lat="41.822403" lon="2.348377">
        <ele>1096.021</ele>
        <time>2016-06-07T19:24:45Z</time>
      </trkpt>
      <trkpt lat="41.822450" lon="2.348496">
        <ele>1097.008</ele>
        <time>2016-06-07T19:24:55Z</time>
      </trkpt>
      <trkpt lat="41.822484" lon="2.348611">
        <ele>1097.098</ele>
        <time>2016-06-07T19:25:03Z</time>
      </trkpt>
      <trkpt lat="41.822568" lon="2.348659">
        <ele>1088.090</ele>
        <time>2016-06-07T19:25:30Z</time>
      </trkpt>
      <trkpt lat="41.822660" lon="2.348705">
        <ele>1088.023</ele>
        <time>2016-06-07T19:25:36Z</time>
      </trkpt>
      <trkpt lat="41.822743" lon="2.348752">
        <ele>1085.047</ele>
        <time>2016-06-07T19:25:43Z</time>
      </trkpt>
      <trkpt lat="41.822832" lon="2.348775">
        <ele>1082.063</ele>
        <time>2016-06-07T19:25:54Z</time>
      </trkpt>
      <trkpt lat="41.822934" lon="2.348779">
        <ele>1078.088</ele>
        <time>2016-06-07T19:26:02Z</time>
      </trkpt>
      <trkpt lat="41.823023" lon="2.348796">
        <ele>1080.037</ele>
        <time>2016-06-07T19:26:08Z</time>
      </trkpt>
      <trkpt lat="41.823120" lon="2.348806">
        <ele>1074.093</ele>
        <time>2016-06-07T19:26:27Z</time>
      </trkpt>
      <trkpt lat="41.823227" lon="2.348821">
        <ele>1077.083</ele>
        <time>2016-06-07T19:26:36Z</time>
      </trkpt>
      <trkpt lat="41.823323" lon="2.348854">
        <ele>1073.025</ele>
        <time>2016-06-07T19:26:42Z</time>
      </trkpt>
      <trkpt lat="41.823417" lon="2.348908">
        <ele>1077.017</ele>
        <time>2016-06-07T19:26:49Z</time>
      </trkpt>
      <trkpt lat="41.823511" lon="2.348916">
        <ele>1076.008</ele>
        <time>2016-06-07T19:27:02Z</time>
      </trkpt>
      <trkpt lat="41.823605" lon="2.348930">
        <ele>1076.099</ele>
        <time>2016-06-07T19:27:17Z</time>
      </trkpt>
      <trkpt lat="41.823669" lon="2.349016">
        <ele>1073.051</ele>
        <time>2016-06-07T19:27:30Z</time>
      </trkpt>
      <trkpt lat="41.823740" lon="2.349103">
        <ele>1071.054</ele>
        <time>2016-06-07T19:27:44Z</time>
      </trkpt>
      <trkpt lat="41.823806" lon="2.349186">
        <ele>1070.068</ele>
        <time>2016-06-07T19:27:50Z</time>
      </trkpt>
      <trkpt lat="41.823848" lon="2.349300">
        <ele>1068.084</ele>
        <time>2016-06-07T19:27:58Z</time>
      </trkpt>
      <trkpt lat="41.823919" lon="2.349404">
        <ele>1070.019</ele>
        <time>2016-06-07T19:28:05Z</time>
      </trkpt>
      <trkpt lat="41.823994" lon="2.349488">
        <ele>1068.088</ele>
        <time>2016-06-07T19:28:11Z</time>
      </trkpt>
      <trkpt lat="41.824025" lon="2.349611">
        <ele>1068.064</ele>
        <time>2016-06-07T19:28:18Z</time>
      </trkpt>
      <trkpt lat="41.824029" lon="2.349742">
        <ele>1066.052</ele>
        <time>2016-06-07T19:28:26Z</time>
      </trkpt>
      <trkpt lat="41.824004" lon="2.349865">
        <ele>1061.053</ele>
        <time>2016-06-07T19:28:43Z</time>
      </trkpt>
      <trkpt lat="41.823941" lon="2.349983">
        <ele>1052.008</ele>
        <time>2016-06-07T19:28:56Z</time>
      </trkpt>
      <trkpt lat="41.823985" lon="2.350089">
        <ele>1049.008</ele>
        <time>2016-06-07T19:29:07Z</time>
      </trkpt>
      <trkpt lat="41.824028" lon="2.350203">
        <ele>1045.096</ele>
        <time>2016-06-07T19:29:16Z</time>
      </trkpt>
      <trkpt lat="41.824098" lon="2.350301">
        <ele>1041.068</ele>
        <time>2016-06-07T19:29:26Z</time>
      </trkpt>
      <trkpt lat="41.824194" lon="2.350302">
        <ele>1048.071</ele>
        <time>2016-06-07T19:30:21Z</time>
      </trkpt>
      <trkpt lat="41.824284" lon="2.350323">
        <ele>1045.045</ele>
        <time>2016-06-07T19:30:33Z</time>
      </trkpt>
      <trkpt lat="41.824394" lon="2.350344">
        <ele>1044.031</ele>
        <time>2016-06-07T19:30:41Z</time>
      </trkpt>
      <trkpt lat="41.824465" lon="2.350258">
        <ele>1040.096</ele>
        <time>2016-06-07T19:30:50Z</time>
      </trkpt>
      <trkpt lat="41.824536" lon="2.350180">
        <ele>1037.015</ele>
        <time>2016-06-07T19:30:56Z</time>
      </trkpt>
      <trkpt lat="41.824608" lon="2.350101">
        <ele>1036.031</ele>
        <time>2016-06-07T19:31:04Z</time>
      </trkpt>
      <trkpt lat="41.824693" lon="2.350059">
        <ele>1035.028</ele>
        <time>2016-06-07T19:31:12Z</time>
      </trkpt>
      <trkpt lat="41.824792" lon="2.350094">
        <ele>1030.089</ele>
        <time>2016-06-07T19:31:41Z</time>
      </trkpt>
      <trkpt lat="41.824871" lon="2.350154">
        <ele>1033.017</ele>
        <time>2016-06-07T19:32:07Z</time>
      </trkpt>
      <trkpt lat="41.824962" lon="2.350214">
        <ele>1039.008</ele>
        <time>2016-06-07T19:33:32Z</time>
      </trkpt>
      <trkpt lat="41.825053" lon="2.350189">
        <ele>1038.063</ele>
        <time>2016-06-07T19:33:36Z</time>
      </trkpt>
      <trkpt lat="41.825128" lon="2.350115">
        <ele>1037.065</ele>
        <time>2016-06-07T19:34:04Z</time>
      </trkpt>
      <trkpt lat="41.825202" lon="2.350208">
        <ele>1036.088</ele>
        <time>2016-06-07T19:34:14Z</time>
      </trkpt>
      <trkpt lat="41.825265" lon="2.350297">
        <ele>1038.052</ele>
        <time>2016-06-07T19:34:30Z</time>
      </trkpt>
      <trkpt lat="41.825278" lon="2.350429">
        <ele>1036.048</ele>
        <time>2016-06-07T19:35:30Z</time>
      </trkpt>
      <trkpt lat="41.825293" lon="2.350550">
        <ele>1034.013</ele>
        <time>2016-06-07T19:35:38Z</time>
      </trkpt>
      <trkpt lat="41.825370" lon="2.350636">
        <ele>1038.052</ele>
        <time>2016-06-07T19:35:44Z</time>
      </trkpt>
      <trkpt lat="41.825458" lon="2.350595">
        <ele>1046.058</ele>
        <time>2016-06-07T19:36:02Z</time>
      </trkpt>
      <trkpt lat="41.825548" lon="2.350576">
        <ele>1049.096</ele>
        <time>2016-06-07T19:36:10Z</time>
      </trkpt>
      <trkpt lat="41.825638" lon="2.350544">
        <ele>1056.031</ele>
        <time>2016-06-07T19:36:50Z</time>
      </trkpt>
      <trkpt lat="41.825731" lon="2.350552">
        <ele>1060.024</ele>
        <time>2016-06-07T19:37:12Z</time>
      </trkpt>
      <trkpt lat="41.825795" lon="2.350464">
        <ele>1061.008</ele>
        <time>2016-06-07T19:37:20Z</time>
      </trkpt>
      <trkpt lat="41.825858" lon="2.350367">
        <ele>1059.070</ele>
        <time>2016-06-07T19:37:31Z</time>
      </trkpt>
      <trkpt lat="41.825918" lon="2.350269">
        <ele>1058.042</ele>
        <time>2016-06-07T19:37:39Z</time>
      </trkpt>
      <trkpt lat="41.825970" lon="2.350165">
        <ele>1059.055</ele>
        <time>2016-06-07T19:37:49Z</time>
      </trkpt>
      <trkpt lat="41.826052" lon="2.350102">
        <ele>1058.079</ele>
        <time>2016-06-07T19:37:58Z</time>
      </trkpt>
      <trkpt lat="41.826152" lon="2.350109">
        <ele>1056.035</ele>
        <time>2016-06-07T19:38:12Z</time>
      </trkpt>
      <trkpt lat="41.826246" lon="2.350156">
        <ele>1053.050</ele>
        <time>2016-06-07T19:38:19Z</time>
      </trkpt>
      <trkpt lat="41.826333" lon="2.350196">
        <ele>1049.059</ele>
        <time>2016-06-07T19:38:28Z</time>
      </trkpt>
      <trkpt lat="41.826411" lon="2.350262">
        <ele>1049.015</ele>
        <time>2016-06-07T19:38:36Z</time>
      </trkpt>
      <trkpt lat="41.826477" lon="2.350346">
        <ele>1056.069</ele>
        <time>2016-06-07T19:39:25Z</time>
      </trkpt>
      <trkpt lat="41.826577" lon="2.350383">
        <ele>1050.004</ele>
        <time>2016-06-07T19:40:18Z</time>
      </trkpt>
      <trkpt lat="41.826700" lon="2.350401">
        <ele>1052.024</ele>
        <time>2016-06-07T19:40:24Z</time>
      </trkpt>
      <trkpt lat="41.826785" lon="2.350326">
        <ele>1052.008</ele>
        <time>2016-06-07T19:40:31Z</time>
      </trkpt>
      <trkpt lat="41.826877" lon="2.350303">
        <ele>1050.087</ele>
        <time>2016-06-07T19:40:40Z</time>
      </trkpt>
      <trkpt lat="41.826965" lon="2.350350">
        <ele>1050.089</ele>
        <time>2016-06-07T19:40:52Z</time>
      </trkpt>
      <trkpt lat="41.827059" lon="2.350358">
        <ele>1051.082</ele>
        <time>2016-06-07T19:41:00Z</time>
      </trkpt>
      <trkpt lat="41.827157" lon="2.350303">
        <ele>1044.026</ele>
        <time>2016-06-07T19:41:20Z</time>
      </trkpt>
      <trkpt lat="41.827255" lon="2.350271">
        <ele>1042.072</ele>
        <time>2016-06-07T19:41:26Z</time>
      </trkpt>
      <trkpt lat="41.827348" lon="2.350293">
        <ele>1039.087</ele>
        <time>2016-06-07T19:41:36Z</time>
      </trkpt>
      <trkpt lat="41.827410" lon="2.350384">
        <ele>1042.026</ele>
        <time>2016-06-07T19:41:44Z</time>
      </trkpt>
      <trkpt lat="41.827495" lon="2.350438">
        <ele>1036.082</ele>
        <time>2016-06-07T19:41:59Z</time>
      </trkpt>
      <trkpt lat="41.827589" lon="2.350446">
        <ele>1017.027</ele>
        <time>2016-06-07T19:42:09Z</time>
      </trkpt>
      <trkpt lat="41.827676" lon="2.350410">
        <ele>1028.068</ele>
        <time>2016-06-07T19:42:16Z</time>
      </trkpt>
      <trkpt lat="41.827762" lon="2.350454">
        <ele>1035.014</ele>
        <time>2016-06-07T19:42:22Z</time>
      </trkpt>
      <trkpt lat="41.827845" lon="2.350524">
        <ele>1034.008</ele>
        <time>2016-06-07T19:42:30Z</time>
      </trkpt>
      <trkpt lat="41.827942" lon="2.350564">
        <ele>1042.033</ele>
        <time>2016-06-07T19:43:10Z</time>
      </trkpt>
      <trkpt lat="41.828034" lon="2.350534">
        <ele>1042.045</ele>
        <time>2016-06-07T19:43:17Z</time>
      </trkpt>
      <trkpt lat="41.828122" lon="2.350577">
        <ele>1039.038</ele>
        <time>2016-06-07T19:43:26Z</time>
      </trkpt>
      <trkpt lat="41.828171" lon="2.350694">
        <ele>1038.042</ele>
        <time>2016-06-07T19:43:42Z</time>
      </trkpt>
      <trkpt lat="41.828246" lon="2.350766">
        <ele>1038.068</ele>
        <time>2016-06-07T19:43:49Z</time>
      </trkpt>
      <trkpt lat="41.828310" lon="2.350855">
        <ele>1030.073</ele>
        <time>2016-06-07T19:43:59Z</time>
      </trkpt>
      <trkpt lat="41.828364" lon="2.350960">
        <ele>1027.072</ele>
        <time>2016-06-07T19:44:05Z</time>
      </trkpt>
      <trkpt lat="41.828444" lon="2.351030">
        <ele>1025.038</ele>
        <time>2016-06-07T19:44:11Z</time>
      </trkpt>
      <trkpt lat="41.828508" lon="2.351118">
        <ele>1023.066</ele>
        <time>2016-06-07T19:44:24Z</time>
      </trkpt>
      <trkpt lat="41.828576" lon="2.351206">
        <ele>1020.029</ele>
        <time>2016-06-07T19:44:31Z</time>
      </trkpt>
      <trkpt lat="41.828646" lon="2.351302">
        <ele>1020.021</ele>
        <time>2016-06-07T19:44:38Z</time>
      </trkpt>
      <trkpt lat="41.828584" lon="2.351394">
        <ele>1015.008</ele>
        <time>2016-06-07T19:44:52Z</time>
      </trkpt>
      <trkpt lat="41.828510" lon="2.351463">
        <ele>1017.077</ele>
        <time>2016-06-07T19:44:59Z</time>
      </trkpt>
      <trkpt lat="41.828472" lon="2.351577">
        <ele>1009.079</ele>
        <time>2016-06-07T19:45:18Z</time>
      </trkpt>
      <trkpt lat="41.828371" lon="2.351614">
        <ele>1004.072</ele>
        <time>2016-06-07T19:45:43Z</time>
      </trkpt>
      <trkpt lat="41.828273" lon="2.351612">
        <ele>1002.056</ele>
        <time>2016-06-07T19:45:50Z</time>
      </trkpt>
      <trkpt lat="41.828171" lon="2.351564">
        <ele>998.072</ele>
        <time>2016-06-07T19:45:55Z</time>
      </trkpt>
      <trkpt lat="41.828083" lon="2.351532">
        <ele>993.057</ele>
        <time>2016-06-07T19:46:03Z</time>
      </trkpt>
      <trkpt lat="41.828118" lon="2.351643">
        <ele>993.086</ele>
        <time>2016-06-07T19:46:25Z</time>
      </trkpt>
      <trkpt lat="41.828167" lon="2.351757">
        <ele>989.072</ele>
        <time>2016-06-07T19:46:35Z</time>
      </trkpt>
      <trkpt lat="41.828098" lon="2.351840">
        <ele>986.016</ele>
        <time>2016-06-07T19:46:45Z</time>
      </trkpt>
      <trkpt lat="41.828003" lon="2.351848">
        <ele>978.076</ele>
        <time>2016-06-07T19:46:56Z</time>
      </trkpt>
      <trkpt lat="41.828012" lon="2.351976">
        <ele>980.013</ele>
        <time>2016-06-07T19:47:06Z</time>
      </trkpt>
      <trkpt lat="41.828100" lon="2.352019">
        <ele>981.008</ele>
        <time>2016-06-07T19:47:17Z</time>
      </trkpt>
      <trkpt lat="41.828188" lon="2.352045">
        <ele>973.012</ele>
        <time>2016-06-07T19:47:29Z</time>
      </trkpt>
      <trkpt lat="41.828280" lon="2.352057">
        <ele>974.094</ele>
        <time>2016-06-07T19:47:37Z</time>
      </trkpt>
      <trkpt lat="41.828306" lon="2.352185">
        <ele>974.087</ele>
        <time>2016-06-07T19:48:04Z</time>
      </trkpt>
      <trkpt lat="41.828366" lon="2.352277">
        <ele>970.091</ele>
        <time>2016-06-07T19:48:19Z</time>
      </trkpt>
      <trkpt lat="41.828307" lon="2.352371">
        <ele>971.037</ele>
        <time>2016-06-07T19:48:30Z</time>
      </trkpt>
      <trkpt lat="41.828391" lon="2.352433">
        <ele>962.092</ele>
        <time>2016-06-07T19:48:52Z</time>
      </trkpt>
      <trkpt lat="41.828384" lon="2.352561">
        <ele>960.011</ele>
        <time>2016-06-07T19:49:14Z</time>
      </trkpt>
      <trkpt lat="41.828463" lon="2.352627">
        <ele>957.027</ele>
        <time>2016-06-07T19:49:29Z</time>
      </trkpt>
      <trkpt lat="41.828523" lon="2.352721">
        <ele>949.053</ele>
        <time>2016-06-07T19:49:43Z</time>
      </trkpt>
      <trkpt lat="41.828606" lon="2.352779">
        <ele>942.004</ele>
        <time>2016-06-07T19:49:53Z</time>
      </trkpt>
      <trkpt lat="41.828553" lon="2.352883">
        <ele>939.014</ele>
        <time>2016-06-07T19:50:02Z</time>
      </trkpt>
      <trkpt lat="41.828464" lon="2.352949">
        <ele>932.008</ele>
        <time>2016-06-07T19:50:20Z</time>
      </trkpt>
      <trkpt lat="41.828401" lon="2.353037">
        <ele>929.076</ele>
        <time>2016-06-07T19:50:28Z</time>
      </trkpt>
      <trkpt lat="41.828456" lon="2.353133">
        <ele>922.068</ele>
        <time>2016-06-07T19:50:45Z</time>
      </trkpt>
      <trkpt lat="41.828546" lon="2.353159">
        <ele>917.051</ele>
        <time>2016-06-07T19:50:54Z</time>
      </trkpt>
      <trkpt lat="41.828628" lon="2.353213">
        <ele>918.015</ele>
        <time>2016-06-07T19:51:04Z</time>
      </trkpt>
      <trkpt lat="41.828568" lon="2.353308">
        <ele>918.031</ele>
        <time>2016-06-07T19:51:13Z</time>
      </trkpt>
      <trkpt lat="41.828475" lon="2.353368">
        <ele>911.066</ele>
        <time>2016-06-07T19:51:22Z</time>
      </trkpt>
      <trkpt lat="41.828385" lon="2.353391">
        <ele>915.085</ele>
        <time>2016-06-07T19:51:47Z</time>
      </trkpt>
      <trkpt lat="41.828298" lon="2.353321">
        <ele>913.041</ele>
        <time>2016-06-07T19:51:59Z</time>
      </trkpt>
      <trkpt lat="41.828208" lon="2.353324">
        <ele>911.044</ele>
        <time>2016-06-07T19:52:08Z</time>
      </trkpt>
      <trkpt lat="41.828117" lon="2.353333">
        <ele>908.005</ele>
        <time>2016-06-07T19:52:23Z</time>
      </trkpt>
      <trkpt lat="41.828026" lon="2.353397">
        <ele>907.015</ele>
        <time>2016-06-07T19:52:32Z</time>
      </trkpt>
      <trkpt lat="41.827967" lon="2.353496">
        <ele>904.008</ele>
        <time>2016-06-07T19:52:47Z</time>
      </trkpt>
      <trkpt lat="41.827898" lon="2.353583">
        <ele>902.065</ele>
        <time>2016-06-07T19:53:03Z</time>
      </trkpt>
      <trkpt lat="41.827804" lon="2.353604">
        <ele>895.057</ele>
        <time>2016-06-07T19:55:13Z</time>
      </trkpt>
      <trkpt lat="41.827765" lon="2.353493">
        <ele>890.010</ele>
        <time>2016-06-07T19:58:05Z</time>
      </trkpt>
      <trkpt lat="41.827857" lon="2.353457">
        <ele>892.034</ele>
        <time>2016-06-07T20:05:51Z</time>
      </trkpt>
      <trkpt lat="41.827941" lon="2.353376">
        <ele>897.090</ele>
        <time>2016-06-07T20:06:14Z</time>
      </trkpt>
      <trkpt lat="41.828037" lon="2.353337">
        <ele>902.045</ele>
        <time>2016-06-07T20:06:39Z</time>
      </trkpt>
      <trkpt lat="41.828127" lon="2.353299">
        <ele>900.064</ele>
        <time>2016-06-07T20:06:49Z</time>
      </trkpt>
      <trkpt lat="41.828220" lon="2.353267">
        <ele>899.070</ele>
        <time>2016-06-07T20:06:54Z</time>
      </trkpt>
      <trkpt lat="41.828308" lon="2.353304">
        <ele>905.017</ele>
        <time>2016-06-07T20:06:59Z</time>
      </trkpt>
      <trkpt lat="41.828395" lon="2.353339">
        <ele>905.087</ele>
        <time>2016-06-07T20:07:15Z</time>
      </trkpt>
      <trkpt lat="41.828477" lon="2.353395">
        <ele>901.015</ele>
        <time>2016-06-07T20:08:04Z</time>
      </trkpt>
      <trkpt lat="41.828542" lon="2.353480">
        <ele>900.008</ele>
        <time>2016-06-07T20:08:11Z</time>
      </trkpt>
      <trkpt lat="41.828602" lon="2.353582">
        <ele>898.012</ele>
        <time>2016-06-07T20:08:34Z</time>
      </trkpt>
      <trkpt lat="41.828607" lon="2.353707">
        <ele>895.074</ele>
        <time>2016-06-07T20:08:41Z</time>
      </trkpt>
      <trkpt lat="41.828654" lon="2.353818">
        <ele>886.077</ele>
        <time>2016-06-07T20:09:02Z</time>
      </trkpt>
      <trkpt lat="41.828734" lon="2.353887">
        <ele>884.021</ele>
        <time>2016-06-07T20:09:08Z</time>
      </trkpt>
      <trkpt lat="41.828788" lon="2.353983">
        <ele>881.087</ele>
        <time>2016-06-07T20:09:15Z</time>
      </trkpt>
      <trkpt lat="41.828845" lon="2.354088">
        <ele>882.072</ele>
        <time>2016-06-07T20:09:22Z</time>
      </trkpt>
      <trkpt lat="41.828932" lon="2.354150">
        <ele>882.071</ele>
        <time>2016-06-07T20:09:33Z</time>
      </trkpt>
      <trkpt lat="41.828976" lon="2.354270">
        <ele>879.047</ele>
        <time>2016-06-07T20:09:45Z</time>
      </trkpt>
      <trkpt lat="41.829043" lon="2.354361">
        <ele>873.028</ele>
        <time>2016-06-07T20:09:58Z</time>
      </trkpt>
      <trkpt lat="41.829126" lon="2.354407">
        <ele>868.089</ele>
        <time>2016-06-07T20:10:10Z</time>
      </trkpt>
      <trkpt lat="41.829188" lon="2.354496">
        <ele>869.017</ele>
        <time>2016-06-07T20:10:20Z</time>
      </trkpt>
      <trkpt lat="41.829275" lon="2.354542">
        <ele>867.008</ele>
        <time>2016-06-07T20:10:27Z</time>
      </trkpt>
      <trkpt lat="41.829366" lon="2.354609">
        <ele>863.053</ele>
        <time>2016-06-07T20:10:37Z</time>
      </trkpt>
      <trkpt lat="41.829467" lon="2.354629">
        <ele>864.085</ele>
        <time>2016-06-07T20:10:51Z</time>
      </trkpt>
      <trkpt lat="41.829561" lon="2.354654">
        <ele>860.018</ele>
        <time>2016-06-07T20:10:58Z</time>
      </trkpt>
      <trkpt lat="41.829664" lon="2.354703">
        <ele>856.092</ele>
        <time>2016-06-07T20:11:06Z</time>
      </trkpt>
      <trkpt lat="41.829762" lon="2.354745">
        <ele>855.068</ele>
        <time>2016-06-07T20:11:13Z</time>
      </trkpt>
      <trkpt lat="41.829848" lon="2.354783">
        <ele>857.063</ele>
        <time>2016-06-07T20:11:29Z</time>
      </trkpt>
      <trkpt lat="41.829938" lon="2.354853">
        <ele>854.062</ele>
        <time>2016-06-07T20:11:34Z</time>
      </trkpt>
      <trkpt lat="41.830005" lon="2.354949">
        <ele>853.088</ele>
        <time>2016-06-07T20:11:41Z</time>
      </trkpt>
      <trkpt lat="41.830053" lon="2.355053">
        <ele>850.015</ele>
        <time>2016-06-07T20:11:47Z</time>
      </trkpt>
      <trkpt lat="41.830097" lon="2.355172">
        <ele>850.065</ele>
        <time>2016-06-07T20:11:54Z</time>
      </trkpt>
      <trkpt lat="41.830077" lon="2.355294">
        <ele>851.011</ele>
        <time>2016-06-07T20:12:00Z</time>
      </trkpt>
      <trkpt lat="41.830108" lon="2.355414">
        <ele>850.008</ele>
        <time>2016-06-07T20:12:07Z</time>
      </trkpt>
      <trkpt lat="41.830203" lon="2.355476">
        <ele>849.012</ele>
        <time>2016-06-07T20:12:14Z</time>
      </trkpt>
      <trkpt lat="41.830292" lon="2.355555">
        <ele>850.024</ele>
        <time>2016-06-07T20:12:23Z</time>
      </trkpt>
      <trkpt lat="41.830346" lon="2.355664">
        <ele>848.077</ele>
        <time>2016-06-07T20:12:30Z</time>
      </trkpt>
      <trkpt lat="41.830433" lon="2.355707">
        <ele>845.011</ele>
        <time>2016-06-07T20:12:39Z</time>
      </trkpt>
      <trkpt lat="41.830525" lon="2.355661">
        <ele>845.027</ele>
        <time>2016-06-07T20:12:46Z</time>
      </trkpt>
      <trkpt lat="41.830612" lon="2.355717">
        <ele>840.092</ele>
        <time>2016-06-07T20:12:52Z</time>
      </trkpt>
      <trkpt lat="41.830700" lon="2.355749">
        <ele>842.081</ele>
        <time>2016-06-07T20:12:59Z</time>
      </trkpt>
      <trkpt lat="41.830800" lon="2.355753">
        <ele>841.047</ele>
        <time>2016-06-07T20:13:06Z</time>
      </trkpt>
      <trkpt lat="41.830896" lon="2.355767">
        <ele>841.098</ele>
        <time>2016-06-07T20:13:13Z</time>
      </trkpt>
      <trkpt lat="41.830988" lon="2.355749">
        <ele>837.015</ele>
        <time>2016-06-07T20:13:19Z</time>
      </trkpt>
      <trkpt lat="41.831076" lon="2.355799">
        <ele>836.026</ele>
        <time>2016-06-07T20:13:25Z</time>
      </trkpt>
      <trkpt lat="41.831176" lon="2.355836">
        <ele>843.008</ele>
        <time>2016-06-07T20:13:33Z</time>
      </trkpt>
      <trkpt lat="41.831273" lon="2.355833">
        <ele>843.090</ele>
        <time>2016-06-07T20:13:41Z</time>
      </trkpt>
      <trkpt lat="41.831369" lon="2.355891">
        <ele>839.012</ele>
        <time>2016-06-07T20:13:47Z</time>
      </trkpt>
      <trkpt lat="41.831448" lon="2.355952">
        <ele>835.015</ele>
        <time>2016-06-07T20:13:53Z</time>
      </trkpt>
      <trkpt lat="41.831545" lon="2.356004">
        <ele>832.069</ele>
        <time>2016-06-07T20:14:00Z</time>
      </trkpt>
      <trkpt lat="41.831641" lon="2.356025">
        <ele>832.055</ele>
        <time>2016-06-07T20:14:07Z</time>
      </trkpt>
      <trkpt lat="41.831734" lon="2.356035">
        <ele>830.040</ele>
        <time>2016-06-07T20:14:15Z</time>
      </trkpt>
      <trkpt lat="41.831831" lon="2.356054">
        <ele>826.039</ele>
        <time>2016-06-07T20:14:21Z</time>
      </trkpt>
      <trkpt lat="41.831885" lon="2.356160">
        <ele>822.065</ele>
        <time>2016-06-07T20:14:33Z</time>
      </trkpt>
      <trkpt lat="41.831955" lon="2.356246">
        <ele>822.066</ele>
        <time>2016-06-07T20:14:42Z</time>
      </trkpt>
      <trkpt lat="41.832043" lon="2.356277">
        <ele>824.029</ele>
        <time>2016-06-07T20:14:47Z</time>
      </trkpt>
      <trkpt lat="41.832132" lon="2.356349">
        <ele>828.021</ele>
        <time>2016-06-07T20:14:54Z</time>
      </trkpt>
      <trkpt lat="41.832178" lon="2.356456">
        <ele>829.008</ele>
        <time>2016-06-07T20:15:06Z</time>
      </trkpt>
      <trkpt lat="41.832097" lon="2.356539">
        <ele>824.037</ele>
        <time>2016-06-07T20:15:28Z</time>
      </trkpt>
      <trkpt lat="41.832005" lon="2.356521">
        <ele>824.059</ele>
        <time>2016-06-07T20:15:46Z</time>
      </trkpt>
      <trkpt lat="41.831909" lon="2.356502">
        <ele>820.012</ele>
        <time>2016-06-07T20:15:54Z</time>
      </trkpt>
      <trkpt lat="41.831829" lon="2.356440">
        <ele>821.036</ele>
        <time>2016-06-07T20:16:00Z</time>
      </trkpt>
      <trkpt lat="41.831756" lon="2.356359">
        <ele>818.062</ele>
        <time>2016-06-07T20:16:08Z</time>
      </trkpt>
      <trkpt lat="41.831659" lon="2.356325">
        <ele>818.077</ele>
        <time>2016-06-07T20:16:16Z</time>
      </trkpt>
      <trkpt lat="41.831565" lon="2.356369">
        <ele>817.096</ele>
        <time>2016-06-07T20:16:22Z</time>
      </trkpt>
      <trkpt lat="41.831472" lon="2.356378">
        <ele>817.022</ele>
        <time>2016-06-07T20:16:30Z</time>
      </trkpt>
      <trkpt lat="41.831460" lon="2.356505">
        <ele>818.056</ele>
        <time>2016-06-07T20:16:37Z</time>
      </trkpt>
      <trkpt lat="41.831392" lon="2.356588">
        <ele>817.059</ele>
        <time>2016-06-07T20:16:43Z</time>
      </trkpt>
      <trkpt lat="41.831415" lon="2.356716">
        <ele>817.014</ele>
        <time>2016-06-07T20:16:50Z</time>
      </trkpt>
      <trkpt lat="41.831418" lon="2.356843">
        <ele>812.008</ele>
        <time>2016-06-07T20:16:59Z</time>
      </trkpt>
      <trkpt lat="41.831455" lon="2.356958">
        <ele>813.076</ele>
        <time>2016-06-07T20:17:06Z</time>
      </trkpt>
      <trkpt lat="41.831512" lon="2.357068">
        <ele>814.058</ele>
        <time>2016-06-07T20:17:13Z</time>
      </trkpt>
      <trkpt lat="41.831584" lon="2.357178">
        <ele>813.031</ele>
        <time>2016-06-07T20:17:20Z</time>
      </trkpt>
      <trkpt lat="41.831619" lon="2.357318">
        <ele>815.045</ele>
        <time>2016-06-07T20:17:27Z</time>
      </trkpt>
      <trkpt lat="41.831652" lon="2.357434">
        <ele>814.071</ele>
        <time>2016-06-07T20:17:35Z</time>
      </trkpt>
      <trkpt lat="41.831689" lon="2.357558">
        <ele>812.046</ele>
        <time>2016-06-07T20:17:42Z</time>
      </trkpt>
      <trkpt lat="41.831764" lon="2.357647">
        <ele>822.095</ele>
        <time>2016-06-07T20:17:58Z</time>
      </trkpt>
      <trkpt lat="41.831861" lon="2.357655">
        <ele>836.051</ele>
        <time>2016-06-07T20:18:09Z</time>
      </trkpt>
      <trkpt lat="41.831951" lon="2.357677">
        <ele>838.078</ele>
        <time>2016-06-07T20:18:18Z</time>
      </trkpt>
      <trkpt lat="41.832003" lon="2.357784">
        <ele>833.033</ele>
        <time>2016-06-07T20:18:32Z</time>
      </trkpt>
      <trkpt lat="41.832099" lon="2.357836">
        <ele>829.026</ele>
        <time>2016-06-07T20:18:41Z</time>
      </trkpt>
      <trkpt lat="41.832188" lon="2.357906">
        <ele>822.008</ele>
        <time>2016-06-07T20:18:45Z</time>
      </trkpt>
      <trkpt lat="41.832291" lon="2.357945">
        <ele>821.078</ele>
        <time>2016-06-07T20:18:51Z</time>
      </trkpt>
      <trkpt lat="41.832382" lon="2.357947">
        <ele>824.020</ele>
        <time>2016-06-07T20:18:57Z</time>
      </trkpt>
      <trkpt lat="41.832473" lon="2.358011">
        <ele>817.073</ele>
        <time>2016-06-07T20:19:02Z</time>
      </trkpt>
      <trkpt lat="41.832567" lon="2.358004">
        <ele>823.037</ele>
        <time>2016-06-07T20:19:09Z</time>
      </trkpt>
      <trkpt lat="41.832661" lon="2.357993">
        <ele>825.093</ele>
        <time>2016-06-07T20:19:17Z</time>
      </trkpt>
      <trkpt lat="41.832758" lon="2.357993">
        <ele>820.028</ele>
        <time>2016-06-07T20:19:22Z</time>
      </trkpt>
      <trkpt lat="41.832855" lon="2.357964">
        <ele>818.047</ele>
        <time>2016-06-07T20:19:31Z</time>
      </trkpt>
      <trkpt lat="41.832941" lon="2.357925">
        <ele>818.013</ele>
        <time>2016-06-07T20:19:39Z</time>
      </trkpt>
      <trkpt lat="41.833048" lon="2.357960">
        <ele>814.092</ele>
        <time>2016-06-07T20:19:54Z</time>
      </trkpt>
      <trkpt lat="41.833140" lon="2.357989">
        <ele>815.073</ele>
        <time>2016-06-07T20:19:59Z</time>
      </trkpt>
      <trkpt lat="41.833218" lon="2.358062">
        <ele>816.020</ele>
        <time>2016-06-07T20:20:06Z</time>
      </trkpt>
      <trkpt lat="41.833234" lon="2.358184">
        <ele>813.008</ele>
        <time>2016-06-07T20:20:14Z</time>
      </trkpt>
      <trkpt lat="41.833298" lon="2.358289">
        <ele>812.070</ele>
        <time>2016-06-07T20:20:21Z</time>
      </trkpt>
      <trkpt lat="41.833386" lon="2.358263">
        <ele>820.032</ele>
        <time>2016-06-07T20:20:41Z</time>
      </trkpt>
      <trkpt lat="41.833450" lon="2.358169">
        <ele>821.075</ele>
        <time>2016-06-07T20:20:48Z</time>
      </trkpt>
      <trkpt lat="41.833534" lon="2.358098">
        <ele>820.039</ele>
        <time>2016-06-07T20:20:57Z</time>
      </trkpt>
      <trkpt lat="41.833619" lon="2.358039">
        <ele>817.035</ele>
        <time>2016-06-07T20:21:03Z</time>
      </trkpt>
      <trkpt lat="41.833708" lon="2.357989">
        <ele>818.010</ele>
        <time>2016-06-07T20:21:13Z</time>
      </trkpt>
      <trkpt lat="41.833796" lon="2.357935">
        <ele>818.099</ele>
        <time>2016-06-07T20:21:23Z</time>
      </trkpt>
      <trkpt lat="41.833885" lon="2.357902">
        <ele>820.035</ele>
        <time>2016-06-07T20:21:39Z</time>
      </trkpt>
      <trkpt lat="41.833979" lon="2.357904">
        <ele>821.029</ele>
        <time>2016-06-07T20:21:47Z</time>
      </trkpt>
      <trkpt lat="41.834093" lon="2.357939">
        <ele>821.000</ele>
        <time>2016-06-07T20:21:53Z</time>
      </trkpt>
      <trkpt lat="41.834169" lon="2.358020">
        <ele>815.020</ele>
        <time>2016-06-07T20:21:55Z</time>
      </trkpt>
      <trkpt lat="41.834244" lon="2.358088">
        <ele>812.008</ele>
        <time>2016-06-07T20:22:01Z</time>
      </trkpt>
      <trkpt lat="41.834349" lon="2.358106">
        <ele>813.033</ele>
        <time>2016-06-07T20:22:08Z</time>
      </trkpt>
      <trkpt lat="41.834442" lon="2.358162">
        <ele>812.095</ele>
        <time>2016-06-07T20:22:14Z</time>
      </trkpt>
      <trkpt lat="41.834528" lon="2.358219">
        <ele>810.028</ele>
        <time>2016-06-07T20:22:20Z</time>
      </trkpt>
      <trkpt lat="41.834610" lon="2.358273">
        <ele>810.062</ele>
        <time>2016-06-07T20:22:26Z</time>
      </trkpt>
      <trkpt lat="41.834705" lon="2.358314">
        <ele>812.088</ele>
        <time>2016-06-07T20:22:34Z</time>
      </trkpt>
      <trkpt lat="41.834812" lon="2.358335">
        <ele>815.033</ele>
        <time>2016-06-07T20:22:41Z</time>
      </trkpt>
      <trkpt lat="41.834906" lon="2.358346">
        <ele>811.062</ele>
        <time>2016-06-07T20:22:49Z</time>
      </trkpt>
      <trkpt lat="41.835005" lon="2.358287">
        <ele>808.018</ele>
        <time>2016-06-07T20:22:57Z</time>
      </trkpt>
      <trkpt lat="41.835097" lon="2.358247">
        <ele>808.018</ele>
        <time>2016-06-07T20:23:03Z</time>
      </trkpt>
      <trkpt lat="41.835178" lon="2.358186">
        <ele>810.098</ele>
        <time>2016-06-07T20:23:09Z</time>
      </trkpt>
      <trkpt lat="41.835279" lon="2.358178">
        <ele>808.017</ele>
        <time>2016-06-07T20:23:15Z</time>
      </trkpt>
      <trkpt lat="41.835374" lon="2.358146">
        <ele>808.008</ele>
        <time>2016-06-07T20:23:22Z</time>
      </trkpt>
      <trkpt lat="41.835463" lon="2.358207">
        <ele>802.062</ele>
        <time>2016-06-07T20:23:57Z</time>
      </trkpt>
      <trkpt lat="41.835556" lon="2.358215">
        <ele>807.024</ele>
        <time>2016-06-07T20:24:14Z</time>
      </trkpt>
      <trkpt lat="41.835661" lon="2.358235">
        <ele>811.017</ele>
        <time>2016-06-07T20:24:42Z</time>
      </trkpt>
      <trkpt lat="41.835751" lon="2.358223">
        <ele>813.061</ele>
        <time>2016-06-07T20:24:49Z</time>
      </trkpt>
      <trkpt lat="41.835837" lon="2.358264">
        <ele>807.017</ele>
        <time>2016-06-07T20:24:57Z</time>
      </trkpt>
      <trkpt lat="41.835929" lon="2.358289">
        <ele>805.032</ele>
        <time>2016-06-07T20:25:06Z</time>
      </trkpt>
      <trkpt lat="41.835996" lon="2.358372">
        <ele>800.041</ele>
        <time>2016-06-07T20:25:11Z</time>
      </trkpt>
      <trkpt lat="41.836076" lon="2.358429">
        <ele>799.077</ele>
        <time>2016-06-07T20:25:16Z</time>
      </trkpt>
      <trkpt lat="41.836149" lon="2.358526">
        <ele>800.097</ele>
        <time>2016-06-07T20:25:32Z</time>
      </trkpt>
      <trkpt lat="41.836229" lon="2.358583">
        <ele>802.023</ele>
        <time>2016-06-07T20:25:38Z</time>
      </trkpt>
      <trkpt lat="41.836266" lon="2.358719">
        <ele>798.025</ele>
        <time>2016-06-07T20:25:48Z</time>
      </trkpt>
      <trkpt lat="41.836346" lon="2.358778">
        <ele>801.008</ele>
        <time>2016-06-07T20:25:56Z</time>
      </trkpt>
      <trkpt lat="41.836419" lon="2.358848">
        <ele>805.050</ele>
        <time>2016-06-07T20:26:08Z</time>
      </trkpt>
      <trkpt lat="41.836510" lon="2.358862">
        <ele>809.022</ele>
        <time>2016-06-07T20:26:23Z</time>
      </trkpt>
      <trkpt lat="41.836582" lon="2.358934">
        <ele>807.065</ele>
        <time>2016-06-07T20:26:29Z</time>
      </trkpt>
      <trkpt lat="41.836678" lon="2.358980">
        <ele>807.099</ele>
        <time>2016-06-07T20:26:38Z</time>
      </trkpt>
      <trkpt lat="41.836770" lon="2.359016">
        <ele>808.045</ele>
        <time>2016-06-07T20:26:46Z</time>
      </trkpt>
      <trkpt lat="41.836876" lon="2.359081">
        <ele>811.020</ele>
        <time>2016-06-07T20:26:54Z</time>
      </trkpt>
      <trkpt lat="41.836939" lon="2.359173">
        <ele>811.079</ele>
        <time>2016-06-07T20:27:00Z</time>
      </trkpt>
      <trkpt lat="41.836996" lon="2.359273">
        <ele>812.045</ele>
        <time>2016-06-07T20:27:08Z</time>
      </trkpt>
      <trkpt lat="41.837039" lon="2.359396">
        <ele>813.081</ele>
        <time>2016-06-07T20:27:16Z</time>
      </trkpt>
      <trkpt lat="41.837044" lon="2.359533">
        <ele>812.061</ele>
        <time>2016-06-07T20:27:21Z</time>
      </trkpt>
      <trkpt lat="41.837061" lon="2.359665">
        <ele>810.017</ele>
        <time>2016-06-07T20:27:26Z</time>
      </trkpt>
      <trkpt lat="41.837080" lon="2.359789">
        <ele>816.008</ele>
        <time>2016-06-07T20:27:35Z</time>
      </trkpt>
      <trkpt lat="41.837132" lon="2.359910">
        <ele>818.039</ele>
        <time>2016-06-07T20:27:43Z</time>
      </trkpt>
      <trkpt lat="41.837190" lon="2.360025">
        <ele>820.021</ele>
        <time>2016-06-07T20:27:50Z</time>
      </trkpt>
      <trkpt lat="41.837226" lon="2.360155">
        <ele>823.084</ele>
        <time>2016-06-07T20:28:00Z</time>
      </trkpt>
      <trkpt lat="41.837296" lon="2.360244">
        <ele>823.068</ele>
        <time>2016-06-07T20:28:09Z</time>
      </trkpt>
      <trkpt lat="41.837347" lon="2.360346">
        <ele>822.024</ele>
        <time>2016-06-07T20:28:16Z</time>
      </trkpt>
      <trkpt lat="41.837392" lon="2.360465">
        <ele>824.099</ele>
        <time>2016-06-07T20:28:23Z</time>
      </trkpt>
      <trkpt lat="41.837448" lon="2.360597">
        <ele>826.088</ele>
        <time>2016-06-07T20:28:30Z</time>
      </trkpt>
      <trkpt lat="41.837479" lon="2.360713">
        <ele>828.074</ele>
        <time>2016-06-07T20:28:39Z</time>
      </trkpt>
      <trkpt lat="41.837525" lon="2.360861">
        <ele>832.068</ele>
        <time>2016-06-07T20:28:47Z</time>
      </trkpt>
      <trkpt lat="41.837470" lon="2.360959">
        <ele>833.042</ele>
        <time>2016-06-07T20:28:54Z</time>
      </trkpt>
      <trkpt lat="41.837411" lon="2.361050">
        <ele>834.026</ele>
        <time>2016-06-07T20:29:15Z</time>
      </trkpt>
      <trkpt lat="41.837309" lon="2.361057">
        <ele>834.008</ele>
        <time>2016-06-07T20:30:02Z</time>
      </trkpt>
      <trkpt lat="41.837409" lon="2.361041">
        <ele>830.047</ele>
        <time>2016-06-07T20:30:09Z</time>
      </trkpt>
      <trkpt lat="41.837339" lon="2.360945">
        <ele>835.019</ele>
        <time>2016-06-07T20:30:41Z</time>
      </trkpt>
      <trkpt lat="41.837429" lon="2.360980">
        <ele>836.092</ele>
        <time>2016-06-07T20:31:01Z</time>
      </trkpt>
      <trkpt lat="41.837531" lon="2.360988">
        <ele>836.076</ele>
        <time>2016-06-07T20:31:26Z</time>
      </trkpt>
      <trkpt lat="41.837619" lon="2.361011">
        <ele>831.052</ele>
        <time>2016-06-07T20:32:00Z</time>
      </trkpt>
      <trkpt lat="41.837710" lon="2.360960">
        <ele>830.037</ele>
        <time>2016-06-07T20:32:06Z</time>
      </trkpt>
      <trkpt lat="41.837805" lon="2.360917">
        <ele>831.066</ele>
        <time>2016-06-07T20:32:14Z</time>
      </trkpt>
      <trkpt lat="41.837887" lon="2.360866">
        <ele>832.072</ele>
        <time>2016-06-07T20:32:20Z</time>
      </trkpt>
      <trkpt lat="41.837981" lon="2.360871">
        <ele>831.062</ele>
        <time>2016-06-07T20:32:27Z</time>
      </trkpt>
      <trkpt lat="41.838073" lon="2.360890">
        <ele>830.083</ele>
        <time>2016-06-07T20:32:33Z</time>
      </trkpt>
      <trkpt lat="41.838179" lon="2.360869">
        <ele>828.011</ele>
        <time>2016-06-07T20:32:40Z</time>
      </trkpt>
      <trkpt lat="41.838266" lon="2.360810">
        <ele>829.008</ele>
        <time>2016-06-07T20:32:48Z</time>
      </trkpt>
      <trkpt lat="41.838364" lon="2.360808">
        <ele>826.027</ele>
        <time>2016-06-07T20:32:54Z</time>
      </trkpt>
      <trkpt lat="41.838468" lon="2.360815">
        <ele>825.089</ele>
        <time>2016-06-07T20:33:00Z</time>
      </trkpt>
      <trkpt lat="41.838561" lon="2.360774">
        <ele>826.092</ele>
        <time>2016-06-07T20:33:07Z</time>
      </trkpt>
      <trkpt lat="41.838658" lon="2.360764">
        <ele>825.066</ele>
        <time>2016-06-07T20:33:13Z</time>
      </trkpt>
      <trkpt lat="41.838755" lon="2.360789">
        <ele>822.042</ele>
        <time>2016-06-07T20:33:37Z</time>
      </trkpt>
      <trkpt lat="41.838839" lon="2.360731">
        <ele>822.057</ele>
        <time>2016-06-07T20:33:43Z</time>
      </trkpt>
      <trkpt lat="41.838916" lon="2.360664">
        <ele>822.036</ele>
        <time>2016-06-07T20:33:49Z</time>
      </trkpt>
      <trkpt lat="41.839008" lon="2.360610">
        <ele>820.032</ele>
        <time>2016-06-07T20:33:56Z</time>
      </trkpt>
      <trkpt lat="41.839087" lon="2.360528">
        <ele>820.071</ele>
        <time>2016-06-07T20:34:03Z</time>
      </trkpt>
      <trkpt lat="41.839176" lon="2.360555">
        <ele>819.041</ele>
        <time>2016-06-07T20:34:12Z</time>
      </trkpt>
      <trkpt lat="41.839194" lon="2.360424">
        <ele>821.015</ele>
        <time>2016-06-07T20:34:23Z</time>
      </trkpt>
      <trkpt lat="41.839188" lon="2.360302">
        <ele>820.008</ele>
        <time>2016-06-07T20:34:30Z</time>
      </trkpt>
      <trkpt lat="41.839198" lon="2.360182">
        <ele>820.098</ele>
        <time>2016-06-07T20:34:42Z</time>
      </trkpt>
      <trkpt lat="41.839196" lon="2.360043">
        <ele>816.030</ele>
        <time>2016-06-07T20:34:49Z</time>
      </trkpt>
      <trkpt lat="41.839192" lon="2.359921">
        <ele>814.083</ele>
        <time>2016-06-07T20:34:56Z</time>
      </trkpt>
      <trkpt lat="41.839233" lon="2.359802">
        <ele>814.037</ele>
        <time>2016-06-07T20:35:01Z</time>
      </trkpt>
      <trkpt lat="41.839296" lon="2.359715">
        <ele>810.013</ele>
        <time>2016-06-07T20:35:08Z</time>
      </trkpt>
      <trkpt lat="41.839360" lon="2.359623">
        <ele>810.068</ele>
        <time>2016-06-07T20:35:16Z</time>
      </trkpt>
      <trkpt lat="41.839434" lon="2.359536">
        <ele>805.047</ele>
        <time>2016-06-07T20:35:25Z</time>
      </trkpt>
      <trkpt lat="41.839519" lon="2.359451">
        <ele>808.033</ele>
        <time>2016-06-07T20:35:32Z</time>
      </trkpt>
      <trkpt lat="41.839618" lon="2.359436">
        <ele>808.054</ele>
        <time>2016-06-07T20:35:44Z</time>
      </trkpt>
      <trkpt lat="41.839720" lon="2.359429">
        <ele>805.056</ele>
        <time>2016-06-07T20:35:51Z</time>
      </trkpt>
      <trkpt lat="41.839816" lon="2.359440">
        <ele>803.011</ele>
        <time>2016-06-07T20:36:03Z</time>
      </trkpt>
      <trkpt lat="41.839920" lon="2.359419">
        <ele>803.008</ele>
        <time>2016-06-07T20:36:10Z</time>
      </trkpt>
      <trkpt lat="41.840014" lon="2.359438">
        <ele>803.046</ele>
        <time>2016-06-07T20:36:16Z</time>
      </trkpt>
      <trkpt lat="41.840105" lon="2.359461">
        <ele>803.048</ele>
        <time>2016-06-07T20:36:22Z</time>
      </trkpt>
      <trkpt lat="41.840202" lon="2.359489">
        <ele>801.081</ele>
        <time>2016-06-07T20:36:29Z</time>
      </trkpt>
      <trkpt lat="41.840300" lon="2.359445">
        <ele>803.035</ele>
        <time>2016-06-07T20:36:45Z</time>
      </trkpt>
      <trkpt lat="41.840391" lon="2.359440">
        <ele>804.061</ele>
        <time>2016-06-07T20:36:59Z</time>
      </trkpt>
      <trkpt lat="41.840478" lon="2.359478">
        <ele>800.096</ele>
        <time>2016-06-07T20:37:05Z</time>
      </trkpt>
      <trkpt lat="41.840552" lon="2.359571">
        <ele>804.035</ele>
        <time>2016-06-07T20:37:12Z</time>
      </trkpt>
      <trkpt lat="41.840555" lon="2.359692">
        <ele>802.091</ele>
        <time>2016-06-07T20:37:21Z</time>
      </trkpt>
      <trkpt lat="41.840562" lon="2.359828">
        <ele>799.055</ele>
        <time>2016-06-07T20:37:27Z</time>
      </trkpt>
      <trkpt lat="41.840478" lon="2.359899">
        <ele>798.007</ele>
        <time>2016-06-07T20:37:55Z</time>
      </trkpt>
      <trkpt lat="41.840438" lon="2.360030">
        <ele>795.017</ele>
        <time>2016-06-07T20:38:02Z</time>
      </trkpt>
      <trkpt lat="41.840402" lon="2.360165">
        <ele>796.008</ele>
        <time>2016-06-07T20:38:10Z</time>
      </trkpt>
      <trkpt lat="41.840338" lon="2.360264">
        <ele>801.066</ele>
        <time>2016-06-07T20:38:20Z</time>
      </trkpt>
      <trkpt lat="41.840282" lon="2.360387">
        <ele>802.088</ele>
        <time>2016-06-07T20:38:27Z</time>
      </trkpt>
      <trkpt lat="41.840230" lon="2.360499">
        <ele>804.031</ele>
        <time>2016-06-07T20:38:34Z</time>
      </trkpt>
      <trkpt lat="41.840156" lon="2.360585">
        <ele>802.075</ele>
        <time>2016-06-07T20:38:40Z</time>
      </trkpt>
      <trkpt lat="41.840093" lon="2.360685">
        <ele>805.021</ele>
        <time>2016-06-07T20:38:53Z</time>
      </trkpt>
      <trkpt lat="41.840035" lon="2.360785">
        <ele>811.026</ele>
        <time>2016-06-07T20:39:00Z</time>
      </trkpt>
      <trkpt lat="41.839951" lon="2.360870">
        <ele>813.025</ele>
        <time>2016-06-07T20:39:10Z</time>
      </trkpt>
      <trkpt lat="41.839869" lon="2.360939">
        <ele>810.031</ele>
        <time>2016-06-07T20:39:13Z</time>
      </trkpt>
      <trkpt lat="41.839767" lon="2.360986">
        <ele>809.089</ele>
        <time>2016-06-07T20:39:16Z</time>
      </trkpt>
      <trkpt lat="41.839705" lon="2.361086">
        <ele>812.006</ele>
        <time>2016-06-07T20:39:23Z</time>
      </trkpt>
      <trkpt lat="41.839693" lon="2.361214">
        <ele>806.026</ele>
        <time>2016-06-07T20:39:30Z</time>
      </trkpt>
      <trkpt lat="41.839756" lon="2.361301">
        <ele>807.008</ele>
        <time>2016-06-07T20:40:19Z</time>
      </trkpt>
      <trkpt lat="41.839848" lon="2.361295">
        <ele>808.069</ele>
        <time>2016-06-07T20:40:23Z</time>
      </trkpt>
      <trkpt lat="41.839969" lon="2.361285">
        <ele>808.091</ele>
        <time>2016-06-07T20:40:32Z</time>
      </trkpt>
      <trkpt lat="41.840058" lon="2.361310">
        <ele>807.014</ele>
        <time>2016-06-07T20:40:35Z</time>
      </trkpt>
      <trkpt lat="41.840161" lon="2.361254">
        <ele>810.058</ele>
        <time>2016-06-07T20:40:49Z</time>
      </trkpt>
      <trkpt lat="41.840250" lon="2.361229">
        <ele>814.054</ele>
        <time>2016-06-07T20:40:56Z</time>
      </trkpt>
      <trkpt lat="41.840356" lon="2.361243">
        <ele>815.029</ele>
        <time>2016-06-07T20:41:03Z</time>
      </trkpt>
      <trkpt lat="41.840450" lon="2.361263">
        <ele>814.018</ele>
        <time>2016-06-07T20:41:13Z</time>
      </trkpt>
      <trkpt lat="41.840534" lon="2.361371">
        <ele>803.054</ele>
        <time>2016-06-07T20:41:18Z</time>
      </trkpt>
      <trkpt lat="41.840616" lon="2.361435">
        <ele>802.027</ele>
        <time>2016-06-07T20:41:26Z</time>
      </trkpt>
      <trkpt lat="41.840679" lon="2.361521">
        <ele>804.068</ele>
        <time>2016-06-07T20:41:33Z</time>
      </trkpt>
      <trkpt lat="41.840755" lon="2.361656">
        <ele>802.014</ele>
        <time>2016-06-07T20:41:43Z</time>
      </trkpt>
      <trkpt lat="41.840810" lon="2.361775">
        <ele>804.008</ele>
        <time>2016-06-07T20:41:50Z</time>
      </trkpt>
      <trkpt lat="41.840868" lon="2.361904">
        <ele>806.043</ele>
        <time>2016-06-07T20:41:55Z</time>
      </trkpt>
      <trkpt lat="41.840894" lon="2.362043">
        <ele>809.055</ele>
        <time>2016-06-07T20:42:02Z</time>
      </trkpt>
      <trkpt lat="41.840927" lon="2.362163">
        <ele>807.048</ele>
        <time>2016-06-07T20:42:07Z</time>
      </trkpt>
      <trkpt lat="41.840943" lon="2.362295">
        <ele>810.012</ele>
        <time>2016-06-07T20:42:14Z</time>
      </trkpt>
      <trkpt lat="41.840981" lon="2.362405">
        <ele>811.078</ele>
        <time>2016-06-07T20:42:19Z</time>
      </trkpt>
      <trkpt lat="41.840979" lon="2.362546">
        <ele>812.033</ele>
        <time>2016-06-07T20:42:27Z</time>
      </trkpt>
      <trkpt lat="41.840965" lon="2.362675">
        <ele>813.032</ele>
        <time>2016-06-07T20:42:35Z</time>
      </trkpt>
      <trkpt lat="41.841002" lon="2.362819">
        <ele>815.028</ele>
        <time>2016-06-07T20:42:45Z</time>
      </trkpt>
      <trkpt lat="41.841048" lon="2.362931">
        <ele>816.052</ele>
        <time>2016-06-07T20:42:54Z</time>
      </trkpt>
      <trkpt lat="41.841071" lon="2.363066">
        <ele>816.053</ele>
        <time>2016-06-07T20:43:01Z</time>
      </trkpt>
      <trkpt lat="41.841083" lon="2.363200">
        <ele>815.008</ele>
        <time>2016-06-07T20:43:11Z</time>
      </trkpt>
      <trkpt lat="41.841181" lon="2.363185">
        <ele>819.008</ele>
        <time>2016-06-07T20:43:23Z</time>
      </trkpt>
      <trkpt lat="41.841278" lon="2.363161">
        <ele>820.046</ele>
        <time>2016-06-07T20:43:31Z</time>
      </trkpt>
      <trkpt lat="41.841360" lon="2.363220">
        <ele>819.038</ele>
        <time>2016-06-07T20:43:38Z</time>
      </trkpt>
      <trkpt lat="41.841394" lon="2.363341">
        <ele>818.031</ele>
        <time>2016-06-07T20:43:45Z</time>
      </trkpt>
      <trkpt lat="41.841451" lon="2.363449">
        <ele>818.075</ele>
        <time>2016-06-07T20:43:53Z</time>
      </trkpt>
      <trkpt lat="41.841538" lon="2.363524">
        <ele>818.091</ele>
        <time>2016-06-07T20:44:02Z</time>
      </trkpt>
      <trkpt lat="41.841604" lon="2.363613">
        <ele>818.036</ele>
        <time>2016-06-07T20:44:08Z</time>
      </trkpt>
      <trkpt lat="41.841672" lon="2.363710">
        <ele>820.035</ele>
        <time>2016-06-07T20:44:17Z</time>
      </trkpt>
      <trkpt lat="41.841742" lon="2.363798">
        <ele>820.061</ele>
        <time>2016-06-07T20:44:24Z</time>
      </trkpt>
      <trkpt lat="41.841812" lon="2.363889">
        <ele>824.045</ele>
        <time>2016-06-07T20:44:32Z</time>
      </trkpt>
      <trkpt lat="41.841860" lon="2.363997">
        <ele>824.047</ele>
        <time>2016-06-07T20:44:38Z</time>
      </trkpt>
      <trkpt lat="41.841902" lon="2.364112">
        <ele>827.011</ele>
        <time>2016-06-07T20:44:45Z</time>
      </trkpt>
      <trkpt lat="41.841981" lon="2.364185">
        <ele>830.008</ele>
        <time>2016-06-07T20:44:50Z</time>
      </trkpt>
      <trkpt lat="41.842072" lon="2.364236">
        <ele>834.025</ele>
        <time>2016-06-07T20:45:00Z</time>
      </trkpt>
      <trkpt lat="41.842117" lon="2.364356">
        <ele>832.087</ele>
        <time>2016-06-07T20:45:06Z</time>
      </trkpt>
      <trkpt lat="41.842185" lon="2.364454">
        <ele>834.090</ele>
        <time>2016-06-07T20:45:13Z</time>
      </trkpt>
      <trkpt lat="41.842238" lon="2.364554">
        <ele>835.024</ele>
        <time>2016-06-07T20:45:18Z</time>
      </trkpt>
      <trkpt lat="41.842303" lon="2.364637">
        <ele>837.010</ele>
        <time>2016-06-07T20:45:32Z</time>
      </trkpt>
      <trkpt lat="41.842357" lon="2.364734">
        <ele>844.025</ele>
        <time>2016-06-07T20:45:50Z</time>
      </trkpt>
      <trkpt lat="41.842405" lon="2.364844">
        <ele>845.094</ele>
        <time>2016-06-07T20:46:01Z</time>
      </trkpt>
      <trkpt lat="41.842447" lon="2.364952">
        <ele>844.090</ele>
        <time>2016-06-07T20:46:06Z</time>
      </trkpt>
      <trkpt lat="41.842500" lon="2.365051">
        <ele>844.069</ele>
        <time>2016-06-07T20:46:13Z</time>
      </trkpt>
      <trkpt lat="41.842530" lon="2.365189">
        <ele>844.004</ele>
        <time>2016-06-07T20:46:21Z</time>
      </trkpt>
      <trkpt lat="41.842609" lon="2.365259">
        <ele>844.024</ele>
        <time>2016-06-07T20:46:28Z</time>
      </trkpt>
      <trkpt lat="41.842636" lon="2.365389">
        <ele>847.008</ele>
        <time>2016-06-07T20:46:36Z</time>
      </trkpt>
      <trkpt lat="41.842684" lon="2.365502">
        <ele>848.047</ele>
        <time>2016-06-07T20:46:43Z</time>
      </trkpt>
      <trkpt lat="41.842747" lon="2.365610">
        <ele>848.059</ele>
        <time>2016-06-07T20:46:50Z</time>
      </trkpt>
      <trkpt lat="41.842798" lon="2.365730">
        <ele>849.072</ele>
        <time>2016-06-07T20:46:57Z</time>
      </trkpt>
      <trkpt lat="41.842863" lon="2.365829">
        <ele>848.066</ele>
        <time>2016-06-07T20:47:04Z</time>
      </trkpt>
      <trkpt lat="41.842878" lon="2.365957">
        <ele>844.072</ele>
        <time>2016-06-07T20:47:25Z</time>
      </trkpt>
      <trkpt lat="41.842924" lon="2.366072">
        <ele>844.027</ele>
        <time>2016-06-07T20:47:32Z</time>
      </trkpt>
      <trkpt lat="41.842983" lon="2.366176">
        <ele>842.096</ele>
        <time>2016-06-07T20:47:38Z</time>
      </trkpt>
      <trkpt lat="41.843045" lon="2.366290">
        <ele>843.092</ele>
        <time>2016-06-07T20:47:45Z</time>
      </trkpt>
      <trkpt lat="41.843065" lon="2.366410">
        <ele>843.085</ele>
        <time>2016-06-07T20:47:51Z</time>
      </trkpt>
      <trkpt lat="41.843080" lon="2.366542">
        <ele>842.089</ele>
        <time>2016-06-07T20:47:58Z</time>
      </trkpt>
      <trkpt lat="41.843136" lon="2.366637">
        <ele>842.017</ele>
        <time>2016-06-07T20:48:04Z</time>
      </trkpt>
      <trkpt lat="41.843107" lon="2.366772">
        <ele>846.008</ele>
        <time>2016-06-07T20:48:30Z</time>
      </trkpt>
      <trkpt lat="41.843091" lon="2.366893">
        <ele>849.089</ele>
        <time>2016-06-07T20:48:43Z</time>
      </trkpt>
      <trkpt lat="41.843069" lon="2.367016">
        <ele>845.091</ele>
        <time>2016-06-07T20:48:56Z</time>
      </trkpt>
      <trkpt lat="41.843095" lon="2.367138">
        <ele>844.094</ele>
        <time>2016-06-07T20:49:03Z</time>
      </trkpt>
      <trkpt lat="41.843146" lon="2.367238">
        <ele>841.078</ele>
        <time>2016-06-07T20:49:09Z</time>
      </trkpt>
      <trkpt lat="41.843178" lon="2.367356">
        <ele>842.074</ele>
        <time>2016-06-07T20:49:16Z</time>
      </trkpt>
      <trkpt lat="41.843175" lon="2.367482">
        <ele>842.069</ele>
        <time>2016-06-07T20:49:29Z</time>
      </trkpt>
      <trkpt lat="41.843206" lon="2.367616">
        <ele>842.078</ele>
        <time>2016-06-07T20:49:36Z</time>
      </trkpt>
      <trkpt lat="41.843167" lon="2.367726">
        <ele>840.064</ele>
        <time>2016-06-07T20:49:45Z</time>
      </trkpt>
      <trkpt lat="41.843132" lon="2.367850">
        <ele>837.049</ele>
        <time>2016-06-07T20:49:52Z</time>
      </trkpt>
      <trkpt lat="41.843161" lon="2.367984">
        <ele>833.002</ele>
        <time>2016-06-07T20:50:00Z</time>
      </trkpt>
      <trkpt lat="41.843208" lon="2.368102">
        <ele>832.022</ele>
        <time>2016-06-07T20:50:07Z</time>
      </trkpt>
      <trkpt lat="41.843278" lon="2.368188">
        <ele>833.008</ele>
        <time>2016-06-07T20:50:13Z</time>
      </trkpt>
      <trkpt lat="41.843330" lon="2.368316">
        <ele>827.015</ele>
        <time>2016-06-07T20:50:20Z</time>
      </trkpt>
      <trkpt lat="41.843427" lon="2.368367">
        <ele>825.037</ele>
        <time>2016-06-07T20:50:28Z</time>
      </trkpt>
      <trkpt lat="41.843458" lon="2.368510">
        <ele>823.080</ele>
        <time>2016-06-07T20:50:35Z</time>
      </trkpt>
      <trkpt lat="41.843528" lon="2.368615">
        <ele>819.084</ele>
        <time>2016-06-07T20:50:41Z</time>
      </trkpt>
      <trkpt lat="41.843620" lon="2.368672">
        <ele>821.030</ele>
        <time>2016-06-07T20:51:20Z</time>
      </trkpt>
      <trkpt lat="41.843670" lon="2.368559">
        <ele>819.015</ele>
        <time>2016-06-07T20:51:30Z</time>
      </trkpt>
      <trkpt lat="41.843761" lon="2.368523">
        <ele>818.044</ele>
        <time>2016-06-07T20:51:39Z</time>
      </trkpt>
      <trkpt lat="41.843862" lon="2.368530">
        <ele>817.060</ele>
        <time>2016-06-07T20:51:45Z</time>
      </trkpt>
      <trkpt lat="41.843938" lon="2.368645">
        <ele>814.013</ele>
        <time>2016-06-07T20:51:48Z</time>
      </trkpt>
      <trkpt lat="41.844038" lon="2.368691">
        <ele>815.043</ele>
        <time>2016-06-07T20:51:53Z</time>
      </trkpt>
      <trkpt lat="41.844148" lon="2.368741">
        <ele>813.007</ele>
        <time>2016-06-07T20:51:57Z</time>
      </trkpt>
      <trkpt lat="41.844219" lon="2.368824">
        <ele>810.008</ele>
        <time>2016-06-07T20:52:00Z</time>
      </trkpt>
      <trkpt lat="41.844287" lon="2.368916">
        <ele>812.092</ele>
        <time>2016-06-07T20:52:03Z</time>
      </trkpt>
      <trkpt lat="41.844377" lon="2.368970">
        <ele>811.014</ele>
        <time>2016-06-07T20:52:07Z</time>
      </trkpt>
      <trkpt lat="41.844491" lon="2.368998">
        <ele>809.057</ele>
        <time>2016-06-07T20:52:12Z</time>
      </trkpt>
      <trkpt lat="41.844510" lon="2.369129">
        <ele>808.051</ele>
        <time>2016-06-07T20:52:17Z</time>
      </trkpt>
      <trkpt lat="41.844418" lon="2.369174">
        <ele>811.027</ele>
        <time>2016-06-07T20:52:27Z</time>
      </trkpt>
      <trkpt lat="41.844348" lon="2.369258">
        <ele>813.032</ele>
        <time>2016-06-07T20:52:37Z</time>
      </trkpt>
      <trkpt lat="41.844284" lon="2.369346">
        <ele>812.011</ele>
        <time>2016-06-07T20:52:43Z</time>
      </trkpt>
      <trkpt lat="41.844276" lon="2.369475">
        <ele>810.087</ele>
        <time>2016-06-07T20:52:51Z</time>
      </trkpt>
      <trkpt lat="41.844345" lon="2.369569">
        <ele>805.094</ele>
        <time>2016-06-07T20:52:58Z</time>
      </trkpt>
      <trkpt lat="41.844420" lon="2.369646">
        <ele>803.057</ele>
        <time>2016-06-07T20:53:07Z</time>
      </trkpt>
      <trkpt lat="41.844482" lon="2.369736">
        <ele>800.022</ele>
        <time>2016-06-07T20:53:13Z</time>
      </trkpt>
      <trkpt lat="41.844551" lon="2.369822">
        <ele>799.008</ele>
        <time>2016-06-07T20:53:22Z</time>
      </trkpt>
      <trkpt lat="41.844597" lon="2.369926">
        <ele>797.020</ele>
        <time>2016-06-07T20:53:51Z</time>
      </trkpt>
      <trkpt lat="41.844667" lon="2.370012">
        <ele>798.012</ele>
        <time>2016-06-07T20:53:58Z</time>
      </trkpt>
      <trkpt lat="41.844726" lon="2.370109">
        <ele>799.095</ele>
        <time>2016-06-07T20:54:05Z</time>
      </trkpt>
      <trkpt lat="41.844776" lon="2.370218">
        <ele>800.019</ele>
        <time>2016-06-07T20:54:13Z</time>
      </trkpt>
      <trkpt lat="41.844837" lon="2.370318">
        <ele>801.065</ele>
        <time>2016-06-07T20:54:20Z</time>
      </trkpt>
      <trkpt lat="41.844899" lon="2.370415">
        <ele>801.040</ele>
        <time>2016-06-07T20:54:25Z</time>
      </trkpt>
      <trkpt lat="41.844956" lon="2.370530">
        <ele>804.079</ele>
        <time>2016-06-07T20:54:31Z</time>
      </trkpt>
      <trkpt lat="41.845001" lon="2.370645">
        <ele>803.025</ele>
        <time>2016-06-07T20:54:39Z</time>
      </trkpt>
      <trkpt lat="41.845056" lon="2.370758">
        <ele>802.031</ele>
        <time>2016-06-07T20:54:46Z</time>
      </trkpt>
      <trkpt lat="41.845117" lon="2.370850">
        <ele>800.061</ele>
        <time>2016-06-07T20:54:53Z</time>
      </trkpt>
      <trkpt lat="41.845170" lon="2.370971">
        <ele>799.007</ele>
        <time>2016-06-07T20:55:01Z</time>
      </trkpt>
      <trkpt lat="41.845213" lon="2.371085">
        <ele>798.008</ele>
        <time>2016-06-07T20:55:07Z</time>
      </trkpt>
      <trkpt lat="41.845260" lon="2.371203">
        <ele>798.074</ele>
        <time>2016-06-07T20:55:13Z</time>
      </trkpt>
      <trkpt lat="41.845308" lon="2.371330">
        <ele>798.036</ele>
        <time>2016-06-07T20:55:20Z</time>
      </trkpt>
      <trkpt lat="41.845316" lon="2.371458">
        <ele>797.079</ele>
        <time>2016-06-07T20:55:26Z</time>
      </trkpt>
      <trkpt lat="41.845352" lon="2.371569">
        <ele>796.093</ele>
        <time>2016-06-07T20:55:33Z</time>
      </trkpt>
      <trkpt lat="41.845377" lon="2.371706">
        <ele>794.089</ele>
        <time>2016-06-07T20:55:41Z</time>
      </trkpt>
      <trkpt lat="41.845406" lon="2.371827">
        <ele>793.064</ele>
        <time>2016-06-07T20:55:47Z</time>
      </trkpt>
      <trkpt lat="41.845447" lon="2.371938">
        <ele>793.053</ele>
        <time>2016-06-07T20:55:55Z</time>
      </trkpt>
      <trkpt lat="41.845404" lon="2.371818">
        <ele>791.029</ele>
        <time>2016-06-07T20:57:27Z</time>
      </trkpt>
      <trkpt lat="41.845365" lon="2.371710">
        <ele>791.069</ele>
        <time>2016-06-07T20:57:36Z</time>
      </trkpt>
      <trkpt lat="41.845340" lon="2.371581">
        <ele>793.004</ele>
        <time>2016-06-07T20:57:43Z</time>
      </trkpt>
      <trkpt lat="41.845333" lon="2.371440">
        <ele>795.024</ele>
        <time>2016-06-07T20:57:51Z</time>
      </trkpt>
      <trkpt lat="41.845428" lon="2.371403">
        <ele>796.008</ele>
        <time>2016-06-07T20:57:59Z</time>
      </trkpt>
      <trkpt lat="41.845340" lon="2.371429">
        <ele>797.017</ele>
        <time>2016-06-07T20:58:47Z</time>
      </trkpt>
      <trkpt lat="41.845340" lon="2.371552">
        <ele>796.049</ele>
        <time>2016-06-07T20:58:57Z</time>
      </trkpt>
      <trkpt lat="41.845359" lon="2.371676">
        <ele>797.072</ele>
        <time>2016-06-07T20:59:03Z</time>
      </trkpt>
      <trkpt lat="41.845382" lon="2.371796">
        <ele>797.016</ele>
        <time>2016-06-07T20:59:11Z</time>
      </trkpt>
      <trkpt lat="41.845424" lon="2.371915">
        <ele>792.042</ele>
        <time>2016-06-07T20:59:16Z</time>
      </trkpt>
      <trkpt lat="41.845496" lon="2.372013">
        <ele>795.027</ele>
        <time>2016-06-07T20:59:21Z</time>
      </trkpt>
      <trkpt lat="41.845546" lon="2.372121">
        <ele>796.036</ele>
        <time>2016-06-07T20:59:27Z</time>
      </trkpt>
      <trkpt lat="41.845619" lon="2.372216">
        <ele>797.032</ele>
        <time>2016-06-07T20:59:32Z</time>
      </trkpt>
      <trkpt lat="41.845707" lon="2.372300">
        <ele>797.086</ele>
        <time>2016-06-07T20:59:41Z</time>
      </trkpt>
      <trkpt lat="41.845790" lon="2.372356">
        <ele>798.060</ele>
        <time>2016-06-07T20:59:45Z</time>
      </trkpt>
      <trkpt lat="41.845870" lon="2.372422">
        <ele>798.026</ele>
        <time>2016-06-07T20:59:50Z</time>
      </trkpt>
      <trkpt lat="41.845944" lon="2.372510">
        <ele>797.008</ele>
        <time>2016-06-07T20:59:58Z</time>
      </trkpt>
      <trkpt lat="41.846023" lon="2.372585">
        <ele>795.049</ele>
        <time>2016-06-07T21:00:05Z</time>
      </trkpt>
      <trkpt lat="41.846075" lon="2.372690">
        <ele>792.011</ele>
        <time>2016-06-07T21:00:12Z</time>
      </trkpt>
      <trkpt lat="41.846108" lon="2.372817">
        <ele>791.094</ele>
        <time>2016-06-07T21:00:19Z</time>
      </trkpt>
      <trkpt lat="41.846107" lon="2.372943">
        <ele>792.038</ele>
        <time>2016-06-07T21:00:27Z</time>
      </trkpt>
      <trkpt lat="41.846127" lon="2.373077">
        <ele>785.034</ele>
        <time>2016-06-07T21:00:33Z</time>
      </trkpt>
      <trkpt lat="41.846131" lon="2.373209">
        <ele>788.049</ele>
        <time>2016-06-07T21:00:40Z</time>
      </trkpt>
      <trkpt lat="41.846121" lon="2.373330">
        <ele>789.068</ele>
        <time>2016-06-07T21:00:46Z</time>
      </trkpt>
      <trkpt lat="41.846094" lon="2.373448">
        <ele>789.074</ele>
        <time>2016-06-07T21:00:52Z</time>
      </trkpt>
      <trkpt lat="41.846053" lon="2.373567">
        <ele>791.041</ele>
        <time>2016-06-07T21:00:58Z</time>
      </trkpt>
      <trkpt lat="41.845981" lon="2.373650">
        <ele>790.081</ele>
        <time>2016-06-07T21:01:04Z</time>
      </trkpt>
      <trkpt lat="41.845911" lon="2.373734">
        <ele>790.009</ele>
        <time>2016-06-07T21:01:12Z</time>
      </trkpt>
      <trkpt lat="41.845853" lon="2.373852">
        <ele>788.008</ele>
        <time>2016-06-07T21:01:18Z</time>
      </trkpt>
      <trkpt lat="41.845785" lon="2.373977">
        <ele>788.025</ele>
        <time>2016-06-07T21:01:23Z</time>
      </trkpt>
      <trkpt lat="41.845779" lon="2.374098">
        <ele>788.067</ele>
        <time>2016-06-07T21:01:31Z</time>
      </trkpt>
      <trkpt lat="41.845785" lon="2.374219">
        <ele>788.030</ele>
        <time>2016-06-07T21:01:36Z</time>
      </trkpt>
      <trkpt lat="41.845795" lon="2.374354">
        <ele>787.084</ele>
        <time>2016-06-07T21:01:45Z</time>
      </trkpt>
      <trkpt lat="41.845829" lon="2.374472">
        <ele>780.090</ele>
        <time>2016-06-07T21:01:52Z</time>
      </trkpt>
      <trkpt lat="41.845905" lon="2.374559">
        <ele>782.035</ele>
        <time>2016-06-07T21:01:57Z</time>
      </trkpt>
      <trkpt lat="41.845999" lon="2.374594">
        <ele>785.064</ele>
        <time>2016-06-07T21:02:01Z</time>
      </trkpt>
      <trkpt lat="41.846062" lon="2.374683">
        <ele>787.070</ele>
        <time>2016-06-07T21:02:10Z</time>
      </trkpt>
      <trkpt lat="41.846100" lon="2.374803">
        <ele>785.011</ele>
        <time>2016-06-07T21:02:17Z</time>
      </trkpt>
      <trkpt lat="41.846090" lon="2.374925">
        <ele>781.021</ele>
        <time>2016-06-07T21:02:24Z</time>
      </trkpt>
      <trkpt lat="41.846076" lon="2.375052">
        <ele>775.003</ele>
        <time>2016-06-07T21:02:36Z</time>
      </trkpt>
      <trkpt lat="41.846048" lon="2.375174">
        <ele>772.008</ele>
        <time>2016-06-07T21:02:42Z</time>
      </trkpt>
      <trkpt lat="41.846082" lon="2.375293">
        <ele>772.092</ele>
        <time>2016-06-07T21:02:48Z</time>
      </trkpt>
      <trkpt lat="41.846072" lon="2.375418">
        <ele>771.094</ele>
        <time>2016-06-07T21:02:54Z</time>
      </trkpt>
      <trkpt lat="41.846070" lon="2.375540">
        <ele>769.097</ele>
        <time>2016-06-07T21:03:01Z</time>
      </trkpt>
      <trkpt lat="41.846065" lon="2.375670">
        <ele>769.011</ele>
        <time>2016-06-07T21:03:08Z</time>
      </trkpt>
      <trkpt lat="41.846070" lon="2.375799">
        <ele>769.067</ele>
        <time>2016-06-07T21:03:15Z</time>
      </trkpt>
      <trkpt lat="41.846087" lon="2.375925">
        <ele>769.032</ele>
        <time>2016-06-07T21:03:23Z</time>
      </trkpt>
      <trkpt lat="41.846097" lon="2.376052">
        <ele>767.031</ele>
        <time>2016-06-07T21:03:29Z</time>
      </trkpt>
      <trkpt lat="41.846137" lon="2.376159">
        <ele>768.057</ele>
        <time>2016-06-07T21:03:36Z</time>
      </trkpt>
      <trkpt lat="41.846160" lon="2.376283">
        <ele>767.051</ele>
        <time>2016-06-07T21:03:43Z</time>
      </trkpt>
      <trkpt lat="41.846180" lon="2.376407">
        <ele>768.001</ele>
        <time>2016-06-07T21:03:49Z</time>
      </trkpt>
      <trkpt lat="41.846195" lon="2.376526">
        <ele>774.011</ele>
        <time>2016-06-07T21:03:57Z</time>
      </trkpt>
      <trkpt lat="41.846272" lon="2.376591">
        <ele>774.008</ele>
        <time>2016-06-07T21:04:08Z</time>
      </trkpt>
      <trkpt lat="41.846364" lon="2.376556">
        <ele>782.076</ele>
        <time>2016-06-07T21:04:24Z</time>
      </trkpt>
      <trkpt lat="41.846445" lon="2.376480">
        <ele>782.048</ele>
        <time>2016-06-07T21:04:31Z</time>
      </trkpt>
      <trkpt lat="41.846513" lon="2.376395">
        <ele>783.011</ele>
        <time>2016-06-07T21:04:37Z</time>
      </trkpt>
      <trkpt lat="41.846571" lon="2.376283">
        <ele>785.065</ele>
        <time>2016-06-07T21:05:44Z</time>
      </trkpt>
      <trkpt lat="41.846646" lon="2.376200">
        <ele>783.031</ele>
        <time>2016-06-07T21:05:49Z</time>
      </trkpt>
      <trkpt lat="41.846743" lon="2.376131">
        <ele>782.096</ele>
        <time>2016-06-07T21:05:56Z</time>
      </trkpt>
      <trkpt lat="41.846797" lon="2.376027">
        <ele>781.055</ele>
        <time>2016-06-07T21:06:02Z</time>
      </trkpt>
      <trkpt lat="41.846819" lon="2.375900">
        <ele>779.081</ele>
        <time>2016-06-07T21:06:09Z</time>
      </trkpt>
      <trkpt lat="41.846861" lon="2.375768">
        <ele>779.061</ele>
        <time>2016-06-07T21:06:17Z</time>
      </trkpt>
      <trkpt lat="41.846902" lon="2.375661">
        <ele>777.021</ele>
        <time>2016-06-07T21:06:22Z</time>
      </trkpt>
      <trkpt lat="41.846961" lon="2.375564">
        <ele>771.013</ele>
        <time>2016-06-07T21:06:29Z</time>
      </trkpt>
      <trkpt lat="41.847023" lon="2.375472">
        <ele>769.008</ele>
        <time>2016-06-07T21:06:35Z</time>
      </trkpt>
      <trkpt lat="41.847083" lon="2.375369">
        <ele>770.057</ele>
        <time>2016-06-07T21:06:42Z</time>
      </trkpt>
      <trkpt lat="41.847124" lon="2.375245">
        <ele>769.059</ele>
        <time>2016-06-07T21:06:49Z</time>
      </trkpt>
      <trkpt lat="41.847125" lon="2.375118">
        <ele>767.022</ele>
        <time>2016-06-07T21:06:56Z</time>
      </trkpt>
      <trkpt lat="41.847130" lon="2.374990">
        <ele>764.076</ele>
        <time>2016-06-07T21:07:03Z</time>
      </trkpt>
      <trkpt lat="41.847107" lon="2.374864">
        <ele>764.072</ele>
        <time>2016-06-07T21:07:09Z</time>
      </trkpt>
      <trkpt lat="41.847098" lon="2.374727">
        <ele>764.017</ele>
        <time>2016-06-07T21:07:16Z</time>
      </trkpt>
      <trkpt lat="41.847108" lon="2.374605">
        <ele>767.056</ele>
        <time>2016-06-07T21:07:36Z</time>
      </trkpt>
      <trkpt lat="41.847130" lon="2.374467">
        <ele>768.082</ele>
        <time>2016-06-07T21:07:47Z</time>
      </trkpt>
      <trkpt lat="41.847170" lon="2.374343">
        <ele>768.055</ele>
        <time>2016-06-07T21:07:54Z</time>
      </trkpt>
      <trkpt lat="41.847212" lon="2.374454">
        <ele>765.007</ele>
        <time>2016-06-07T21:08:11Z</time>
      </trkpt>
      <trkpt lat="41.847166" lon="2.374567">
        <ele>766.017</ele>
        <time>2016-06-07T21:08:19Z</time>
      </trkpt>
      <trkpt lat="41.847138" lon="2.374688">
        <ele>766.008</ele>
        <time>2016-06-07T21:08:26Z</time>
      </trkpt>
      <trkpt lat="41.847129" lon="2.374814">
        <ele>767.056</ele>
        <time>2016-06-07T21:08:34Z</time>
      </trkpt>
      <trkpt lat="41.847163" lon="2.374940">
        <ele>770.058</ele>
        <time>2016-06-07T21:08:44Z</time>
      </trkpt>
      <trkpt lat="41.847154" lon="2.375062">
        <ele>773.031</ele>
        <time>2016-06-07T21:08:52Z</time>
      </trkpt>
      <trkpt lat="41.847145" lon="2.375195">
        <ele>776.075</ele>
        <time>2016-06-07T21:09:01Z</time>
      </trkpt>
      <trkpt lat="41.847080" lon="2.375306">
        <ele>775.091</ele>
        <time>2016-06-07T21:09:07Z</time>
      </trkpt>
      <trkpt lat="41.847068" lon="2.375434">
        <ele>769.036</ele>
        <time>2016-06-07T21:09:12Z</time>
      </trkpt>
      <trkpt lat="41.847035" lon="2.375549">
        <ele>769.035</ele>
        <time>2016-06-07T21:09:19Z</time>
      </trkpt>
      <trkpt lat="41.846974" lon="2.375642">
        <ele>768.021</ele>
        <time>2016-06-07T21:09:26Z</time>
      </trkpt>
      <trkpt lat="41.846925" lon="2.375756">
        <ele>766.071</ele>
        <time>2016-06-07T21:09:33Z</time>
      </trkpt>
      <trkpt lat="41.846894" lon="2.375879">
        <ele>767.041</ele>
        <time>2016-06-07T21:09:40Z</time>
      </trkpt>
      <trkpt lat="41.846892" lon="2.376020">
        <ele>766.015</ele>
        <time>2016-06-07T21:09:47Z</time>
      </trkpt>
      <trkpt lat="41.846795" lon="2.376097">
        <ele>771.008</ele>
        <time>2016-06-07T21:09:56Z</time>
      </trkpt>
      <trkpt lat="41.846730" lon="2.376214">
        <ele>771.048</ele>
        <time>2016-06-07T21:10:03Z</time>
      </trkpt>
      <trkpt lat="41.846697" lon="2.376326">
        <ele>775.090</ele>
        <time>2016-06-07T21:10:11Z</time>
      </trkpt>
      <trkpt lat="41.846735" lon="2.376213">
        <ele>784.023</ele>
        <time>2016-06-07T21:10:25Z</time>
      </trkpt>
      <trkpt lat="41.846832" lon="2.376212">
        <ele>782.097</ele>
        <time>2016-06-07T21:10:32Z</time>
      </trkpt>
      <trkpt lat="41.846946" lon="2.376236">
        <ele>776.043</ele>
        <time>2016-06-07T21:10:38Z</time>
      </trkpt>
      <trkpt lat="41.847047" lon="2.376191">
        <ele>775.078</ele>
        <time>2016-06-07T21:10:46Z</time>
      </trkpt>
      <trkpt lat="41.847040" lon="2.376058">
        <ele>778.057</ele>
        <time>2016-06-07T21:10:58Z</time>
      </trkpt>
      <trkpt lat="41.847042" lon="2.375931">
        <ele>778.063</ele>
        <time>2016-06-07T21:11:05Z</time>
      </trkpt>
      <trkpt lat="41.847084" lon="2.375805">
        <ele>776.027</ele>
        <time>2016-06-07T21:11:12Z</time>
      </trkpt>
      <trkpt lat="41.847132" lon="2.375685">
        <ele>775.068</ele>
        <time>2016-06-07T21:11:19Z</time>
      </trkpt>
      <trkpt lat="41.847210" lon="2.375611">
        <ele>772.014</ele>
        <time>2016-06-07T21:11:25Z</time>
      </trkpt>
      <trkpt lat="41.847300" lon="2.375543">
        <ele>775.008</ele>
        <time>2016-06-07T21:11:32Z</time>
      </trkpt>
      <trkpt lat="41.847388" lon="2.375490">
        <ele>778.093</ele>
        <time>2016-06-07T21:11:40Z</time>
      </trkpt>
      <trkpt lat="41.847482" lon="2.375505">
        <ele>779.095</ele>
        <time>2016-06-07T21:11:46Z</time>
      </trkpt>
      <trkpt lat="41.847594" lon="2.375458">
        <ele>775.028</ele>
        <time>2016-06-07T21:11:53Z</time>
      </trkpt>
      <trkpt lat="41.847653" lon="2.375368">
        <ele>776.072</ele>
        <time>2016-06-07T21:11:58Z</time>
      </trkpt>
      <trkpt lat="41.847714" lon="2.375274">
        <ele>781.018</ele>
        <time>2016-06-07T21:12:31Z</time>
      </trkpt>
      <trkpt lat="41.847801" lon="2.375232">
        <ele>783.053</ele>
        <time>2016-06-07T21:12:39Z</time>
      </trkpt>
      <trkpt lat="41.847891" lon="2.375180">
        <ele>783.092</ele>
        <time>2016-06-07T21:12:45Z</time>
      </trkpt>
      <trkpt lat="41.847942" lon="2.375064">
        <ele>783.028</ele>
        <time>2016-06-07T21:12:53Z</time>
      </trkpt>
      <trkpt lat="41.847985" lon="2.374950">
        <ele>782.034</ele>
        <time>2016-06-07T21:13:00Z</time>
      </trkpt>
      <trkpt lat="41.848040" lon="2.374829">
        <ele>785.055</ele>
        <time>2016-06-07T21:13:08Z</time>
      </trkpt>
      <trkpt lat="41.848115" lon="2.374902">
        <ele>783.010</ele>
        <time>2016-06-07T21:13:18Z</time>
      </trkpt>
      <trkpt lat="41.848131" lon="2.375022">
        <ele>784.008</ele>
        <time>2016-06-07T21:13:27Z</time>
      </trkpt>
      <trkpt lat="41.848108" lon="2.375139">
        <ele>787.054</ele>
        <time>2016-06-07T21:13:34Z</time>
      </trkpt>
      <trkpt lat="41.848097" lon="2.375263">
        <ele>789.026</ele>
        <time>2016-06-07T21:13:41Z</time>
      </trkpt>
      <trkpt lat="41.848053" lon="2.375371">
        <ele>791.089</ele>
        <time>2016-06-07T21:13:50Z</time>
      </trkpt>
      <trkpt lat="41.848067" lon="2.375501">
        <ele>792.093</ele>
        <time>2016-06-07T21:14:09Z</time>
      </trkpt>
      <trkpt lat="41.848085" lon="2.375624">
        <ele>792.049</ele>
        <time>2016-06-07T21:14:16Z</time>
      </trkpt>
      <trkpt lat="41.848100" lon="2.375751">
        <ele>792.034</ele>
        <time>2016-06-07T21:14:23Z</time>
      </trkpt>
      <trkpt lat="41.848085" lon="2.375880">
        <ele>791.073</ele>
        <time>2016-06-07T21:14:30Z</time>
      </trkpt>
    </trkseg>
  </trk>
</gpx>
